<?xml version="1.0" encoding="UTF-8" standalone="no" ?>
<gpx xmlns="http://www.topografix.com/GPX/1/1" xmlns:xsi="http://www.w3.org/2001/XMLSchema-instance" xsi:schemaLocation="http://www.topografix.com/GPX/1/1 http://www.topografix.com/GPX/1/1/gpx.xsd" version="1.1" creator="VisuGPX - https://www.visugpx.com">
  <metadata>
    <name>samuscup2016</name>
    <desc><![CDATA[Garches 01 / Elan 45 PEP'S / First 34.7 / Dufour 410
21 au 27 mai
]]></desc>
  </metadata>
  <trk>
    <name><![CDATA[Tracé actuel: 24 MAI 2016 09:07]]></name>
    <trkseg>
      <trkpt lat="43.13513" lon="5.75528">
        <ele>5.91</ele>
        <time>2016-05-24T07:07:47Z</time>
      </trkpt>
      <trkpt lat="43.13513" lon="5.7553">
        <ele>4.46</ele>
        <time>2016-05-24T07:08:04Z</time>
      </trkpt>
    </trkseg>
  </trk>
  <trk>
    <name><![CDATA[Tracé actuel: 24 MAI 2016 15:42]]></name>
    <trkseg>
      <trkpt lat="43.13272" lon="5.76092">
        <ele>3.98</ele>
        <time>2016-05-24T13:42:45Z</time>
      </trkpt>
      <trkpt lat="43.13269" lon="5.76103">
        <ele>3.5</ele>
        <time>2016-05-24T13:42:49Z</time>
      </trkpt>
      <trkpt lat="43.13261" lon="5.7613">
        <ele>3.98</ele>
        <time>2016-05-24T13:42:58Z</time>
      </trkpt>
      <trkpt lat="43.13253" lon="5.76171">
        <ele>7.35</ele>
        <time>2016-05-24T13:43:11Z</time>
      </trkpt>
      <trkpt lat="43.13227" lon="5.76202">
        <ele>7.83</ele>
        <time>2016-05-24T13:43:26Z</time>
      </trkpt>
      <trkpt lat="43.13206" lon="5.76206">
        <ele>8.79</ele>
        <time>2016-05-24T13:43:38Z</time>
      </trkpt>
      <trkpt lat="43.13204" lon="5.762">
        <ele>9.75</ele>
        <time>2016-05-24T13:43:41Z</time>
      </trkpt>
      <trkpt lat="43.13202" lon="5.7618">
        <ele>10.23</ele>
        <time>2016-05-24T13:43:53Z</time>
      </trkpt>
      <trkpt lat="43.13207" lon="5.76167">
        <ele>3.02</ele>
        <time>2016-05-24T13:44:07Z</time>
      </trkpt>
      <trkpt lat="43.13205" lon="5.76159">
        <ele>3.5</ele>
        <time>2016-05-24T13:44:13Z</time>
      </trkpt>
      <trkpt lat="43.13205" lon="5.76156">
        <ele>3.5</ele>
        <time>2016-05-24T13:44:15Z</time>
      </trkpt>
      <trkpt lat="43.13205" lon="5.7615">
        <ele>3.02</ele>
        <time>2016-05-24T13:44:19Z</time>
      </trkpt>
      <trkpt lat="43.13205" lon="5.76137">
        <ele>2.06</ele>
        <time>2016-05-24T13:44:27Z</time>
      </trkpt>
      <trkpt lat="43.13207" lon="5.76109">
        <ele>2.54</ele>
        <time>2016-05-24T13:44:45Z</time>
      </trkpt>
      <trkpt lat="43.13207" lon="5.76107">
        <ele>2.54</ele>
        <time>2016-05-24T13:44:46Z</time>
      </trkpt>
      <trkpt lat="43.13207" lon="5.76101">
        <ele>2.54</ele>
        <time>2016-05-24T13:44:50Z</time>
      </trkpt>
      <trkpt lat="43.13207" lon="5.76089">
        <ele>1.58</ele>
        <time>2016-05-24T13:44:57Z</time>
      </trkpt>
      <trkpt lat="43.13205" lon="5.76067">
        <ele>1.1</ele>
        <time>2016-05-24T13:45:11Z</time>
      </trkpt>
      <trkpt lat="43.13201" lon="5.76044">
        <ele>-2.75</ele>
        <time>2016-05-24T13:45:24Z</time>
      </trkpt>
      <trkpt lat="43.13201" lon="5.76037">
        <ele>-3.23</ele>
        <time>2016-05-24T13:45:29Z</time>
      </trkpt>
      <trkpt lat="43.132" lon="5.76023">
        <ele>-4.67</ele>
        <time>2016-05-24T13:45:39Z</time>
      </trkpt>
      <trkpt lat="43.13198" lon="5.76005">
        <ele>-3.23</ele>
        <time>2016-05-24T13:45:52Z</time>
      </trkpt>
      <trkpt lat="43.13197" lon="5.76002">
        <ele>-3.23</ele>
        <time>2016-05-24T13:45:54Z</time>
      </trkpt>
      <trkpt lat="43.13192" lon="5.75979">
        <ele>-2.27</ele>
        <time>2016-05-24T13:46:10Z</time>
      </trkpt>
      <trkpt lat="43.13185" lon="5.75951">
        <ele>-1.3</ele>
        <time>2016-05-24T13:46:28Z</time>
      </trkpt>
      <trkpt lat="43.13182" lon="5.75935">
        <ele>-0.82</ele>
        <time>2016-05-24T13:46:38Z</time>
      </trkpt>
      <trkpt lat="43.13177" lon="5.7591">
        <ele>-0.82</ele>
        <time>2016-05-24T13:46:54Z</time>
      </trkpt>
      <trkpt lat="43.13174" lon="5.75888">
        <ele>-1.79</ele>
        <time>2016-05-24T13:47:06Z</time>
      </trkpt>
      <trkpt lat="43.13163" lon="5.75882">
        <ele>-1.3</ele>
        <time>2016-05-24T13:47:13Z</time>
      </trkpt>
      <trkpt lat="43.13123" lon="5.75896">
        <ele>-0.82</ele>
        <time>2016-05-24T13:47:28Z</time>
      </trkpt>
      <trkpt lat="43.13083" lon="5.75927">
        <ele>-0.34</ele>
        <time>2016-05-24T13:47:43Z</time>
      </trkpt>
      <trkpt lat="43.13048" lon="5.75968">
        <ele>0.14</ele>
        <time>2016-05-24T13:47:57Z</time>
      </trkpt>
      <trkpt lat="43.1302" lon="5.76009">
        <ele>-0.82</ele>
        <time>2016-05-24T13:48:10Z</time>
      </trkpt>
      <trkpt lat="43.13016" lon="5.76014">
        <ele>-1.3</ele>
        <time>2016-05-24T13:48:12Z</time>
      </trkpt>
      <trkpt lat="43.13002" lon="5.76">
        <ele>-1.3</ele>
        <time>2016-05-24T13:48:23Z</time>
      </trkpt>
      <trkpt lat="43.12995" lon="5.75988">
        <ele>-2.27</ele>
        <time>2016-05-24T13:48:37Z</time>
      </trkpt>
      <trkpt lat="43.12978" lon="5.75978">
        <ele>-1.3</ele>
        <time>2016-05-24T13:48:48Z</time>
      </trkpt>
      <trkpt lat="43.1295" lon="5.75949">
        <ele>0.14</ele>
        <time>2016-05-24T13:49:02Z</time>
      </trkpt>
      <trkpt lat="43.12927" lon="5.7593">
        <ele>1.1</ele>
        <time>2016-05-24T13:49:11Z</time>
      </trkpt>
      <trkpt lat="43.12904" lon="5.75907">
        <ele>0.62</ele>
        <time>2016-05-24T13:49:21Z</time>
      </trkpt>
      <trkpt lat="43.12882" lon="5.75883">
        <ele>-0.34</ele>
        <time>2016-05-24T13:49:34Z</time>
      </trkpt>
      <trkpt lat="43.12878" lon="5.75878">
        <ele>-0.34</ele>
        <time>2016-05-24T13:49:36Z</time>
      </trkpt>
      <trkpt lat="43.12866" lon="5.7587">
        <ele>-0.82</ele>
        <time>2016-05-24T13:49:41Z</time>
      </trkpt>
      <trkpt lat="43.12861" lon="5.7586">
        <ele>-1.3</ele>
        <time>2016-05-24T13:49:45Z</time>
      </trkpt>
      <trkpt lat="43.12835" lon="5.75841">
        <ele>-0.82</ele>
        <time>2016-05-24T13:49:57Z</time>
      </trkpt>
      <trkpt lat="43.12833" lon="5.75838">
        <ele>-0.82</ele>
        <time>2016-05-24T13:49:58Z</time>
      </trkpt>
      <trkpt lat="43.12828" lon="5.75825">
        <ele>-1.3</ele>
        <time>2016-05-24T13:50:03Z</time>
      </trkpt>
      <trkpt lat="43.12801" lon="5.75808">
        <ele>-2.27</ele>
        <time>2016-05-24T13:50:14Z</time>
      </trkpt>
      <trkpt lat="43.1277" lon="5.75782">
        <ele>-2.75</ele>
        <time>2016-05-24T13:50:25Z</time>
      </trkpt>
      <trkpt lat="43.12736" lon="5.75763">
        <ele>-1.3</ele>
        <time>2016-05-24T13:50:36Z</time>
      </trkpt>
      <trkpt lat="43.127" lon="5.75736">
        <ele>-0.82</ele>
        <time>2016-05-24T13:50:48Z</time>
      </trkpt>
      <trkpt lat="43.12668" lon="5.75709">
        <ele>-0.82</ele>
        <time>2016-05-24T13:51:00Z</time>
      </trkpt>
      <trkpt lat="43.12641" lon="5.75689">
        <ele>-1.3</ele>
        <time>2016-05-24T13:51:10Z</time>
      </trkpt>
      <trkpt lat="43.12619" lon="5.75665">
        <ele>-3.23</ele>
        <time>2016-05-24T13:51:20Z</time>
      </trkpt>
      <trkpt lat="43.12593" lon="5.75646">
        <ele>-2.27</ele>
        <time>2016-05-24T13:51:30Z</time>
      </trkpt>
      <trkpt lat="43.1256" lon="5.75619">
        <ele>-1.79</ele>
        <time>2016-05-24T13:51:43Z</time>
      </trkpt>
      <trkpt lat="43.12532" lon="5.75594">
        <ele>0.14</ele>
        <time>2016-05-24T13:51:54Z</time>
      </trkpt>
      <trkpt lat="43.12505" lon="5.75575">
        <ele>1.58</ele>
        <time>2016-05-24T13:52:04Z</time>
      </trkpt>
      <trkpt lat="43.12495" lon="5.75566">
        <ele>2.06</ele>
        <time>2016-05-24T13:52:08Z</time>
      </trkpt>
      <trkpt lat="43.12464" lon="5.75543">
        <ele>1.58</ele>
        <time>2016-05-24T13:52:20Z</time>
      </trkpt>
      <trkpt lat="43.12434" lon="5.75519">
        <ele>2.06</ele>
        <time>2016-05-24T13:52:31Z</time>
      </trkpt>
      <trkpt lat="43.12431" lon="5.75518">
        <ele>2.06</ele>
        <time>2016-05-24T13:52:32Z</time>
      </trkpt>
      <trkpt lat="43.12417" lon="5.75509">
        <ele>2.06</ele>
        <time>2016-05-24T13:52:37Z</time>
      </trkpt>
      <trkpt lat="43.12386" lon="5.75479">
        <ele>2.54</ele>
        <time>2016-05-24T13:52:50Z</time>
      </trkpt>
      <trkpt lat="43.1236" lon="5.75459">
        <ele>2.06</ele>
        <time>2016-05-24T13:53:00Z</time>
      </trkpt>
      <trkpt lat="43.12344" lon="5.75441">
        <ele>1.58</ele>
        <time>2016-05-24T13:53:07Z</time>
      </trkpt>
      <trkpt lat="43.12314" lon="5.75416">
        <ele>2.54</ele>
        <time>2016-05-24T13:53:19Z</time>
      </trkpt>
      <trkpt lat="43.12283" lon="5.7539">
        <ele>2.06</ele>
        <time>2016-05-24T13:53:31Z</time>
      </trkpt>
      <trkpt lat="43.12259" lon="5.75369">
        <ele>3.02</ele>
        <time>2016-05-24T13:53:41Z</time>
      </trkpt>
      <trkpt lat="43.12228" lon="5.75343">
        <ele>2.54</ele>
        <time>2016-05-24T13:53:53Z</time>
      </trkpt>
      <trkpt lat="43.12205" lon="5.7532">
        <ele>2.06</ele>
        <time>2016-05-24T13:54:03Z</time>
      </trkpt>
      <trkpt lat="43.12174" lon="5.75298">
        <ele>1.58</ele>
        <time>2016-05-24T13:54:14Z</time>
      </trkpt>
      <trkpt lat="43.12148" lon="5.75277">
        <ele>0.62</ele>
        <time>2016-05-24T13:54:24Z</time>
      </trkpt>
      <trkpt lat="43.12118" lon="5.75251">
        <ele>-0.34</ele>
        <time>2016-05-24T13:54:36Z</time>
      </trkpt>
      <trkpt lat="43.1209" lon="5.75232">
        <ele>-0.82</ele>
        <time>2016-05-24T13:54:46Z</time>
      </trkpt>
      <trkpt lat="43.12064" lon="5.7521">
        <ele>-0.34</ele>
        <time>2016-05-24T13:54:56Z</time>
      </trkpt>
      <trkpt lat="43.12039" lon="5.75187">
        <ele>-0.34</ele>
        <time>2016-05-24T13:55:06Z</time>
      </trkpt>
      <trkpt lat="43.12037" lon="5.75184">
        <ele>-0.34</ele>
        <time>2016-05-24T13:55:07Z</time>
      </trkpt>
      <trkpt lat="43.12006" lon="5.75156">
        <ele>-0.34</ele>
        <time>2016-05-24T13:55:19Z</time>
      </trkpt>
      <trkpt lat="43.12" lon="5.75148">
        <ele>0.14</ele>
        <time>2016-05-24T13:55:22Z</time>
      </trkpt>
      <trkpt lat="43.11981" lon="5.75134">
        <ele>1.58</ele>
        <time>2016-05-24T13:55:30Z</time>
      </trkpt>
      <trkpt lat="43.11955" lon="5.75113">
        <ele>1.1</ele>
        <time>2016-05-24T13:55:41Z</time>
      </trkpt>
      <trkpt lat="43.1193" lon="5.75094">
        <ele>2.54</ele>
        <time>2016-05-24T13:55:51Z</time>
      </trkpt>
      <trkpt lat="43.11915" lon="5.75084">
        <ele>3.5</ele>
        <time>2016-05-24T13:55:57Z</time>
      </trkpt>
      <trkpt lat="43.11906" lon="5.75077">
        <ele>4.94</ele>
        <time>2016-05-24T13:56:01Z</time>
      </trkpt>
      <trkpt lat="43.11872" lon="5.75047">
        <ele>7.35</ele>
        <time>2016-05-24T13:56:15Z</time>
      </trkpt>
      <trkpt lat="43.11844" lon="5.75024">
        <ele>7.35</ele>
        <time>2016-05-24T13:56:26Z</time>
      </trkpt>
      <trkpt lat="43.11808" lon="5.75002">
        <ele>7.35</ele>
        <time>2016-05-24T13:56:38Z</time>
      </trkpt>
      <trkpt lat="43.1177" lon="5.74985">
        <ele>3.98</ele>
        <time>2016-05-24T13:56:50Z</time>
      </trkpt>
      <trkpt lat="43.11732" lon="5.7497">
        <ele>3.02</ele>
        <time>2016-05-24T13:57:02Z</time>
      </trkpt>
      <trkpt lat="43.11701" lon="5.74957">
        <ele>3.98</ele>
        <time>2016-05-24T13:57:12Z</time>
      </trkpt>
      <trkpt lat="43.11662" lon="5.74943">
        <ele>5.91</ele>
        <time>2016-05-24T13:57:24Z</time>
      </trkpt>
      <trkpt lat="43.11623" lon="5.74933">
        <ele>7.35</ele>
        <time>2016-05-24T13:57:35Z</time>
      </trkpt>
      <trkpt lat="43.11589" lon="5.74924">
        <ele>6.87</ele>
        <time>2016-05-24T13:57:45Z</time>
      </trkpt>
      <trkpt lat="43.11556" lon="5.74916">
        <ele>6.87</ele>
        <time>2016-05-24T13:57:55Z</time>
      </trkpt>
      <trkpt lat="43.11515" lon="5.74906">
        <ele>6.39</ele>
        <time>2016-05-24T13:58:07Z</time>
      </trkpt>
      <trkpt lat="43.11502" lon="5.74904">
        <ele>4.46</ele>
        <time>2016-05-24T13:58:11Z</time>
      </trkpt>
      <trkpt lat="43.11467" lon="5.749">
        <ele>3.02</ele>
        <time>2016-05-24T13:58:21Z</time>
      </trkpt>
      <trkpt lat="43.1143" lon="5.74892">
        <ele>2.06</ele>
        <time>2016-05-24T13:58:32Z</time>
      </trkpt>
      <trkpt lat="43.11398" lon="5.74885">
        <ele>2.06</ele>
        <time>2016-05-24T13:58:41Z</time>
      </trkpt>
      <trkpt lat="43.11371" lon="5.74879">
        <ele>1.58</ele>
        <time>2016-05-24T13:58:49Z</time>
      </trkpt>
      <trkpt lat="43.11331" lon="5.74874">
        <ele>0.62</ele>
        <time>2016-05-24T13:59:00Z</time>
      </trkpt>
      <trkpt lat="43.11309" lon="5.74867">
        <ele>0.62</ele>
        <time>2016-05-24T13:59:07Z</time>
      </trkpt>
      <trkpt lat="43.11266" lon="5.74862">
        <ele>2.06</ele>
        <time>2016-05-24T13:59:19Z</time>
      </trkpt>
      <trkpt lat="43.11248" lon="5.74858">
        <ele>2.54</ele>
        <time>2016-05-24T13:59:24Z</time>
      </trkpt>
      <trkpt lat="43.11227" lon="5.74855">
        <ele>2.54</ele>
        <time>2016-05-24T13:59:30Z</time>
      </trkpt>
      <trkpt lat="43.11191" lon="5.74852">
        <ele>2.54</ele>
        <time>2016-05-24T13:59:40Z</time>
      </trkpt>
      <trkpt lat="43.11151" lon="5.7485">
        <ele>3.98</ele>
        <time>2016-05-24T13:59:51Z</time>
      </trkpt>
      <trkpt lat="43.11147" lon="5.74851">
        <ele>3.98</ele>
        <time>2016-05-24T13:59:52Z</time>
      </trkpt>
      <trkpt lat="43.1112" lon="5.74852">
        <ele>2.54</ele>
        <time>2016-05-24T13:59:59Z</time>
      </trkpt>
      <trkpt lat="43.11068" lon="5.74865">
        <ele>1.58</ele>
        <time>2016-05-24T14:00:13Z</time>
      </trkpt>
      <trkpt lat="43.11053" lon="5.74869">
        <ele>1.58</ele>
        <time>2016-05-24T14:00:17Z</time>
      </trkpt>
      <trkpt lat="43.11038" lon="5.7487">
        <ele>0.14</ele>
        <time>2016-05-24T14:00:21Z</time>
      </trkpt>
      <trkpt lat="43.10996" lon="5.74873">
        <ele>0.14</ele>
        <time>2016-05-24T14:00:33Z</time>
      </trkpt>
      <trkpt lat="43.10976" lon="5.74882">
        <ele>-0.34</ele>
        <time>2016-05-24T14:00:39Z</time>
      </trkpt>
      <trkpt lat="43.10924" lon="5.74909">
        <ele>0.14</ele>
        <time>2016-05-24T14:00:53Z</time>
      </trkpt>
      <trkpt lat="43.10917" lon="5.74912">
        <ele>0.62</ele>
        <time>2016-05-24T14:00:55Z</time>
      </trkpt>
      <trkpt lat="43.10882" lon="5.74935">
        <ele>0.14</ele>
        <time>2016-05-24T14:01:05Z</time>
      </trkpt>
      <trkpt lat="43.10879" lon="5.74937">
        <ele>0.62</ele>
        <time>2016-05-24T14:01:06Z</time>
      </trkpt>
      <trkpt lat="43.10851" lon="5.74951">
        <ele>1.58</ele>
        <time>2016-05-24T14:01:14Z</time>
      </trkpt>
      <trkpt lat="43.10816" lon="5.74983">
        <ele>1.58</ele>
        <time>2016-05-24T14:01:25Z</time>
      </trkpt>
      <trkpt lat="43.10784" lon="5.75004">
        <ele>-0.34</ele>
        <time>2016-05-24T14:01:34Z</time>
      </trkpt>
      <trkpt lat="43.10766" lon="5.75015">
        <ele>-0.82</ele>
        <time>2016-05-24T14:01:39Z</time>
      </trkpt>
      <trkpt lat="43.10734" lon="5.75031">
        <ele>-1.3</ele>
        <time>2016-05-24T14:01:48Z</time>
      </trkpt>
      <trkpt lat="43.10719" lon="5.75042">
        <ele>-1.3</ele>
        <time>2016-05-24T14:01:52Z</time>
      </trkpt>
      <trkpt lat="43.10695" lon="5.75053">
        <ele>-0.82</ele>
        <time>2016-05-24T14:01:59Z</time>
      </trkpt>
      <trkpt lat="43.10667" lon="5.75068">
        <ele>1.1</ele>
        <time>2016-05-24T14:02:07Z</time>
      </trkpt>
      <trkpt lat="43.10664" lon="5.75071">
        <ele>1.58</ele>
        <time>2016-05-24T14:02:08Z</time>
      </trkpt>
      <trkpt lat="43.10643" lon="5.75081">
        <ele>2.54</ele>
        <time>2016-05-24T14:02:14Z</time>
      </trkpt>
      <trkpt lat="43.10611" lon="5.75107">
        <ele>3.5</ele>
        <time>2016-05-24T14:02:24Z</time>
      </trkpt>
      <trkpt lat="43.10593" lon="5.75118">
        <ele>3.98</ele>
        <time>2016-05-24T14:02:29Z</time>
      </trkpt>
      <trkpt lat="43.10584" lon="5.75127">
        <ele>4.46</ele>
        <time>2016-05-24T14:02:32Z</time>
      </trkpt>
      <trkpt lat="43.10544" lon="5.75157">
        <ele>3.5</ele>
        <time>2016-05-24T14:02:44Z</time>
      </trkpt>
      <trkpt lat="43.10529" lon="5.75167">
        <ele>3.02</ele>
        <time>2016-05-24T14:02:48Z</time>
      </trkpt>
      <trkpt lat="43.10497" lon="5.75189">
        <ele>1.58</ele>
        <time>2016-05-24T14:02:58Z</time>
      </trkpt>
      <trkpt lat="43.10494" lon="5.75191">
        <ele>1.58</ele>
        <time>2016-05-24T14:02:59Z</time>
      </trkpt>
      <trkpt lat="43.10478" lon="5.75197">
        <ele>2.06</ele>
        <time>2016-05-24T14:03:03Z</time>
      </trkpt>
      <trkpt lat="43.10461" lon="5.75209">
        <ele>2.06</ele>
        <time>2016-05-24T14:03:08Z</time>
      </trkpt>
      <trkpt lat="43.10448" lon="5.75216">
        <ele>2.06</ele>
        <time>2016-05-24T14:03:11Z</time>
      </trkpt>
      <trkpt lat="43.10441" lon="5.75222">
        <ele>2.06</ele>
        <time>2016-05-24T14:03:13Z</time>
      </trkpt>
      <trkpt lat="43.10408" lon="5.75242">
        <ele>2.06</ele>
        <time>2016-05-24T14:03:23Z</time>
      </trkpt>
      <trkpt lat="43.10404" lon="5.75244">
        <ele>2.54</ele>
        <time>2016-05-24T14:03:24Z</time>
      </trkpt>
      <trkpt lat="43.10365" lon="5.75271">
        <ele>2.54</ele>
        <time>2016-05-24T14:03:36Z</time>
      </trkpt>
      <trkpt lat="43.10331" lon="5.75299">
        <ele>1.1</ele>
        <time>2016-05-24T14:03:47Z</time>
      </trkpt>
      <trkpt lat="43.103" lon="5.75318">
        <ele>0.14</ele>
        <time>2016-05-24T14:03:56Z</time>
      </trkpt>
      <trkpt lat="43.10266" lon="5.75341">
        <ele>-0.34</ele>
        <time>2016-05-24T14:04:06Z</time>
      </trkpt>
      <trkpt lat="43.10251" lon="5.75349">
        <ele>-1.3</ele>
        <time>2016-05-24T14:04:10Z</time>
      </trkpt>
      <trkpt lat="43.10228" lon="5.75365">
        <ele>-0.82</ele>
        <time>2016-05-24T14:04:17Z</time>
      </trkpt>
      <trkpt lat="43.10213" lon="5.75368">
        <ele>0.14</ele>
        <time>2016-05-24T14:04:21Z</time>
      </trkpt>
      <trkpt lat="43.10177" lon="5.75391">
        <ele>1.58</ele>
        <time>2016-05-24T14:04:31Z</time>
      </trkpt>
      <trkpt lat="43.10166" lon="5.75398">
        <ele>1.58</ele>
        <time>2016-05-24T14:04:34Z</time>
      </trkpt>
      <trkpt lat="43.10143" lon="5.75416">
        <ele>1.1</ele>
        <time>2016-05-24T14:04:41Z</time>
      </trkpt>
      <trkpt lat="43.10116" lon="5.75426">
        <ele>0.62</ele>
        <time>2016-05-24T14:04:49Z</time>
      </trkpt>
      <trkpt lat="43.10109" lon="5.75421">
        <ele>0.14</ele>
        <time>2016-05-24T14:04:52Z</time>
      </trkpt>
      <trkpt lat="43.10075" lon="5.7543">
        <ele>-0.82</ele>
        <time>2016-05-24T14:05:03Z</time>
      </trkpt>
      <trkpt lat="43.10058" lon="5.75435">
        <ele>-1.79</ele>
        <time>2016-05-24T14:05:08Z</time>
      </trkpt>
      <trkpt lat="43.10024" lon="5.75453">
        <ele>-1.3</ele>
        <time>2016-05-24T14:05:18Z</time>
      </trkpt>
      <trkpt lat="43.09977" lon="5.75473">
        <ele>-0.34</ele>
        <time>2016-05-24T14:05:31Z</time>
      </trkpt>
      <trkpt lat="43.0997" lon="5.75475">
        <ele>-0.34</ele>
        <time>2016-05-24T14:05:33Z</time>
      </trkpt>
      <trkpt lat="43.09935" lon="5.755">
        <ele>2.54</ele>
        <time>2016-05-24T14:05:43Z</time>
      </trkpt>
      <trkpt lat="43.09932" lon="5.75502">
        <ele>3.02</ele>
        <time>2016-05-24T14:05:44Z</time>
      </trkpt>
      <trkpt lat="43.09901" lon="5.75524">
        <ele>4.46</ele>
        <time>2016-05-24T14:05:53Z</time>
      </trkpt>
      <trkpt lat="43.09878" lon="5.75552">
        <ele>5.42</ele>
        <time>2016-05-24T14:06:01Z</time>
      </trkpt>
      <trkpt lat="43.09859" lon="5.75572">
        <ele>5.42</ele>
        <time>2016-05-24T14:06:07Z</time>
      </trkpt>
      <trkpt lat="43.09851" lon="5.75585">
        <ele>5.91</ele>
        <time>2016-05-24T14:06:10Z</time>
      </trkpt>
      <trkpt lat="43.09839" lon="5.75603">
        <ele>5.42</ele>
        <time>2016-05-24T14:06:15Z</time>
      </trkpt>
      <trkpt lat="43.09819" lon="5.75638">
        <ele>4.94</ele>
        <time>2016-05-24T14:06:24Z</time>
      </trkpt>
      <trkpt lat="43.09794" lon="5.75669">
        <ele>2.54</ele>
        <time>2016-05-24T14:06:33Z</time>
      </trkpt>
      <trkpt lat="43.09757" lon="5.75705">
        <ele>1.58</ele>
        <time>2016-05-24T14:06:45Z</time>
      </trkpt>
      <trkpt lat="43.09736" lon="5.75726">
        <ele>1.1</ele>
        <time>2016-05-24T14:06:51Z</time>
      </trkpt>
      <trkpt lat="43.09711" lon="5.75755">
        <ele>-0.34</ele>
        <time>2016-05-24T14:06:59Z</time>
      </trkpt>
      <trkpt lat="43.09682" lon="5.75791">
        <ele>-1.79</ele>
        <time>2016-05-24T14:07:09Z</time>
      </trkpt>
      <trkpt lat="43.09662" lon="5.75799">
        <ele>-1.3</ele>
        <time>2016-05-24T14:07:15Z</time>
      </trkpt>
      <trkpt lat="43.09631" lon="5.7584">
        <ele>0.14</ele>
        <time>2016-05-24T14:07:26Z</time>
      </trkpt>
      <trkpt lat="43.09624" lon="5.7585">
        <ele>0.14</ele>
        <time>2016-05-24T14:07:29Z</time>
      </trkpt>
      <trkpt lat="43.09611" lon="5.75866">
        <ele>0.14</ele>
        <time>2016-05-24T14:07:33Z</time>
      </trkpt>
      <trkpt lat="43.09589" lon="5.759">
        <ele>-0.34</ele>
        <time>2016-05-24T14:07:41Z</time>
      </trkpt>
      <trkpt lat="43.09569" lon="5.75928">
        <ele>0.14</ele>
        <time>2016-05-24T14:07:48Z</time>
      </trkpt>
      <trkpt lat="43.09556" lon="5.75951">
        <ele>1.1</ele>
        <time>2016-05-24T14:07:53Z</time>
      </trkpt>
      <trkpt lat="43.09541" lon="5.75982">
        <ele>1.1</ele>
        <time>2016-05-24T14:08:00Z</time>
      </trkpt>
      <trkpt lat="43.09516" lon="5.76019">
        <ele>0.62</ele>
        <time>2016-05-24T14:08:10Z</time>
      </trkpt>
      <trkpt lat="43.09512" lon="5.7602">
        <ele>1.1</ele>
        <time>2016-05-24T14:08:11Z</time>
      </trkpt>
      <trkpt lat="43.09505" lon="5.76025">
        <ele>1.1</ele>
        <time>2016-05-24T14:08:13Z</time>
      </trkpt>
      <trkpt lat="43.09488" lon="5.76025">
        <ele>0.62</ele>
        <time>2016-05-24T14:08:18Z</time>
      </trkpt>
      <trkpt lat="43.09452" lon="5.76026">
        <ele>0.14</ele>
        <time>2016-05-24T14:08:28Z</time>
      </trkpt>
      <trkpt lat="43.09439" lon="5.76022">
        <ele>-0.34</ele>
        <time>2016-05-24T14:08:32Z</time>
      </trkpt>
      <trkpt lat="43.09413" lon="5.76016">
        <ele>0.14</ele>
        <time>2016-05-24T14:08:40Z</time>
      </trkpt>
      <trkpt lat="43.09399" lon="5.76006">
        <ele>-0.34</ele>
        <time>2016-05-24T14:08:45Z</time>
      </trkpt>
      <trkpt lat="43.09368" lon="5.75989">
        <ele>0.14</ele>
        <time>2016-05-24T14:08:55Z</time>
      </trkpt>
      <trkpt lat="43.09345" lon="5.75975">
        <ele>0.14</ele>
        <time>2016-05-24T14:09:03Z</time>
      </trkpt>
      <trkpt lat="43.09332" lon="5.75969">
        <ele>0.14</ele>
        <time>2016-05-24T14:09:07Z</time>
      </trkpt>
      <trkpt lat="43.09299" lon="5.75953">
        <ele>1.1</ele>
        <time>2016-05-24T14:09:18Z</time>
      </trkpt>
      <trkpt lat="43.09293" lon="5.75949">
        <ele>1.1</ele>
        <time>2016-05-24T14:09:20Z</time>
      </trkpt>
      <trkpt lat="43.09274" lon="5.75939">
        <ele>1.1</ele>
        <time>2016-05-24T14:09:26Z</time>
      </trkpt>
      <trkpt lat="43.09237" lon="5.75926">
        <ele>-2.27</ele>
        <time>2016-05-24T14:09:37Z</time>
      </trkpt>
      <trkpt lat="43.09209" lon="5.75912">
        <ele>-1.3</ele>
        <time>2016-05-24T14:09:47Z</time>
      </trkpt>
      <trkpt lat="43.0921" lon="5.75899">
        <ele>-2.27</ele>
        <time>2016-05-24T14:09:53Z</time>
      </trkpt>
      <trkpt lat="43.09215" lon="5.75894">
        <ele>-1.79</ele>
        <time>2016-05-24T14:09:56Z</time>
      </trkpt>
      <trkpt lat="43.09231" lon="5.75885">
        <ele>-0.82</ele>
        <time>2016-05-24T14:10:02Z</time>
      </trkpt>
      <trkpt lat="43.09253" lon="5.7588">
        <ele>-0.82</ele>
        <time>2016-05-24T14:10:08Z</time>
      </trkpt>
      <trkpt lat="43.09292" lon="5.75879">
        <ele>-1.79</ele>
        <time>2016-05-24T14:10:19Z</time>
      </trkpt>
      <trkpt lat="43.09315" lon="5.75871">
        <ele>-1.79</ele>
        <time>2016-05-24T14:10:26Z</time>
      </trkpt>
      <trkpt lat="43.09336" lon="5.75857">
        <ele>-3.71</ele>
        <time>2016-05-24T14:10:34Z</time>
      </trkpt>
      <trkpt lat="43.09347" lon="5.75853">
        <ele>-3.23</ele>
        <time>2016-05-24T14:10:38Z</time>
      </trkpt>
      <trkpt lat="43.09385" lon="5.75844">
        <ele>-2.75</ele>
        <time>2016-05-24T14:10:50Z</time>
      </trkpt>
      <trkpt lat="43.09394" lon="5.75835">
        <ele>-2.75</ele>
        <time>2016-05-24T14:10:54Z</time>
      </trkpt>
      <trkpt lat="43.09416" lon="5.75831">
        <ele>-0.82</ele>
        <time>2016-05-24T14:11:01Z</time>
      </trkpt>
      <trkpt lat="43.09454" lon="5.75827">
        <ele>-0.82</ele>
        <time>2016-05-24T14:11:12Z</time>
      </trkpt>
      <trkpt lat="43.09492" lon="5.75821">
        <ele>-0.34</ele>
        <time>2016-05-24T14:11:23Z</time>
      </trkpt>
      <trkpt lat="43.09505" lon="5.75821">
        <ele>0.14</ele>
        <time>2016-05-24T14:11:27Z</time>
      </trkpt>
      <trkpt lat="43.09534" lon="5.75819">
        <ele>0.62</ele>
        <time>2016-05-24T14:11:35Z</time>
      </trkpt>
      <trkpt lat="43.09561" lon="5.75811">
        <ele>0.62</ele>
        <time>2016-05-24T14:11:43Z</time>
      </trkpt>
      <trkpt lat="43.09592" lon="5.75808">
        <ele>1.1</ele>
        <time>2016-05-24T14:11:52Z</time>
      </trkpt>
      <trkpt lat="43.09598" lon="5.75806">
        <ele>1.1</ele>
        <time>2016-05-24T14:11:54Z</time>
      </trkpt>
      <trkpt lat="43.09618" lon="5.75806">
        <ele>1.1</ele>
        <time>2016-05-24T14:12:00Z</time>
      </trkpt>
      <trkpt lat="43.09651" lon="5.75805">
        <ele>0.14</ele>
        <time>2016-05-24T14:12:09Z</time>
      </trkpt>
      <trkpt lat="43.09695" lon="5.75802">
        <ele>-0.34</ele>
        <time>2016-05-24T14:12:21Z</time>
      </trkpt>
      <trkpt lat="43.09727" lon="5.75801">
        <ele>-0.34</ele>
        <time>2016-05-24T14:12:30Z</time>
      </trkpt>
      <trkpt lat="43.09772" lon="5.75803">
        <ele>-0.82</ele>
        <time>2016-05-24T14:12:42Z</time>
      </trkpt>
      <trkpt lat="43.09776" lon="5.75803">
        <ele>-0.34</ele>
        <time>2016-05-24T14:12:43Z</time>
      </trkpt>
      <trkpt lat="43.0982" lon="5.75805">
        <ele>0.62</ele>
        <time>2016-05-24T14:12:55Z</time>
      </trkpt>
      <trkpt lat="43.0983" lon="5.75808">
        <ele>0.62</ele>
        <time>2016-05-24T14:12:58Z</time>
      </trkpt>
      <trkpt lat="43.09849" lon="5.75816">
        <ele>0.14</ele>
        <time>2016-05-24T14:13:03Z</time>
      </trkpt>
      <trkpt lat="43.09862" lon="5.75818">
        <ele>0.14</ele>
        <time>2016-05-24T14:13:07Z</time>
      </trkpt>
      <trkpt lat="43.09873" lon="5.75816">
        <ele>-0.34</ele>
        <time>2016-05-24T14:13:10Z</time>
      </trkpt>
      <trkpt lat="43.09897" lon="5.75813">
        <ele>0.14</ele>
        <time>2016-05-24T14:13:16Z</time>
      </trkpt>
      <trkpt lat="43.09903" lon="5.7581">
        <ele>0.14</ele>
        <time>2016-05-24T14:13:18Z</time>
      </trkpt>
      <trkpt lat="43.09927" lon="5.75812">
        <ele>-0.82</ele>
        <time>2016-05-24T14:13:25Z</time>
      </trkpt>
      <trkpt lat="43.09967" lon="5.75821">
        <ele>-2.75</ele>
        <time>2016-05-24T14:13:36Z</time>
      </trkpt>
      <trkpt lat="43.10003" lon="5.75816">
        <ele>-3.23</ele>
        <time>2016-05-24T14:13:46Z</time>
      </trkpt>
      <trkpt lat="43.10035" lon="5.75814">
        <ele>-3.71</ele>
        <time>2016-05-24T14:13:55Z</time>
      </trkpt>
      <trkpt lat="43.10058" lon="5.75809">
        <ele>-3.71</ele>
        <time>2016-05-24T14:14:02Z</time>
      </trkpt>
      <trkpt lat="43.10085" lon="5.75805">
        <ele>-3.23</ele>
        <time>2016-05-24T14:14:10Z</time>
      </trkpt>
      <trkpt lat="43.10089" lon="5.75804">
        <ele>-3.23</ele>
        <time>2016-05-24T14:14:11Z</time>
      </trkpt>
      <trkpt lat="43.101" lon="5.75797">
        <ele>-3.23</ele>
        <time>2016-05-24T14:14:15Z</time>
      </trkpt>
      <trkpt lat="43.10145" lon="5.75795">
        <ele>-2.75</ele>
        <time>2016-05-24T14:14:28Z</time>
      </trkpt>
      <trkpt lat="43.10153" lon="5.75796">
        <ele>-2.27</ele>
        <time>2016-05-24T14:14:30Z</time>
      </trkpt>
      <trkpt lat="43.10166" lon="5.75792">
        <ele>-1.79</ele>
        <time>2016-05-24T14:14:34Z</time>
      </trkpt>
      <trkpt lat="43.10183" lon="5.75787">
        <ele>-1.79</ele>
        <time>2016-05-24T14:14:39Z</time>
      </trkpt>
      <trkpt lat="43.10222" lon="5.75787">
        <ele>-0.82</ele>
        <time>2016-05-24T14:14:50Z</time>
      </trkpt>
      <trkpt lat="43.1025" lon="5.75783">
        <ele>-0.34</ele>
        <time>2016-05-24T14:14:58Z</time>
      </trkpt>
      <trkpt lat="43.10288" lon="5.75782">
        <ele>-0.82</ele>
        <time>2016-05-24T14:15:08Z</time>
      </trkpt>
      <trkpt lat="43.10332" lon="5.75783">
        <ele>-2.27</ele>
        <time>2016-05-24T14:15:20Z</time>
      </trkpt>
      <trkpt lat="43.10339" lon="5.75784">
        <ele>-2.27</ele>
        <time>2016-05-24T14:15:22Z</time>
      </trkpt>
      <trkpt lat="43.10384" lon="5.75783">
        <ele>-0.82</ele>
        <time>2016-05-24T14:15:34Z</time>
      </trkpt>
      <trkpt lat="43.10417" lon="5.75777">
        <ele>0.62</ele>
        <time>2016-05-24T14:15:44Z</time>
      </trkpt>
      <trkpt lat="43.10453" lon="5.75766">
        <ele>1.1</ele>
        <time>2016-05-24T14:15:55Z</time>
      </trkpt>
      <trkpt lat="43.10468" lon="5.75764">
        <ele>1.1</ele>
        <time>2016-05-24T14:15:59Z</time>
      </trkpt>
      <trkpt lat="43.10505" lon="5.75765">
        <ele>1.1</ele>
        <time>2016-05-24T14:16:09Z</time>
      </trkpt>
      <trkpt lat="43.10513" lon="5.75766">
        <ele>2.06</ele>
        <time>2016-05-24T14:16:11Z</time>
      </trkpt>
      <trkpt lat="43.1052" lon="5.75765">
        <ele>1.58</ele>
        <time>2016-05-24T14:16:13Z</time>
      </trkpt>
      <trkpt lat="43.1056" lon="5.75764">
        <ele>2.06</ele>
        <time>2016-05-24T14:16:24Z</time>
      </trkpt>
      <trkpt lat="43.10596" lon="5.75766">
        <ele>1.58</ele>
        <time>2016-05-24T14:16:34Z</time>
      </trkpt>
      <trkpt lat="43.10624" lon="5.75768">
        <ele>1.58</ele>
        <time>2016-05-24T14:16:42Z</time>
      </trkpt>
      <trkpt lat="43.10628" lon="5.7577">
        <ele>2.06</ele>
        <time>2016-05-24T14:16:43Z</time>
      </trkpt>
      <trkpt lat="43.10658" lon="5.75772">
        <ele>1.1</ele>
        <time>2016-05-24T14:16:51Z</time>
      </trkpt>
      <trkpt lat="43.1069" lon="5.7577">
        <ele>1.58</ele>
        <time>2016-05-24T14:17:00Z</time>
      </trkpt>
      <trkpt lat="43.10705" lon="5.7577">
        <ele>1.58</ele>
        <time>2016-05-24T14:17:04Z</time>
      </trkpt>
      <trkpt lat="43.10749" lon="5.75767">
        <ele>0.62</ele>
        <time>2016-05-24T14:17:16Z</time>
      </trkpt>
      <trkpt lat="43.10777" lon="5.75763">
        <ele>0.14</ele>
        <time>2016-05-24T14:17:25Z</time>
      </trkpt>
      <trkpt lat="43.1079" lon="5.75767">
        <ele>0.62</ele>
        <time>2016-05-24T14:17:29Z</time>
      </trkpt>
      <trkpt lat="43.1082" lon="5.7577">
        <ele>1.1</ele>
        <time>2016-05-24T14:17:37Z</time>
      </trkpt>
      <trkpt lat="43.10859" lon="5.75775">
        <ele>1.58</ele>
        <time>2016-05-24T14:17:48Z</time>
      </trkpt>
      <trkpt lat="43.10898" lon="5.7577">
        <ele>3.5</ele>
        <time>2016-05-24T14:17:59Z</time>
      </trkpt>
      <trkpt lat="43.10928" lon="5.75771">
        <ele>3.02</ele>
        <time>2016-05-24T14:18:07Z</time>
      </trkpt>
      <trkpt lat="43.10964" lon="5.7577">
        <ele>2.06</ele>
        <time>2016-05-24T14:18:17Z</time>
      </trkpt>
      <trkpt lat="43.10976" lon="5.7577">
        <ele>1.58</ele>
        <time>2016-05-24T14:18:20Z</time>
      </trkpt>
      <trkpt lat="43.1099" lon="5.75768">
        <ele>1.58</ele>
        <time>2016-05-24T14:18:24Z</time>
      </trkpt>
      <trkpt lat="43.11019" lon="5.75767">
        <ele>1.58</ele>
        <time>2016-05-24T14:18:32Z</time>
      </trkpt>
      <trkpt lat="43.11052" lon="5.75767">
        <ele>1.58</ele>
        <time>2016-05-24T14:18:41Z</time>
      </trkpt>
      <trkpt lat="43.11072" lon="5.75769">
        <ele>0.62</ele>
        <time>2016-05-24T14:18:46Z</time>
      </trkpt>
      <trkpt lat="43.11079" lon="5.75769">
        <ele>-0.34</ele>
        <time>2016-05-24T14:18:48Z</time>
      </trkpt>
      <trkpt lat="43.11113" lon="5.75771">
        <ele>-2.27</ele>
        <time>2016-05-24T14:18:57Z</time>
      </trkpt>
      <trkpt lat="43.11138" lon="5.75769">
        <ele>-3.71</ele>
        <time>2016-05-24T14:19:04Z</time>
      </trkpt>
      <trkpt lat="43.11155" lon="5.75764">
        <ele>-4.19</ele>
        <time>2016-05-24T14:19:09Z</time>
      </trkpt>
      <trkpt lat="43.11167" lon="5.75763">
        <ele>-3.71</ele>
        <time>2016-05-24T14:19:12Z</time>
      </trkpt>
      <trkpt lat="43.11187" lon="5.75762">
        <ele>-2.27</ele>
        <time>2016-05-24T14:19:18Z</time>
      </trkpt>
      <trkpt lat="43.11197" lon="5.75757">
        <ele>-1.79</ele>
        <time>2016-05-24T14:19:21Z</time>
      </trkpt>
      <trkpt lat="43.11231" lon="5.75753">
        <ele>-2.27</ele>
        <time>2016-05-24T14:19:31Z</time>
      </trkpt>
      <trkpt lat="43.11266" lon="5.75752">
        <ele>-1.79</ele>
        <time>2016-05-24T14:19:41Z</time>
      </trkpt>
      <trkpt lat="43.11302" lon="5.75755">
        <ele>-2.27</ele>
        <time>2016-05-24T14:19:51Z</time>
      </trkpt>
      <trkpt lat="43.11324" lon="5.75753">
        <ele>-2.27</ele>
        <time>2016-05-24T14:19:57Z</time>
      </trkpt>
      <trkpt lat="43.11341" lon="5.75755">
        <ele>-2.75</ele>
        <time>2016-05-24T14:20:02Z</time>
      </trkpt>
      <trkpt lat="43.11349" lon="5.75757">
        <ele>-2.27</ele>
        <time>2016-05-24T14:20:04Z</time>
      </trkpt>
      <trkpt lat="43.11383" lon="5.75757">
        <ele>-2.75</ele>
        <time>2016-05-24T14:20:13Z</time>
      </trkpt>
      <trkpt lat="43.1141" lon="5.75761">
        <ele>-2.75</ele>
        <time>2016-05-24T14:20:20Z</time>
      </trkpt>
      <trkpt lat="43.11419" lon="5.75763">
        <ele>-2.27</ele>
        <time>2016-05-24T14:20:22Z</time>
      </trkpt>
      <trkpt lat="43.11448" lon="5.75762">
        <ele>-2.27</ele>
        <time>2016-05-24T14:20:31Z</time>
      </trkpt>
      <trkpt lat="43.11452" lon="5.75763">
        <ele>-2.27</ele>
        <time>2016-05-24T14:20:32Z</time>
      </trkpt>
      <trkpt lat="43.11484" lon="5.7577">
        <ele>-3.23</ele>
        <time>2016-05-24T14:20:41Z</time>
      </trkpt>
      <trkpt lat="43.11495" lon="5.75773">
        <ele>-3.23</ele>
        <time>2016-05-24T14:20:44Z</time>
      </trkpt>
      <trkpt lat="43.1151" lon="5.75775">
        <ele>-4.19</ele>
        <time>2016-05-24T14:20:48Z</time>
      </trkpt>
      <trkpt lat="43.1152" lon="5.75776">
        <ele>-4.67</ele>
        <time>2016-05-24T14:20:51Z</time>
      </trkpt>
      <trkpt lat="43.11556" lon="5.75778">
        <ele>-5.15</ele>
        <time>2016-05-24T14:21:01Z</time>
      </trkpt>
      <trkpt lat="43.1156" lon="5.75779">
        <ele>-5.15</ele>
        <time>2016-05-24T14:21:02Z</time>
      </trkpt>
      <trkpt lat="43.11594" lon="5.75782">
        <ele>-1.79</ele>
        <time>2016-05-24T14:21:12Z</time>
      </trkpt>
      <trkpt lat="43.11613" lon="5.75782">
        <ele>-1.3</ele>
        <time>2016-05-24T14:21:17Z</time>
      </trkpt>
      <trkpt lat="43.11631" lon="5.75784">
        <ele>-0.82</ele>
        <time>2016-05-24T14:21:22Z</time>
      </trkpt>
      <trkpt lat="43.11653" lon="5.75788">
        <ele>-1.79</ele>
        <time>2016-05-24T14:21:28Z</time>
      </trkpt>
      <trkpt lat="43.11687" lon="5.75793">
        <ele>-1.3</ele>
        <time>2016-05-24T14:21:37Z</time>
      </trkpt>
      <trkpt lat="43.11727" lon="5.75806">
        <ele>-3.23</ele>
        <time>2016-05-24T14:21:48Z</time>
      </trkpt>
      <trkpt lat="43.1173" lon="5.75805">
        <ele>-3.23</ele>
        <time>2016-05-24T14:21:49Z</time>
      </trkpt>
      <trkpt lat="43.11745" lon="5.75805">
        <ele>-1.3</ele>
        <time>2016-05-24T14:21:53Z</time>
      </trkpt>
      <trkpt lat="43.11755" lon="5.75806">
        <ele>-1.3</ele>
        <time>2016-05-24T14:21:56Z</time>
      </trkpt>
      <trkpt lat="43.1177" lon="5.75809">
        <ele>-1.3</ele>
        <time>2016-05-24T14:22:00Z</time>
      </trkpt>
      <trkpt lat="43.11778" lon="5.7581">
        <ele>-1.3</ele>
        <time>2016-05-24T14:22:02Z</time>
      </trkpt>
      <trkpt lat="43.1179" lon="5.75812">
        <ele>-2.27</ele>
        <time>2016-05-24T14:22:06Z</time>
      </trkpt>
      <trkpt lat="43.11808" lon="5.75812">
        <ele>-2.75</ele>
        <time>2016-05-24T14:22:11Z</time>
      </trkpt>
      <trkpt lat="43.11831" lon="5.75812">
        <ele>-2.27</ele>
        <time>2016-05-24T14:22:17Z</time>
      </trkpt>
      <trkpt lat="43.11838" lon="5.75814">
        <ele>-2.75</ele>
        <time>2016-05-24T14:22:19Z</time>
      </trkpt>
      <trkpt lat="43.11854" lon="5.7582">
        <ele>-3.71</ele>
        <time>2016-05-24T14:22:23Z</time>
      </trkpt>
      <trkpt lat="43.11874" lon="5.75822">
        <ele>-4.67</ele>
        <time>2016-05-24T14:22:28Z</time>
      </trkpt>
      <trkpt lat="43.119" lon="5.75827">
        <ele>-4.67</ele>
        <time>2016-05-24T14:22:35Z</time>
      </trkpt>
      <trkpt lat="43.11932" lon="5.75833">
        <ele>-3.23</ele>
        <time>2016-05-24T14:22:44Z</time>
      </trkpt>
      <trkpt lat="43.11939" lon="5.75834">
        <ele>-2.75</ele>
        <time>2016-05-24T14:22:46Z</time>
      </trkpt>
      <trkpt lat="43.11975" lon="5.75841">
        <ele>-3.71</ele>
        <time>2016-05-24T14:22:56Z</time>
      </trkpt>
      <trkpt lat="43.11997" lon="5.75844">
        <ele>-3.71</ele>
        <time>2016-05-24T14:23:02Z</time>
      </trkpt>
      <trkpt lat="43.12004" lon="5.75845">
        <ele>-3.71</ele>
        <time>2016-05-24T14:23:04Z</time>
      </trkpt>
      <trkpt lat="43.12019" lon="5.75848">
        <ele>-2.75</ele>
        <time>2016-05-24T14:23:08Z</time>
      </trkpt>
      <trkpt lat="43.12051" lon="5.7585">
        <ele>-1.3</ele>
        <time>2016-05-24T14:23:17Z</time>
      </trkpt>
      <trkpt lat="43.12083" lon="5.75858">
        <ele>3.02</ele>
        <time>2016-05-24T14:23:26Z</time>
      </trkpt>
      <trkpt lat="43.1209" lon="5.75857">
        <ele>3.5</ele>
        <time>2016-05-24T14:23:28Z</time>
      </trkpt>
      <trkpt lat="43.12129" lon="5.75863">
        <ele>4.94</ele>
        <time>2016-05-24T14:23:39Z</time>
      </trkpt>
      <trkpt lat="43.12143" lon="5.75862">
        <ele>4.94</ele>
        <time>2016-05-24T14:23:43Z</time>
      </trkpt>
      <trkpt lat="43.12172" lon="5.75864">
        <ele>9.27</ele>
        <time>2016-05-24T14:23:51Z</time>
      </trkpt>
      <trkpt lat="43.12185" lon="5.75864">
        <ele>11.19</ele>
        <time>2016-05-24T14:23:55Z</time>
      </trkpt>
      <trkpt lat="43.12199" lon="5.75864">
        <ele>13.12</ele>
        <time>2016-05-24T14:23:59Z</time>
      </trkpt>
      <trkpt lat="43.12228" lon="5.75873">
        <ele>13.6</ele>
        <time>2016-05-24T14:24:07Z</time>
      </trkpt>
      <trkpt lat="43.12253" lon="5.75876">
        <ele>11.19</ele>
        <time>2016-05-24T14:24:14Z</time>
      </trkpt>
      <trkpt lat="43.12289" lon="5.75881">
        <ele>7.35</ele>
        <time>2016-05-24T14:24:24Z</time>
      </trkpt>
      <trkpt lat="43.12336" lon="5.7589">
        <ele>5.91</ele>
        <time>2016-05-24T14:24:37Z</time>
      </trkpt>
      <trkpt lat="43.12366" lon="5.75898">
        <ele>4.46</ele>
        <time>2016-05-24T14:24:45Z</time>
      </trkpt>
      <trkpt lat="43.12377" lon="5.75903">
        <ele>4.46</ele>
        <time>2016-05-24T14:24:48Z</time>
      </trkpt>
      <trkpt lat="43.12391" lon="5.75904">
        <ele>3.02</ele>
        <time>2016-05-24T14:24:52Z</time>
      </trkpt>
      <trkpt lat="43.12402" lon="5.75908">
        <ele>2.54</ele>
        <time>2016-05-24T14:24:55Z</time>
      </trkpt>
      <trkpt lat="43.12443" lon="5.7592">
        <ele>3.02</ele>
        <time>2016-05-24T14:25:07Z</time>
      </trkpt>
      <trkpt lat="43.12483" lon="5.75924">
        <ele>3.02</ele>
        <time>2016-05-24T14:25:18Z</time>
      </trkpt>
      <trkpt lat="43.12519" lon="5.7593">
        <ele>3.02</ele>
        <time>2016-05-24T14:25:28Z</time>
      </trkpt>
      <trkpt lat="43.12534" lon="5.75932">
        <ele>3.02</ele>
        <time>2016-05-24T14:25:32Z</time>
      </trkpt>
      <trkpt lat="43.12575" lon="5.75947">
        <ele>1.1</ele>
        <time>2016-05-24T14:25:44Z</time>
      </trkpt>
      <trkpt lat="43.12617" lon="5.75963">
        <ele>1.58</ele>
        <time>2016-05-24T14:25:56Z</time>
      </trkpt>
      <trkpt lat="43.12653" lon="5.75975">
        <ele>2.06</ele>
        <time>2016-05-24T14:26:07Z</time>
      </trkpt>
      <trkpt lat="43.12688" lon="5.75992">
        <ele>2.06</ele>
        <time>2016-05-24T14:26:17Z</time>
      </trkpt>
      <trkpt lat="43.12723" lon="5.76003">
        <ele>1.58</ele>
        <time>2016-05-24T14:26:28Z</time>
      </trkpt>
      <trkpt lat="43.12778" lon="5.76021">
        <ele>0.14</ele>
        <time>2016-05-24T14:26:43Z</time>
      </trkpt>
      <trkpt lat="43.12821" lon="5.76043">
        <ele>1.1</ele>
        <time>2016-05-24T14:26:56Z</time>
      </trkpt>
      <trkpt lat="43.12878" lon="5.76068">
        <ele>2.06</ele>
        <time>2016-05-24T14:27:12Z</time>
      </trkpt>
      <trkpt lat="43.12934" lon="5.76093">
        <ele>1.58</ele>
        <time>2016-05-24T14:27:28Z</time>
      </trkpt>
      <trkpt lat="43.12966" lon="5.76111">
        <ele>1.1</ele>
        <time>2016-05-24T14:27:38Z</time>
      </trkpt>
      <trkpt lat="43.13014" lon="5.76133">
        <ele>-1.3</ele>
        <time>2016-05-24T14:27:52Z</time>
      </trkpt>
      <trkpt lat="43.13062" lon="5.76149">
        <ele>-5.15</ele>
        <time>2016-05-24T14:28:06Z</time>
      </trkpt>
      <trkpt lat="43.13113" lon="5.76175">
        <ele>-3.71</ele>
        <time>2016-05-24T14:28:21Z</time>
      </trkpt>
      <trkpt lat="43.13154" lon="5.76174">
        <ele>0.14</ele>
        <time>2016-05-24T14:28:33Z</time>
      </trkpt>
      <trkpt lat="43.13188" lon="5.76158">
        <ele>0.62</ele>
        <time>2016-05-24T14:28:44Z</time>
      </trkpt>
      <trkpt lat="43.1322" lon="5.76131">
        <ele>1.1</ele>
        <time>2016-05-24T14:28:56Z</time>
      </trkpt>
      <trkpt lat="43.13242" lon="5.76103">
        <ele>1.1</ele>
        <time>2016-05-24T14:29:07Z</time>
      </trkpt>
      <trkpt lat="43.13244" lon="5.761">
        <ele>1.1</ele>
        <time>2016-05-24T14:29:08Z</time>
      </trkpt>
      <trkpt lat="43.13231" lon="5.76083">
        <ele>0.62</ele>
        <time>2016-05-24T14:29:19Z</time>
      </trkpt>
      <trkpt lat="43.13229" lon="5.76082">
        <ele>0.62</ele>
        <time>2016-05-24T14:29:20Z</time>
      </trkpt>
      <trkpt lat="43.13191" lon="5.76068">
        <ele>1.1</ele>
        <time>2016-05-24T14:29:33Z</time>
      </trkpt>
      <trkpt lat="43.13153" lon="5.76041">
        <ele>1.1</ele>
        <time>2016-05-24T14:29:46Z</time>
      </trkpt>
      <trkpt lat="43.13117" lon="5.7602">
        <ele>1.1</ele>
        <time>2016-05-24T14:29:58Z</time>
      </trkpt>
      <trkpt lat="43.13084" lon="5.75995">
        <ele>1.1</ele>
        <time>2016-05-24T14:30:10Z</time>
      </trkpt>
      <trkpt lat="43.13047" lon="5.75965">
        <ele>1.1</ele>
        <time>2016-05-24T14:30:24Z</time>
      </trkpt>
      <trkpt lat="43.13018" lon="5.75932">
        <ele>1.58</ele>
        <time>2016-05-24T14:30:37Z</time>
      </trkpt>
      <trkpt lat="43.12979" lon="5.75893">
        <ele>2.06</ele>
        <time>2016-05-24T14:30:52Z</time>
      </trkpt>
      <trkpt lat="43.12939" lon="5.75856">
        <ele>2.06</ele>
        <time>2016-05-24T14:31:07Z</time>
      </trkpt>
      <trkpt lat="43.12905" lon="5.75824">
        <ele>1.58</ele>
        <time>2016-05-24T14:31:20Z</time>
      </trkpt>
      <trkpt lat="43.12871" lon="5.75783">
        <ele>1.58</ele>
        <time>2016-05-24T14:31:35Z</time>
      </trkpt>
      <trkpt lat="43.12844" lon="5.75759">
        <ele>1.58</ele>
        <time>2016-05-24T14:31:46Z</time>
      </trkpt>
      <trkpt lat="43.12821" lon="5.75732">
        <ele>1.58</ele>
        <time>2016-05-24T14:31:56Z</time>
      </trkpt>
      <trkpt lat="43.1279" lon="5.75699">
        <ele>1.1</ele>
        <time>2016-05-24T14:32:09Z</time>
      </trkpt>
      <trkpt lat="43.12758" lon="5.75667">
        <ele>0.62</ele>
        <time>2016-05-24T14:32:21Z</time>
      </trkpt>
      <trkpt lat="43.12723" lon="5.75643">
        <ele>1.1</ele>
        <time>2016-05-24T14:32:33Z</time>
      </trkpt>
      <trkpt lat="43.12696" lon="5.75616">
        <ele>2.54</ele>
        <time>2016-05-24T14:32:44Z</time>
      </trkpt>
      <trkpt lat="43.12671" lon="5.75594">
        <ele>2.54</ele>
        <time>2016-05-24T14:32:54Z</time>
      </trkpt>
      <trkpt lat="43.1264" lon="5.75569">
        <ele>3.98</ele>
        <time>2016-05-24T14:33:05Z</time>
      </trkpt>
      <trkpt lat="43.12604" lon="5.75543">
        <ele>1.1</ele>
        <time>2016-05-24T14:33:18Z</time>
      </trkpt>
      <trkpt lat="43.12568" lon="5.75515">
        <ele>-0.82</ele>
        <time>2016-05-24T14:33:31Z</time>
      </trkpt>
      <trkpt lat="43.12534" lon="5.75491">
        <ele>-0.34</ele>
        <time>2016-05-24T14:33:43Z</time>
      </trkpt>
      <trkpt lat="43.12503" lon="5.75469">
        <ele>0.14</ele>
        <time>2016-05-24T14:33:54Z</time>
      </trkpt>
      <trkpt lat="43.12472" lon="5.75449">
        <ele>0.62</ele>
        <time>2016-05-24T14:34:05Z</time>
      </trkpt>
      <trkpt lat="43.12442" lon="5.75425">
        <ele>1.1</ele>
        <time>2016-05-24T14:34:16Z</time>
      </trkpt>
      <trkpt lat="43.1241" lon="5.75404">
        <ele>1.1</ele>
        <time>2016-05-24T14:34:27Z</time>
      </trkpt>
      <trkpt lat="43.12382" lon="5.75383">
        <ele>0.62</ele>
        <time>2016-05-24T14:34:37Z</time>
      </trkpt>
      <trkpt lat="43.12351" lon="5.75354">
        <ele>-0.34</ele>
        <time>2016-05-24T14:34:49Z</time>
      </trkpt>
      <trkpt lat="43.12339" lon="5.75343">
        <ele>-0.82</ele>
        <time>2016-05-24T14:34:54Z</time>
      </trkpt>
      <trkpt lat="43.12321" lon="5.75325">
        <ele>-1.3</ele>
        <time>2016-05-24T14:35:02Z</time>
      </trkpt>
      <trkpt lat="43.12294" lon="5.75298">
        <ele>-1.79</ele>
        <time>2016-05-24T14:35:14Z</time>
      </trkpt>
      <trkpt lat="43.12271" lon="5.75276">
        <ele>-1.79</ele>
        <time>2016-05-24T14:35:24Z</time>
      </trkpt>
      <trkpt lat="43.12246" lon="5.7525">
        <ele>-1.79</ele>
        <time>2016-05-24T14:35:35Z</time>
      </trkpt>
      <trkpt lat="43.1222" lon="5.75231">
        <ele>-2.27</ele>
        <time>2016-05-24T14:35:45Z</time>
      </trkpt>
      <trkpt lat="43.12205" lon="5.75219">
        <ele>-2.27</ele>
        <time>2016-05-24T14:35:51Z</time>
      </trkpt>
      <trkpt lat="43.12175" lon="5.75188">
        <ele>-0.82</ele>
        <time>2016-05-24T14:36:04Z</time>
      </trkpt>
      <trkpt lat="43.12148" lon="5.75158">
        <ele>-0.82</ele>
        <time>2016-05-24T14:36:16Z</time>
      </trkpt>
      <trkpt lat="43.12122" lon="5.75131">
        <ele>1.1</ele>
        <time>2016-05-24T14:36:27Z</time>
      </trkpt>
      <trkpt lat="43.12106" lon="5.75114">
        <ele>1.1</ele>
        <time>2016-05-24T14:36:34Z</time>
      </trkpt>
      <trkpt lat="43.12095" lon="5.75105">
        <ele>1.1</ele>
        <time>2016-05-24T14:36:39Z</time>
      </trkpt>
      <trkpt lat="43.12075" lon="5.75085">
        <ele>3.02</ele>
        <time>2016-05-24T14:36:48Z</time>
      </trkpt>
      <trkpt lat="43.1206" lon="5.75078">
        <ele>4.94</ele>
        <time>2016-05-24T14:36:53Z</time>
      </trkpt>
      <trkpt lat="43.1205" lon="5.7507">
        <ele>5.42</ele>
        <time>2016-05-24T14:36:57Z</time>
      </trkpt>
      <trkpt lat="43.1202" lon="5.75039">
        <ele>4.94</ele>
        <time>2016-05-24T14:37:10Z</time>
      </trkpt>
      <trkpt lat="43.11997" lon="5.75015">
        <ele>5.42</ele>
        <time>2016-05-24T14:37:20Z</time>
      </trkpt>
      <trkpt lat="43.1197" lon="5.74986">
        <ele>2.54</ele>
        <time>2016-05-24T14:37:32Z</time>
      </trkpt>
      <trkpt lat="43.11954" lon="5.74964">
        <ele>1.58</ele>
        <time>2016-05-24T14:37:41Z</time>
      </trkpt>
      <trkpt lat="43.1193" lon="5.74939">
        <ele>2.54</ele>
        <time>2016-05-24T14:37:52Z</time>
      </trkpt>
      <trkpt lat="43.11901" lon="5.74913">
        <ele>3.02</ele>
        <time>2016-05-24T14:38:04Z</time>
      </trkpt>
      <trkpt lat="43.11872" lon="5.74891">
        <ele>1.1</ele>
        <time>2016-05-24T14:38:15Z</time>
      </trkpt>
      <trkpt lat="43.11838" lon="5.7486">
        <ele>-0.34</ele>
        <time>2016-05-24T14:38:28Z</time>
      </trkpt>
      <trkpt lat="43.11814" lon="5.74834">
        <ele>-1.79</ele>
        <time>2016-05-24T14:38:39Z</time>
      </trkpt>
      <trkpt lat="43.118" lon="5.74814">
        <ele>-2.75</ele>
        <time>2016-05-24T14:38:47Z</time>
      </trkpt>
      <trkpt lat="43.11777" lon="5.74791">
        <ele>-2.27</ele>
        <time>2016-05-24T14:38:59Z</time>
      </trkpt>
      <trkpt lat="43.11749" lon="5.74762">
        <ele>0.14</ele>
        <time>2016-05-24T14:39:12Z</time>
      </trkpt>
      <trkpt lat="43.11741" lon="5.74756">
        <ele>0.14</ele>
        <time>2016-05-24T14:39:15Z</time>
      </trkpt>
      <trkpt lat="43.11732" lon="5.74746">
        <ele>0.14</ele>
        <time>2016-05-24T14:39:19Z</time>
      </trkpt>
      <trkpt lat="43.11718" lon="5.74735">
        <ele>1.1</ele>
        <time>2016-05-24T14:39:25Z</time>
      </trkpt>
      <trkpt lat="43.11702" lon="5.74721">
        <ele>1.58</ele>
        <time>2016-05-24T14:39:32Z</time>
      </trkpt>
      <trkpt lat="43.11667" lon="5.74688">
        <ele>-0.34</ele>
        <time>2016-05-24T14:39:46Z</time>
      </trkpt>
      <trkpt lat="43.11637" lon="5.74663">
        <ele>0.14</ele>
        <time>2016-05-24T14:39:57Z</time>
      </trkpt>
      <trkpt lat="43.11618" lon="5.74643">
        <ele>0.14</ele>
        <time>2016-05-24T14:40:05Z</time>
      </trkpt>
      <trkpt lat="43.11589" lon="5.74622">
        <ele>-0.34</ele>
        <time>2016-05-24T14:40:16Z</time>
      </trkpt>
      <trkpt lat="43.11582" lon="5.74612">
        <ele>-0.34</ele>
        <time>2016-05-24T14:40:20Z</time>
      </trkpt>
      <trkpt lat="43.1157" lon="5.74606">
        <ele>0.14</ele>
        <time>2016-05-24T14:40:24Z</time>
      </trkpt>
      <trkpt lat="43.11533" lon="5.74581">
        <ele>0.62</ele>
        <time>2016-05-24T14:40:37Z</time>
      </trkpt>
      <trkpt lat="43.11521" lon="5.74576">
        <ele>0.62</ele>
        <time>2016-05-24T14:40:41Z</time>
      </trkpt>
      <trkpt lat="43.11487" lon="5.74551">
        <ele>2.54</ele>
        <time>2016-05-24T14:40:53Z</time>
      </trkpt>
      <trkpt lat="43.11457" lon="5.74532">
        <ele>3.02</ele>
        <time>2016-05-24T14:41:03Z</time>
      </trkpt>
      <trkpt lat="43.11425" lon="5.74513">
        <ele>3.02</ele>
        <time>2016-05-24T14:41:14Z</time>
      </trkpt>
      <trkpt lat="43.11395" lon="5.74495">
        <ele>2.54</ele>
        <time>2016-05-24T14:41:24Z</time>
      </trkpt>
      <trkpt lat="43.11366" lon="5.74476">
        <ele>2.06</ele>
        <time>2016-05-24T14:41:34Z</time>
      </trkpt>
      <trkpt lat="43.11354" lon="5.74472">
        <ele>2.06</ele>
        <time>2016-05-24T14:41:38Z</time>
      </trkpt>
      <trkpt lat="43.11326" lon="5.74457">
        <ele>2.54</ele>
        <time>2016-05-24T14:41:48Z</time>
      </trkpt>
      <trkpt lat="43.11316" lon="5.7445">
        <ele>2.54</ele>
        <time>2016-05-24T14:41:52Z</time>
      </trkpt>
      <trkpt lat="43.11278" lon="5.74426">
        <ele>2.54</ele>
        <time>2016-05-24T14:42:05Z</time>
      </trkpt>
      <trkpt lat="43.11242" lon="5.74402">
        <ele>3.98</ele>
        <time>2016-05-24T14:42:17Z</time>
      </trkpt>
      <trkpt lat="43.11211" lon="5.74386">
        <ele>3.02</ele>
        <time>2016-05-24T14:42:27Z</time>
      </trkpt>
      <trkpt lat="43.112" lon="5.74378">
        <ele>3.02</ele>
        <time>2016-05-24T14:42:31Z</time>
      </trkpt>
      <trkpt lat="43.11174" lon="5.74362">
        <ele>3.02</ele>
        <time>2016-05-24T14:42:40Z</time>
      </trkpt>
      <trkpt lat="43.11165" lon="5.74358">
        <ele>3.02</ele>
        <time>2016-05-24T14:42:43Z</time>
      </trkpt>
      <trkpt lat="43.11134" lon="5.74338">
        <ele>3.5</ele>
        <time>2016-05-24T14:42:54Z</time>
      </trkpt>
      <trkpt lat="43.11122" lon="5.74331">
        <ele>3.98</ele>
        <time>2016-05-24T14:42:58Z</time>
      </trkpt>
      <trkpt lat="43.11108" lon="5.74321">
        <ele>3.98</ele>
        <time>2016-05-24T14:43:03Z</time>
      </trkpt>
      <trkpt lat="43.11089" lon="5.74317">
        <ele>5.42</ele>
        <time>2016-05-24T14:43:09Z</time>
      </trkpt>
      <trkpt lat="43.11064" lon="5.74301">
        <ele>5.91</ele>
        <time>2016-05-24T14:43:19Z</time>
      </trkpt>
      <trkpt lat="43.11042" lon="5.74292">
        <ele>5.42</ele>
        <time>2016-05-24T14:43:26Z</time>
      </trkpt>
      <trkpt lat="43.11036" lon="5.74285">
        <ele>5.42</ele>
        <time>2016-05-24T14:43:29Z</time>
      </trkpt>
      <trkpt lat="43.11011" lon="5.74277">
        <ele>4.94</ele>
        <time>2016-05-24T14:43:38Z</time>
      </trkpt>
      <trkpt lat="43.10979" lon="5.74257">
        <ele>4.46</ele>
        <time>2016-05-24T14:43:49Z</time>
      </trkpt>
      <trkpt lat="43.10955" lon="5.7424">
        <ele>4.46</ele>
        <time>2016-05-24T14:43:58Z</time>
      </trkpt>
      <trkpt lat="43.10929" lon="5.74224">
        <ele>3.02</ele>
        <time>2016-05-24T14:44:07Z</time>
      </trkpt>
      <trkpt lat="43.10915" lon="5.74214">
        <ele>2.54</ele>
        <time>2016-05-24T14:44:12Z</time>
      </trkpt>
      <trkpt lat="43.10904" lon="5.74206">
        <ele>2.54</ele>
        <time>2016-05-24T14:44:16Z</time>
      </trkpt>
      <trkpt lat="43.10876" lon="5.74188">
        <ele>2.54</ele>
        <time>2016-05-24T14:44:27Z</time>
      </trkpt>
      <trkpt lat="43.10848" lon="5.74171">
        <ele>1.58</ele>
        <time>2016-05-24T14:44:36Z</time>
      </trkpt>
      <trkpt lat="43.10816" lon="5.74153">
        <ele>1.58</ele>
        <time>2016-05-24T14:44:47Z</time>
      </trkpt>
      <trkpt lat="43.10807" lon="5.74144">
        <ele>1.58</ele>
        <time>2016-05-24T14:44:51Z</time>
      </trkpt>
      <trkpt lat="43.10774" lon="5.74128">
        <ele>3.02</ele>
        <time>2016-05-24T14:45:02Z</time>
      </trkpt>
      <trkpt lat="43.10737" lon="5.74111">
        <ele>3.5</ele>
        <time>2016-05-24T14:45:15Z</time>
      </trkpt>
      <trkpt lat="43.10708" lon="5.74105">
        <ele>4.94</ele>
        <time>2016-05-24T14:45:26Z</time>
      </trkpt>
      <trkpt lat="43.1069" lon="5.74101">
        <ele>4.46</ele>
        <time>2016-05-24T14:45:33Z</time>
      </trkpt>
      <trkpt lat="43.10685" lon="5.74093">
        <ele>3.02</ele>
        <time>2016-05-24T14:45:38Z</time>
      </trkpt>
      <trkpt lat="43.10685" lon="5.74089">
        <ele>2.54</ele>
        <time>2016-05-24T14:45:40Z</time>
      </trkpt>
      <trkpt lat="43.10708" lon="5.74078">
        <ele>3.02</ele>
        <time>2016-05-24T14:45:51Z</time>
      </trkpt>
      <trkpt lat="43.10728" lon="5.74069">
        <ele>2.06</ele>
        <time>2016-05-24T14:45:59Z</time>
      </trkpt>
      <trkpt lat="43.10738" lon="5.7407">
        <ele>1.1</ele>
        <time>2016-05-24T14:46:02Z</time>
      </trkpt>
      <trkpt lat="43.10746" lon="5.74074">
        <ele>1.1</ele>
        <time>2016-05-24T14:46:04Z</time>
      </trkpt>
      <trkpt lat="43.10774" lon="5.74111">
        <ele>0.14</ele>
        <time>2016-05-24T14:46:16Z</time>
      </trkpt>
      <trkpt lat="43.10776" lon="5.74115">
        <ele>-0.34</ele>
        <time>2016-05-24T14:46:17Z</time>
      </trkpt>
      <trkpt lat="43.1079" lon="5.7415">
        <ele>-0.82</ele>
        <time>2016-05-24T14:46:24Z</time>
      </trkpt>
      <trkpt lat="43.10795" lon="5.7416">
        <ele>-1.3</ele>
        <time>2016-05-24T14:46:26Z</time>
      </trkpt>
      <trkpt lat="43.10809" lon="5.74179">
        <ele>-1.3</ele>
        <time>2016-05-24T14:46:31Z</time>
      </trkpt>
      <trkpt lat="43.10847" lon="5.74217">
        <ele>-2.27</ele>
        <time>2016-05-24T14:46:44Z</time>
      </trkpt>
      <trkpt lat="43.10873" lon="5.74243">
        <ele>-2.75</ele>
        <time>2016-05-24T14:46:53Z</time>
      </trkpt>
      <trkpt lat="43.10904" lon="5.74273">
        <ele>-3.71</ele>
        <time>2016-05-24T14:47:03Z</time>
      </trkpt>
      <trkpt lat="43.10921" lon="5.74292">
        <ele>-3.23</ele>
        <time>2016-05-24T14:47:08Z</time>
      </trkpt>
      <trkpt lat="43.10959" lon="5.74332">
        <ele>-2.27</ele>
        <time>2016-05-24T14:47:20Z</time>
      </trkpt>
      <trkpt lat="43.10992" lon="5.74367">
        <ele>0.14</ele>
        <time>2016-05-24T14:47:31Z</time>
      </trkpt>
      <trkpt lat="43.11029" lon="5.74406">
        <ele>-0.34</ele>
        <time>2016-05-24T14:47:43Z</time>
      </trkpt>
      <trkpt lat="43.11045" lon="5.74421">
        <ele>-0.34</ele>
        <time>2016-05-24T14:47:48Z</time>
      </trkpt>
      <trkpt lat="43.11056" lon="5.74433">
        <ele>-0.82</ele>
        <time>2016-05-24T14:47:52Z</time>
      </trkpt>
      <trkpt lat="43.11066" lon="5.74443">
        <ele>-0.34</ele>
        <time>2016-05-24T14:47:55Z</time>
      </trkpt>
      <trkpt lat="43.11091" lon="5.74464">
        <ele>0.14</ele>
        <time>2016-05-24T14:48:03Z</time>
      </trkpt>
      <trkpt lat="43.11128" lon="5.74501">
        <ele>1.1</ele>
        <time>2016-05-24T14:48:15Z</time>
      </trkpt>
      <trkpt lat="43.11145" lon="5.7452">
        <ele>1.1</ele>
        <time>2016-05-24T14:48:22Z</time>
      </trkpt>
      <trkpt lat="43.11181" lon="5.74563">
        <ele>1.58</ele>
        <time>2016-05-24T14:48:34Z</time>
      </trkpt>
      <trkpt lat="43.11209" lon="5.74591">
        <ele>1.1</ele>
        <time>2016-05-24T14:48:43Z</time>
      </trkpt>
      <trkpt lat="43.11241" lon="5.74624">
        <ele>1.1</ele>
        <time>2016-05-24T14:48:54Z</time>
      </trkpt>
      <trkpt lat="43.11282" lon="5.74668">
        <ele>1.1</ele>
        <time>2016-05-24T14:49:08Z</time>
      </trkpt>
      <trkpt lat="43.11318" lon="5.74701">
        <ele>0.62</ele>
        <time>2016-05-24T14:49:20Z</time>
      </trkpt>
      <trkpt lat="43.11331" lon="5.74711">
        <ele>0.62</ele>
        <time>2016-05-24T14:49:24Z</time>
      </trkpt>
      <trkpt lat="43.11357" lon="5.74736">
        <ele>0.62</ele>
        <time>2016-05-24T14:49:33Z</time>
      </trkpt>
      <trkpt lat="43.11398" lon="5.74778">
        <ele>0.62</ele>
        <time>2016-05-24T14:49:47Z</time>
      </trkpt>
      <trkpt lat="43.11435" lon="5.74818">
        <ele>-0.82</ele>
        <time>2016-05-24T14:49:59Z</time>
      </trkpt>
      <trkpt lat="43.11443" lon="5.74828">
        <ele>-0.82</ele>
        <time>2016-05-24T14:50:03Z</time>
      </trkpt>
      <trkpt lat="43.1147" lon="5.74867">
        <ele>-1.79</ele>
        <time>2016-05-24T14:50:14Z</time>
      </trkpt>
      <trkpt lat="43.11483" lon="5.74882">
        <ele>-1.3</ele>
        <time>2016-05-24T14:50:19Z</time>
      </trkpt>
      <trkpt lat="43.11517" lon="5.74913">
        <ele>0.14</ele>
        <time>2016-05-24T14:50:30Z</time>
      </trkpt>
      <trkpt lat="43.11539" lon="5.74931">
        <ele>0.14</ele>
        <time>2016-05-24T14:50:37Z</time>
      </trkpt>
      <trkpt lat="43.11546" lon="5.74937">
        <ele>0.14</ele>
        <time>2016-05-24T14:50:39Z</time>
      </trkpt>
      <trkpt lat="43.11559" lon="5.74949">
        <ele>-0.34</ele>
        <time>2016-05-24T14:50:43Z</time>
      </trkpt>
      <trkpt lat="43.11596" lon="5.74983">
        <ele>-1.3</ele>
        <time>2016-05-24T14:50:55Z</time>
      </trkpt>
      <trkpt lat="43.11614" lon="5.74999">
        <ele>-1.3</ele>
        <time>2016-05-24T14:51:01Z</time>
      </trkpt>
      <trkpt lat="43.11626" lon="5.75012">
        <ele>-1.79</ele>
        <time>2016-05-24T14:51:05Z</time>
      </trkpt>
      <trkpt lat="43.11636" lon="5.75023">
        <ele>-1.79</ele>
        <time>2016-05-24T14:51:09Z</time>
      </trkpt>
      <trkpt lat="43.11668" lon="5.75054">
        <ele>-1.3</ele>
        <time>2016-05-24T14:51:20Z</time>
      </trkpt>
      <trkpt lat="43.11701" lon="5.75083">
        <ele>-0.82</ele>
        <time>2016-05-24T14:51:30Z</time>
      </trkpt>
      <trkpt lat="43.11714" lon="5.75099">
        <ele>0.14</ele>
        <time>2016-05-24T14:51:35Z</time>
      </trkpt>
      <trkpt lat="43.11725" lon="5.75107">
        <ele>0.62</ele>
        <time>2016-05-24T14:51:38Z</time>
      </trkpt>
      <trkpt lat="43.11747" lon="5.75132">
        <ele>0.62</ele>
        <time>2016-05-24T14:51:46Z</time>
      </trkpt>
      <trkpt lat="43.11778" lon="5.75171">
        <ele>2.06</ele>
        <time>2016-05-24T14:51:57Z</time>
      </trkpt>
      <trkpt lat="43.1182" lon="5.75216">
        <ele>2.06</ele>
        <time>2016-05-24T14:52:11Z</time>
      </trkpt>
      <trkpt lat="43.11835" lon="5.75226">
        <ele>1.1</ele>
        <time>2016-05-24T14:52:16Z</time>
      </trkpt>
      <trkpt lat="43.11857" lon="5.75246">
        <ele>1.58</ele>
        <time>2016-05-24T14:52:23Z</time>
      </trkpt>
      <trkpt lat="43.11869" lon="5.75257">
        <ele>1.58</ele>
        <time>2016-05-24T14:52:27Z</time>
      </trkpt>
      <trkpt lat="43.11907" lon="5.75291">
        <ele>1.1</ele>
        <time>2016-05-24T14:52:40Z</time>
      </trkpt>
      <trkpt lat="43.11944" lon="5.75328">
        <ele>1.58</ele>
        <time>2016-05-24T14:52:53Z</time>
      </trkpt>
      <trkpt lat="43.11947" lon="5.7533">
        <ele>1.58</ele>
        <time>2016-05-24T14:52:54Z</time>
      </trkpt>
      <trkpt lat="43.11987" lon="5.75369">
        <ele>1.1</ele>
        <time>2016-05-24T14:53:07Z</time>
      </trkpt>
      <trkpt lat="43.12003" lon="5.75385">
        <ele>0.62</ele>
        <time>2016-05-24T14:53:13Z</time>
      </trkpt>
      <trkpt lat="43.12026" lon="5.75432">
        <ele>1.58</ele>
        <time>2016-05-24T14:53:24Z</time>
      </trkpt>
      <trkpt lat="43.12039" lon="5.75462">
        <ele>2.54</ele>
        <time>2016-05-24T14:53:32Z</time>
      </trkpt>
      <trkpt lat="43.12054" lon="5.75497">
        <ele>2.06</ele>
        <time>2016-05-24T14:53:41Z</time>
      </trkpt>
      <trkpt lat="43.12066" lon="5.75517">
        <ele>2.06</ele>
        <time>2016-05-24T14:53:47Z</time>
      </trkpt>
      <trkpt lat="43.12104" lon="5.75555">
        <ele>2.06</ele>
        <time>2016-05-24T14:54:00Z</time>
      </trkpt>
      <trkpt lat="43.12146" lon="5.75589">
        <ele>2.06</ele>
        <time>2016-05-24T14:54:13Z</time>
      </trkpt>
      <trkpt lat="43.12186" lon="5.75623">
        <ele>2.06</ele>
        <time>2016-05-24T14:54:26Z</time>
      </trkpt>
      <trkpt lat="43.12198" lon="5.75634">
        <ele>1.58</ele>
        <time>2016-05-24T14:54:30Z</time>
      </trkpt>
      <trkpt lat="43.12243" lon="5.75675">
        <ele>1.58</ele>
        <time>2016-05-24T14:54:45Z</time>
      </trkpt>
      <trkpt lat="43.12284" lon="5.75711">
        <ele>1.58</ele>
        <time>2016-05-24T14:54:58Z</time>
      </trkpt>
      <trkpt lat="43.12324" lon="5.75746">
        <ele>1.58</ele>
        <time>2016-05-24T14:55:11Z</time>
      </trkpt>
      <trkpt lat="43.12337" lon="5.75765">
        <ele>1.58</ele>
        <time>2016-05-24T14:55:17Z</time>
      </trkpt>
      <trkpt lat="43.12354" lon="5.75803">
        <ele>1.58</ele>
        <time>2016-05-24T14:55:26Z</time>
      </trkpt>
      <trkpt lat="43.1237" lon="5.75846">
        <ele>2.06</ele>
        <time>2016-05-24T14:55:37Z</time>
      </trkpt>
      <trkpt lat="43.12383" lon="5.75878">
        <ele>1.1</ele>
        <time>2016-05-24T14:55:46Z</time>
      </trkpt>
      <trkpt lat="43.12416" lon="5.7591">
        <ele>0.14</ele>
        <time>2016-05-24T14:55:59Z</time>
      </trkpt>
      <trkpt lat="43.12456" lon="5.75938">
        <ele>0.62</ele>
        <time>2016-05-24T14:56:13Z</time>
      </trkpt>
      <trkpt lat="43.12488" lon="5.75956">
        <ele>0.62</ele>
        <time>2016-05-24T14:56:24Z</time>
      </trkpt>
      <trkpt lat="43.12525" lon="5.75988">
        <ele>1.58</ele>
        <time>2016-05-24T14:56:37Z</time>
      </trkpt>
      <trkpt lat="43.12546" lon="5.76013">
        <ele>1.58</ele>
        <time>2016-05-24T14:56:45Z</time>
      </trkpt>
      <trkpt lat="43.1257" lon="5.76047">
        <ele>0.62</ele>
        <time>2016-05-24T14:56:55Z</time>
      </trkpt>
      <trkpt lat="43.12596" lon="5.76086">
        <ele>1.1</ele>
        <time>2016-05-24T14:57:06Z</time>
      </trkpt>
      <trkpt lat="43.12625" lon="5.76138">
        <ele>1.1</ele>
        <time>2016-05-24T14:57:20Z</time>
      </trkpt>
      <trkpt lat="43.12648" lon="5.76171">
        <ele>2.06</ele>
        <time>2016-05-24T14:57:31Z</time>
      </trkpt>
      <trkpt lat="43.12679" lon="5.76214">
        <ele>2.54</ele>
        <time>2016-05-24T14:57:45Z</time>
      </trkpt>
      <trkpt lat="43.12722" lon="5.76265">
        <ele>3.5</ele>
        <time>2016-05-24T14:58:00Z</time>
      </trkpt>
      <trkpt lat="43.1275" lon="5.76296">
        <ele>3.02</ele>
        <time>2016-05-24T14:58:11Z</time>
      </trkpt>
      <trkpt lat="43.12781" lon="5.7633">
        <ele>3.02</ele>
        <time>2016-05-24T14:58:23Z</time>
      </trkpt>
      <trkpt lat="43.12812" lon="5.76354">
        <ele>2.54</ele>
        <time>2016-05-24T14:58:34Z</time>
      </trkpt>
      <trkpt lat="43.12839" lon="5.76353">
        <ele>3.02</ele>
        <time>2016-05-24T14:58:43Z</time>
      </trkpt>
      <trkpt lat="43.12859" lon="5.76346">
        <ele>5.42</ele>
        <time>2016-05-24T14:58:49Z</time>
      </trkpt>
      <trkpt lat="43.12898" lon="5.76319">
        <ele>6.87</ele>
        <time>2016-05-24T14:59:03Z</time>
      </trkpt>
      <trkpt lat="43.12925" lon="5.76292">
        <ele>6.39</ele>
        <time>2016-05-24T14:59:14Z</time>
      </trkpt>
      <trkpt lat="43.12956" lon="5.76263">
        <ele>4.46</ele>
        <time>2016-05-24T14:59:26Z</time>
      </trkpt>
      <trkpt lat="43.12993" lon="5.76235">
        <ele>3.02</ele>
        <time>2016-05-24T14:59:39Z</time>
      </trkpt>
      <trkpt lat="43.13031" lon="5.76208">
        <ele>2.06</ele>
        <time>2016-05-24T14:59:52Z</time>
      </trkpt>
      <trkpt lat="43.13069" lon="5.76181">
        <ele>1.58</ele>
        <time>2016-05-24T15:00:05Z</time>
      </trkpt>
      <trkpt lat="43.13097" lon="5.76161">
        <ele>1.58</ele>
        <time>2016-05-24T15:00:15Z</time>
      </trkpt>
      <trkpt lat="43.13096" lon="5.76149">
        <ele>1.58</ele>
        <time>2016-05-24T15:00:20Z</time>
      </trkpt>
      <trkpt lat="43.13094" lon="5.76142">
        <ele>1.58</ele>
        <time>2016-05-24T15:00:23Z</time>
      </trkpt>
      <trkpt lat="43.13087" lon="5.76134">
        <ele>0.62</ele>
        <time>2016-05-24T15:00:28Z</time>
      </trkpt>
      <trkpt lat="43.13065" lon="5.7611">
        <ele>1.1</ele>
        <time>2016-05-24T15:00:41Z</time>
      </trkpt>
      <trkpt lat="43.13033" lon="5.76072">
        <ele>1.58</ele>
        <time>2016-05-24T15:00:55Z</time>
      </trkpt>
      <trkpt lat="43.12996" lon="5.7603">
        <ele>1.58</ele>
        <time>2016-05-24T15:01:10Z</time>
      </trkpt>
      <trkpt lat="43.12968" lon="5.76002">
        <ele>1.58</ele>
        <time>2016-05-24T15:01:21Z</time>
      </trkpt>
      <trkpt lat="43.12933" lon="5.75969">
        <ele>2.06</ele>
        <time>2016-05-24T15:01:34Z</time>
      </trkpt>
      <trkpt lat="43.12899" lon="5.75946">
        <ele>2.06</ele>
        <time>2016-05-24T15:01:46Z</time>
      </trkpt>
      <trkpt lat="43.12863" lon="5.75917">
        <ele>2.54</ele>
        <time>2016-05-24T15:01:59Z</time>
      </trkpt>
      <trkpt lat="43.12824" lon="5.75893">
        <ele>2.54</ele>
        <time>2016-05-24T15:02:12Z</time>
      </trkpt>
      <trkpt lat="43.12792" lon="5.75867">
        <ele>3.5</ele>
        <time>2016-05-24T15:02:24Z</time>
      </trkpt>
      <trkpt lat="43.12765" lon="5.75837">
        <ele>3.02</ele>
        <time>2016-05-24T15:02:35Z</time>
      </trkpt>
      <trkpt lat="43.12738" lon="5.75804">
        <ele>2.54</ele>
        <time>2016-05-24T15:02:47Z</time>
      </trkpt>
      <trkpt lat="43.12732" lon="5.75789">
        <ele>3.02</ele>
        <time>2016-05-24T15:02:51Z</time>
      </trkpt>
      <trkpt lat="43.12703" lon="5.75773">
        <ele>3.5</ele>
        <time>2016-05-24T15:03:02Z</time>
      </trkpt>
      <trkpt lat="43.12677" lon="5.75767">
        <ele>3.02</ele>
        <time>2016-05-24T15:03:11Z</time>
      </trkpt>
      <trkpt lat="43.12646" lon="5.75751">
        <ele>3.02</ele>
        <time>2016-05-24T15:03:22Z</time>
      </trkpt>
      <trkpt lat="43.12621" lon="5.75719">
        <ele>3.02</ele>
        <time>2016-05-24T15:03:33Z</time>
      </trkpt>
      <trkpt lat="43.12601" lon="5.757">
        <ele>3.5</ele>
        <time>2016-05-24T15:03:41Z</time>
      </trkpt>
      <trkpt lat="43.12578" lon="5.75673">
        <ele>2.54</ele>
        <time>2016-05-24T15:03:51Z</time>
      </trkpt>
      <trkpt lat="43.12552" lon="5.75642">
        <ele>0.14</ele>
        <time>2016-05-24T15:04:02Z</time>
      </trkpt>
      <trkpt lat="43.12528" lon="5.75603">
        <ele>1.1</ele>
        <time>2016-05-24T15:04:14Z</time>
      </trkpt>
      <trkpt lat="43.12526" lon="5.756">
        <ele>1.1</ele>
        <time>2016-05-24T15:04:15Z</time>
      </trkpt>
      <trkpt lat="43.12502" lon="5.75567">
        <ele>3.02</ele>
        <time>2016-05-24T15:04:26Z</time>
      </trkpt>
      <trkpt lat="43.12487" lon="5.75542">
        <ele>3.5</ele>
        <time>2016-05-24T15:04:34Z</time>
      </trkpt>
      <trkpt lat="43.12462" lon="5.755">
        <ele>2.54</ele>
        <time>2016-05-24T15:04:48Z</time>
      </trkpt>
      <trkpt lat="43.12439" lon="5.75466">
        <ele>3.02</ele>
        <time>2016-05-24T15:05:00Z</time>
      </trkpt>
      <trkpt lat="43.12414" lon="5.75431">
        <ele>2.54</ele>
        <time>2016-05-24T15:05:12Z</time>
      </trkpt>
      <trkpt lat="43.12392" lon="5.75403">
        <ele>1.1</ele>
        <time>2016-05-24T15:05:22Z</time>
      </trkpt>
      <trkpt lat="43.12367" lon="5.7537">
        <ele>1.1</ele>
        <time>2016-05-24T15:05:34Z</time>
      </trkpt>
      <trkpt lat="43.12346" lon="5.75349">
        <ele>1.1</ele>
        <time>2016-05-24T15:05:43Z</time>
      </trkpt>
      <trkpt lat="43.12318" lon="5.75319">
        <ele>1.1</ele>
        <time>2016-05-24T15:05:55Z</time>
      </trkpt>
      <trkpt lat="43.12295" lon="5.75289">
        <ele>1.58</ele>
        <time>2016-05-24T15:06:06Z</time>
      </trkpt>
      <trkpt lat="43.12268" lon="5.75261">
        <ele>3.5</ele>
        <time>2016-05-24T15:06:18Z</time>
      </trkpt>
      <trkpt lat="43.12244" lon="5.75237">
        <ele>3.98</ele>
        <time>2016-05-24T15:06:28Z</time>
      </trkpt>
      <trkpt lat="43.12214" lon="5.75207">
        <ele>3.98</ele>
        <time>2016-05-24T15:06:40Z</time>
      </trkpt>
      <trkpt lat="43.12183" lon="5.75171">
        <ele>3.5</ele>
        <time>2016-05-24T15:06:53Z</time>
      </trkpt>
      <trkpt lat="43.12157" lon="5.75139">
        <ele>3.98</ele>
        <time>2016-05-24T15:07:04Z</time>
      </trkpt>
      <trkpt lat="43.12131" lon="5.75108">
        <ele>3.98</ele>
        <time>2016-05-24T15:07:15Z</time>
      </trkpt>
      <trkpt lat="43.12106" lon="5.75082">
        <ele>3.02</ele>
        <time>2016-05-24T15:07:25Z</time>
      </trkpt>
      <trkpt lat="43.12078" lon="5.75053">
        <ele>1.58</ele>
        <time>2016-05-24T15:07:36Z</time>
      </trkpt>
      <trkpt lat="43.12051" lon="5.75025">
        <ele>2.06</ele>
        <time>2016-05-24T15:07:47Z</time>
      </trkpt>
      <trkpt lat="43.1202" lon="5.74997">
        <ele>2.54</ele>
        <time>2016-05-24T15:07:59Z</time>
      </trkpt>
      <trkpt lat="43.11993" lon="5.74961">
        <ele>3.5</ele>
        <time>2016-05-24T15:08:11Z</time>
      </trkpt>
      <trkpt lat="43.11967" lon="5.74927">
        <ele>2.54</ele>
        <time>2016-05-24T15:08:23Z</time>
      </trkpt>
      <trkpt lat="43.11941" lon="5.74894">
        <ele>1.58</ele>
        <time>2016-05-24T15:08:35Z</time>
      </trkpt>
      <trkpt lat="43.11912" lon="5.74864">
        <ele>1.58</ele>
        <time>2016-05-24T15:08:46Z</time>
      </trkpt>
      <trkpt lat="43.11887" lon="5.74832">
        <ele>1.1</ele>
        <time>2016-05-24T15:08:57Z</time>
      </trkpt>
      <trkpt lat="43.11858" lon="5.74798">
        <ele>0.62</ele>
        <time>2016-05-24T15:09:10Z</time>
      </trkpt>
      <trkpt lat="43.11832" lon="5.74761">
        <ele>-0.34</ele>
        <time>2016-05-24T15:09:22Z</time>
      </trkpt>
      <trkpt lat="43.11799" lon="5.74723">
        <ele>-2.27</ele>
        <time>2016-05-24T15:09:36Z</time>
      </trkpt>
      <trkpt lat="43.11771" lon="5.7469">
        <ele>-3.23</ele>
        <time>2016-05-24T15:09:48Z</time>
      </trkpt>
      <trkpt lat="43.11742" lon="5.74649">
        <ele>-3.71</ele>
        <time>2016-05-24T15:10:01Z</time>
      </trkpt>
      <trkpt lat="43.11713" lon="5.74603">
        <ele>-6.11</ele>
        <time>2016-05-24T15:10:16Z</time>
      </trkpt>
      <trkpt lat="43.11686" lon="5.74563">
        <ele>-5.63</ele>
        <time>2016-05-24T15:10:30Z</time>
      </trkpt>
      <trkpt lat="43.11656" lon="5.74522">
        <ele>-4.19</ele>
        <time>2016-05-24T15:10:44Z</time>
      </trkpt>
      <trkpt lat="43.11623" lon="5.74474">
        <ele>-5.63</ele>
        <time>2016-05-24T15:10:59Z</time>
      </trkpt>
      <trkpt lat="43.11597" lon="5.74435">
        <ele>-6.11</ele>
        <time>2016-05-24T15:11:12Z</time>
      </trkpt>
      <trkpt lat="43.11567" lon="5.74399">
        <ele>-6.11</ele>
        <time>2016-05-24T15:11:25Z</time>
      </trkpt>
      <trkpt lat="43.1154" lon="5.74362">
        <ele>-6.59</ele>
        <time>2016-05-24T15:11:37Z</time>
      </trkpt>
      <trkpt lat="43.11521" lon="5.74346">
        <ele>-6.11</ele>
        <time>2016-05-24T15:11:45Z</time>
      </trkpt>
      <trkpt lat="43.11492" lon="5.7431">
        <ele>-3.71</ele>
        <time>2016-05-24T15:12:00Z</time>
      </trkpt>
      <trkpt lat="43.11461" lon="5.7427">
        <ele>-1.3</ele>
        <time>2016-05-24T15:12:14Z</time>
      </trkpt>
      <trkpt lat="43.11432" lon="5.74231">
        <ele>-0.82</ele>
        <time>2016-05-24T15:12:28Z</time>
      </trkpt>
      <trkpt lat="43.11405" lon="5.74199">
        <ele>-0.82</ele>
        <time>2016-05-24T15:12:41Z</time>
      </trkpt>
      <trkpt lat="43.11383" lon="5.74176">
        <ele>-1.3</ele>
        <time>2016-05-24T15:12:53Z</time>
      </trkpt>
      <trkpt lat="43.1136" lon="5.74145">
        <ele>-2.27</ele>
        <time>2016-05-24T15:13:07Z</time>
      </trkpt>
      <trkpt lat="43.11333" lon="5.74113">
        <ele>-1.79</ele>
        <time>2016-05-24T15:13:21Z</time>
      </trkpt>
      <trkpt lat="43.11307" lon="5.74081">
        <ele>-0.82</ele>
        <time>2016-05-24T15:13:33Z</time>
      </trkpt>
      <trkpt lat="43.11265" lon="5.74045">
        <ele>-0.82</ele>
        <time>2016-05-24T15:13:49Z</time>
      </trkpt>
      <trkpt lat="43.11229" lon="5.74007">
        <ele>0.14</ele>
        <time>2016-05-24T15:14:04Z</time>
      </trkpt>
      <trkpt lat="43.11192" lon="5.7397">
        <ele>-0.34</ele>
        <time>2016-05-24T15:14:19Z</time>
      </trkpt>
      <trkpt lat="43.11157" lon="5.73933">
        <ele>0.14</ele>
        <time>2016-05-24T15:14:34Z</time>
      </trkpt>
      <trkpt lat="43.11118" lon="5.73897">
        <ele>1.58</ele>
        <time>2016-05-24T15:14:50Z</time>
      </trkpt>
      <trkpt lat="43.11089" lon="5.73869">
        <ele>2.54</ele>
        <time>2016-05-24T15:15:02Z</time>
      </trkpt>
      <trkpt lat="43.11068" lon="5.73853">
        <ele>3.02</ele>
        <time>2016-05-24T15:15:11Z</time>
      </trkpt>
      <trkpt lat="43.11065" lon="5.73852">
        <ele>3.02</ele>
        <time>2016-05-24T15:15:12Z</time>
      </trkpt>
      <trkpt lat="43.11062" lon="5.7384">
        <ele>2.06</ele>
        <time>2016-05-24T15:15:20Z</time>
      </trkpt>
      <trkpt lat="43.11091" lon="5.73846">
        <ele>1.1</ele>
        <time>2016-05-24T15:15:32Z</time>
      </trkpt>
      <trkpt lat="43.11118" lon="5.73875">
        <ele>1.58</ele>
        <time>2016-05-24T15:15:42Z</time>
      </trkpt>
      <trkpt lat="43.11123" lon="5.73883">
        <ele>2.06</ele>
        <time>2016-05-24T15:15:44Z</time>
      </trkpt>
      <trkpt lat="43.1115" lon="5.73932">
        <ele>2.54</ele>
        <time>2016-05-24T15:15:57Z</time>
      </trkpt>
      <trkpt lat="43.11181" lon="5.73968">
        <ele>1.58</ele>
        <time>2016-05-24T15:16:09Z</time>
      </trkpt>
      <trkpt lat="43.11217" lon="5.74007">
        <ele>2.06</ele>
        <time>2016-05-24T15:16:22Z</time>
      </trkpt>
      <trkpt lat="43.11244" lon="5.74036">
        <ele>2.54</ele>
        <time>2016-05-24T15:16:32Z</time>
      </trkpt>
      <trkpt lat="43.11272" lon="5.74073">
        <ele>3.5</ele>
        <time>2016-05-24T15:16:44Z</time>
      </trkpt>
      <trkpt lat="43.11285" lon="5.74088">
        <ele>3.98</ele>
        <time>2016-05-24T15:16:49Z</time>
      </trkpt>
      <trkpt lat="43.113" lon="5.74112">
        <ele>3.98</ele>
        <time>2016-05-24T15:16:56Z</time>
      </trkpt>
      <trkpt lat="43.11329" lon="5.74146">
        <ele>3.5</ele>
        <time>2016-05-24T15:17:07Z</time>
      </trkpt>
      <trkpt lat="43.11356" lon="5.74192">
        <ele>2.06</ele>
        <time>2016-05-24T15:17:20Z</time>
      </trkpt>
      <trkpt lat="43.1138" lon="5.74231">
        <ele>1.1</ele>
        <time>2016-05-24T15:17:31Z</time>
      </trkpt>
      <trkpt lat="43.11408" lon="5.74266">
        <ele>1.1</ele>
        <time>2016-05-24T15:17:42Z</time>
      </trkpt>
      <trkpt lat="43.11428" lon="5.74292">
        <ele>0.14</ele>
        <time>2016-05-24T15:17:50Z</time>
      </trkpt>
      <trkpt lat="43.1146" lon="5.74327">
        <ele>-1.79</ele>
        <time>2016-05-24T15:18:02Z</time>
      </trkpt>
      <trkpt lat="43.1148" lon="5.7435">
        <ele>-2.75</ele>
        <time>2016-05-24T15:18:10Z</time>
      </trkpt>
      <trkpt lat="43.11514" lon="5.74385">
        <ele>-3.71</ele>
        <time>2016-05-24T15:18:22Z</time>
      </trkpt>
      <trkpt lat="43.11529" lon="5.74408">
        <ele>-3.23</ele>
        <time>2016-05-24T15:18:29Z</time>
      </trkpt>
      <trkpt lat="43.11544" lon="5.74424">
        <ele>-3.23</ele>
        <time>2016-05-24T15:18:34Z</time>
      </trkpt>
      <trkpt lat="43.11572" lon="5.7447">
        <ele>-3.23</ele>
        <time>2016-05-24T15:18:46Z</time>
      </trkpt>
      <trkpt lat="43.11601" lon="5.74509">
        <ele>-3.71</ele>
        <time>2016-05-24T15:18:59Z</time>
      </trkpt>
      <trkpt lat="43.11634" lon="5.74544">
        <ele>-3.23</ele>
        <time>2016-05-24T15:19:12Z</time>
      </trkpt>
      <trkpt lat="43.11652" lon="5.74564">
        <ele>-3.71</ele>
        <time>2016-05-24T15:19:19Z</time>
      </trkpt>
      <trkpt lat="43.11677" lon="5.74595">
        <ele>-3.71</ele>
        <time>2016-05-24T15:19:29Z</time>
      </trkpt>
      <trkpt lat="43.11688" lon="5.74605">
        <ele>-4.19</ele>
        <time>2016-05-24T15:19:32Z</time>
      </trkpt>
      <trkpt lat="43.11711" lon="5.74637">
        <ele>-5.63</ele>
        <time>2016-05-24T15:19:42Z</time>
      </trkpt>
      <trkpt lat="43.11738" lon="5.74673">
        <ele>-5.15</ele>
        <time>2016-05-24T15:19:53Z</time>
      </trkpt>
      <trkpt lat="43.11755" lon="5.74691">
        <ele>-5.15</ele>
        <time>2016-05-24T15:20:00Z</time>
      </trkpt>
      <trkpt lat="43.11778" lon="5.74713">
        <ele>-4.67</ele>
        <time>2016-05-24T15:20:09Z</time>
      </trkpt>
      <trkpt lat="43.11784" lon="5.74721">
        <ele>-4.67</ele>
        <time>2016-05-24T15:20:11Z</time>
      </trkpt>
      <trkpt lat="43.11809" lon="5.74759">
        <ele>-4.67</ele>
        <time>2016-05-24T15:20:22Z</time>
      </trkpt>
      <trkpt lat="43.11831" lon="5.74788">
        <ele>-4.19</ele>
        <time>2016-05-24T15:20:31Z</time>
      </trkpt>
      <trkpt lat="43.11849" lon="5.7482">
        <ele>-3.71</ele>
        <time>2016-05-24T15:20:41Z</time>
      </trkpt>
      <trkpt lat="43.11871" lon="5.7485">
        <ele>-3.71</ele>
        <time>2016-05-24T15:20:50Z</time>
      </trkpt>
      <trkpt lat="43.11891" lon="5.74877">
        <ele>-3.23</ele>
        <time>2016-05-24T15:20:59Z</time>
      </trkpt>
      <trkpt lat="43.11924" lon="5.74916">
        <ele>-3.23</ele>
        <time>2016-05-24T15:21:11Z</time>
      </trkpt>
      <trkpt lat="43.11957" lon="5.74953">
        <ele>-1.3</ele>
        <time>2016-05-24T15:21:23Z</time>
      </trkpt>
      <trkpt lat="43.11965" lon="5.74964">
        <ele>-0.82</ele>
        <time>2016-05-24T15:21:26Z</time>
      </trkpt>
      <trkpt lat="43.11995" lon="5.74996">
        <ele>-0.34</ele>
        <time>2016-05-24T15:21:37Z</time>
      </trkpt>
      <trkpt lat="43.1202" lon="5.75026">
        <ele>-0.82</ele>
        <time>2016-05-24T15:21:47Z</time>
      </trkpt>
      <trkpt lat="43.12054" lon="5.7506">
        <ele>-1.79</ele>
        <time>2016-05-24T15:21:59Z</time>
      </trkpt>
      <trkpt lat="43.12088" lon="5.75099">
        <ele>-3.23</ele>
        <time>2016-05-24T15:22:11Z</time>
      </trkpt>
      <trkpt lat="43.12114" lon="5.75134">
        <ele>-4.19</ele>
        <time>2016-05-24T15:22:21Z</time>
      </trkpt>
      <trkpt lat="43.12136" lon="5.75165">
        <ele>-3.23</ele>
        <time>2016-05-24T15:22:30Z</time>
      </trkpt>
      <trkpt lat="43.12156" lon="5.75194">
        <ele>-2.75</ele>
        <time>2016-05-24T15:22:39Z</time>
      </trkpt>
      <trkpt lat="43.1217" lon="5.75225">
        <ele>-2.75</ele>
        <time>2016-05-24T15:22:47Z</time>
      </trkpt>
      <trkpt lat="43.1219" lon="5.75263">
        <ele>-2.27</ele>
        <time>2016-05-24T15:22:57Z</time>
      </trkpt>
      <trkpt lat="43.12194" lon="5.75269">
        <ele>-2.27</ele>
        <time>2016-05-24T15:22:59Z</time>
      </trkpt>
      <trkpt lat="43.12207" lon="5.75279">
        <ele>-2.75</ele>
        <time>2016-05-24T15:23:03Z</time>
      </trkpt>
      <trkpt lat="43.12241" lon="5.75324">
        <ele>-3.71</ele>
        <time>2016-05-24T15:23:17Z</time>
      </trkpt>
      <trkpt lat="43.12275" lon="5.75365">
        <ele>-3.71</ele>
        <time>2016-05-24T15:23:30Z</time>
      </trkpt>
      <trkpt lat="43.12306" lon="5.75403">
        <ele>-3.23</ele>
        <time>2016-05-24T15:23:42Z</time>
      </trkpt>
      <trkpt lat="43.12334" lon="5.75437">
        <ele>-1.79</ele>
        <time>2016-05-24T15:23:53Z</time>
      </trkpt>
      <trkpt lat="43.12369" lon="5.75472">
        <ele>-0.82</ele>
        <time>2016-05-24T15:24:06Z</time>
      </trkpt>
      <trkpt lat="43.12395" lon="5.75503">
        <ele>-1.79</ele>
        <time>2016-05-24T15:24:17Z</time>
      </trkpt>
      <trkpt lat="43.12426" lon="5.7554">
        <ele>-2.27</ele>
        <time>2016-05-24T15:24:29Z</time>
      </trkpt>
      <trkpt lat="43.12454" lon="5.75575">
        <ele>-2.27</ele>
        <time>2016-05-24T15:24:41Z</time>
      </trkpt>
      <trkpt lat="43.12488" lon="5.75612">
        <ele>-0.34</ele>
        <time>2016-05-24T15:24:53Z</time>
      </trkpt>
      <trkpt lat="43.12527" lon="5.75656">
        <ele>-0.34</ele>
        <time>2016-05-24T15:25:08Z</time>
      </trkpt>
      <trkpt lat="43.12557" lon="5.75688">
        <ele>-0.34</ele>
        <time>2016-05-24T15:25:19Z</time>
      </trkpt>
      <trkpt lat="43.12583" lon="5.75711">
        <ele>0.14</ele>
        <time>2016-05-24T15:25:29Z</time>
      </trkpt>
      <trkpt lat="43.12614" lon="5.75748">
        <ele>-0.34</ele>
        <time>2016-05-24T15:25:42Z</time>
      </trkpt>
      <trkpt lat="43.12646" lon="5.7579">
        <ele>-0.34</ele>
        <time>2016-05-24T15:25:56Z</time>
      </trkpt>
      <trkpt lat="43.12678" lon="5.75829">
        <ele>-0.82</ele>
        <time>2016-05-24T15:26:11Z</time>
      </trkpt>
      <trkpt lat="43.12707" lon="5.75862">
        <ele>-0.82</ele>
        <time>2016-05-24T15:26:25Z</time>
      </trkpt>
      <trkpt lat="43.12738" lon="5.75892">
        <ele>-0.82</ele>
        <time>2016-05-24T15:26:39Z</time>
      </trkpt>
      <trkpt lat="43.1277" lon="5.75925">
        <ele>-0.34</ele>
        <time>2016-05-24T15:26:52Z</time>
      </trkpt>
      <trkpt lat="43.12792" lon="5.75949">
        <ele>0.62</ele>
        <time>2016-05-24T15:27:03Z</time>
      </trkpt>
      <trkpt lat="43.12822" lon="5.7598">
        <ele>0.14</ele>
        <time>2016-05-24T15:27:16Z</time>
      </trkpt>
      <trkpt lat="43.12858" lon="5.76015">
        <ele>-0.34</ele>
        <time>2016-05-24T15:27:31Z</time>
      </trkpt>
      <trkpt lat="43.12891" lon="5.76049">
        <ele>1.1</ele>
        <time>2016-05-24T15:27:45Z</time>
      </trkpt>
      <trkpt lat="43.12927" lon="5.76083">
        <ele>1.1</ele>
        <time>2016-05-24T15:27:59Z</time>
      </trkpt>
      <trkpt lat="43.12966" lon="5.76118">
        <ele>1.1</ele>
        <time>2016-05-24T15:28:15Z</time>
      </trkpt>
      <trkpt lat="43.13011" lon="5.76154">
        <ele>-0.34</ele>
        <time>2016-05-24T15:28:35Z</time>
      </trkpt>
      <trkpt lat="43.13051" lon="5.76197">
        <ele>-1.3</ele>
        <time>2016-05-24T15:28:55Z</time>
      </trkpt>
      <trkpt lat="43.13075" lon="5.76237">
        <ele>-0.82</ele>
        <time>2016-05-24T15:29:10Z</time>
      </trkpt>
      <trkpt lat="43.13105" lon="5.76285">
        <ele>0.14</ele>
        <time>2016-05-24T15:29:27Z</time>
      </trkpt>
      <trkpt lat="43.13142" lon="5.76324">
        <ele>1.1</ele>
        <time>2016-05-24T15:29:45Z</time>
      </trkpt>
      <trkpt lat="43.13148" lon="5.76324">
        <ele>1.1</ele>
        <time>2016-05-24T15:29:48Z</time>
      </trkpt>
      <trkpt lat="43.13156" lon="5.763">
        <ele>3.5</ele>
        <time>2016-05-24T15:30:03Z</time>
      </trkpt>
      <trkpt lat="43.13155" lon="5.7629">
        <ele>4.94</ele>
        <time>2016-05-24T15:30:18Z</time>
      </trkpt>
      <trkpt lat="43.13154" lon="5.76289">
        <ele>4.94</ele>
        <time>2016-05-24T15:30:31Z</time>
      </trkpt>
      <trkpt lat="43.13155" lon="5.76291">
        <ele>4.94</ele>
        <time>2016-05-24T15:30:41Z</time>
      </trkpt>
      <trkpt lat="43.13157" lon="5.76296">
        <ele>3.02</ele>
        <time>2016-05-24T15:30:54Z</time>
      </trkpt>
      <trkpt lat="43.13158" lon="5.76304">
        <ele>2.06</ele>
        <time>2016-05-24T15:31:10Z</time>
      </trkpt>
      <trkpt lat="43.13157" lon="5.76305">
        <ele>1.58</ele>
        <time>2016-05-24T15:31:11Z</time>
      </trkpt>
      <trkpt lat="43.13154" lon="5.7631">
        <ele>2.06</ele>
        <time>2016-05-24T15:31:15Z</time>
      </trkpt>
      <trkpt lat="43.13141" lon="5.76307">
        <ele>2.06</ele>
        <time>2016-05-24T15:31:25Z</time>
      </trkpt>
      <trkpt lat="43.13142" lon="5.76299">
        <ele>2.06</ele>
        <time>2016-05-24T15:31:29Z</time>
      </trkpt>
      <trkpt lat="43.1315" lon="5.76296">
        <ele>1.58</ele>
        <time>2016-05-24T15:31:35Z</time>
      </trkpt>
      <trkpt lat="43.13167" lon="5.7629">
        <ele>1.58</ele>
        <time>2016-05-24T15:31:49Z</time>
      </trkpt>
      <trkpt lat="43.1318" lon="5.76275">
        <ele>1.1</ele>
        <time>2016-05-24T15:32:03Z</time>
      </trkpt>
      <trkpt lat="43.13189" lon="5.76252">
        <ele>0.62</ele>
        <time>2016-05-24T15:32:15Z</time>
      </trkpt>
      <trkpt lat="43.13202" lon="5.7622">
        <ele>-0.34</ele>
        <time>2016-05-24T15:32:29Z</time>
      </trkpt>
      <trkpt lat="43.13203" lon="5.76217">
        <ele>-0.34</ele>
        <time>2016-05-24T15:32:30Z</time>
      </trkpt>
      <trkpt lat="43.13208" lon="5.76193">
        <ele>-0.82</ele>
        <time>2016-05-24T15:32:39Z</time>
      </trkpt>
      <trkpt lat="43.13225" lon="5.76152">
        <ele>-2.75</ele>
        <time>2016-05-24T15:32:55Z</time>
      </trkpt>
      <trkpt lat="43.13244" lon="5.76123">
        <ele>-3.23</ele>
        <time>2016-05-24T15:33:08Z</time>
      </trkpt>
      <trkpt lat="43.13265" lon="5.76083">
        <ele>-3.71</ele>
        <time>2016-05-24T15:33:25Z</time>
      </trkpt>
      <trkpt lat="43.13278" lon="5.76052">
        <ele>-3.71</ele>
        <time>2016-05-24T15:33:37Z</time>
      </trkpt>
      <trkpt lat="43.1328" lon="5.76046">
        <ele>-3.71</ele>
        <time>2016-05-24T15:33:39Z</time>
      </trkpt>
      <trkpt lat="43.13286" lon="5.76037">
        <ele>-3.71</ele>
        <time>2016-05-24T15:33:44Z</time>
      </trkpt>
      <trkpt lat="43.13295" lon="5.76006">
        <ele>-3.71</ele>
        <time>2016-05-24T15:33:55Z</time>
      </trkpt>
      <trkpt lat="43.13314" lon="5.75967">
        <ele>-4.19</ele>
        <time>2016-05-24T15:34:10Z</time>
      </trkpt>
      <trkpt lat="43.13333" lon="5.75922">
        <ele>-3.71</ele>
        <time>2016-05-24T15:34:27Z</time>
      </trkpt>
      <trkpt lat="43.13352" lon="5.75866">
        <ele>-3.23</ele>
        <time>2016-05-24T15:34:47Z</time>
      </trkpt>
      <trkpt lat="43.13363" lon="5.75817">
        <ele>-2.75</ele>
        <time>2016-05-24T15:35:03Z</time>
      </trkpt>
      <trkpt lat="43.13353" lon="5.75779">
        <ele>-2.27</ele>
        <time>2016-05-24T15:35:15Z</time>
      </trkpt>
      <trkpt lat="43.13334" lon="5.75731">
        <ele>-1.3</ele>
        <time>2016-05-24T15:35:33Z</time>
      </trkpt>
      <trkpt lat="43.13325" lon="5.75681">
        <ele>-1.79</ele>
        <time>2016-05-24T15:35:53Z</time>
      </trkpt>
      <trkpt lat="43.13338" lon="5.75651">
        <ele>-1.3</ele>
        <time>2016-05-24T15:36:16Z</time>
      </trkpt>
      <trkpt lat="43.13355" lon="5.75636">
        <ele>-1.79</ele>
        <time>2016-05-24T15:36:40Z</time>
      </trkpt>
      <trkpt lat="43.13364" lon="5.75617">
        <ele>-1.3</ele>
        <time>2016-05-24T15:37:02Z</time>
      </trkpt>
      <trkpt lat="43.13368" lon="5.75609">
        <ele>-1.79</ele>
        <time>2016-05-24T15:37:11Z</time>
      </trkpt>
      <trkpt lat="43.13371" lon="5.75603">
        <ele>-2.27</ele>
        <time>2016-05-24T15:37:17Z</time>
      </trkpt>
      <trkpt lat="43.1339" lon="5.75569">
        <ele>-0.82</ele>
        <time>2016-05-24T15:37:45Z</time>
      </trkpt>
      <trkpt lat="43.13404" lon="5.75543">
        <ele>-1.3</ele>
        <time>2016-05-24T15:38:02Z</time>
      </trkpt>
      <trkpt lat="43.1342" lon="5.75518">
        <ele>0.14</ele>
        <time>2016-05-24T15:38:19Z</time>
      </trkpt>
      <trkpt lat="43.13427" lon="5.75504">
        <ele>0.14</ele>
        <time>2016-05-24T15:38:29Z</time>
      </trkpt>
      <trkpt lat="43.1344" lon="5.75484">
        <ele>0.14</ele>
        <time>2016-05-24T15:38:45Z</time>
      </trkpt>
      <trkpt lat="43.13456" lon="5.75461">
        <ele>-0.82</ele>
        <time>2016-05-24T15:39:03Z</time>
      </trkpt>
      <trkpt lat="43.13462" lon="5.75439">
        <ele>-0.82</ele>
        <time>2016-05-24T15:39:19Z</time>
      </trkpt>
      <trkpt lat="43.1346" lon="5.75433">
        <ele>-0.34</ele>
        <time>2016-05-24T15:39:36Z</time>
      </trkpt>
      <trkpt lat="43.13463" lon="5.75439">
        <ele>-0.82</ele>
        <time>2016-05-24T15:39:44Z</time>
      </trkpt>
      <trkpt lat="43.13483" lon="5.7547">
        <ele>-1.3</ele>
        <time>2016-05-24T15:40:11Z</time>
      </trkpt>
      <trkpt lat="43.13505" lon="5.75492">
        <ele>-1.79</ele>
        <time>2016-05-24T15:40:37Z</time>
      </trkpt>
      <trkpt lat="43.13508" lon="5.75494">
        <ele>-3.23</ele>
        <time>2016-05-24T15:40:55Z</time>
      </trkpt>
      <trkpt lat="43.13515" lon="5.755">
        <ele>-0.82</ele>
        <time>2016-05-24T15:41:16Z</time>
      </trkpt>
      <trkpt lat="43.13525" lon="5.75505">
        <ele>0.14</ele>
        <time>2016-05-24T15:41:36Z</time>
      </trkpt>
      <trkpt lat="43.13524" lon="5.75517">
        <ele>-2.27</ele>
        <time>2016-05-24T15:41:48Z</time>
      </trkpt>
      <trkpt lat="43.13525" lon="5.75518">
        <ele>-2.75</ele>
        <time>2016-05-24T15:41:49Z</time>
      </trkpt>
      <trkpt lat="43.13525" lon="5.75521">
        <ele>-2.75</ele>
        <time>2016-05-24T15:41:51Z</time>
      </trkpt>
      <trkpt lat="43.13522" lon="5.75532">
        <ele>-3.23</ele>
        <time>2016-05-24T15:42:07Z</time>
      </trkpt>
      <trkpt lat="43.13523" lon="5.75534">
        <ele>-2.27</ele>
        <time>2016-05-24T15:42:31Z</time>
      </trkpt>
      <trkpt lat="43.13523" lon="5.75534">
        <ele>0.14</ele>
        <time>2016-05-24T15:42:42Z</time>
      </trkpt>
      <trkpt lat="43.13524" lon="5.75534">
        <ele>1.1</ele>
        <time>2016-05-24T15:43:03Z</time>
      </trkpt>
      <trkpt lat="43.13525" lon="5.75534">
        <ele>1.1</ele>
        <time>2016-05-24T15:43:30Z</time>
      </trkpt>
      <trkpt lat="43.13525" lon="5.75535">
        <ele>0.62</ele>
        <time>2016-05-24T15:43:58Z</time>
      </trkpt>
      <trkpt lat="43.13525" lon="5.75536">
        <ele>0.62</ele>
        <time>2016-05-24T15:44:27Z</time>
      </trkpt>
      <trkpt lat="43.13523" lon="5.75535">
        <ele>1.1</ele>
        <time>2016-05-24T15:44:46Z</time>
      </trkpt>
      <trkpt lat="43.13523" lon="5.75535">
        <ele>1.1</ele>
        <time>2016-05-24T15:44:57Z</time>
      </trkpt>
      <trkpt lat="43.13523" lon="5.75535">
        <ele>1.1</ele>
        <time>2016-05-24T15:45:08Z</time>
      </trkpt>
      <trkpt lat="43.13524" lon="5.75535">
        <ele>1.1</ele>
        <time>2016-05-24T15:45:22Z</time>
      </trkpt>
      <trkpt lat="43.13524" lon="5.75536">
        <ele>0.62</ele>
        <time>2016-05-24T15:45:30Z</time>
      </trkpt>
      <trkpt lat="43.13524" lon="5.75536">
        <ele>0.62</ele>
        <time>2016-05-24T15:45:32Z</time>
      </trkpt>
      <trkpt lat="43.1352" lon="5.75534">
        <ele>-0.34</ele>
        <time>2016-05-24T15:45:45Z</time>
      </trkpt>
      <trkpt lat="43.13517" lon="5.75532">
        <ele>0.14</ele>
        <time>2016-05-24T15:45:57Z</time>
      </trkpt>
      <trkpt lat="43.13512" lon="5.75528">
        <ele>1.1</ele>
        <time>2016-05-24T15:46:06Z</time>
      </trkpt>
      <trkpt lat="43.13507" lon="5.75526">
        <ele>1.58</ele>
        <time>2016-05-24T15:46:18Z</time>
      </trkpt>
      <trkpt lat="43.135" lon="5.7552">
        <ele>1.58</ele>
        <time>2016-05-24T15:46:32Z</time>
      </trkpt>
      <trkpt lat="43.13498" lon="5.75518">
        <ele>2.06</ele>
        <time>2016-05-24T15:46:43Z</time>
      </trkpt>
      <trkpt lat="43.13495" lon="5.75517">
        <ele>2.54</ele>
        <time>2016-05-24T15:47:20Z</time>
      </trkpt>
      <trkpt lat="43.13495" lon="5.75516">
        <ele>2.54</ele>
        <time>2016-05-24T15:47:54Z</time>
      </trkpt>
      <trkpt lat="43.13494" lon="5.75515">
        <ele>2.06</ele>
        <time>2016-05-24T15:48:26Z</time>
      </trkpt>
      <trkpt lat="43.13493" lon="5.75514">
        <ele>1.1</ele>
        <time>2016-05-24T15:49:01Z</time>
      </trkpt>
      <trkpt lat="43.13493" lon="5.75514">
        <ele>0.62</ele>
        <time>2016-05-24T15:49:40Z</time>
      </trkpt>
      <trkpt lat="43.13492" lon="5.75513">
        <ele>-0.34</ele>
        <time>2016-05-24T15:50:14Z</time>
      </trkpt>
      <trkpt lat="43.13492" lon="5.75513">
        <ele>-1.3</ele>
        <time>2016-05-24T15:50:43Z</time>
      </trkpt>
      <trkpt lat="43.13492" lon="5.75513">
        <ele>-1.3</ele>
        <time>2016-05-24T15:51:23Z</time>
      </trkpt>
      <trkpt lat="43.13492" lon="5.75513">
        <ele>-2.27</ele>
        <time>2016-05-24T15:51:57Z</time>
      </trkpt>
      <trkpt lat="43.13492" lon="5.75513">
        <ele>-2.27</ele>
        <time>2016-05-24T15:52:26Z</time>
      </trkpt>
      <trkpt lat="43.13491" lon="5.75512">
        <ele>-2.75</ele>
        <time>2016-05-24T15:53:03Z</time>
      </trkpt>
      <trkpt lat="43.13491" lon="5.75513">
        <ele>-3.23</ele>
        <time>2016-05-24T15:53:36Z</time>
      </trkpt>
      <trkpt lat="43.13491" lon="5.75513">
        <ele>-3.23</ele>
        <time>2016-05-24T15:54:12Z</time>
      </trkpt>
      <trkpt lat="43.13491" lon="5.75513">
        <ele>-3.23</ele>
        <time>2016-05-24T15:54:41Z</time>
      </trkpt>
      <trkpt lat="43.13491" lon="5.75513">
        <ele>-3.23</ele>
        <time>2016-05-24T15:55:11Z</time>
      </trkpt>
      <trkpt lat="43.13491" lon="5.75513">
        <ele>-3.71</ele>
        <time>2016-05-24T15:55:23Z</time>
      </trkpt>
      <trkpt lat="43.1349" lon="5.75513">
        <ele>-3.23</ele>
        <time>2016-05-24T15:55:32Z</time>
      </trkpt>
    </trkseg>
  </trk>
  <trk>
    <name><![CDATA[Tracé actuel: 25 MAI 2016 11:46]]></name>
    <trkseg>
      <trkpt lat="43.1277" lon="5.75681">
        <ele>-10.44</ele>
        <time>2016-05-25T09:46:37Z</time>
      </trkpt>
      <trkpt lat="43.12745" lon="5.75644">
        <ele>-9.96</ele>
        <time>2016-05-25T09:46:59Z</time>
      </trkpt>
      <trkpt lat="43.12732" lon="5.75604">
        <ele>-12.84</ele>
        <time>2016-05-25T09:47:19Z</time>
      </trkpt>
      <trkpt lat="43.12711" lon="5.75564">
        <ele>1.58</ele>
        <time>2016-05-25T09:47:40Z</time>
      </trkpt>
      <trkpt lat="43.1269" lon="5.75526">
        <ele>2.54</ele>
        <time>2016-05-25T09:48:00Z</time>
      </trkpt>
      <trkpt lat="43.12666" lon="5.75478">
        <ele>2.54</ele>
        <time>2016-05-25T09:48:23Z</time>
      </trkpt>
      <trkpt lat="43.12644" lon="5.75434">
        <ele>2.06</ele>
        <time>2016-05-25T09:48:44Z</time>
      </trkpt>
      <trkpt lat="43.12617" lon="5.75383">
        <ele>2.06</ele>
        <time>2016-05-25T09:49:07Z</time>
      </trkpt>
      <trkpt lat="43.12591" lon="5.75331">
        <ele>1.58</ele>
        <time>2016-05-25T09:49:30Z</time>
      </trkpt>
      <trkpt lat="43.12583" lon="5.75318">
        <ele>2.54</ele>
        <time>2016-05-25T09:49:36Z</time>
      </trkpt>
      <trkpt lat="43.12575" lon="5.75319">
        <ele>2.54</ele>
        <time>2016-05-25T09:49:41Z</time>
      </trkpt>
      <trkpt lat="43.12571" lon="5.75323">
        <ele>3.02</ele>
        <time>2016-05-25T09:49:45Z</time>
      </trkpt>
      <trkpt lat="43.12558" lon="5.7534">
        <ele>3.02</ele>
        <time>2016-05-25T09:50:06Z</time>
      </trkpt>
      <trkpt lat="43.12548" lon="5.75356">
        <ele>1.58</ele>
        <time>2016-05-25T09:50:25Z</time>
      </trkpt>
      <trkpt lat="43.12539" lon="5.75371">
        <ele>1.58</ele>
        <time>2016-05-25T09:50:42Z</time>
      </trkpt>
      <trkpt lat="43.12532" lon="5.75393">
        <ele>0.14</ele>
        <time>2016-05-25T09:51:00Z</time>
      </trkpt>
      <trkpt lat="43.12525" lon="5.75421">
        <ele>0.62</ele>
        <time>2016-05-25T09:51:20Z</time>
      </trkpt>
      <trkpt lat="43.12518" lon="5.75459">
        <ele>0.14</ele>
        <time>2016-05-25T09:51:44Z</time>
      </trkpt>
      <trkpt lat="43.12508" lon="5.75493">
        <ele>0.14</ele>
        <time>2016-05-25T09:52:05Z</time>
      </trkpt>
      <trkpt lat="43.12498" lon="5.7553">
        <ele>-0.34</ele>
        <time>2016-05-25T09:52:28Z</time>
      </trkpt>
      <trkpt lat="43.12486" lon="5.75559">
        <ele>0.14</ele>
        <time>2016-05-25T09:52:48Z</time>
      </trkpt>
      <trkpt lat="43.12476" lon="5.75586">
        <ele>0.14</ele>
        <time>2016-05-25T09:53:06Z</time>
      </trkpt>
      <trkpt lat="43.12465" lon="5.75614">
        <ele>0.14</ele>
        <time>2016-05-25T09:53:24Z</time>
      </trkpt>
      <trkpt lat="43.12454" lon="5.75646">
        <ele>-0.34</ele>
        <time>2016-05-25T09:53:43Z</time>
      </trkpt>
      <trkpt lat="43.12442" lon="5.75684">
        <ele>-0.34</ele>
        <time>2016-05-25T09:54:04Z</time>
      </trkpt>
      <trkpt lat="43.1243" lon="5.75722">
        <ele>-0.34</ele>
        <time>2016-05-25T09:54:23Z</time>
      </trkpt>
      <trkpt lat="43.12417" lon="5.75758">
        <ele>-0.82</ele>
        <time>2016-05-25T09:54:41Z</time>
      </trkpt>
      <trkpt lat="43.12404" lon="5.75793">
        <ele>-0.82</ele>
        <time>2016-05-25T09:55:00Z</time>
      </trkpt>
      <trkpt lat="43.12388" lon="5.75831">
        <ele>-1.3</ele>
        <time>2016-05-25T09:55:22Z</time>
      </trkpt>
      <trkpt lat="43.12378" lon="5.75854">
        <ele>0.14</ele>
        <time>2016-05-25T09:55:38Z</time>
      </trkpt>
      <trkpt lat="43.12364" lon="5.75882">
        <ele>0.14</ele>
        <time>2016-05-25T09:55:59Z</time>
      </trkpt>
      <trkpt lat="43.12353" lon="5.75903">
        <ele>-0.34</ele>
        <time>2016-05-25T09:56:17Z</time>
      </trkpt>
      <trkpt lat="43.12341" lon="5.75923">
        <ele>0.14</ele>
        <time>2016-05-25T09:56:35Z</time>
      </trkpt>
      <trkpt lat="43.12332" lon="5.75945">
        <ele>0.62</ele>
        <time>2016-05-25T09:56:54Z</time>
      </trkpt>
      <trkpt lat="43.12324" lon="5.75967">
        <ele>0.62</ele>
        <time>2016-05-25T09:57:12Z</time>
      </trkpt>
      <trkpt lat="43.12316" lon="5.75985">
        <ele>-0.34</ele>
        <time>2016-05-25T09:57:28Z</time>
      </trkpt>
      <trkpt lat="43.1231" lon="5.76007">
        <ele>0.14</ele>
        <time>2016-05-25T09:57:47Z</time>
      </trkpt>
      <trkpt lat="43.12304" lon="5.76031">
        <ele>0.62</ele>
        <time>2016-05-25T09:58:07Z</time>
      </trkpt>
      <trkpt lat="43.12298" lon="5.7605">
        <ele>0.14</ele>
        <time>2016-05-25T09:58:24Z</time>
      </trkpt>
      <trkpt lat="43.12292" lon="5.76074">
        <ele>0.14</ele>
        <time>2016-05-25T09:58:45Z</time>
      </trkpt>
      <trkpt lat="43.12286" lon="5.76096">
        <ele>0.14</ele>
        <time>2016-05-25T09:59:04Z</time>
      </trkpt>
      <trkpt lat="43.12282" lon="5.76119">
        <ele>0.14</ele>
        <time>2016-05-25T09:59:23Z</time>
      </trkpt>
      <trkpt lat="43.12276" lon="5.76149">
        <ele>0.62</ele>
        <time>2016-05-25T09:59:45Z</time>
      </trkpt>
      <trkpt lat="43.12267" lon="5.76179">
        <ele>0.62</ele>
        <time>2016-05-25T10:00:09Z</time>
      </trkpt>
      <trkpt lat="43.12262" lon="5.76198">
        <ele>-0.34</ele>
        <time>2016-05-25T10:00:26Z</time>
      </trkpt>
      <trkpt lat="43.12259" lon="5.76214">
        <ele>0.14</ele>
        <time>2016-05-25T10:00:42Z</time>
      </trkpt>
      <trkpt lat="43.12259" lon="5.76218">
        <ele>0.14</ele>
        <time>2016-05-25T10:00:45Z</time>
      </trkpt>
      <trkpt lat="43.1226" lon="5.76242">
        <ele>0.62</ele>
        <time>2016-05-25T10:01:03Z</time>
      </trkpt>
      <trkpt lat="43.12256" lon="5.76275">
        <ele>2.06</ele>
        <time>2016-05-25T10:01:23Z</time>
      </trkpt>
      <trkpt lat="43.12249" lon="5.76305">
        <ele>1.58</ele>
        <time>2016-05-25T10:01:44Z</time>
      </trkpt>
      <trkpt lat="43.1225" lon="5.76324">
        <ele>1.1</ele>
        <time>2016-05-25T10:01:59Z</time>
      </trkpt>
      <trkpt lat="43.1225" lon="5.76354">
        <ele>0.62</ele>
        <time>2016-05-25T10:02:20Z</time>
      </trkpt>
      <trkpt lat="43.1225" lon="5.76381">
        <ele>0.14</ele>
        <time>2016-05-25T10:02:38Z</time>
      </trkpt>
      <trkpt lat="43.12252" lon="5.76416">
        <ele>0.62</ele>
        <time>2016-05-25T10:03:00Z</time>
      </trkpt>
      <trkpt lat="43.12251" lon="5.76446">
        <ele>1.1</ele>
        <time>2016-05-25T10:03:20Z</time>
      </trkpt>
      <trkpt lat="43.12251" lon="5.76475">
        <ele>0.14</ele>
        <time>2016-05-25T10:03:39Z</time>
      </trkpt>
      <trkpt lat="43.12252" lon="5.76503">
        <ele>0.62</ele>
        <time>2016-05-25T10:03:57Z</time>
      </trkpt>
      <trkpt lat="43.12253" lon="5.76537">
        <ele>0.62</ele>
        <time>2016-05-25T10:04:17Z</time>
      </trkpt>
      <trkpt lat="43.12251" lon="5.76581">
        <ele>1.1</ele>
        <time>2016-05-25T10:04:41Z</time>
      </trkpt>
      <trkpt lat="43.12247" lon="5.76615">
        <ele>1.58</ele>
        <time>2016-05-25T10:05:00Z</time>
      </trkpt>
      <trkpt lat="43.12242" lon="5.76649">
        <ele>2.06</ele>
        <time>2016-05-25T10:05:21Z</time>
      </trkpt>
      <trkpt lat="43.12239" lon="5.76683">
        <ele>1.58</ele>
        <time>2016-05-25T10:05:41Z</time>
      </trkpt>
      <trkpt lat="43.12235" lon="5.76723">
        <ele>1.58</ele>
        <time>2016-05-25T10:06:02Z</time>
      </trkpt>
      <trkpt lat="43.12232" lon="5.76767">
        <ele>0.62</ele>
        <time>2016-05-25T10:06:23Z</time>
      </trkpt>
      <trkpt lat="43.12228" lon="5.76801">
        <ele>0.14</ele>
        <time>2016-05-25T10:06:42Z</time>
      </trkpt>
      <trkpt lat="43.12225" lon="5.76831">
        <ele>1.1</ele>
        <time>2016-05-25T10:06:59Z</time>
      </trkpt>
      <trkpt lat="43.12215" lon="5.76873">
        <ele>1.58</ele>
        <time>2016-05-25T10:07:22Z</time>
      </trkpt>
      <trkpt lat="43.12204" lon="5.76885">
        <ele>1.58</ele>
        <time>2016-05-25T10:07:38Z</time>
      </trkpt>
      <trkpt lat="43.122" lon="5.76881">
        <ele>1.58</ele>
        <time>2016-05-25T10:07:43Z</time>
      </trkpt>
      <trkpt lat="43.12173" lon="5.76851">
        <ele>2.54</ele>
        <time>2016-05-25T10:08:04Z</time>
      </trkpt>
      <trkpt lat="43.12141" lon="5.76818">
        <ele>1.58</ele>
        <time>2016-05-25T10:08:20Z</time>
      </trkpt>
      <trkpt lat="43.12099" lon="5.76772">
        <ele>1.58</ele>
        <time>2016-05-25T10:08:42Z</time>
      </trkpt>
      <trkpt lat="43.12058" lon="5.76729">
        <ele>2.06</ele>
        <time>2016-05-25T10:09:06Z</time>
      </trkpt>
      <trkpt lat="43.12025" lon="5.76696">
        <ele>2.54</ele>
        <time>2016-05-25T10:09:26Z</time>
      </trkpt>
      <trkpt lat="43.11996" lon="5.76662">
        <ele>2.06</ele>
        <time>2016-05-25T10:09:47Z</time>
      </trkpt>
      <trkpt lat="43.11966" lon="5.76629">
        <ele>2.06</ele>
        <time>2016-05-25T10:10:10Z</time>
      </trkpt>
      <trkpt lat="43.1194" lon="5.76602">
        <ele>2.06</ele>
        <time>2016-05-25T10:10:29Z</time>
      </trkpt>
      <trkpt lat="43.11912" lon="5.76575">
        <ele>3.02</ele>
        <time>2016-05-25T10:10:49Z</time>
      </trkpt>
      <trkpt lat="43.11889" lon="5.76555">
        <ele>3.5</ele>
        <time>2016-05-25T10:11:06Z</time>
      </trkpt>
      <trkpt lat="43.11863" lon="5.76529">
        <ele>3.5</ele>
        <time>2016-05-25T10:11:28Z</time>
      </trkpt>
      <trkpt lat="43.11845" lon="5.76512">
        <ele>3.5</ele>
        <time>2016-05-25T10:11:44Z</time>
      </trkpt>
      <trkpt lat="43.11819" lon="5.76484">
        <ele>3.5</ele>
        <time>2016-05-25T10:12:07Z</time>
      </trkpt>
      <trkpt lat="43.11797" lon="5.76466">
        <ele>2.06</ele>
        <time>2016-05-25T10:12:22Z</time>
      </trkpt>
      <trkpt lat="43.11769" lon="5.76442">
        <ele>1.1</ele>
        <time>2016-05-25T10:12:39Z</time>
      </trkpt>
      <trkpt lat="43.11726" lon="5.76407">
        <ele>0.62</ele>
        <time>2016-05-25T10:13:01Z</time>
      </trkpt>
      <trkpt lat="43.11691" lon="5.76384">
        <ele>0.14</ele>
        <time>2016-05-25T10:13:18Z</time>
      </trkpt>
      <trkpt lat="43.11659" lon="5.76361">
        <ele>-0.34</ele>
        <time>2016-05-25T10:13:35Z</time>
      </trkpt>
      <trkpt lat="43.11631" lon="5.76337">
        <ele>-0.82</ele>
        <time>2016-05-25T10:13:52Z</time>
      </trkpt>
      <trkpt lat="43.11607" lon="5.76317">
        <ele>0.14</ele>
        <time>2016-05-25T10:14:07Z</time>
      </trkpt>
      <trkpt lat="43.11578" lon="5.76295">
        <ele>1.1</ele>
        <time>2016-05-25T10:14:26Z</time>
      </trkpt>
      <trkpt lat="43.11569" lon="5.76289">
        <ele>1.1</ele>
        <time>2016-05-25T10:14:33Z</time>
      </trkpt>
      <trkpt lat="43.11546" lon="5.76276">
        <ele>1.1</ele>
        <time>2016-05-25T10:14:51Z</time>
      </trkpt>
      <trkpt lat="43.11526" lon="5.76259">
        <ele>1.1</ele>
        <time>2016-05-25T10:15:10Z</time>
      </trkpt>
      <trkpt lat="43.11502" lon="5.7624">
        <ele>1.1</ele>
        <time>2016-05-25T10:15:30Z</time>
      </trkpt>
      <trkpt lat="43.11476" lon="5.76219">
        <ele>0.62</ele>
        <time>2016-05-25T10:15:50Z</time>
      </trkpt>
      <trkpt lat="43.11448" lon="5.76197">
        <ele>1.1</ele>
        <time>2016-05-25T10:16:09Z</time>
      </trkpt>
      <trkpt lat="43.11423" lon="5.76183">
        <ele>0.62</ele>
        <time>2016-05-25T10:16:26Z</time>
      </trkpt>
      <trkpt lat="43.11396" lon="5.76167">
        <ele>-0.34</ele>
        <time>2016-05-25T10:16:45Z</time>
      </trkpt>
      <trkpt lat="43.11374" lon="5.76155">
        <ele>-0.82</ele>
        <time>2016-05-25T10:17:03Z</time>
      </trkpt>
      <trkpt lat="43.11356" lon="5.76145">
        <ele>-0.34</ele>
        <time>2016-05-25T10:17:21Z</time>
      </trkpt>
      <trkpt lat="43.11337" lon="5.76126">
        <ele>1.1</ele>
        <time>2016-05-25T10:17:42Z</time>
      </trkpt>
      <trkpt lat="43.11323" lon="5.76129">
        <ele>0.62</ele>
        <time>2016-05-25T10:17:59Z</time>
      </trkpt>
      <trkpt lat="43.11314" lon="5.7614">
        <ele>0.62</ele>
        <time>2016-05-25T10:18:19Z</time>
      </trkpt>
      <trkpt lat="43.11313" lon="5.7615">
        <ele>0.62</ele>
        <time>2016-05-25T10:18:29Z</time>
      </trkpt>
      <trkpt lat="43.1131" lon="5.7617">
        <ele>0.62</ele>
        <time>2016-05-25T10:18:48Z</time>
      </trkpt>
      <trkpt lat="43.11307" lon="5.76195">
        <ele>0.14</ele>
        <time>2016-05-25T10:19:07Z</time>
      </trkpt>
      <trkpt lat="43.11303" lon="5.7622">
        <ele>-0.82</ele>
        <time>2016-05-25T10:19:25Z</time>
      </trkpt>
      <trkpt lat="43.11299" lon="5.76242">
        <ele>0.14</ele>
        <time>2016-05-25T10:19:41Z</time>
      </trkpt>
      <trkpt lat="43.11295" lon="5.76271">
        <ele>-0.34</ele>
        <time>2016-05-25T10:20:03Z</time>
      </trkpt>
      <trkpt lat="43.11295" lon="5.76296">
        <ele>-1.3</ele>
        <time>2016-05-25T10:20:23Z</time>
      </trkpt>
      <trkpt lat="43.11299" lon="5.76323">
        <ele>-1.3</ele>
        <time>2016-05-25T10:20:43Z</time>
      </trkpt>
      <trkpt lat="43.11299" lon="5.76324">
        <ele>-1.3</ele>
        <time>2016-05-25T10:20:44Z</time>
      </trkpt>
      <trkpt lat="43.11303" lon="5.76348">
        <ele>-0.82</ele>
        <time>2016-05-25T10:21:01Z</time>
      </trkpt>
      <trkpt lat="43.11307" lon="5.76376">
        <ele>-1.3</ele>
        <time>2016-05-25T10:21:21Z</time>
      </trkpt>
      <trkpt lat="43.11312" lon="5.76401">
        <ele>-1.79</ele>
        <time>2016-05-25T10:21:41Z</time>
      </trkpt>
      <trkpt lat="43.11315" lon="5.76417">
        <ele>-1.3</ele>
        <time>2016-05-25T10:21:54Z</time>
      </trkpt>
      <trkpt lat="43.11321" lon="5.76443">
        <ele>-2.27</ele>
        <time>2016-05-25T10:22:14Z</time>
      </trkpt>
      <trkpt lat="43.11328" lon="5.76473">
        <ele>-3.23</ele>
        <time>2016-05-25T10:22:34Z</time>
      </trkpt>
      <trkpt lat="43.11336" lon="5.76508">
        <ele>-2.27</ele>
        <time>2016-05-25T10:22:56Z</time>
      </trkpt>
      <trkpt lat="43.11343" lon="5.76536">
        <ele>-1.79</ele>
        <time>2016-05-25T10:23:14Z</time>
      </trkpt>
      <trkpt lat="43.1135" lon="5.76571">
        <ele>-1.3</ele>
        <time>2016-05-25T10:23:35Z</time>
      </trkpt>
      <trkpt lat="43.11357" lon="5.76607">
        <ele>-0.82</ele>
        <time>2016-05-25T10:23:55Z</time>
      </trkpt>
      <trkpt lat="43.11362" lon="5.76638">
        <ele>-0.82</ele>
        <time>2016-05-25T10:24:13Z</time>
      </trkpt>
      <trkpt lat="43.11367" lon="5.76669">
        <ele>-1.3</ele>
        <time>2016-05-25T10:24:33Z</time>
      </trkpt>
      <trkpt lat="43.11372" lon="5.76688">
        <ele>-1.79</ele>
        <time>2016-05-25T10:24:46Z</time>
      </trkpt>
      <trkpt lat="43.11376" lon="5.76705">
        <ele>-1.3</ele>
        <time>2016-05-25T10:24:58Z</time>
      </trkpt>
      <trkpt lat="43.11383" lon="5.76736">
        <ele>-1.3</ele>
        <time>2016-05-25T10:25:19Z</time>
      </trkpt>
      <trkpt lat="43.11386" lon="5.76744">
        <ele>-1.79</ele>
        <time>2016-05-25T10:25:25Z</time>
      </trkpt>
      <trkpt lat="43.11394" lon="5.76772">
        <ele>-1.79</ele>
        <time>2016-05-25T10:25:45Z</time>
      </trkpt>
      <trkpt lat="43.11404" lon="5.76803">
        <ele>-2.75</ele>
        <time>2016-05-25T10:26:07Z</time>
      </trkpt>
      <trkpt lat="43.11414" lon="5.76836">
        <ele>-4.19</ele>
        <time>2016-05-25T10:26:30Z</time>
      </trkpt>
      <trkpt lat="43.11424" lon="5.76865">
        <ele>-2.75</ele>
        <time>2016-05-25T10:26:50Z</time>
      </trkpt>
      <trkpt lat="43.11431" lon="5.76897">
        <ele>-2.75</ele>
        <time>2016-05-25T10:27:13Z</time>
      </trkpt>
      <trkpt lat="43.1144" lon="5.76919">
        <ele>-2.75</ele>
        <time>2016-05-25T10:27:30Z</time>
      </trkpt>
      <trkpt lat="43.11451" lon="5.76949">
        <ele>-3.23</ele>
        <time>2016-05-25T10:27:50Z</time>
      </trkpt>
      <trkpt lat="43.11461" lon="5.76983">
        <ele>-2.27</ele>
        <time>2016-05-25T10:28:12Z</time>
      </trkpt>
      <trkpt lat="43.11471" lon="5.77018">
        <ele>-2.27</ele>
        <time>2016-05-25T10:28:36Z</time>
      </trkpt>
      <trkpt lat="43.1148" lon="5.7705">
        <ele>-2.27</ele>
        <time>2016-05-25T10:28:58Z</time>
      </trkpt>
      <trkpt lat="43.11488" lon="5.77079">
        <ele>-2.27</ele>
        <time>2016-05-25T10:29:18Z</time>
      </trkpt>
      <trkpt lat="43.11494" lon="5.77103">
        <ele>-1.79</ele>
        <time>2016-05-25T10:29:35Z</time>
      </trkpt>
      <trkpt lat="43.115" lon="5.77136">
        <ele>-1.79</ele>
        <time>2016-05-25T10:29:59Z</time>
      </trkpt>
      <trkpt lat="43.11506" lon="5.77162">
        <ele>-1.79</ele>
        <time>2016-05-25T10:30:21Z</time>
      </trkpt>
      <trkpt lat="43.11513" lon="5.77188">
        <ele>-1.3</ele>
        <time>2016-05-25T10:30:40Z</time>
      </trkpt>
      <trkpt lat="43.11517" lon="5.77218">
        <ele>-1.3</ele>
        <time>2016-05-25T10:31:02Z</time>
      </trkpt>
      <trkpt lat="43.11528" lon="5.77253">
        <ele>-1.79</ele>
        <time>2016-05-25T10:31:26Z</time>
      </trkpt>
      <trkpt lat="43.11537" lon="5.77292">
        <ele>-1.79</ele>
        <time>2016-05-25T10:31:48Z</time>
      </trkpt>
      <trkpt lat="43.11538" lon="5.77319">
        <ele>-1.3</ele>
        <time>2016-05-25T10:32:09Z</time>
      </trkpt>
      <trkpt lat="43.11526" lon="5.77327">
        <ele>-0.82</ele>
        <time>2016-05-25T10:32:29Z</time>
      </trkpt>
      <trkpt lat="43.11516" lon="5.77335">
        <ele>-0.82</ele>
        <time>2016-05-25T10:32:43Z</time>
      </trkpt>
      <trkpt lat="43.11497" lon="5.77349">
        <ele>0.62</ele>
        <time>2016-05-25T10:33:03Z</time>
      </trkpt>
      <trkpt lat="43.11472" lon="5.77369">
        <ele>0.62</ele>
        <time>2016-05-25T10:33:24Z</time>
      </trkpt>
      <trkpt lat="43.11449" lon="5.77393">
        <ele>1.1</ele>
        <time>2016-05-25T10:33:44Z</time>
      </trkpt>
      <trkpt lat="43.11426" lon="5.77416">
        <ele>0.14</ele>
        <time>2016-05-25T10:34:04Z</time>
      </trkpt>
      <trkpt lat="43.11404" lon="5.77436">
        <ele>1.1</ele>
        <time>2016-05-25T10:34:24Z</time>
      </trkpt>
      <trkpt lat="43.11383" lon="5.77454">
        <ele>1.58</ele>
        <time>2016-05-25T10:34:43Z</time>
      </trkpt>
      <trkpt lat="43.11362" lon="5.77471">
        <ele>-0.34</ele>
        <time>2016-05-25T10:35:00Z</time>
      </trkpt>
      <trkpt lat="43.11333" lon="5.77498">
        <ele>0.14</ele>
        <time>2016-05-25T10:35:25Z</time>
      </trkpt>
      <trkpt lat="43.11313" lon="5.77515">
        <ele>1.1</ele>
        <time>2016-05-25T10:35:42Z</time>
      </trkpt>
      <trkpt lat="43.11284" lon="5.7754">
        <ele>1.58</ele>
        <time>2016-05-25T10:36:05Z</time>
      </trkpt>
      <trkpt lat="43.11258" lon="5.77565">
        <ele>1.1</ele>
        <time>2016-05-25T10:36:29Z</time>
      </trkpt>
      <trkpt lat="43.11236" lon="5.77584">
        <ele>1.1</ele>
        <time>2016-05-25T10:36:50Z</time>
      </trkpt>
      <trkpt lat="43.11219" lon="5.77596">
        <ele>1.1</ele>
        <time>2016-05-25T10:37:07Z</time>
      </trkpt>
      <trkpt lat="43.11201" lon="5.77606">
        <ele>1.1</ele>
        <time>2016-05-25T10:37:24Z</time>
      </trkpt>
      <trkpt lat="43.11182" lon="5.77617">
        <ele>0.62</ele>
        <time>2016-05-25T10:37:40Z</time>
      </trkpt>
      <trkpt lat="43.11155" lon="5.77631">
        <ele>0.62</ele>
        <time>2016-05-25T10:38:01Z</time>
      </trkpt>
      <trkpt lat="43.11129" lon="5.77645">
        <ele>0.62</ele>
        <time>2016-05-25T10:38:21Z</time>
      </trkpt>
      <trkpt lat="43.11102" lon="5.7766">
        <ele>0.14</ele>
        <time>2016-05-25T10:38:41Z</time>
      </trkpt>
      <trkpt lat="43.11076" lon="5.77676">
        <ele>0.14</ele>
        <time>2016-05-25T10:39:02Z</time>
      </trkpt>
      <trkpt lat="43.11055" lon="5.77692">
        <ele>-0.34</ele>
        <time>2016-05-25T10:39:21Z</time>
      </trkpt>
      <trkpt lat="43.11034" lon="5.77708">
        <ele>-0.34</ele>
        <time>2016-05-25T10:39:39Z</time>
      </trkpt>
      <trkpt lat="43.11015" lon="5.77724">
        <ele>-0.34</ele>
        <time>2016-05-25T10:39:56Z</time>
      </trkpt>
      <trkpt lat="43.10996" lon="5.77737">
        <ele>-0.82</ele>
        <time>2016-05-25T10:40:13Z</time>
      </trkpt>
      <trkpt lat="43.10975" lon="5.77754">
        <ele>-0.82</ele>
        <time>2016-05-25T10:40:33Z</time>
      </trkpt>
      <trkpt lat="43.10956" lon="5.7777">
        <ele>-1.3</ele>
        <time>2016-05-25T10:40:52Z</time>
      </trkpt>
      <trkpt lat="43.10936" lon="5.77786">
        <ele>-1.3</ele>
        <time>2016-05-25T10:41:13Z</time>
      </trkpt>
      <trkpt lat="43.10918" lon="5.77802">
        <ele>-0.82</ele>
        <time>2016-05-25T10:41:33Z</time>
      </trkpt>
      <trkpt lat="43.10901" lon="5.77813">
        <ele>-0.34</ele>
        <time>2016-05-25T10:41:49Z</time>
      </trkpt>
      <trkpt lat="43.10881" lon="5.77826">
        <ele>-0.34</ele>
        <time>2016-05-25T10:42:06Z</time>
      </trkpt>
      <trkpt lat="43.10855" lon="5.77844">
        <ele>-0.34</ele>
        <time>2016-05-25T10:42:26Z</time>
      </trkpt>
      <trkpt lat="43.10824" lon="5.77876">
        <ele>0.14</ele>
        <time>2016-05-25T10:42:50Z</time>
      </trkpt>
      <trkpt lat="43.10807" lon="5.77893">
        <ele>0.62</ele>
        <time>2016-05-25T10:43:07Z</time>
      </trkpt>
      <trkpt lat="43.10786" lon="5.77905">
        <ele>-0.34</ele>
        <time>2016-05-25T10:43:28Z</time>
      </trkpt>
      <trkpt lat="43.10757" lon="5.77914">
        <ele>-0.82</ele>
        <time>2016-05-25T10:43:51Z</time>
      </trkpt>
      <trkpt lat="43.10734" lon="5.77921">
        <ele>0.14</ele>
        <time>2016-05-25T10:44:11Z</time>
      </trkpt>
      <trkpt lat="43.1071" lon="5.77927">
        <ele>-0.34</ele>
        <time>2016-05-25T10:44:30Z</time>
      </trkpt>
      <trkpt lat="43.10681" lon="5.77937">
        <ele>-1.3</ele>
        <time>2016-05-25T10:44:52Z</time>
      </trkpt>
      <trkpt lat="43.10655" lon="5.77947">
        <ele>-1.3</ele>
        <time>2016-05-25T10:45:13Z</time>
      </trkpt>
      <trkpt lat="43.10629" lon="5.77956">
        <ele>-1.3</ele>
        <time>2016-05-25T10:45:33Z</time>
      </trkpt>
      <trkpt lat="43.10602" lon="5.77964">
        <ele>-1.79</ele>
        <time>2016-05-25T10:45:54Z</time>
      </trkpt>
      <trkpt lat="43.10577" lon="5.77972">
        <ele>-1.3</ele>
        <time>2016-05-25T10:46:14Z</time>
      </trkpt>
      <trkpt lat="43.10554" lon="5.77981">
        <ele>-1.3</ele>
        <time>2016-05-25T10:46:33Z</time>
      </trkpt>
      <trkpt lat="43.10526" lon="5.77992">
        <ele>-1.3</ele>
        <time>2016-05-25T10:46:54Z</time>
      </trkpt>
      <trkpt lat="43.10506" lon="5.78002">
        <ele>-2.27</ele>
        <time>2016-05-25T10:47:11Z</time>
      </trkpt>
      <trkpt lat="43.10483" lon="5.78016">
        <ele>-1.79</ele>
        <time>2016-05-25T10:47:29Z</time>
      </trkpt>
      <trkpt lat="43.1046" lon="5.78032">
        <ele>-1.79</ele>
        <time>2016-05-25T10:47:51Z</time>
      </trkpt>
      <trkpt lat="43.10436" lon="5.78047">
        <ele>-1.3</ele>
        <time>2016-05-25T10:48:11Z</time>
      </trkpt>
      <trkpt lat="43.1041" lon="5.78061">
        <ele>-1.79</ele>
        <time>2016-05-25T10:48:31Z</time>
      </trkpt>
      <trkpt lat="43.10378" lon="5.78079">
        <ele>-1.3</ele>
        <time>2016-05-25T10:48:54Z</time>
      </trkpt>
      <trkpt lat="43.10348" lon="5.78095">
        <ele>-1.79</ele>
        <time>2016-05-25T10:49:15Z</time>
      </trkpt>
      <trkpt lat="43.10343" lon="5.78102">
        <ele>-1.79</ele>
        <time>2016-05-25T10:49:21Z</time>
      </trkpt>
      <trkpt lat="43.10349" lon="5.78127">
        <ele>-1.3</ele>
        <time>2016-05-25T10:49:40Z</time>
      </trkpt>
      <trkpt lat="43.10365" lon="5.78162">
        <ele>-0.34</ele>
        <time>2016-05-25T10:50:03Z</time>
      </trkpt>
      <trkpt lat="43.1039" lon="5.78217">
        <ele>-0.34</ele>
        <time>2016-05-25T10:50:28Z</time>
      </trkpt>
      <trkpt lat="43.10419" lon="5.7828">
        <ele>0.14</ele>
        <time>2016-05-25T10:50:53Z</time>
      </trkpt>
      <trkpt lat="43.10453" lon="5.78354">
        <ele>0.14</ele>
        <time>2016-05-25T10:51:21Z</time>
      </trkpt>
      <trkpt lat="43.10482" lon="5.7842">
        <ele>0.62</ele>
        <time>2016-05-25T10:51:46Z</time>
      </trkpt>
      <trkpt lat="43.10506" lon="5.78473">
        <ele>0.62</ele>
        <time>2016-05-25T10:52:07Z</time>
      </trkpt>
      <trkpt lat="43.10532" lon="5.78532">
        <ele>0.62</ele>
        <time>2016-05-25T10:52:32Z</time>
      </trkpt>
      <trkpt lat="43.10558" lon="5.78588">
        <ele>1.1</ele>
        <time>2016-05-25T10:52:55Z</time>
      </trkpt>
      <trkpt lat="43.10589" lon="5.7866">
        <ele>0.62</ele>
        <time>2016-05-25T10:53:24Z</time>
      </trkpt>
      <trkpt lat="43.10619" lon="5.78725">
        <ele>1.1</ele>
        <time>2016-05-25T10:53:52Z</time>
      </trkpt>
      <trkpt lat="43.10647" lon="5.78786">
        <ele>1.1</ele>
        <time>2016-05-25T10:54:17Z</time>
      </trkpt>
      <trkpt lat="43.10674" lon="5.78847">
        <ele>0.62</ele>
        <time>2016-05-25T10:54:42Z</time>
      </trkpt>
      <trkpt lat="43.10697" lon="5.78899">
        <ele>0.62</ele>
        <time>2016-05-25T10:55:04Z</time>
      </trkpt>
      <trkpt lat="43.10719" lon="5.78946">
        <ele>0.62</ele>
        <time>2016-05-25T10:55:25Z</time>
      </trkpt>
      <trkpt lat="43.1074" lon="5.78993">
        <ele>1.1</ele>
        <time>2016-05-25T10:55:47Z</time>
      </trkpt>
      <trkpt lat="43.10767" lon="5.79052">
        <ele>0.14</ele>
        <time>2016-05-25T10:56:12Z</time>
      </trkpt>
      <trkpt lat="43.10796" lon="5.79121">
        <ele>0.14</ele>
        <time>2016-05-25T10:56:36Z</time>
      </trkpt>
      <trkpt lat="43.10828" lon="5.79199">
        <ele>0.14</ele>
        <time>2016-05-25T10:57:02Z</time>
      </trkpt>
      <trkpt lat="43.1086" lon="5.79271">
        <ele>-0.82</ele>
        <time>2016-05-25T10:57:28Z</time>
      </trkpt>
      <trkpt lat="43.10897" lon="5.79352">
        <ele>-0.82</ele>
        <time>2016-05-25T10:57:58Z</time>
      </trkpt>
      <trkpt lat="43.10928" lon="5.79421">
        <ele>-0.82</ele>
        <time>2016-05-25T10:58:26Z</time>
      </trkpt>
      <trkpt lat="43.10958" lon="5.79487">
        <ele>-0.34</ele>
        <time>2016-05-25T10:58:54Z</time>
      </trkpt>
      <trkpt lat="43.10983" lon="5.79542">
        <ele>-0.82</ele>
        <time>2016-05-25T10:59:18Z</time>
      </trkpt>
      <trkpt lat="43.11002" lon="5.79595">
        <ele>0.14</ele>
        <time>2016-05-25T10:59:40Z</time>
      </trkpt>
      <trkpt lat="43.11022" lon="5.79678">
        <ele>0.14</ele>
        <time>2016-05-25T11:00:09Z</time>
      </trkpt>
      <trkpt lat="43.11012" lon="5.79698">
        <ele>-0.82</ele>
        <time>2016-05-25T11:00:23Z</time>
      </trkpt>
      <trkpt lat="43.10984" lon="5.79682">
        <ele>-1.3</ele>
        <time>2016-05-25T11:00:44Z</time>
      </trkpt>
      <trkpt lat="43.10954" lon="5.79662">
        <ele>-1.3</ele>
        <time>2016-05-25T11:01:04Z</time>
      </trkpt>
      <trkpt lat="43.1092" lon="5.7964">
        <ele>-1.3</ele>
        <time>2016-05-25T11:01:23Z</time>
      </trkpt>
      <trkpt lat="43.1087" lon="5.79608">
        <ele>-1.3</ele>
        <time>2016-05-25T11:01:47Z</time>
      </trkpt>
      <trkpt lat="43.10827" lon="5.7958">
        <ele>-0.82</ele>
        <time>2016-05-25T11:02:07Z</time>
      </trkpt>
      <trkpt lat="43.10788" lon="5.79555">
        <ele>-1.79</ele>
        <time>2016-05-25T11:02:26Z</time>
      </trkpt>
      <trkpt lat="43.10738" lon="5.79528">
        <ele>-1.79</ele>
        <time>2016-05-25T11:02:49Z</time>
      </trkpt>
      <trkpt lat="43.10699" lon="5.79513">
        <ele>-1.79</ele>
        <time>2016-05-25T11:03:05Z</time>
      </trkpt>
      <trkpt lat="43.10644" lon="5.79488">
        <ele>-1.3</ele>
        <time>2016-05-25T11:03:27Z</time>
      </trkpt>
      <trkpt lat="43.10596" lon="5.79471">
        <ele>-1.79</ele>
        <time>2016-05-25T11:03:47Z</time>
      </trkpt>
      <trkpt lat="43.10539" lon="5.79441">
        <ele>-0.82</ele>
        <time>2016-05-25T11:04:10Z</time>
      </trkpt>
      <trkpt lat="43.10486" lon="5.79419">
        <ele>-1.79</ele>
        <time>2016-05-25T11:04:30Z</time>
      </trkpt>
      <trkpt lat="43.10425" lon="5.79392">
        <ele>-1.79</ele>
        <time>2016-05-25T11:04:52Z</time>
      </trkpt>
      <trkpt lat="43.10369" lon="5.79365">
        <ele>-1.3</ele>
        <time>2016-05-25T11:05:13Z</time>
      </trkpt>
      <trkpt lat="43.10331" lon="5.79345">
        <ele>-0.82</ele>
        <time>2016-05-25T11:05:29Z</time>
      </trkpt>
      <trkpt lat="43.10294" lon="5.79326">
        <ele>-0.82</ele>
        <time>2016-05-25T11:05:45Z</time>
      </trkpt>
      <trkpt lat="43.10252" lon="5.79305">
        <ele>-0.34</ele>
        <time>2016-05-25T11:06:04Z</time>
      </trkpt>
      <trkpt lat="43.10208" lon="5.79286">
        <ele>-1.3</ele>
        <time>2016-05-25T11:06:23Z</time>
      </trkpt>
      <trkpt lat="43.10164" lon="5.7927">
        <ele>-1.3</ele>
        <time>2016-05-25T11:06:41Z</time>
      </trkpt>
      <trkpt lat="43.10124" lon="5.79248">
        <ele>-0.82</ele>
        <time>2016-05-25T11:06:58Z</time>
      </trkpt>
      <trkpt lat="43.1008" lon="5.79226">
        <ele>-1.79</ele>
        <time>2016-05-25T11:07:16Z</time>
      </trkpt>
      <trkpt lat="43.10034" lon="5.79205">
        <ele>-1.79</ele>
        <time>2016-05-25T11:07:34Z</time>
      </trkpt>
      <trkpt lat="43.09986" lon="5.79183">
        <ele>-1.79</ele>
        <time>2016-05-25T11:07:53Z</time>
      </trkpt>
      <trkpt lat="43.09947" lon="5.79164">
        <ele>-1.3</ele>
        <time>2016-05-25T11:08:09Z</time>
      </trkpt>
      <trkpt lat="43.09907" lon="5.79141">
        <ele>-1.3</ele>
        <time>2016-05-25T11:08:27Z</time>
      </trkpt>
      <trkpt lat="43.09868" lon="5.79118">
        <ele>-1.3</ele>
        <time>2016-05-25T11:08:46Z</time>
      </trkpt>
      <trkpt lat="43.09828" lon="5.79095">
        <ele>-1.3</ele>
        <time>2016-05-25T11:09:04Z</time>
      </trkpt>
      <trkpt lat="43.0978" lon="5.79072">
        <ele>-1.79</ele>
        <time>2016-05-25T11:09:23Z</time>
      </trkpt>
      <trkpt lat="43.09729" lon="5.79049">
        <ele>-1.79</ele>
        <time>2016-05-25T11:09:44Z</time>
      </trkpt>
      <trkpt lat="43.09687" lon="5.7903">
        <ele>-1.3</ele>
        <time>2016-05-25T11:10:02Z</time>
      </trkpt>
      <trkpt lat="43.09639" lon="5.79006">
        <ele>-1.79</ele>
        <time>2016-05-25T11:10:23Z</time>
      </trkpt>
      <trkpt lat="43.09601" lon="5.78985">
        <ele>-1.3</ele>
        <time>2016-05-25T11:10:40Z</time>
      </trkpt>
      <trkpt lat="43.09564" lon="5.7896">
        <ele>-1.3</ele>
        <time>2016-05-25T11:10:59Z</time>
      </trkpt>
      <trkpt lat="43.09519" lon="5.78941">
        <ele>-1.79</ele>
        <time>2016-05-25T11:11:22Z</time>
      </trkpt>
      <trkpt lat="43.09483" lon="5.78924">
        <ele>-1.79</ele>
        <time>2016-05-25T11:11:43Z</time>
      </trkpt>
      <trkpt lat="43.09461" lon="5.78918">
        <ele>-1.79</ele>
        <time>2016-05-25T11:11:59Z</time>
      </trkpt>
      <trkpt lat="43.0944" lon="5.78906">
        <ele>-2.27</ele>
        <time>2016-05-25T11:12:17Z</time>
      </trkpt>
      <trkpt lat="43.09416" lon="5.78893">
        <ele>-2.27</ele>
        <time>2016-05-25T11:12:38Z</time>
      </trkpt>
      <trkpt lat="43.09396" lon="5.7888">
        <ele>-1.79</ele>
        <time>2016-05-25T11:12:57Z</time>
      </trkpt>
      <trkpt lat="43.09376" lon="5.78868">
        <ele>-1.79</ele>
        <time>2016-05-25T11:13:15Z</time>
      </trkpt>
      <trkpt lat="43.09358" lon="5.78861">
        <ele>-2.27</ele>
        <time>2016-05-25T11:13:33Z</time>
      </trkpt>
      <trkpt lat="43.0934" lon="5.78851">
        <ele>-2.27</ele>
        <time>2016-05-25T11:13:52Z</time>
      </trkpt>
      <trkpt lat="43.09328" lon="5.78844">
        <ele>-1.79</ele>
        <time>2016-05-25T11:14:08Z</time>
      </trkpt>
      <trkpt lat="43.09318" lon="5.78828">
        <ele>-1.79</ele>
        <time>2016-05-25T11:14:28Z</time>
      </trkpt>
      <trkpt lat="43.0931" lon="5.78813">
        <ele>-1.79</ele>
        <time>2016-05-25T11:14:48Z</time>
      </trkpt>
      <trkpt lat="43.09304" lon="5.78801">
        <ele>-1.3</ele>
        <time>2016-05-25T11:15:07Z</time>
      </trkpt>
      <trkpt lat="43.09299" lon="5.78789">
        <ele>-1.3</ele>
        <time>2016-05-25T11:15:24Z</time>
      </trkpt>
      <trkpt lat="43.09294" lon="5.78776">
        <ele>-1.3</ele>
        <time>2016-05-25T11:15:43Z</time>
      </trkpt>
      <trkpt lat="43.09288" lon="5.78763">
        <ele>-1.79</ele>
        <time>2016-05-25T11:16:05Z</time>
      </trkpt>
      <trkpt lat="43.09282" lon="5.78749">
        <ele>-1.79</ele>
        <time>2016-05-25T11:16:29Z</time>
      </trkpt>
      <trkpt lat="43.09278" lon="5.78735">
        <ele>-1.79</ele>
        <time>2016-05-25T11:16:49Z</time>
      </trkpt>
      <trkpt lat="43.09276" lon="5.78713">
        <ele>-0.82</ele>
        <time>2016-05-25T11:17:13Z</time>
      </trkpt>
      <trkpt lat="43.09277" lon="5.78691">
        <ele>-1.3</ele>
        <time>2016-05-25T11:17:35Z</time>
      </trkpt>
      <trkpt lat="43.09275" lon="5.78669">
        <ele>-0.82</ele>
        <time>2016-05-25T11:17:58Z</time>
      </trkpt>
      <trkpt lat="43.0927" lon="5.78646">
        <ele>-1.3</ele>
        <time>2016-05-25T11:18:21Z</time>
      </trkpt>
      <trkpt lat="43.09268" lon="5.78633">
        <ele>-0.82</ele>
        <time>2016-05-25T11:18:32Z</time>
      </trkpt>
      <trkpt lat="43.09258" lon="5.78602">
        <ele>-1.3</ele>
        <time>2016-05-25T11:18:54Z</time>
      </trkpt>
      <trkpt lat="43.09247" lon="5.7857">
        <ele>-1.3</ele>
        <time>2016-05-25T11:19:14Z</time>
      </trkpt>
      <trkpt lat="43.09236" lon="5.78539">
        <ele>-1.3</ele>
        <time>2016-05-25T11:19:31Z</time>
      </trkpt>
      <trkpt lat="43.09223" lon="5.78503">
        <ele>-1.3</ele>
        <time>2016-05-25T11:19:50Z</time>
      </trkpt>
      <trkpt lat="43.09206" lon="5.78461">
        <ele>-1.3</ele>
        <time>2016-05-25T11:20:09Z</time>
      </trkpt>
      <trkpt lat="43.09186" lon="5.78423">
        <ele>-1.3</ele>
        <time>2016-05-25T11:20:24Z</time>
      </trkpt>
      <trkpt lat="43.09144" lon="5.78385">
        <ele>-1.3</ele>
        <time>2016-05-25T11:20:44Z</time>
      </trkpt>
      <trkpt lat="43.091" lon="5.7837">
        <ele>-1.79</ele>
        <time>2016-05-25T11:21:04Z</time>
      </trkpt>
      <trkpt lat="43.09062" lon="5.78361">
        <ele>-1.79</ele>
        <time>2016-05-25T11:21:25Z</time>
      </trkpt>
      <trkpt lat="43.09026" lon="5.78353">
        <ele>-1.3</ele>
        <time>2016-05-25T11:21:45Z</time>
      </trkpt>
      <trkpt lat="43.08992" lon="5.78347">
        <ele>-1.3</ele>
        <time>2016-05-25T11:22:04Z</time>
      </trkpt>
      <trkpt lat="43.08949" lon="5.78339">
        <ele>-1.79</ele>
        <time>2016-05-25T11:22:25Z</time>
      </trkpt>
      <trkpt lat="43.08905" lon="5.78332">
        <ele>-2.75</ele>
        <time>2016-05-25T11:22:45Z</time>
      </trkpt>
      <trkpt lat="43.08861" lon="5.7832">
        <ele>-2.75</ele>
        <time>2016-05-25T11:23:07Z</time>
      </trkpt>
      <trkpt lat="43.08813" lon="5.78308">
        <ele>-3.23</ele>
        <time>2016-05-25T11:23:30Z</time>
      </trkpt>
      <trkpt lat="43.08771" lon="5.78302">
        <ele>-2.75</ele>
        <time>2016-05-25T11:23:50Z</time>
      </trkpt>
      <trkpt lat="43.08728" lon="5.78295">
        <ele>-2.75</ele>
        <time>2016-05-25T11:24:13Z</time>
      </trkpt>
      <trkpt lat="43.08694" lon="5.78283">
        <ele>-2.27</ele>
        <time>2016-05-25T11:24:34Z</time>
      </trkpt>
      <trkpt lat="43.08666" lon="5.7827">
        <ele>-2.27</ele>
        <time>2016-05-25T11:24:52Z</time>
      </trkpt>
      <trkpt lat="43.0864" lon="5.78263">
        <ele>-1.79</ele>
        <time>2016-05-25T11:25:10Z</time>
      </trkpt>
      <trkpt lat="43.08632" lon="5.78303">
        <ele>-1.3</ele>
        <time>2016-05-25T11:25:32Z</time>
      </trkpt>
      <trkpt lat="43.08624" lon="5.78369">
        <ele>-0.82</ele>
        <time>2016-05-25T11:25:53Z</time>
      </trkpt>
      <trkpt lat="43.0861" lon="5.78445">
        <ele>-0.34</ele>
        <time>2016-05-25T11:26:18Z</time>
      </trkpt>
      <trkpt lat="43.08596" lon="5.78516">
        <ele>-0.34</ele>
        <time>2016-05-25T11:26:47Z</time>
      </trkpt>
      <trkpt lat="43.08597" lon="5.78557">
        <ele>-0.82</ele>
        <time>2016-05-25T11:27:13Z</time>
      </trkpt>
      <trkpt lat="43.08618" lon="5.78606">
        <ele>0.14</ele>
        <time>2016-05-25T11:27:36Z</time>
      </trkpt>
      <trkpt lat="43.08647" lon="5.78678">
        <ele>0.14</ele>
        <time>2016-05-25T11:28:06Z</time>
      </trkpt>
      <trkpt lat="43.08652" lon="5.78717">
        <ele>-0.34</ele>
        <time>2016-05-25T11:28:27Z</time>
      </trkpt>
      <trkpt lat="43.08651" lon="5.78719">
        <ele>-0.34</ele>
        <time>2016-05-25T11:28:29Z</time>
      </trkpt>
      <trkpt lat="43.08643" lon="5.78718">
        <ele>-0.82</ele>
        <time>2016-05-25T11:28:36Z</time>
      </trkpt>
      <trkpt lat="43.08602" lon="5.78689">
        <ele>-1.3</ele>
        <time>2016-05-25T11:28:57Z</time>
      </trkpt>
      <trkpt lat="43.08557" lon="5.78658">
        <ele>-2.75</ele>
        <time>2016-05-25T11:29:17Z</time>
      </trkpt>
      <trkpt lat="43.08531" lon="5.78613">
        <ele>-1.79</ele>
        <time>2016-05-25T11:29:33Z</time>
      </trkpt>
      <trkpt lat="43.08509" lon="5.78529">
        <ele>-1.79</ele>
        <time>2016-05-25T11:29:59Z</time>
      </trkpt>
      <trkpt lat="43.08493" lon="5.78458">
        <ele>-1.79</ele>
        <time>2016-05-25T11:30:25Z</time>
      </trkpt>
      <trkpt lat="43.08501" lon="5.78395">
        <ele>-2.27</ele>
        <time>2016-05-25T11:30:48Z</time>
      </trkpt>
      <trkpt lat="43.08511" lon="5.78342">
        <ele>-2.27</ele>
        <time>2016-05-25T11:31:11Z</time>
      </trkpt>
      <trkpt lat="43.0852" lon="5.78281">
        <ele>-1.79</ele>
        <time>2016-05-25T11:31:42Z</time>
      </trkpt>
      <trkpt lat="43.08528" lon="5.78229">
        <ele>-1.3</ele>
        <time>2016-05-25T11:32:11Z</time>
      </trkpt>
      <trkpt lat="43.08513" lon="5.78218">
        <ele>-1.3</ele>
        <time>2016-05-25T11:32:28Z</time>
      </trkpt>
      <trkpt lat="43.08504" lon="5.78232">
        <ele>-1.3</ele>
        <time>2016-05-25T11:32:53Z</time>
      </trkpt>
      <trkpt lat="43.08489" lon="5.78242">
        <ele>-1.3</ele>
        <time>2016-05-25T11:33:21Z</time>
      </trkpt>
      <trkpt lat="43.08473" lon="5.78249">
        <ele>-0.82</ele>
        <time>2016-05-25T11:33:40Z</time>
      </trkpt>
      <trkpt lat="43.08472" lon="5.7825">
        <ele>-0.82</ele>
        <time>2016-05-25T11:33:41Z</time>
      </trkpt>
      <trkpt lat="43.08453" lon="5.78275">
        <ele>-1.3</ele>
        <time>2016-05-25T11:34:10Z</time>
      </trkpt>
      <trkpt lat="43.08436" lon="5.78285">
        <ele>-1.3</ele>
        <time>2016-05-25T11:34:32Z</time>
      </trkpt>
      <trkpt lat="43.08423" lon="5.78307">
        <ele>-1.3</ele>
        <time>2016-05-25T11:34:55Z</time>
      </trkpt>
      <trkpt lat="43.08423" lon="5.7831">
        <ele>-1.3</ele>
        <time>2016-05-25T11:34:57Z</time>
      </trkpt>
      <trkpt lat="43.08436" lon="5.7834">
        <ele>0.14</ele>
        <time>2016-05-25T11:35:22Z</time>
      </trkpt>
      <trkpt lat="43.08462" lon="5.7833">
        <ele>0.14</ele>
        <time>2016-05-25T11:35:44Z</time>
      </trkpt>
      <trkpt lat="43.0847" lon="5.78289">
        <ele>-1.3</ele>
        <time>2016-05-25T11:36:05Z</time>
      </trkpt>
      <trkpt lat="43.08458" lon="5.78237">
        <ele>-0.82</ele>
        <time>2016-05-25T11:36:32Z</time>
      </trkpt>
      <trkpt lat="43.08444" lon="5.782">
        <ele>-0.82</ele>
        <time>2016-05-25T11:36:55Z</time>
      </trkpt>
      <trkpt lat="43.08424" lon="5.78167">
        <ele>-1.79</ele>
        <time>2016-05-25T11:37:20Z</time>
      </trkpt>
      <trkpt lat="43.08415" lon="5.78165">
        <ele>-1.3</ele>
        <time>2016-05-25T11:37:44Z</time>
      </trkpt>
      <trkpt lat="43.08424" lon="5.78166">
        <ele>-0.82</ele>
        <time>2016-05-25T11:38:10Z</time>
      </trkpt>
      <trkpt lat="43.08429" lon="5.78174">
        <ele>-1.3</ele>
        <time>2016-05-25T11:38:36Z</time>
      </trkpt>
      <trkpt lat="43.08427" lon="5.78149">
        <ele>-1.3</ele>
        <time>2016-05-25T11:39:03Z</time>
      </trkpt>
      <trkpt lat="43.08421" lon="5.78141">
        <ele>-1.3</ele>
        <time>2016-05-25T11:39:21Z</time>
      </trkpt>
      <trkpt lat="43.08424" lon="5.78141">
        <ele>-1.3</ele>
        <time>2016-05-25T11:39:42Z</time>
      </trkpt>
      <trkpt lat="43.08427" lon="5.78149">
        <ele>-0.82</ele>
        <time>2016-05-25T11:40:05Z</time>
      </trkpt>
      <trkpt lat="43.0843" lon="5.7815">
        <ele>-0.82</ele>
        <time>2016-05-25T11:40:33Z</time>
      </trkpt>
      <trkpt lat="43.08435" lon="5.78148">
        <ele>-0.34</ele>
        <time>2016-05-25T11:40:58Z</time>
      </trkpt>
      <trkpt lat="43.08439" lon="5.78129">
        <ele>-1.3</ele>
        <time>2016-05-25T11:41:19Z</time>
      </trkpt>
      <trkpt lat="43.08433" lon="5.78119">
        <ele>-1.79</ele>
        <time>2016-05-25T11:41:40Z</time>
      </trkpt>
      <trkpt lat="43.08419" lon="5.78113">
        <ele>-1.3</ele>
        <time>2016-05-25T11:41:58Z</time>
      </trkpt>
      <trkpt lat="43.0843" lon="5.78116">
        <ele>-0.82</ele>
        <time>2016-05-25T11:42:17Z</time>
      </trkpt>
      <trkpt lat="43.08433" lon="5.78127">
        <ele>-1.3</ele>
        <time>2016-05-25T11:42:39Z</time>
      </trkpt>
      <trkpt lat="43.08442" lon="5.78111">
        <ele>-1.3</ele>
        <time>2016-05-25T11:42:57Z</time>
      </trkpt>
      <trkpt lat="43.08464" lon="5.78116">
        <ele>-0.34</ele>
        <time>2016-05-25T11:43:20Z</time>
      </trkpt>
      <trkpt lat="43.08475" lon="5.78156">
        <ele>-0.34</ele>
        <time>2016-05-25T11:43:48Z</time>
      </trkpt>
      <trkpt lat="43.08469" lon="5.78195">
        <ele>-0.82</ele>
        <time>2016-05-25T11:44:15Z</time>
      </trkpt>
      <trkpt lat="43.08466" lon="5.78208">
        <ele>-0.82</ele>
        <time>2016-05-25T11:44:37Z</time>
      </trkpt>
      <trkpt lat="43.08466" lon="5.7821">
        <ele>-1.3</ele>
        <time>2016-05-25T11:44:58Z</time>
      </trkpt>
      <trkpt lat="43.08466" lon="5.78209">
        <ele>-0.82</ele>
        <time>2016-05-25T11:45:17Z</time>
      </trkpt>
      <trkpt lat="43.08457" lon="5.78201">
        <ele>-0.82</ele>
        <time>2016-05-25T11:45:41Z</time>
      </trkpt>
      <trkpt lat="43.08436" lon="5.78195">
        <ele>-0.34</ele>
        <time>2016-05-25T11:46:07Z</time>
      </trkpt>
      <trkpt lat="43.08432" lon="5.78195">
        <ele>-0.34</ele>
        <time>2016-05-25T11:46:26Z</time>
      </trkpt>
      <trkpt lat="43.08433" lon="5.78195">
        <ele>-0.82</ele>
        <time>2016-05-25T11:46:48Z</time>
      </trkpt>
      <trkpt lat="43.08437" lon="5.78205">
        <ele>-0.82</ele>
        <time>2016-05-25T11:47:14Z</time>
      </trkpt>
      <trkpt lat="43.08437" lon="5.78217">
        <ele>-1.3</ele>
        <time>2016-05-25T11:47:42Z</time>
      </trkpt>
      <trkpt lat="43.08434" lon="5.7823">
        <ele>-0.82</ele>
        <time>2016-05-25T11:48:12Z</time>
      </trkpt>
      <trkpt lat="43.08432" lon="5.78234">
        <ele>-0.82</ele>
        <time>2016-05-25T11:48:45Z</time>
      </trkpt>
      <trkpt lat="43.08419" lon="5.78234">
        <ele>0.14</ele>
        <time>2016-05-25T11:49:15Z</time>
      </trkpt>
      <trkpt lat="43.08407" lon="5.78225">
        <ele>0.62</ele>
        <time>2016-05-25T11:49:45Z</time>
      </trkpt>
      <trkpt lat="43.08405" lon="5.78221">
        <ele>1.1</ele>
        <time>2016-05-25T11:50:16Z</time>
      </trkpt>
      <trkpt lat="43.08407" lon="5.78218">
        <ele>0.62</ele>
        <time>2016-05-25T11:50:41Z</time>
      </trkpt>
      <trkpt lat="43.08408" lon="5.78211">
        <ele>-0.34</ele>
        <time>2016-05-25T11:51:08Z</time>
      </trkpt>
      <trkpt lat="43.08409" lon="5.78206">
        <ele>-0.34</ele>
        <time>2016-05-25T11:51:30Z</time>
      </trkpt>
      <trkpt lat="43.08423" lon="5.78197">
        <ele>0.14</ele>
        <time>2016-05-25T11:51:57Z</time>
      </trkpt>
      <trkpt lat="43.08431" lon="5.78202">
        <ele>0.14</ele>
        <time>2016-05-25T11:52:22Z</time>
      </trkpt>
      <trkpt lat="43.08437" lon="5.78206">
        <ele>0.14</ele>
        <time>2016-05-25T11:52:52Z</time>
      </trkpt>
      <trkpt lat="43.08441" lon="5.78208">
        <ele>0.14</ele>
        <time>2016-05-25T11:53:19Z</time>
      </trkpt>
      <trkpt lat="43.08446" lon="5.78207">
        <ele>1.1</ele>
        <time>2016-05-25T11:53:47Z</time>
      </trkpt>
      <trkpt lat="43.08451" lon="5.78206">
        <ele>0.62</ele>
        <time>2016-05-25T11:54:09Z</time>
      </trkpt>
      <trkpt lat="43.08457" lon="5.78203">
        <ele>1.1</ele>
        <time>2016-05-25T11:54:37Z</time>
      </trkpt>
      <trkpt lat="43.0846" lon="5.78203">
        <ele>-0.34</ele>
        <time>2016-05-25T11:55:00Z</time>
      </trkpt>
      <trkpt lat="43.08462" lon="5.78206">
        <ele>-3.23</ele>
        <time>2016-05-25T11:55:25Z</time>
      </trkpt>
      <trkpt lat="43.08463" lon="5.78206">
        <ele>-2.75</ele>
        <time>2016-05-25T11:55:44Z</time>
      </trkpt>
      <trkpt lat="43.08464" lon="5.78205">
        <ele>-2.27</ele>
        <time>2016-05-25T11:56:10Z</time>
      </trkpt>
      <trkpt lat="43.08464" lon="5.78205">
        <ele>-2.27</ele>
        <time>2016-05-25T11:56:37Z</time>
      </trkpt>
      <trkpt lat="43.08464" lon="5.78208">
        <ele>-1.79</ele>
        <time>2016-05-25T11:57:01Z</time>
      </trkpt>
      <trkpt lat="43.08464" lon="5.78209">
        <ele>-1.3</ele>
        <time>2016-05-25T11:57:25Z</time>
      </trkpt>
      <trkpt lat="43.08464" lon="5.78209">
        <ele>-1.3</ele>
        <time>2016-05-25T11:57:42Z</time>
      </trkpt>
      <trkpt lat="43.08463" lon="5.78206">
        <ele>-0.34</ele>
        <time>2016-05-25T11:58:06Z</time>
      </trkpt>
      <trkpt lat="43.08463" lon="5.78205">
        <ele>-0.82</ele>
        <time>2016-05-25T11:58:31Z</time>
      </trkpt>
      <trkpt lat="43.08463" lon="5.78203">
        <ele>-0.82</ele>
        <time>2016-05-25T11:58:58Z</time>
      </trkpt>
      <trkpt lat="43.08463" lon="5.78203">
        <ele>-0.82</ele>
        <time>2016-05-25T11:59:26Z</time>
      </trkpt>
      <trkpt lat="43.08463" lon="5.78206">
        <ele>-0.82</ele>
        <time>2016-05-25T11:59:54Z</time>
      </trkpt>
      <trkpt lat="43.08465" lon="5.78208">
        <ele>-0.82</ele>
        <time>2016-05-25T12:00:19Z</time>
      </trkpt>
      <trkpt lat="43.08465" lon="5.78208">
        <ele>-0.82</ele>
        <time>2016-05-25T12:00:44Z</time>
      </trkpt>
      <trkpt lat="43.08465" lon="5.78208">
        <ele>-0.82</ele>
        <time>2016-05-25T12:01:05Z</time>
      </trkpt>
      <trkpt lat="43.08464" lon="5.78207">
        <ele>-0.82</ele>
        <time>2016-05-25T12:01:32Z</time>
      </trkpt>
      <trkpt lat="43.08463" lon="5.78206">
        <ele>-0.82</ele>
        <time>2016-05-25T12:01:56Z</time>
      </trkpt>
      <trkpt lat="43.08464" lon="5.78206">
        <ele>-0.34</ele>
        <time>2016-05-25T12:02:21Z</time>
      </trkpt>
      <trkpt lat="43.08465" lon="5.78208">
        <ele>-0.34</ele>
        <time>2016-05-25T12:02:41Z</time>
      </trkpt>
      <trkpt lat="43.08465" lon="5.78209">
        <ele>-0.82</ele>
        <time>2016-05-25T12:03:09Z</time>
      </trkpt>
      <trkpt lat="43.08466" lon="5.78209">
        <ele>-0.82</ele>
        <time>2016-05-25T12:03:33Z</time>
      </trkpt>
      <trkpt lat="43.08466" lon="5.78208">
        <ele>-0.34</ele>
        <time>2016-05-25T12:04:00Z</time>
      </trkpt>
      <trkpt lat="43.08465" lon="5.78207">
        <ele>-0.34</ele>
        <time>2016-05-25T12:04:23Z</time>
      </trkpt>
      <trkpt lat="43.08465" lon="5.78206">
        <ele>-0.34</ele>
        <time>2016-05-25T12:04:47Z</time>
      </trkpt>
      <trkpt lat="43.08465" lon="5.78206">
        <ele>-0.82</ele>
        <time>2016-05-25T12:05:10Z</time>
      </trkpt>
      <trkpt lat="43.08464" lon="5.78207">
        <ele>-0.82</ele>
        <time>2016-05-25T12:05:33Z</time>
      </trkpt>
      <trkpt lat="43.08464" lon="5.78206">
        <ele>-0.82</ele>
        <time>2016-05-25T12:06:00Z</time>
      </trkpt>
      <trkpt lat="43.08464" lon="5.78205">
        <ele>-0.34</ele>
        <time>2016-05-25T12:06:25Z</time>
      </trkpt>
      <trkpt lat="43.08465" lon="5.78205">
        <ele>-0.34</ele>
        <time>2016-05-25T12:06:52Z</time>
      </trkpt>
      <trkpt lat="43.08464" lon="5.78206">
        <ele>-0.34</ele>
        <time>2016-05-25T12:07:16Z</time>
      </trkpt>
      <trkpt lat="43.08464" lon="5.78206">
        <ele>-0.34</ele>
        <time>2016-05-25T12:07:42Z</time>
      </trkpt>
      <trkpt lat="43.08463" lon="5.78204">
        <ele>-0.82</ele>
        <time>2016-05-25T12:08:09Z</time>
      </trkpt>
      <trkpt lat="43.08463" lon="5.78203">
        <ele>-0.34</ele>
        <time>2016-05-25T12:08:33Z</time>
      </trkpt>
      <trkpt lat="43.08463" lon="5.78203">
        <ele>-0.34</ele>
        <time>2016-05-25T12:08:56Z</time>
      </trkpt>
      <trkpt lat="43.08463" lon="5.78203">
        <ele>-0.82</ele>
        <time>2016-05-25T12:09:17Z</time>
      </trkpt>
      <trkpt lat="43.08464" lon="5.78204">
        <ele>-0.82</ele>
        <time>2016-05-25T12:09:37Z</time>
      </trkpt>
      <trkpt lat="43.08464" lon="5.78204">
        <ele>-0.82</ele>
        <time>2016-05-25T12:10:04Z</time>
      </trkpt>
      <trkpt lat="43.08464" lon="5.78204">
        <ele>-0.82</ele>
        <time>2016-05-25T12:10:24Z</time>
      </trkpt>
      <trkpt lat="43.08464" lon="5.78205">
        <ele>-0.34</ele>
        <time>2016-05-25T12:10:47Z</time>
      </trkpt>
      <trkpt lat="43.08464" lon="5.78206">
        <ele>-0.82</ele>
        <time>2016-05-25T12:11:07Z</time>
      </trkpt>
      <trkpt lat="43.08464" lon="5.78207">
        <ele>-0.82</ele>
        <time>2016-05-25T12:11:29Z</time>
      </trkpt>
      <trkpt lat="43.08464" lon="5.78208">
        <ele>-0.34</ele>
        <time>2016-05-25T12:11:46Z</time>
      </trkpt>
      <trkpt lat="43.08464" lon="5.78206">
        <ele>-0.34</ele>
        <time>2016-05-25T12:12:02Z</time>
      </trkpt>
      <trkpt lat="43.08464" lon="5.78204">
        <ele>-0.82</ele>
        <time>2016-05-25T12:12:23Z</time>
      </trkpt>
      <trkpt lat="43.08463" lon="5.78204">
        <ele>-0.82</ele>
        <time>2016-05-25T12:12:45Z</time>
      </trkpt>
      <trkpt lat="43.08463" lon="5.78204">
        <ele>-0.82</ele>
        <time>2016-05-25T12:13:05Z</time>
      </trkpt>
      <trkpt lat="43.08463" lon="5.78207">
        <ele>-0.82</ele>
        <time>2016-05-25T12:13:24Z</time>
      </trkpt>
      <trkpt lat="43.08464" lon="5.78208">
        <ele>-0.82</ele>
        <time>2016-05-25T12:13:48Z</time>
      </trkpt>
      <trkpt lat="43.08464" lon="5.78209">
        <ele>-0.82</ele>
        <time>2016-05-25T12:14:08Z</time>
      </trkpt>
      <trkpt lat="43.08465" lon="5.78209">
        <ele>-0.82</ele>
        <time>2016-05-25T12:14:25Z</time>
      </trkpt>
      <trkpt lat="43.08466" lon="5.78208">
        <ele>-0.82</ele>
        <time>2016-05-25T12:14:42Z</time>
      </trkpt>
      <trkpt lat="43.08465" lon="5.78208">
        <ele>-1.3</ele>
        <time>2016-05-25T12:15:06Z</time>
      </trkpt>
      <trkpt lat="43.08465" lon="5.78208">
        <ele>-0.82</ele>
        <time>2016-05-25T12:15:25Z</time>
      </trkpt>
      <trkpt lat="43.08464" lon="5.78209">
        <ele>-0.82</ele>
        <time>2016-05-25T12:15:47Z</time>
      </trkpt>
      <trkpt lat="43.08464" lon="5.78209">
        <ele>-0.82</ele>
        <time>2016-05-25T12:16:14Z</time>
      </trkpt>
      <trkpt lat="43.08465" lon="5.7821">
        <ele>-0.34</ele>
        <time>2016-05-25T12:16:33Z</time>
      </trkpt>
      <trkpt lat="43.08465" lon="5.7821">
        <ele>-0.34</ele>
        <time>2016-05-25T12:16:53Z</time>
      </trkpt>
      <trkpt lat="43.08465" lon="5.78208">
        <ele>-0.82</ele>
        <time>2016-05-25T12:17:10Z</time>
      </trkpt>
      <trkpt lat="43.08464" lon="5.78206">
        <ele>-0.82</ele>
        <time>2016-05-25T12:17:33Z</time>
      </trkpt>
      <trkpt lat="43.08463" lon="5.78205">
        <ele>-0.34</ele>
        <time>2016-05-25T12:17:58Z</time>
      </trkpt>
      <trkpt lat="43.08462" lon="5.78205">
        <ele>-0.82</ele>
        <time>2016-05-25T12:18:21Z</time>
      </trkpt>
      <trkpt lat="43.08462" lon="5.78206">
        <ele>-1.3</ele>
        <time>2016-05-25T12:18:47Z</time>
      </trkpt>
      <trkpt lat="43.08463" lon="5.78207">
        <ele>-0.82</ele>
        <time>2016-05-25T12:19:06Z</time>
      </trkpt>
      <trkpt lat="43.08464" lon="5.78208">
        <ele>-0.82</ele>
        <time>2016-05-25T12:19:31Z</time>
      </trkpt>
      <trkpt lat="43.08465" lon="5.78209">
        <ele>-0.82</ele>
        <time>2016-05-25T12:19:56Z</time>
      </trkpt>
      <trkpt lat="43.08465" lon="5.78209">
        <ele>-0.82</ele>
        <time>2016-05-25T12:20:15Z</time>
      </trkpt>
      <trkpt lat="43.08465" lon="5.78208">
        <ele>-0.82</ele>
        <time>2016-05-25T12:20:36Z</time>
      </trkpt>
      <trkpt lat="43.08464" lon="5.78207">
        <ele>-0.82</ele>
        <time>2016-05-25T12:21:01Z</time>
      </trkpt>
      <trkpt lat="43.08464" lon="5.78208">
        <ele>-0.82</ele>
        <time>2016-05-25T12:21:22Z</time>
      </trkpt>
      <trkpt lat="43.08464" lon="5.78208">
        <ele>-1.3</ele>
        <time>2016-05-25T12:21:49Z</time>
      </trkpt>
      <trkpt lat="43.08465" lon="5.78208">
        <ele>-0.82</ele>
        <time>2016-05-25T12:22:10Z</time>
      </trkpt>
      <trkpt lat="43.08466" lon="5.78209">
        <ele>-0.34</ele>
        <time>2016-05-25T12:22:32Z</time>
      </trkpt>
      <trkpt lat="43.08466" lon="5.7821">
        <ele>-0.34</ele>
        <time>2016-05-25T12:22:55Z</time>
      </trkpt>
      <trkpt lat="43.08466" lon="5.78211">
        <ele>-0.34</ele>
        <time>2016-05-25T12:23:19Z</time>
      </trkpt>
      <trkpt lat="43.08466" lon="5.78211">
        <ele>-0.82</ele>
        <time>2016-05-25T12:23:39Z</time>
      </trkpt>
      <trkpt lat="43.08467" lon="5.78211">
        <ele>-1.3</ele>
        <time>2016-05-25T12:23:58Z</time>
      </trkpt>
      <trkpt lat="43.08466" lon="5.78209">
        <ele>-1.3</ele>
        <time>2016-05-25T12:24:20Z</time>
      </trkpt>
      <trkpt lat="43.08465" lon="5.78209">
        <ele>-0.34</ele>
        <time>2016-05-25T12:24:43Z</time>
      </trkpt>
      <trkpt lat="43.08464" lon="5.78209">
        <ele>-0.82</ele>
        <time>2016-05-25T12:25:03Z</time>
      </trkpt>
      <trkpt lat="43.08464" lon="5.78208">
        <ele>-0.34</ele>
        <time>2016-05-25T12:25:22Z</time>
      </trkpt>
      <trkpt lat="43.08465" lon="5.78208">
        <ele>-0.34</ele>
        <time>2016-05-25T12:25:46Z</time>
      </trkpt>
      <trkpt lat="43.08465" lon="5.78208">
        <ele>-0.34</ele>
        <time>2016-05-25T12:26:09Z</time>
      </trkpt>
      <trkpt lat="43.08464" lon="5.78207">
        <ele>-0.82</ele>
        <time>2016-05-25T12:26:30Z</time>
      </trkpt>
      <trkpt lat="43.08464" lon="5.78208">
        <ele>-0.82</ele>
        <time>2016-05-25T12:26:50Z</time>
      </trkpt>
      <trkpt lat="43.08464" lon="5.78209">
        <ele>-0.82</ele>
        <time>2016-05-25T12:27:10Z</time>
      </trkpt>
      <trkpt lat="43.08464" lon="5.78209">
        <ele>-0.34</ele>
        <time>2016-05-25T12:27:31Z</time>
      </trkpt>
      <trkpt lat="43.08464" lon="5.7821">
        <ele>-0.82</ele>
        <time>2016-05-25T12:27:47Z</time>
      </trkpt>
      <trkpt lat="43.08464" lon="5.78209">
        <ele>-0.82</ele>
        <time>2016-05-25T12:28:09Z</time>
      </trkpt>
      <trkpt lat="43.08464" lon="5.78208">
        <ele>-0.82</ele>
        <time>2016-05-25T12:28:33Z</time>
      </trkpt>
      <trkpt lat="43.08464" lon="5.78207">
        <ele>-1.3</ele>
        <time>2016-05-25T12:28:53Z</time>
      </trkpt>
      <trkpt lat="43.08464" lon="5.78207">
        <ele>-1.3</ele>
        <time>2016-05-25T12:29:10Z</time>
      </trkpt>
      <trkpt lat="43.08464" lon="5.78207">
        <ele>-1.79</ele>
        <time>2016-05-25T12:29:33Z</time>
      </trkpt>
      <trkpt lat="43.08464" lon="5.78208">
        <ele>-1.3</ele>
        <time>2016-05-25T12:29:51Z</time>
      </trkpt>
      <trkpt lat="43.08463" lon="5.78208">
        <ele>-1.3</ele>
        <time>2016-05-25T12:30:13Z</time>
      </trkpt>
      <trkpt lat="43.08463" lon="5.78208">
        <ele>-1.3</ele>
        <time>2016-05-25T12:30:34Z</time>
      </trkpt>
      <trkpt lat="43.08463" lon="5.78207">
        <ele>-1.3</ele>
        <time>2016-05-25T12:30:53Z</time>
      </trkpt>
      <trkpt lat="43.08462" lon="5.78206">
        <ele>-1.3</ele>
        <time>2016-05-25T12:31:15Z</time>
      </trkpt>
      <trkpt lat="43.08462" lon="5.78204">
        <ele>-1.3</ele>
        <time>2016-05-25T12:31:40Z</time>
      </trkpt>
      <trkpt lat="43.08462" lon="5.78204">
        <ele>-1.79</ele>
        <time>2016-05-25T12:32:03Z</time>
      </trkpt>
      <trkpt lat="43.08462" lon="5.78204">
        <ele>-1.79</ele>
        <time>2016-05-25T12:32:25Z</time>
      </trkpt>
      <trkpt lat="43.08462" lon="5.78204">
        <ele>-1.79</ele>
        <time>2016-05-25T12:32:44Z</time>
      </trkpt>
      <trkpt lat="43.08461" lon="5.78204">
        <ele>-1.79</ele>
        <time>2016-05-25T12:33:01Z</time>
      </trkpt>
      <trkpt lat="43.08461" lon="5.78204">
        <ele>-1.79</ele>
        <time>2016-05-25T12:33:23Z</time>
      </trkpt>
      <trkpt lat="43.08459" lon="5.78204">
        <ele>-1.79</ele>
        <time>2016-05-25T12:33:44Z</time>
      </trkpt>
      <trkpt lat="43.08459" lon="5.78203">
        <ele>-2.27</ele>
        <time>2016-05-25T12:34:07Z</time>
      </trkpt>
      <trkpt lat="43.0846" lon="5.78204">
        <ele>-2.75</ele>
        <time>2016-05-25T12:34:35Z</time>
      </trkpt>
      <trkpt lat="43.08461" lon="5.78205">
        <ele>-2.27</ele>
        <time>2016-05-25T12:35:00Z</time>
      </trkpt>
      <trkpt lat="43.08462" lon="5.78206">
        <ele>-1.79</ele>
        <time>2016-05-25T12:35:21Z</time>
      </trkpt>
      <trkpt lat="43.08463" lon="5.78206">
        <ele>-1.79</ele>
        <time>2016-05-25T12:35:42Z</time>
      </trkpt>
      <trkpt lat="43.08463" lon="5.78205">
        <ele>-1.79</ele>
        <time>2016-05-25T12:36:01Z</time>
      </trkpt>
      <trkpt lat="43.08462" lon="5.78204">
        <ele>-1.79</ele>
        <time>2016-05-25T12:36:23Z</time>
      </trkpt>
      <trkpt lat="43.08462" lon="5.78203">
        <ele>-1.79</ele>
        <time>2016-05-25T12:36:46Z</time>
      </trkpt>
      <trkpt lat="43.0846" lon="5.78203">
        <ele>-1.79</ele>
        <time>2016-05-25T12:37:08Z</time>
      </trkpt>
      <trkpt lat="43.08458" lon="5.78202">
        <ele>-2.27</ele>
        <time>2016-05-25T12:37:32Z</time>
      </trkpt>
      <trkpt lat="43.08457" lon="5.78201">
        <ele>-2.27</ele>
        <time>2016-05-25T12:37:59Z</time>
      </trkpt>
      <trkpt lat="43.08459" lon="5.78201">
        <ele>-2.75</ele>
        <time>2016-05-25T12:38:29Z</time>
      </trkpt>
      <trkpt lat="43.08461" lon="5.78202">
        <ele>-2.27</ele>
        <time>2016-05-25T12:38:56Z</time>
      </trkpt>
      <trkpt lat="43.08461" lon="5.78204">
        <ele>-2.75</ele>
        <time>2016-05-25T12:39:22Z</time>
      </trkpt>
      <trkpt lat="43.08462" lon="5.78205">
        <ele>-2.27</ele>
        <time>2016-05-25T12:39:41Z</time>
      </trkpt>
      <trkpt lat="43.08462" lon="5.78205">
        <ele>-2.27</ele>
        <time>2016-05-25T12:40:00Z</time>
      </trkpt>
      <trkpt lat="43.08462" lon="5.78203">
        <ele>-2.27</ele>
        <time>2016-05-25T12:40:17Z</time>
      </trkpt>
      <trkpt lat="43.08462" lon="5.78203">
        <ele>-1.79</ele>
        <time>2016-05-25T12:40:42Z</time>
      </trkpt>
      <trkpt lat="43.08462" lon="5.78204">
        <ele>-1.79</ele>
        <time>2016-05-25T12:41:03Z</time>
      </trkpt>
      <trkpt lat="43.08463" lon="5.78205">
        <ele>-1.79</ele>
        <time>2016-05-25T12:41:20Z</time>
      </trkpt>
      <trkpt lat="43.08463" lon="5.78205">
        <ele>-2.27</ele>
        <time>2016-05-25T12:41:38Z</time>
      </trkpt>
      <trkpt lat="43.08463" lon="5.78204">
        <ele>-2.27</ele>
        <time>2016-05-25T12:41:59Z</time>
      </trkpt>
      <trkpt lat="43.08464" lon="5.78203">
        <ele>-2.75</ele>
        <time>2016-05-25T12:42:20Z</time>
      </trkpt>
      <trkpt lat="43.08464" lon="5.78204">
        <ele>-2.75</ele>
        <time>2016-05-25T12:42:41Z</time>
      </trkpt>
      <trkpt lat="43.08464" lon="5.78206">
        <ele>-2.27</ele>
        <time>2016-05-25T12:43:06Z</time>
      </trkpt>
      <trkpt lat="43.08464" lon="5.78207">
        <ele>-2.27</ele>
        <time>2016-05-25T12:43:28Z</time>
      </trkpt>
      <trkpt lat="43.08466" lon="5.78209">
        <ele>-2.75</ele>
        <time>2016-05-25T12:43:47Z</time>
      </trkpt>
      <trkpt lat="43.08466" lon="5.78207">
        <ele>-2.75</ele>
        <time>2016-05-25T12:44:09Z</time>
      </trkpt>
      <trkpt lat="43.08466" lon="5.78205">
        <ele>-3.23</ele>
        <time>2016-05-25T12:44:24Z</time>
      </trkpt>
      <trkpt lat="43.08464" lon="5.78204">
        <ele>-3.23</ele>
        <time>2016-05-25T12:44:46Z</time>
      </trkpt>
      <trkpt lat="43.08463" lon="5.78204">
        <ele>-2.27</ele>
        <time>2016-05-25T12:45:10Z</time>
      </trkpt>
      <trkpt lat="43.08463" lon="5.78203">
        <ele>-2.75</ele>
        <time>2016-05-25T12:45:36Z</time>
      </trkpt>
      <trkpt lat="43.08464" lon="5.78204">
        <ele>-3.23</ele>
        <time>2016-05-25T12:45:59Z</time>
      </trkpt>
      <trkpt lat="43.08464" lon="5.78205">
        <ele>-3.23</ele>
        <time>2016-05-25T12:46:22Z</time>
      </trkpt>
      <trkpt lat="43.08464" lon="5.78206">
        <ele>-3.23</ele>
        <time>2016-05-25T12:46:40Z</time>
      </trkpt>
      <trkpt lat="43.08465" lon="5.78208">
        <ele>-3.23</ele>
        <time>2016-05-25T12:47:04Z</time>
      </trkpt>
      <trkpt lat="43.08466" lon="5.78208">
        <ele>-3.23</ele>
        <time>2016-05-25T12:47:33Z</time>
      </trkpt>
      <trkpt lat="43.08466" lon="5.78208">
        <ele>-3.23</ele>
        <time>2016-05-25T12:47:50Z</time>
      </trkpt>
      <trkpt lat="43.08466" lon="5.78208">
        <ele>-2.75</ele>
        <time>2016-05-25T12:48:12Z</time>
      </trkpt>
      <trkpt lat="43.08465" lon="5.78208">
        <ele>-3.23</ele>
        <time>2016-05-25T12:48:36Z</time>
      </trkpt>
      <trkpt lat="43.08465" lon="5.78207">
        <ele>-3.23</ele>
        <time>2016-05-25T12:49:02Z</time>
      </trkpt>
      <trkpt lat="43.08465" lon="5.78207">
        <ele>-3.23</ele>
        <time>2016-05-25T12:49:19Z</time>
      </trkpt>
      <trkpt lat="43.08465" lon="5.78207">
        <ele>-3.23</ele>
        <time>2016-05-25T12:49:37Z</time>
      </trkpt>
      <trkpt lat="43.08465" lon="5.78206">
        <ele>-3.71</ele>
        <time>2016-05-25T12:49:57Z</time>
      </trkpt>
      <trkpt lat="43.08465" lon="5.78206">
        <ele>-3.23</ele>
        <time>2016-05-25T12:50:19Z</time>
      </trkpt>
      <trkpt lat="43.08464" lon="5.78205">
        <ele>-3.23</ele>
        <time>2016-05-25T12:50:42Z</time>
      </trkpt>
      <trkpt lat="43.08464" lon="5.78204">
        <ele>-3.23</ele>
        <time>2016-05-25T12:51:04Z</time>
      </trkpt>
      <trkpt lat="43.08464" lon="5.78204">
        <ele>-3.23</ele>
        <time>2016-05-25T12:51:26Z</time>
      </trkpt>
      <trkpt lat="43.08464" lon="5.78204">
        <ele>-3.23</ele>
        <time>2016-05-25T12:51:48Z</time>
      </trkpt>
      <trkpt lat="43.08466" lon="5.78203">
        <ele>-3.23</ele>
        <time>2016-05-25T12:52:16Z</time>
      </trkpt>
      <trkpt lat="43.08466" lon="5.78203">
        <ele>-2.75</ele>
        <time>2016-05-25T12:52:42Z</time>
      </trkpt>
      <trkpt lat="43.08466" lon="5.78203">
        <ele>-2.75</ele>
        <time>2016-05-25T12:53:02Z</time>
      </trkpt>
      <trkpt lat="43.08467" lon="5.78203">
        <ele>-2.75</ele>
        <time>2016-05-25T12:53:23Z</time>
      </trkpt>
      <trkpt lat="43.08467" lon="5.78204">
        <ele>-2.27</ele>
        <time>2016-05-25T12:53:49Z</time>
      </trkpt>
      <trkpt lat="43.08467" lon="5.78205">
        <ele>-2.27</ele>
        <time>2016-05-25T12:54:12Z</time>
      </trkpt>
      <trkpt lat="43.08463" lon="5.78207">
        <ele>-1.79</ele>
        <time>2016-05-25T12:54:36Z</time>
      </trkpt>
      <trkpt lat="43.08453" lon="5.78216">
        <ele>-2.75</ele>
        <time>2016-05-25T12:54:59Z</time>
      </trkpt>
      <trkpt lat="43.08453" lon="5.78217">
        <ele>-2.75</ele>
        <time>2016-05-25T12:55:18Z</time>
      </trkpt>
      <trkpt lat="43.08463" lon="5.78225">
        <ele>-2.75</ele>
        <time>2016-05-25T12:55:40Z</time>
      </trkpt>
      <trkpt lat="43.08465" lon="5.78234">
        <ele>-3.23</ele>
        <time>2016-05-25T12:56:05Z</time>
      </trkpt>
      <trkpt lat="43.08464" lon="5.78237">
        <ele>-3.23</ele>
        <time>2016-05-25T12:56:32Z</time>
      </trkpt>
      <trkpt lat="43.08462" lon="5.78238">
        <ele>-3.71</ele>
        <time>2016-05-25T12:56:54Z</time>
      </trkpt>
      <trkpt lat="43.08468" lon="5.78239">
        <ele>-3.71</ele>
        <time>2016-05-25T12:57:17Z</time>
      </trkpt>
      <trkpt lat="43.08473" lon="5.78237">
        <ele>-3.71</ele>
        <time>2016-05-25T12:57:23Z</time>
      </trkpt>
      <trkpt lat="43.08501" lon="5.78241">
        <ele>-1.79</ele>
        <time>2016-05-25T12:57:48Z</time>
      </trkpt>
      <trkpt lat="43.08513" lon="5.78273">
        <ele>-2.27</ele>
        <time>2016-05-25T12:58:10Z</time>
      </trkpt>
      <trkpt lat="43.08526" lon="5.78312">
        <ele>-1.3</ele>
        <time>2016-05-25T12:58:32Z</time>
      </trkpt>
      <trkpt lat="43.08548" lon="5.78369">
        <ele>-2.75</ele>
        <time>2016-05-25T12:58:57Z</time>
      </trkpt>
      <trkpt lat="43.08565" lon="5.78418">
        <ele>-2.27</ele>
        <time>2016-05-25T12:59:19Z</time>
      </trkpt>
      <trkpt lat="43.0857" lon="5.78455">
        <ele>-3.23</ele>
        <time>2016-05-25T12:59:40Z</time>
      </trkpt>
      <trkpt lat="43.08558" lon="5.78474">
        <ele>-3.71</ele>
        <time>2016-05-25T12:59:58Z</time>
      </trkpt>
      <trkpt lat="43.08541" lon="5.78482">
        <ele>-3.23</ele>
        <time>2016-05-25T13:00:20Z</time>
      </trkpt>
      <trkpt lat="43.08522" lon="5.78491">
        <ele>-3.23</ele>
        <time>2016-05-25T13:00:43Z</time>
      </trkpt>
      <trkpt lat="43.08504" lon="5.785">
        <ele>-3.71</ele>
        <time>2016-05-25T13:01:05Z</time>
      </trkpt>
      <trkpt lat="43.08502" lon="5.78502">
        <ele>-3.71</ele>
        <time>2016-05-25T13:01:08Z</time>
      </trkpt>
      <trkpt lat="43.0849" lon="5.78536">
        <ele>-4.67</ele>
        <time>2016-05-25T13:01:31Z</time>
      </trkpt>
      <trkpt lat="43.08481" lon="5.78574">
        <ele>-3.23</ele>
        <time>2016-05-25T13:01:50Z</time>
      </trkpt>
      <trkpt lat="43.08473" lon="5.78635">
        <ele>-2.75</ele>
        <time>2016-05-25T13:02:15Z</time>
      </trkpt>
      <trkpt lat="43.08466" lon="5.78684">
        <ele>-2.75</ele>
        <time>2016-05-25T13:02:35Z</time>
      </trkpt>
      <trkpt lat="43.08466" lon="5.78747">
        <ele>-4.19</ele>
        <time>2016-05-25T13:02:59Z</time>
      </trkpt>
      <trkpt lat="43.08469" lon="5.78797">
        <ele>-4.19</ele>
        <time>2016-05-25T13:03:20Z</time>
      </trkpt>
      <trkpt lat="43.08455" lon="5.78845">
        <ele>-2.27</ele>
        <time>2016-05-25T13:03:42Z</time>
      </trkpt>
      <trkpt lat="43.08433" lon="5.78875">
        <ele>-4.19</ele>
        <time>2016-05-25T13:04:05Z</time>
      </trkpt>
      <trkpt lat="43.08412" lon="5.78916">
        <ele>-3.23</ele>
        <time>2016-05-25T13:04:32Z</time>
      </trkpt>
      <trkpt lat="43.08405" lon="5.7896">
        <ele>-2.75</ele>
        <time>2016-05-25T13:04:52Z</time>
      </trkpt>
      <trkpt lat="43.08405" lon="5.79004">
        <ele>-3.23</ele>
        <time>2016-05-25T13:05:10Z</time>
      </trkpt>
      <trkpt lat="43.08417" lon="5.79055">
        <ele>-1.79</ele>
        <time>2016-05-25T13:05:31Z</time>
      </trkpt>
      <trkpt lat="43.08418" lon="5.79114">
        <ele>-1.79</ele>
        <time>2016-05-25T13:05:56Z</time>
      </trkpt>
      <trkpt lat="43.08403" lon="5.79159">
        <ele>-1.79</ele>
        <time>2016-05-25T13:06:17Z</time>
      </trkpt>
      <trkpt lat="43.08397" lon="5.792">
        <ele>-2.27</ele>
        <time>2016-05-25T13:06:35Z</time>
      </trkpt>
      <trkpt lat="43.08418" lon="5.79259">
        <ele>-1.79</ele>
        <time>2016-05-25T13:07:01Z</time>
      </trkpt>
      <trkpt lat="43.08428" lon="5.79313">
        <ele>-2.75</ele>
        <time>2016-05-25T13:07:24Z</time>
      </trkpt>
      <trkpt lat="43.0843" lon="5.79349">
        <ele>-2.75</ele>
        <time>2016-05-25T13:07:42Z</time>
      </trkpt>
      <trkpt lat="43.08412" lon="5.79351">
        <ele>-2.75</ele>
        <time>2016-05-25T13:07:59Z</time>
      </trkpt>
      <trkpt lat="43.08392" lon="5.79308">
        <ele>-3.23</ele>
        <time>2016-05-25T13:08:24Z</time>
      </trkpt>
      <trkpt lat="43.08366" lon="5.79248">
        <ele>-2.27</ele>
        <time>2016-05-25T13:08:53Z</time>
      </trkpt>
      <trkpt lat="43.08341" lon="5.79205">
        <ele>-2.27</ele>
        <time>2016-05-25T13:09:15Z</time>
      </trkpt>
      <trkpt lat="43.08309" lon="5.79162">
        <ele>-3.23</ele>
        <time>2016-05-25T13:09:38Z</time>
      </trkpt>
      <trkpt lat="43.08279" lon="5.79138">
        <ele>-2.75</ele>
        <time>2016-05-25T13:09:58Z</time>
      </trkpt>
      <trkpt lat="43.08269" lon="5.7914">
        <ele>-2.75</ele>
        <time>2016-05-25T13:10:05Z</time>
      </trkpt>
      <trkpt lat="43.08266" lon="5.79173">
        <ele>-3.71</ele>
        <time>2016-05-25T13:10:22Z</time>
      </trkpt>
      <trkpt lat="43.08292" lon="5.79182">
        <ele>-3.23</ele>
        <time>2016-05-25T13:10:39Z</time>
      </trkpt>
      <trkpt lat="43.08319" lon="5.79147">
        <ele>-3.71</ele>
        <time>2016-05-25T13:11:01Z</time>
      </trkpt>
      <trkpt lat="43.08308" lon="5.79093">
        <ele>-3.71</ele>
        <time>2016-05-25T13:11:24Z</time>
      </trkpt>
      <trkpt lat="43.08286" lon="5.79026">
        <ele>-4.19</ele>
        <time>2016-05-25T13:11:53Z</time>
      </trkpt>
      <trkpt lat="43.08255" lon="5.78985">
        <ele>-3.71</ele>
        <time>2016-05-25T13:12:17Z</time>
      </trkpt>
      <trkpt lat="43.08223" lon="5.78962">
        <ele>-3.71</ele>
        <time>2016-05-25T13:12:39Z</time>
      </trkpt>
      <trkpt lat="43.08207" lon="5.78959">
        <ele>-3.23</ele>
        <time>2016-05-25T13:12:50Z</time>
      </trkpt>
      <trkpt lat="43.082" lon="5.78994">
        <ele>-5.15</ele>
        <time>2016-05-25T13:13:08Z</time>
      </trkpt>
      <trkpt lat="43.08216" lon="5.79039">
        <ele>-4.19</ele>
        <time>2016-05-25T13:13:29Z</time>
      </trkpt>
      <trkpt lat="43.08208" lon="5.79056">
        <ele>-3.71</ele>
        <time>2016-05-25T13:13:44Z</time>
      </trkpt>
      <trkpt lat="43.08197" lon="5.79058">
        <ele>-3.23</ele>
        <time>2016-05-25T13:13:54Z</time>
      </trkpt>
      <trkpt lat="43.08194" lon="5.79064">
        <ele>-2.75</ele>
        <time>2016-05-25T13:13:59Z</time>
      </trkpt>
      <trkpt lat="43.08207" lon="5.79088">
        <ele>-2.75</ele>
        <time>2016-05-25T13:14:15Z</time>
      </trkpt>
      <trkpt lat="43.08231" lon="5.79063">
        <ele>-3.71</ele>
        <time>2016-05-25T13:14:34Z</time>
      </trkpt>
      <trkpt lat="43.08255" lon="5.79008">
        <ele>-4.19</ele>
        <time>2016-05-25T13:15:01Z</time>
      </trkpt>
      <trkpt lat="43.08281" lon="5.78954">
        <ele>-4.67</ele>
        <time>2016-05-25T13:15:27Z</time>
      </trkpt>
      <trkpt lat="43.08309" lon="5.78884">
        <ele>-4.67</ele>
        <time>2016-05-25T13:15:55Z</time>
      </trkpt>
      <trkpt lat="43.08338" lon="5.78826">
        <ele>-4.19</ele>
        <time>2016-05-25T13:16:17Z</time>
      </trkpt>
      <trkpt lat="43.08368" lon="5.78768">
        <ele>-2.27</ele>
        <time>2016-05-25T13:16:41Z</time>
      </trkpt>
      <trkpt lat="43.08397" lon="5.78719">
        <ele>-1.3</ele>
        <time>2016-05-25T13:17:03Z</time>
      </trkpt>
      <trkpt lat="43.08432" lon="5.7866">
        <ele>-0.82</ele>
        <time>2016-05-25T13:17:29Z</time>
      </trkpt>
      <trkpt lat="43.08458" lon="5.78617">
        <ele>-1.79</ele>
        <time>2016-05-25T13:17:48Z</time>
      </trkpt>
      <trkpt lat="43.08484" lon="5.78575">
        <ele>-0.82</ele>
        <time>2016-05-25T13:18:05Z</time>
      </trkpt>
      <trkpt lat="43.08525" lon="5.78527">
        <ele>-1.79</ele>
        <time>2016-05-25T13:18:28Z</time>
      </trkpt>
      <trkpt lat="43.08568" lon="5.78478">
        <ele>-1.79</ele>
        <time>2016-05-25T13:18:51Z</time>
      </trkpt>
      <trkpt lat="43.0861" lon="5.78428">
        <ele>-2.27</ele>
        <time>2016-05-25T13:19:15Z</time>
      </trkpt>
      <trkpt lat="43.08641" lon="5.78375">
        <ele>-2.27</ele>
        <time>2016-05-25T13:19:38Z</time>
      </trkpt>
      <trkpt lat="43.08675" lon="5.78325">
        <ele>-2.27</ele>
        <time>2016-05-25T13:20:01Z</time>
      </trkpt>
      <trkpt lat="43.08709" lon="5.7828">
        <ele>-0.34</ele>
        <time>2016-05-25T13:20:24Z</time>
      </trkpt>
      <trkpt lat="43.08744" lon="5.78238">
        <ele>-0.82</ele>
        <time>2016-05-25T13:20:47Z</time>
      </trkpt>
      <trkpt lat="43.08783" lon="5.78199">
        <ele>-1.3</ele>
        <time>2016-05-25T13:21:12Z</time>
      </trkpt>
      <trkpt lat="43.08816" lon="5.78167">
        <ele>-0.82</ele>
        <time>2016-05-25T13:21:33Z</time>
      </trkpt>
      <trkpt lat="43.08851" lon="5.78135">
        <ele>-1.79</ele>
        <time>2016-05-25T13:21:54Z</time>
      </trkpt>
      <trkpt lat="43.08893" lon="5.78106">
        <ele>-2.75</ele>
        <time>2016-05-25T13:22:16Z</time>
      </trkpt>
      <trkpt lat="43.08935" lon="5.7807">
        <ele>-2.27</ele>
        <time>2016-05-25T13:22:38Z</time>
      </trkpt>
      <trkpt lat="43.08975" lon="5.78045">
        <ele>-2.27</ele>
        <time>2016-05-25T13:22:56Z</time>
      </trkpt>
      <trkpt lat="43.09026" lon="5.78013">
        <ele>-2.75</ele>
        <time>2016-05-25T13:23:18Z</time>
      </trkpt>
      <trkpt lat="43.09075" lon="5.77985">
        <ele>-3.23</ele>
        <time>2016-05-25T13:23:39Z</time>
      </trkpt>
      <trkpt lat="43.09123" lon="5.77967">
        <ele>-3.71</ele>
        <time>2016-05-25T13:23:59Z</time>
      </trkpt>
      <trkpt lat="43.09163" lon="5.7795">
        <ele>-3.23</ele>
        <time>2016-05-25T13:24:15Z</time>
      </trkpt>
      <trkpt lat="43.09217" lon="5.77925">
        <ele>-2.27</ele>
        <time>2016-05-25T13:24:37Z</time>
      </trkpt>
      <trkpt lat="43.0926" lon="5.77902">
        <ele>-3.23</ele>
        <time>2016-05-25T13:24:55Z</time>
      </trkpt>
      <trkpt lat="43.09302" lon="5.77871">
        <ele>-2.27</ele>
        <time>2016-05-25T13:25:14Z</time>
      </trkpt>
      <trkpt lat="43.0935" lon="5.77837">
        <ele>-1.79</ele>
        <time>2016-05-25T13:25:35Z</time>
      </trkpt>
      <trkpt lat="43.09396" lon="5.7781">
        <ele>-2.75</ele>
        <time>2016-05-25T13:25:54Z</time>
      </trkpt>
      <trkpt lat="43.09439" lon="5.77785">
        <ele>-2.27</ele>
        <time>2016-05-25T13:26:12Z</time>
      </trkpt>
      <trkpt lat="43.09484" lon="5.77758">
        <ele>-1.3</ele>
        <time>2016-05-25T13:26:31Z</time>
      </trkpt>
      <trkpt lat="43.09533" lon="5.77727">
        <ele>-2.27</ele>
        <time>2016-05-25T13:26:52Z</time>
      </trkpt>
      <trkpt lat="43.09588" lon="5.77687">
        <ele>-1.3</ele>
        <time>2016-05-25T13:27:14Z</time>
      </trkpt>
      <trkpt lat="43.09639" lon="5.77655">
        <ele>-1.3</ele>
        <time>2016-05-25T13:27:35Z</time>
      </trkpt>
      <trkpt lat="43.09691" lon="5.77616">
        <ele>-1.79</ele>
        <time>2016-05-25T13:27:57Z</time>
      </trkpt>
      <trkpt lat="43.09715" lon="5.77584">
        <ele>-1.79</ele>
        <time>2016-05-25T13:28:12Z</time>
      </trkpt>
      <trkpt lat="43.09742" lon="5.77547">
        <ele>-2.27</ele>
        <time>2016-05-25T13:28:26Z</time>
      </trkpt>
      <trkpt lat="43.09779" lon="5.77484">
        <ele>-2.27</ele>
        <time>2016-05-25T13:28:46Z</time>
      </trkpt>
      <trkpt lat="43.09816" lon="5.77424">
        <ele>-1.79</ele>
        <time>2016-05-25T13:29:06Z</time>
      </trkpt>
      <trkpt lat="43.09848" lon="5.77382">
        <ele>-1.79</ele>
        <time>2016-05-25T13:29:22Z</time>
      </trkpt>
      <trkpt lat="43.09881" lon="5.77335">
        <ele>-1.79</ele>
        <time>2016-05-25T13:29:39Z</time>
      </trkpt>
      <trkpt lat="43.09913" lon="5.77284">
        <ele>-1.79</ele>
        <time>2016-05-25T13:29:56Z</time>
      </trkpt>
      <trkpt lat="43.09942" lon="5.77238">
        <ele>-2.27</ele>
        <time>2016-05-25T13:30:12Z</time>
      </trkpt>
      <trkpt lat="43.09974" lon="5.77182">
        <ele>-2.75</ele>
        <time>2016-05-25T13:30:30Z</time>
      </trkpt>
      <trkpt lat="43.09999" lon="5.77141">
        <ele>-1.79</ele>
        <time>2016-05-25T13:30:44Z</time>
      </trkpt>
      <trkpt lat="43.1003" lon="5.77095">
        <ele>-2.27</ele>
        <time>2016-05-25T13:31:01Z</time>
      </trkpt>
      <trkpt lat="43.10056" lon="5.77058">
        <ele>-2.27</ele>
        <time>2016-05-25T13:31:15Z</time>
      </trkpt>
      <trkpt lat="43.10093" lon="5.7701">
        <ele>-1.79</ele>
        <time>2016-05-25T13:31:36Z</time>
      </trkpt>
      <trkpt lat="43.10119" lon="5.7697">
        <ele>-0.82</ele>
        <time>2016-05-25T13:31:52Z</time>
      </trkpt>
      <trkpt lat="43.10148" lon="5.76925">
        <ele>-1.3</ele>
        <time>2016-05-25T13:32:10Z</time>
      </trkpt>
      <trkpt lat="43.10178" lon="5.76883">
        <ele>-0.82</ele>
        <time>2016-05-25T13:32:27Z</time>
      </trkpt>
      <trkpt lat="43.10205" lon="5.76841">
        <ele>-0.82</ele>
        <time>2016-05-25T13:32:43Z</time>
      </trkpt>
      <trkpt lat="43.10234" lon="5.76797">
        <ele>-0.82</ele>
        <time>2016-05-25T13:33:00Z</time>
      </trkpt>
      <trkpt lat="43.10264" lon="5.76758">
        <ele>-0.34</ele>
        <time>2016-05-25T13:33:16Z</time>
      </trkpt>
      <trkpt lat="43.10305" lon="5.76704">
        <ele>-1.3</ele>
        <time>2016-05-25T13:33:37Z</time>
      </trkpt>
      <trkpt lat="43.10336" lon="5.76664">
        <ele>-1.3</ele>
        <time>2016-05-25T13:33:52Z</time>
      </trkpt>
      <trkpt lat="43.10378" lon="5.76612">
        <ele>-0.82</ele>
        <time>2016-05-25T13:34:12Z</time>
      </trkpt>
      <trkpt lat="43.10415" lon="5.76569">
        <ele>-0.82</ele>
        <time>2016-05-25T13:34:29Z</time>
      </trkpt>
      <trkpt lat="43.10447" lon="5.76533">
        <ele>-0.82</ele>
        <time>2016-05-25T13:34:44Z</time>
      </trkpt>
      <trkpt lat="43.10484" lon="5.76491">
        <ele>-0.34</ele>
        <time>2016-05-25T13:35:02Z</time>
      </trkpt>
      <trkpt lat="43.10513" lon="5.76451">
        <ele>-0.82</ele>
        <time>2016-05-25T13:35:17Z</time>
      </trkpt>
      <trkpt lat="43.10548" lon="5.76405">
        <ele>-1.3</ele>
        <time>2016-05-25T13:35:34Z</time>
      </trkpt>
      <trkpt lat="43.10581" lon="5.76358">
        <ele>-1.3</ele>
        <time>2016-05-25T13:35:50Z</time>
      </trkpt>
      <trkpt lat="43.10605" lon="5.76322">
        <ele>-0.82</ele>
        <time>2016-05-25T13:36:02Z</time>
      </trkpt>
      <trkpt lat="43.10639" lon="5.76275">
        <ele>-1.79</ele>
        <time>2016-05-25T13:36:18Z</time>
      </trkpt>
      <trkpt lat="43.10671" lon="5.76225">
        <ele>-2.27</ele>
        <time>2016-05-25T13:36:34Z</time>
      </trkpt>
      <trkpt lat="43.10704" lon="5.76174">
        <ele>-2.75</ele>
        <time>2016-05-25T13:36:50Z</time>
      </trkpt>
      <trkpt lat="43.10742" lon="5.76124">
        <ele>-2.27</ele>
        <time>2016-05-25T13:37:08Z</time>
      </trkpt>
      <trkpt lat="43.10776" lon="5.76081">
        <ele>-1.79</ele>
        <time>2016-05-25T13:37:24Z</time>
      </trkpt>
      <trkpt lat="43.1081" lon="5.76034">
        <ele>-2.27</ele>
        <time>2016-05-25T13:37:40Z</time>
      </trkpt>
      <trkpt lat="43.10834" lon="5.75995">
        <ele>-2.27</ele>
        <time>2016-05-25T13:37:52Z</time>
      </trkpt>
      <trkpt lat="43.10861" lon="5.75953">
        <ele>-2.27</ele>
        <time>2016-05-25T13:38:05Z</time>
      </trkpt>
      <trkpt lat="43.10893" lon="5.75908">
        <ele>-2.27</ele>
        <time>2016-05-25T13:38:20Z</time>
      </trkpt>
      <trkpt lat="43.1093" lon="5.75852">
        <ele>-2.75</ele>
        <time>2016-05-25T13:38:38Z</time>
      </trkpt>
      <trkpt lat="43.10968" lon="5.75802">
        <ele>-3.23</ele>
        <time>2016-05-25T13:38:55Z</time>
      </trkpt>
      <trkpt lat="43.11007" lon="5.75744">
        <ele>-2.75</ele>
        <time>2016-05-25T13:39:14Z</time>
      </trkpt>
      <trkpt lat="43.11041" lon="5.75688">
        <ele>-2.75</ele>
        <time>2016-05-25T13:39:31Z</time>
      </trkpt>
      <trkpt lat="43.11071" lon="5.7564">
        <ele>-2.27</ele>
        <time>2016-05-25T13:39:46Z</time>
      </trkpt>
      <trkpt lat="43.11105" lon="5.75586">
        <ele>-2.75</ele>
        <time>2016-05-25T13:40:03Z</time>
      </trkpt>
      <trkpt lat="43.11133" lon="5.75543">
        <ele>-2.75</ele>
        <time>2016-05-25T13:40:17Z</time>
      </trkpt>
      <trkpt lat="43.11159" lon="5.75502">
        <ele>-2.75</ele>
        <time>2016-05-25T13:40:31Z</time>
      </trkpt>
      <trkpt lat="43.1119" lon="5.75451">
        <ele>-2.75</ele>
        <time>2016-05-25T13:40:48Z</time>
      </trkpt>
      <trkpt lat="43.11226" lon="5.75398">
        <ele>-2.27</ele>
        <time>2016-05-25T13:41:06Z</time>
      </trkpt>
      <trkpt lat="43.11256" lon="5.7535">
        <ele>-2.75</ele>
        <time>2016-05-25T13:41:22Z</time>
      </trkpt>
      <trkpt lat="43.11295" lon="5.75289">
        <ele>-3.23</ele>
        <time>2016-05-25T13:41:42Z</time>
      </trkpt>
      <trkpt lat="43.11325" lon="5.75242">
        <ele>-3.71</ele>
        <time>2016-05-25T13:41:57Z</time>
      </trkpt>
      <trkpt lat="43.11357" lon="5.75192">
        <ele>-4.19</ele>
        <time>2016-05-25T13:42:14Z</time>
      </trkpt>
      <trkpt lat="43.11396" lon="5.75135">
        <ele>-3.71</ele>
        <time>2016-05-25T13:42:33Z</time>
      </trkpt>
      <trkpt lat="43.11431" lon="5.75083">
        <ele>-4.67</ele>
        <time>2016-05-25T13:42:50Z</time>
      </trkpt>
      <trkpt lat="43.11461" lon="5.75037">
        <ele>-4.19</ele>
        <time>2016-05-25T13:43:05Z</time>
      </trkpt>
      <trkpt lat="43.11493" lon="5.7499">
        <ele>-4.19</ele>
        <time>2016-05-25T13:43:20Z</time>
      </trkpt>
      <trkpt lat="43.11531" lon="5.74935">
        <ele>-5.15</ele>
        <time>2016-05-25T13:43:38Z</time>
      </trkpt>
      <trkpt lat="43.11564" lon="5.74885">
        <ele>-5.15</ele>
        <time>2016-05-25T13:43:54Z</time>
      </trkpt>
      <trkpt lat="43.11606" lon="5.74827">
        <ele>-2.75</ele>
        <time>2016-05-25T13:44:14Z</time>
      </trkpt>
      <trkpt lat="43.11639" lon="5.74778">
        <ele>-1.79</ele>
        <time>2016-05-25T13:44:30Z</time>
      </trkpt>
      <trkpt lat="43.11676" lon="5.74724">
        <ele>-1.79</ele>
        <time>2016-05-25T13:44:48Z</time>
      </trkpt>
      <trkpt lat="43.11714" lon="5.74668">
        <ele>-2.27</ele>
        <time>2016-05-25T13:45:06Z</time>
      </trkpt>
      <trkpt lat="43.11748" lon="5.74614">
        <ele>-1.3</ele>
        <time>2016-05-25T13:45:23Z</time>
      </trkpt>
      <trkpt lat="43.11777" lon="5.74567">
        <ele>-0.82</ele>
        <time>2016-05-25T13:45:38Z</time>
      </trkpt>
      <trkpt lat="43.11804" lon="5.74526">
        <ele>-1.3</ele>
        <time>2016-05-25T13:45:52Z</time>
      </trkpt>
      <trkpt lat="43.11839" lon="5.74473">
        <ele>-2.27</ele>
        <time>2016-05-25T13:46:10Z</time>
      </trkpt>
      <trkpt lat="43.11866" lon="5.74429">
        <ele>-1.3</ele>
        <time>2016-05-25T13:46:24Z</time>
      </trkpt>
      <trkpt lat="43.11894" lon="5.74386">
        <ele>-0.82</ele>
        <time>2016-05-25T13:46:38Z</time>
      </trkpt>
      <trkpt lat="43.11929" lon="5.74338">
        <ele>-1.3</ele>
        <time>2016-05-25T13:46:55Z</time>
      </trkpt>
      <trkpt lat="43.11968" lon="5.74282">
        <ele>-1.3</ele>
        <time>2016-05-25T13:47:15Z</time>
      </trkpt>
      <trkpt lat="43.12008" lon="5.74228">
        <ele>-1.3</ele>
        <time>2016-05-25T13:47:34Z</time>
      </trkpt>
      <trkpt lat="43.12043" lon="5.74179">
        <ele>-1.3</ele>
        <time>2016-05-25T13:47:52Z</time>
      </trkpt>
      <trkpt lat="43.12072" lon="5.74137">
        <ele>-2.27</ele>
        <time>2016-05-25T13:48:07Z</time>
      </trkpt>
      <trkpt lat="43.12103" lon="5.74092">
        <ele>-2.27</ele>
        <time>2016-05-25T13:48:23Z</time>
      </trkpt>
      <trkpt lat="43.12136" lon="5.74044">
        <ele>-1.79</ele>
        <time>2016-05-25T13:48:40Z</time>
      </trkpt>
      <trkpt lat="43.12166" lon="5.73998">
        <ele>-1.79</ele>
        <time>2016-05-25T13:48:56Z</time>
      </trkpt>
      <trkpt lat="43.12198" lon="5.73948">
        <ele>-2.75</ele>
        <time>2016-05-25T13:49:13Z</time>
      </trkpt>
      <trkpt lat="43.12231" lon="5.73898">
        <ele>-2.27</ele>
        <time>2016-05-25T13:49:30Z</time>
      </trkpt>
      <trkpt lat="43.12259" lon="5.73856">
        <ele>-2.27</ele>
        <time>2016-05-25T13:49:44Z</time>
      </trkpt>
      <trkpt lat="43.12289" lon="5.73812">
        <ele>-2.27</ele>
        <time>2016-05-25T13:49:59Z</time>
      </trkpt>
      <trkpt lat="43.12321" lon="5.73764">
        <ele>-2.27</ele>
        <time>2016-05-25T13:50:15Z</time>
      </trkpt>
      <trkpt lat="43.12358" lon="5.73711">
        <ele>-1.79</ele>
        <time>2016-05-25T13:50:33Z</time>
      </trkpt>
      <trkpt lat="43.1239" lon="5.73665">
        <ele>-1.79</ele>
        <time>2016-05-25T13:50:49Z</time>
      </trkpt>
      <trkpt lat="43.12429" lon="5.73607">
        <ele>-1.79</ele>
        <time>2016-05-25T13:51:08Z</time>
      </trkpt>
      <trkpt lat="43.12465" lon="5.73554">
        <ele>-2.75</ele>
        <time>2016-05-25T13:51:25Z</time>
      </trkpt>
      <trkpt lat="43.12497" lon="5.73509">
        <ele>-2.75</ele>
        <time>2016-05-25T13:51:40Z</time>
      </trkpt>
      <trkpt lat="43.12534" lon="5.73458">
        <ele>-2.27</ele>
        <time>2016-05-25T13:51:57Z</time>
      </trkpt>
      <trkpt lat="43.12573" lon="5.73405">
        <ele>-1.3</ele>
        <time>2016-05-25T13:52:15Z</time>
      </trkpt>
      <trkpt lat="43.12607" lon="5.73351">
        <ele>-1.79</ele>
        <time>2016-05-25T13:52:32Z</time>
      </trkpt>
      <trkpt lat="43.12636" lon="5.73303">
        <ele>-1.79</ele>
        <time>2016-05-25T13:52:46Z</time>
      </trkpt>
      <trkpt lat="43.1267" lon="5.73249">
        <ele>-1.3</ele>
        <time>2016-05-25T13:53:02Z</time>
      </trkpt>
      <trkpt lat="43.12702" lon="5.73204">
        <ele>-1.79</ele>
        <time>2016-05-25T13:53:16Z</time>
      </trkpt>
      <trkpt lat="43.12737" lon="5.73161">
        <ele>-1.3</ele>
        <time>2016-05-25T13:53:31Z</time>
      </trkpt>
      <trkpt lat="43.12777" lon="5.73111">
        <ele>-0.82</ele>
        <time>2016-05-25T13:53:48Z</time>
      </trkpt>
      <trkpt lat="43.12813" lon="5.73073">
        <ele>-0.82</ele>
        <time>2016-05-25T13:54:03Z</time>
      </trkpt>
      <trkpt lat="43.12858" lon="5.7303">
        <ele>-0.82</ele>
        <time>2016-05-25T13:54:22Z</time>
      </trkpt>
      <trkpt lat="43.12902" lon="5.73005">
        <ele>-0.82</ele>
        <time>2016-05-25T13:54:40Z</time>
      </trkpt>
      <trkpt lat="43.12929" lon="5.73019">
        <ele>-0.34</ele>
        <time>2016-05-25T13:54:52Z</time>
      </trkpt>
      <trkpt lat="43.12934" lon="5.73077">
        <ele>-0.82</ele>
        <time>2016-05-25T13:55:07Z</time>
      </trkpt>
      <trkpt lat="43.12928" lon="5.7313">
        <ele>-1.3</ele>
        <time>2016-05-25T13:55:23Z</time>
      </trkpt>
      <trkpt lat="43.1292" lon="5.73171">
        <ele>-0.34</ele>
        <time>2016-05-25T13:55:38Z</time>
      </trkpt>
      <trkpt lat="43.12912" lon="5.7321">
        <ele>0.14</ele>
        <time>2016-05-25T13:55:52Z</time>
      </trkpt>
      <trkpt lat="43.12899" lon="5.73264">
        <ele>-0.34</ele>
        <time>2016-05-25T13:56:10Z</time>
      </trkpt>
      <trkpt lat="43.12883" lon="5.73315">
        <ele>0.62</ele>
        <time>2016-05-25T13:56:26Z</time>
      </trkpt>
      <trkpt lat="43.1287" lon="5.73372">
        <ele>1.1</ele>
        <time>2016-05-25T13:56:42Z</time>
      </trkpt>
      <trkpt lat="43.12855" lon="5.73432">
        <ele>1.1</ele>
        <time>2016-05-25T13:56:58Z</time>
      </trkpt>
      <trkpt lat="43.12842" lon="5.73491">
        <ele>1.1</ele>
        <time>2016-05-25T13:57:13Z</time>
      </trkpt>
      <trkpt lat="43.12828" lon="5.73545">
        <ele>-0.34</ele>
        <time>2016-05-25T13:57:27Z</time>
      </trkpt>
      <trkpt lat="43.12816" lon="5.73601">
        <ele>0.14</ele>
        <time>2016-05-25T13:57:41Z</time>
      </trkpt>
      <trkpt lat="43.12805" lon="5.73664">
        <ele>-0.34</ele>
        <time>2016-05-25T13:57:57Z</time>
      </trkpt>
      <trkpt lat="43.12795" lon="5.73728">
        <ele>-0.82</ele>
        <time>2016-05-25T13:58:13Z</time>
      </trkpt>
      <trkpt lat="43.12783" lon="5.73785">
        <ele>-0.34</ele>
        <time>2016-05-25T13:58:28Z</time>
      </trkpt>
      <trkpt lat="43.12775" lon="5.7383">
        <ele>0.62</ele>
        <time>2016-05-25T13:58:40Z</time>
      </trkpt>
      <trkpt lat="43.12763" lon="5.73878">
        <ele>1.1</ele>
        <time>2016-05-25T13:58:53Z</time>
      </trkpt>
      <trkpt lat="43.1275" lon="5.73931">
        <ele>0.62</ele>
        <time>2016-05-25T13:59:07Z</time>
      </trkpt>
      <trkpt lat="43.12737" lon="5.73982">
        <ele>0.62</ele>
        <time>2016-05-25T13:59:20Z</time>
      </trkpt>
      <trkpt lat="43.1272" lon="5.74045">
        <ele>1.1</ele>
        <time>2016-05-25T13:59:36Z</time>
      </trkpt>
      <trkpt lat="43.12704" lon="5.7411">
        <ele>0.62</ele>
        <time>2016-05-25T13:59:52Z</time>
      </trkpt>
      <trkpt lat="43.12694" lon="5.7417">
        <ele>-0.82</ele>
        <time>2016-05-25T14:00:06Z</time>
      </trkpt>
      <trkpt lat="43.12684" lon="5.74244">
        <ele>-1.3</ele>
        <time>2016-05-25T14:00:23Z</time>
      </trkpt>
      <trkpt lat="43.12677" lon="5.74315">
        <ele>-0.82</ele>
        <time>2016-05-25T14:00:39Z</time>
      </trkpt>
      <trkpt lat="43.12667" lon="5.74374">
        <ele>-0.34</ele>
        <time>2016-05-25T14:00:53Z</time>
      </trkpt>
      <trkpt lat="43.12656" lon="5.74447">
        <ele>0.14</ele>
        <time>2016-05-25T14:01:09Z</time>
      </trkpt>
      <trkpt lat="43.12646" lon="5.74515">
        <ele>-0.82</ele>
        <time>2016-05-25T14:01:24Z</time>
      </trkpt>
      <trkpt lat="43.12638" lon="5.74589">
        <ele>-0.34</ele>
        <time>2016-05-25T14:01:40Z</time>
      </trkpt>
      <trkpt lat="43.12626" lon="5.74659">
        <ele>0.14</ele>
        <time>2016-05-25T14:01:56Z</time>
      </trkpt>
      <trkpt lat="43.12621" lon="5.74722">
        <ele>0.14</ele>
        <time>2016-05-25T14:02:10Z</time>
      </trkpt>
      <trkpt lat="43.12615" lon="5.74792">
        <ele>0.14</ele>
        <time>2016-05-25T14:02:25Z</time>
      </trkpt>
      <trkpt lat="43.12611" lon="5.74868">
        <ele>0.62</ele>
        <time>2016-05-25T14:02:42Z</time>
      </trkpt>
      <trkpt lat="43.12607" lon="5.74932">
        <ele>1.1</ele>
        <time>2016-05-25T14:02:56Z</time>
      </trkpt>
      <trkpt lat="43.12602" lon="5.75011">
        <ele>1.1</ele>
        <time>2016-05-25T14:03:13Z</time>
      </trkpt>
      <trkpt lat="43.12598" lon="5.7509">
        <ele>1.1</ele>
        <time>2016-05-25T14:03:30Z</time>
      </trkpt>
      <trkpt lat="43.12597" lon="5.75157">
        <ele>0.62</ele>
        <time>2016-05-25T14:03:44Z</time>
      </trkpt>
      <trkpt lat="43.12606" lon="5.75233">
        <ele>0.14</ele>
        <time>2016-05-25T14:04:00Z</time>
      </trkpt>
      <trkpt lat="43.12619" lon="5.75325">
        <ele>-0.82</ele>
        <time>2016-05-25T14:04:20Z</time>
      </trkpt>
      <trkpt lat="43.12635" lon="5.75395">
        <ele>-1.3</ele>
        <time>2016-05-25T14:04:36Z</time>
      </trkpt>
      <trkpt lat="43.12657" lon="5.75459">
        <ele>-1.3</ele>
        <time>2016-05-25T14:04:51Z</time>
      </trkpt>
      <trkpt lat="43.12683" lon="5.75525">
        <ele>-1.3</ele>
        <time>2016-05-25T14:05:07Z</time>
      </trkpt>
      <trkpt lat="43.12723" lon="5.75591">
        <ele>-0.82</ele>
        <time>2016-05-25T14:05:26Z</time>
      </trkpt>
      <trkpt lat="43.12765" lon="5.75644">
        <ele>-0.82</ele>
        <time>2016-05-25T14:05:44Z</time>
      </trkpt>
      <trkpt lat="43.12824" lon="5.75686">
        <ele>-0.82</ele>
        <time>2016-05-25T14:06:06Z</time>
      </trkpt>
      <trkpt lat="43.12888" lon="5.75719">
        <ele>-1.79</ele>
        <time>2016-05-25T14:06:30Z</time>
      </trkpt>
      <trkpt lat="43.12951" lon="5.75747">
        <ele>-0.82</ele>
        <time>2016-05-25T14:06:54Z</time>
      </trkpt>
      <trkpt lat="43.13007" lon="5.75774">
        <ele>-0.34</ele>
        <time>2016-05-25T14:07:16Z</time>
      </trkpt>
      <trkpt lat="43.13057" lon="5.75798">
        <ele>-0.34</ele>
        <time>2016-05-25T14:07:36Z</time>
      </trkpt>
      <trkpt lat="43.13116" lon="5.75822">
        <ele>0.14</ele>
        <time>2016-05-25T14:08:00Z</time>
      </trkpt>
      <trkpt lat="43.13173" lon="5.75849">
        <ele>-0.34</ele>
        <time>2016-05-25T14:08:24Z</time>
      </trkpt>
      <trkpt lat="43.13233" lon="5.75873">
        <ele>-0.34</ele>
        <time>2016-05-25T14:08:48Z</time>
      </trkpt>
      <trkpt lat="43.13307" lon="5.75903">
        <ele>-0.82</ele>
        <time>2016-05-25T14:09:18Z</time>
      </trkpt>
      <trkpt lat="43.13372" lon="5.7593">
        <ele>-0.82</ele>
        <time>2016-05-25T14:09:44Z</time>
      </trkpt>
      <trkpt lat="43.1343" lon="5.75959">
        <ele>-0.82</ele>
        <time>2016-05-25T14:10:08Z</time>
      </trkpt>
      <trkpt lat="43.13473" lon="5.76005">
        <ele>-1.3</ele>
        <time>2016-05-25T14:10:29Z</time>
      </trkpt>
      <trkpt lat="43.13474" lon="5.76049">
        <ele>-0.82</ele>
        <time>2016-05-25T14:10:43Z</time>
      </trkpt>
      <trkpt lat="43.13465" lon="5.76077">
        <ele>-0.34</ele>
        <time>2016-05-25T14:10:57Z</time>
      </trkpt>
      <trkpt lat="43.13459" lon="5.76119">
        <ele>-1.3</ele>
        <time>2016-05-25T14:11:17Z</time>
      </trkpt>
      <trkpt lat="43.13453" lon="5.7617">
        <ele>-1.79</ele>
        <time>2016-05-25T14:11:39Z</time>
      </trkpt>
      <trkpt lat="43.13443" lon="5.76217">
        <ele>-0.34</ele>
        <time>2016-05-25T14:11:59Z</time>
      </trkpt>
      <trkpt lat="43.13436" lon="5.76247">
        <ele>-0.34</ele>
        <time>2016-05-25T14:12:13Z</time>
      </trkpt>
      <trkpt lat="43.13422" lon="5.76286">
        <ele>-0.82</ele>
        <time>2016-05-25T14:12:33Z</time>
      </trkpt>
      <trkpt lat="43.1341" lon="5.76321">
        <ele>-0.82</ele>
        <time>2016-05-25T14:12:52Z</time>
      </trkpt>
      <trkpt lat="43.13399" lon="5.76353">
        <ele>-0.34</ele>
        <time>2016-05-25T14:13:09Z</time>
      </trkpt>
      <trkpt lat="43.13388" lon="5.76381">
        <ele>-0.82</ele>
        <time>2016-05-25T14:13:23Z</time>
      </trkpt>
      <trkpt lat="43.13374" lon="5.76413">
        <ele>-0.82</ele>
        <time>2016-05-25T14:13:39Z</time>
      </trkpt>
      <trkpt lat="43.13363" lon="5.76435">
        <ele>-1.79</ele>
        <time>2016-05-25T14:13:51Z</time>
      </trkpt>
      <trkpt lat="43.13346" lon="5.76467">
        <ele>-1.79</ele>
        <time>2016-05-25T14:14:09Z</time>
      </trkpt>
      <trkpt lat="43.13333" lon="5.765">
        <ele>-1.3</ele>
        <time>2016-05-25T14:14:26Z</time>
      </trkpt>
      <trkpt lat="43.1332" lon="5.76532">
        <ele>-0.82</ele>
        <time>2016-05-25T14:14:41Z</time>
      </trkpt>
      <trkpt lat="43.13307" lon="5.76566">
        <ele>-1.79</ele>
        <time>2016-05-25T14:14:56Z</time>
      </trkpt>
      <trkpt lat="43.13289" lon="5.766">
        <ele>-2.75</ele>
        <time>2016-05-25T14:15:14Z</time>
      </trkpt>
      <trkpt lat="43.13272" lon="5.76625">
        <ele>-2.75</ele>
        <time>2016-05-25T14:15:30Z</time>
      </trkpt>
      <trkpt lat="43.13252" lon="5.76648">
        <ele>-2.75</ele>
        <time>2016-05-25T14:15:48Z</time>
      </trkpt>
      <trkpt lat="43.13234" lon="5.76671">
        <ele>-2.75</ele>
        <time>2016-05-25T14:16:05Z</time>
      </trkpt>
      <trkpt lat="43.13219" lon="5.76692">
        <ele>-2.27</ele>
        <time>2016-05-25T14:16:21Z</time>
      </trkpt>
      <trkpt lat="43.13203" lon="5.76714">
        <ele>-3.23</ele>
        <time>2016-05-25T14:16:38Z</time>
      </trkpt>
      <trkpt lat="43.13189" lon="5.76738">
        <ele>-2.27</ele>
        <time>2016-05-25T14:16:54Z</time>
      </trkpt>
      <trkpt lat="43.13171" lon="5.76757">
        <ele>-1.79</ele>
        <time>2016-05-25T14:17:11Z</time>
      </trkpt>
      <trkpt lat="43.13159" lon="5.7678">
        <ele>-2.27</ele>
        <time>2016-05-25T14:17:26Z</time>
      </trkpt>
      <trkpt lat="43.13145" lon="5.76819">
        <ele>-1.79</ele>
        <time>2016-05-25T14:17:44Z</time>
      </trkpt>
      <trkpt lat="43.13139" lon="5.7683">
        <ele>-1.3</ele>
        <time>2016-05-25T14:17:50Z</time>
      </trkpt>
      <trkpt lat="43.13116" lon="5.76858">
        <ele>-1.3</ele>
        <time>2016-05-25T14:18:06Z</time>
      </trkpt>
      <trkpt lat="43.13117" lon="5.76903">
        <ele>-1.3</ele>
        <time>2016-05-25T14:18:23Z</time>
      </trkpt>
      <trkpt lat="43.13115" lon="5.76958">
        <ele>-1.3</ele>
        <time>2016-05-25T14:18:41Z</time>
      </trkpt>
      <trkpt lat="43.13116" lon="5.77022">
        <ele>-1.79</ele>
        <time>2016-05-25T14:19:02Z</time>
      </trkpt>
      <trkpt lat="43.1311" lon="5.77067">
        <ele>-0.34</ele>
        <time>2016-05-25T14:19:18Z</time>
      </trkpt>
      <trkpt lat="43.13097" lon="5.77111">
        <ele>-0.82</ele>
        <time>2016-05-25T14:19:35Z</time>
      </trkpt>
      <trkpt lat="43.1308" lon="5.7714">
        <ele>-1.79</ele>
        <time>2016-05-25T14:19:53Z</time>
      </trkpt>
      <trkpt lat="43.13065" lon="5.77119">
        <ele>-2.75</ele>
        <time>2016-05-25T14:20:10Z</time>
      </trkpt>
      <trkpt lat="43.13065" lon="5.77063">
        <ele>-2.27</ele>
        <time>2016-05-25T14:20:32Z</time>
      </trkpt>
      <trkpt lat="43.13063" lon="5.77005">
        <ele>-2.27</ele>
        <time>2016-05-25T14:20:54Z</time>
      </trkpt>
      <trkpt lat="43.13074" lon="5.76958">
        <ele>-2.27</ele>
        <time>2016-05-25T14:21:12Z</time>
      </trkpt>
      <trkpt lat="43.13101" lon="5.76905">
        <ele>-1.79</ele>
        <time>2016-05-25T14:21:35Z</time>
      </trkpt>
      <trkpt lat="43.13126" lon="5.76859">
        <ele>-2.27</ele>
        <time>2016-05-25T14:21:56Z</time>
      </trkpt>
      <trkpt lat="43.13138" lon="5.76813">
        <ele>-2.27</ele>
        <time>2016-05-25T14:22:15Z</time>
      </trkpt>
      <trkpt lat="43.13153" lon="5.76758">
        <ele>-2.75</ele>
        <time>2016-05-25T14:22:36Z</time>
      </trkpt>
      <trkpt lat="43.13176" lon="5.76712">
        <ele>-2.75</ele>
        <time>2016-05-25T14:22:56Z</time>
      </trkpt>
      <trkpt lat="43.13197" lon="5.76663">
        <ele>-2.75</ele>
        <time>2016-05-25T14:23:17Z</time>
      </trkpt>
      <trkpt lat="43.13209" lon="5.7661">
        <ele>-2.27</ele>
        <time>2016-05-25T14:23:37Z</time>
      </trkpt>
      <trkpt lat="43.13214" lon="5.76551">
        <ele>-1.79</ele>
        <time>2016-05-25T14:23:58Z</time>
      </trkpt>
      <trkpt lat="43.13214" lon="5.76497">
        <ele>-1.79</ele>
        <time>2016-05-25T14:24:18Z</time>
      </trkpt>
      <trkpt lat="43.1321" lon="5.76434">
        <ele>-0.82</ele>
        <time>2016-05-25T14:24:42Z</time>
      </trkpt>
      <trkpt lat="43.13204" lon="5.76367">
        <ele>-1.3</ele>
        <time>2016-05-25T14:25:06Z</time>
      </trkpt>
      <trkpt lat="43.13223" lon="5.7634">
        <ele>-1.79</ele>
        <time>2016-05-25T14:25:20Z</time>
      </trkpt>
      <trkpt lat="43.13258" lon="5.7634">
        <ele>-2.75</ele>
        <time>2016-05-25T14:25:39Z</time>
      </trkpt>
      <trkpt lat="43.13264" lon="5.76371">
        <ele>-1.79</ele>
        <time>2016-05-25T14:25:53Z</time>
      </trkpt>
      <trkpt lat="43.13252" lon="5.76402">
        <ele>-1.79</ele>
        <time>2016-05-25T14:26:09Z</time>
      </trkpt>
      <trkpt lat="43.13241" lon="5.76437">
        <ele>-2.75</ele>
        <time>2016-05-25T14:26:25Z</time>
      </trkpt>
      <trkpt lat="43.13229" lon="5.76482">
        <ele>-3.23</ele>
        <time>2016-05-25T14:26:43Z</time>
      </trkpt>
      <trkpt lat="43.13216" lon="5.76524">
        <ele>-2.75</ele>
        <time>2016-05-25T14:27:00Z</time>
      </trkpt>
      <trkpt lat="43.13204" lon="5.76567">
        <ele>-2.75</ele>
        <time>2016-05-25T14:27:17Z</time>
      </trkpt>
      <trkpt lat="43.132" lon="5.76607">
        <ele>-4.19</ele>
        <time>2016-05-25T14:27:31Z</time>
      </trkpt>
      <trkpt lat="43.13198" lon="5.76654">
        <ele>-4.19</ele>
        <time>2016-05-25T14:27:46Z</time>
      </trkpt>
      <trkpt lat="43.13191" lon="5.76706">
        <ele>-3.23</ele>
        <time>2016-05-25T14:28:03Z</time>
      </trkpt>
      <trkpt lat="43.1319" lon="5.76757">
        <ele>-3.71</ele>
        <time>2016-05-25T14:28:20Z</time>
      </trkpt>
      <trkpt lat="43.13196" lon="5.7681">
        <ele>-2.27</ele>
        <time>2016-05-25T14:28:37Z</time>
      </trkpt>
      <trkpt lat="43.13203" lon="5.76876">
        <ele>-2.27</ele>
        <time>2016-05-25T14:28:59Z</time>
      </trkpt>
      <trkpt lat="43.13199" lon="5.7692">
        <ele>-2.27</ele>
        <time>2016-05-25T14:29:14Z</time>
      </trkpt>
      <trkpt lat="43.13182" lon="5.76975">
        <ele>-1.79</ele>
        <time>2016-05-25T14:29:34Z</time>
      </trkpt>
      <trkpt lat="43.13168" lon="5.77017">
        <ele>-1.79</ele>
        <time>2016-05-25T14:29:51Z</time>
      </trkpt>
      <trkpt lat="43.13148" lon="5.77073">
        <ele>-1.79</ele>
        <time>2016-05-25T14:30:14Z</time>
      </trkpt>
      <trkpt lat="43.1313" lon="5.77114">
        <ele>-1.3</ele>
        <time>2016-05-25T14:30:32Z</time>
      </trkpt>
      <trkpt lat="43.13109" lon="5.77147">
        <ele>-0.82</ele>
        <time>2016-05-25T14:30:50Z</time>
      </trkpt>
      <trkpt lat="43.1309" lon="5.7716">
        <ele>-0.34</ele>
        <time>2016-05-25T14:31:07Z</time>
      </trkpt>
      <trkpt lat="43.13089" lon="5.77159">
        <ele>-0.34</ele>
        <time>2016-05-25T14:31:09Z</time>
      </trkpt>
      <trkpt lat="43.13094" lon="5.7713">
        <ele>-0.82</ele>
        <time>2016-05-25T14:31:26Z</time>
      </trkpt>
      <trkpt lat="43.13118" lon="5.77101">
        <ele>-1.79</ele>
        <time>2016-05-25T14:31:42Z</time>
      </trkpt>
      <trkpt lat="43.13121" lon="5.77047">
        <ele>-1.79</ele>
        <time>2016-05-25T14:32:01Z</time>
      </trkpt>
      <trkpt lat="43.13115" lon="5.76989">
        <ele>-1.79</ele>
        <time>2016-05-25T14:32:22Z</time>
      </trkpt>
      <trkpt lat="43.13118" lon="5.76931">
        <ele>-2.27</ele>
        <time>2016-05-25T14:32:42Z</time>
      </trkpt>
      <trkpt lat="43.13125" lon="5.76877">
        <ele>-1.79</ele>
        <time>2016-05-25T14:33:00Z</time>
      </trkpt>
      <trkpt lat="43.13123" lon="5.76804">
        <ele>-1.3</ele>
        <time>2016-05-25T14:33:25Z</time>
      </trkpt>
      <trkpt lat="43.13125" lon="5.76757">
        <ele>-1.79</ele>
        <time>2016-05-25T14:33:41Z</time>
      </trkpt>
      <trkpt lat="43.13118" lon="5.76693">
        <ele>-1.79</ele>
        <time>2016-05-25T14:34:03Z</time>
      </trkpt>
      <trkpt lat="43.13109" lon="5.7663">
        <ele>-1.79</ele>
        <time>2016-05-25T14:34:24Z</time>
      </trkpt>
      <trkpt lat="43.13104" lon="5.76574">
        <ele>-1.79</ele>
        <time>2016-05-25T14:34:42Z</time>
      </trkpt>
      <trkpt lat="43.13113" lon="5.76526">
        <ele>-1.79</ele>
        <time>2016-05-25T14:34:58Z</time>
      </trkpt>
      <trkpt lat="43.1313" lon="5.76471">
        <ele>-1.79</ele>
        <time>2016-05-25T14:35:17Z</time>
      </trkpt>
      <trkpt lat="43.13146" lon="5.7641">
        <ele>-2.27</ele>
        <time>2016-05-25T14:35:37Z</time>
      </trkpt>
      <trkpt lat="43.13162" lon="5.76354">
        <ele>-1.79</ele>
        <time>2016-05-25T14:35:56Z</time>
      </trkpt>
      <trkpt lat="43.13178" lon="5.76299">
        <ele>-1.3</ele>
        <time>2016-05-25T14:36:15Z</time>
      </trkpt>
      <trkpt lat="43.132" lon="5.76264">
        <ele>-0.82</ele>
        <time>2016-05-25T14:36:31Z</time>
      </trkpt>
      <trkpt lat="43.13238" lon="5.76257">
        <ele>-0.82</ele>
        <time>2016-05-25T14:36:52Z</time>
      </trkpt>
      <trkpt lat="43.1325" lon="5.76291">
        <ele>-1.3</ele>
        <time>2016-05-25T14:37:07Z</time>
      </trkpt>
      <trkpt lat="43.1325" lon="5.76296">
        <ele>-1.3</ele>
        <time>2016-05-25T14:37:09Z</time>
      </trkpt>
      <trkpt lat="43.13237" lon="5.7633">
        <ele>-1.79</ele>
        <time>2016-05-25T14:37:25Z</time>
      </trkpt>
      <trkpt lat="43.13223" lon="5.76364">
        <ele>-0.82</ele>
        <time>2016-05-25T14:37:41Z</time>
      </trkpt>
      <trkpt lat="43.13209" lon="5.76396">
        <ele>-0.82</ele>
        <time>2016-05-25T14:37:57Z</time>
      </trkpt>
      <trkpt lat="43.13189" lon="5.76409">
        <ele>-1.3</ele>
        <time>2016-05-25T14:38:15Z</time>
      </trkpt>
      <trkpt lat="43.13175" lon="5.76424">
        <ele>-0.82</ele>
        <time>2016-05-25T14:38:34Z</time>
      </trkpt>
      <trkpt lat="43.13162" lon="5.76443">
        <ele>-0.34</ele>
        <time>2016-05-25T14:38:54Z</time>
      </trkpt>
      <trkpt lat="43.13158" lon="5.76451">
        <ele>-0.34</ele>
        <time>2016-05-25T14:39:00Z</time>
      </trkpt>
      <trkpt lat="43.13155" lon="5.76459">
        <ele>-0.34</ele>
        <time>2016-05-25T14:39:06Z</time>
      </trkpt>
      <trkpt lat="43.13138" lon="5.76486">
        <ele>0.14</ele>
        <time>2016-05-25T14:39:27Z</time>
      </trkpt>
      <trkpt lat="43.13123" lon="5.7651">
        <ele>-0.34</ele>
        <time>2016-05-25T14:39:45Z</time>
      </trkpt>
      <trkpt lat="43.13108" lon="5.7653">
        <ele>-0.34</ele>
        <time>2016-05-25T14:40:04Z</time>
      </trkpt>
      <trkpt lat="43.13106" lon="5.76532">
        <ele>-0.34</ele>
        <time>2016-05-25T14:40:06Z</time>
      </trkpt>
      <trkpt lat="43.13097" lon="5.76548">
        <ele>-0.34</ele>
        <time>2016-05-25T14:40:18Z</time>
      </trkpt>
      <trkpt lat="43.13085" lon="5.76571">
        <ele>0.14</ele>
        <time>2016-05-25T14:40:35Z</time>
      </trkpt>
      <trkpt lat="43.13074" lon="5.76587">
        <ele>-2.27</ele>
        <time>2016-05-25T14:40:50Z</time>
      </trkpt>
      <trkpt lat="43.13072" lon="5.76591">
        <ele>-2.75</ele>
        <time>2016-05-25T14:40:53Z</time>
      </trkpt>
      <trkpt lat="43.1307" lon="5.76596">
        <ele>-2.75</ele>
        <time>2016-05-25T14:40:57Z</time>
      </trkpt>
      <trkpt lat="43.1306" lon="5.76613">
        <ele>-1.79</ele>
        <time>2016-05-25T14:41:10Z</time>
      </trkpt>
      <trkpt lat="43.13056" lon="5.76619">
        <ele>-1.3</ele>
        <time>2016-05-25T14:41:15Z</time>
      </trkpt>
      <trkpt lat="43.1304" lon="5.76644">
        <ele>-1.3</ele>
        <time>2016-05-25T14:41:36Z</time>
      </trkpt>
      <trkpt lat="43.13028" lon="5.76663">
        <ele>-1.3</ele>
        <time>2016-05-25T14:41:52Z</time>
      </trkpt>
      <trkpt lat="43.13021" lon="5.76683">
        <ele>-1.3</ele>
        <time>2016-05-25T14:42:04Z</time>
      </trkpt>
      <trkpt lat="43.13016" lon="5.76689">
        <ele>-1.3</ele>
        <time>2016-05-25T14:42:09Z</time>
      </trkpt>
      <trkpt lat="43.13012" lon="5.76694">
        <ele>-1.3</ele>
        <time>2016-05-25T14:42:13Z</time>
      </trkpt>
      <trkpt lat="43.13004" lon="5.76711">
        <ele>-1.3</ele>
        <time>2016-05-25T14:42:23Z</time>
      </trkpt>
      <trkpt lat="43.12997" lon="5.76734">
        <ele>-1.3</ele>
        <time>2016-05-25T14:42:36Z</time>
      </trkpt>
      <trkpt lat="43.12979" lon="5.76748">
        <ele>-2.27</ele>
        <time>2016-05-25T14:42:55Z</time>
      </trkpt>
      <trkpt lat="43.12978" lon="5.76751">
        <ele>-2.27</ele>
        <time>2016-05-25T14:42:58Z</time>
      </trkpt>
      <trkpt lat="43.12967" lon="5.76768">
        <ele>-1.3</ele>
        <time>2016-05-25T14:43:15Z</time>
      </trkpt>
      <trkpt lat="43.12959" lon="5.76784">
        <ele>-1.79</ele>
        <time>2016-05-25T14:43:29Z</time>
      </trkpt>
      <trkpt lat="43.12951" lon="5.768">
        <ele>-1.3</ele>
        <time>2016-05-25T14:43:44Z</time>
      </trkpt>
      <trkpt lat="43.12949" lon="5.76804">
        <ele>-1.3</ele>
        <time>2016-05-25T14:43:47Z</time>
      </trkpt>
      <trkpt lat="43.12943" lon="5.76817">
        <ele>-1.3</ele>
        <time>2016-05-25T14:43:58Z</time>
      </trkpt>
      <trkpt lat="43.12934" lon="5.76838">
        <ele>-1.3</ele>
        <time>2016-05-25T14:44:14Z</time>
      </trkpt>
      <trkpt lat="43.12925" lon="5.76853">
        <ele>-0.82</ele>
        <time>2016-05-25T14:44:26Z</time>
      </trkpt>
      <trkpt lat="43.12921" lon="5.76862">
        <ele>-0.34</ele>
        <time>2016-05-25T14:44:32Z</time>
      </trkpt>
      <trkpt lat="43.12919" lon="5.7687">
        <ele>-0.82</ele>
        <time>2016-05-25T14:44:36Z</time>
      </trkpt>
      <trkpt lat="43.12908" lon="5.76886">
        <ele>-1.79</ele>
        <time>2016-05-25T14:44:49Z</time>
      </trkpt>
      <trkpt lat="43.12902" lon="5.76889">
        <ele>-1.3</ele>
        <time>2016-05-25T14:44:55Z</time>
      </trkpt>
      <trkpt lat="43.12894" lon="5.76866">
        <ele>-0.34</ele>
        <time>2016-05-25T14:45:13Z</time>
      </trkpt>
      <trkpt lat="43.12907" lon="5.76834">
        <ele>-0.82</ele>
        <time>2016-05-25T14:45:30Z</time>
      </trkpt>
      <trkpt lat="43.12918" lon="5.76795">
        <ele>-1.3</ele>
        <time>2016-05-25T14:45:46Z</time>
      </trkpt>
      <trkpt lat="43.12919" lon="5.76741">
        <ele>-0.82</ele>
        <time>2016-05-25T14:46:05Z</time>
      </trkpt>
      <trkpt lat="43.12925" lon="5.767">
        <ele>-1.3</ele>
        <time>2016-05-25T14:46:20Z</time>
      </trkpt>
      <trkpt lat="43.12938" lon="5.76652">
        <ele>-1.3</ele>
        <time>2016-05-25T14:46:37Z</time>
      </trkpt>
      <trkpt lat="43.12949" lon="5.76607">
        <ele>-1.3</ele>
        <time>2016-05-25T14:46:53Z</time>
      </trkpt>
      <trkpt lat="43.1296" lon="5.76569">
        <ele>-1.79</ele>
        <time>2016-05-25T14:47:07Z</time>
      </trkpt>
      <trkpt lat="43.12973" lon="5.76522">
        <ele>-1.79</ele>
        <time>2016-05-25T14:47:24Z</time>
      </trkpt>
      <trkpt lat="43.12974" lon="5.76471">
        <ele>-1.3</ele>
        <time>2016-05-25T14:47:41Z</time>
      </trkpt>
      <trkpt lat="43.12968" lon="5.76416">
        <ele>-0.34</ele>
        <time>2016-05-25T14:48:00Z</time>
      </trkpt>
      <trkpt lat="43.12966" lon="5.76369">
        <ele>0.14</ele>
        <time>2016-05-25T14:48:16Z</time>
      </trkpt>
      <trkpt lat="43.12962" lon="5.76319">
        <ele>0.62</ele>
        <time>2016-05-25T14:48:34Z</time>
      </trkpt>
      <trkpt lat="43.12966" lon="5.76275">
        <ele>0.14</ele>
        <time>2016-05-25T14:48:51Z</time>
      </trkpt>
      <trkpt lat="43.12973" lon="5.7623">
        <ele>-0.34</ele>
        <time>2016-05-25T14:49:07Z</time>
      </trkpt>
      <trkpt lat="43.12973" lon="5.76178">
        <ele>0.62</ele>
        <time>2016-05-25T14:49:25Z</time>
      </trkpt>
      <trkpt lat="43.12975" lon="5.76131">
        <ele>0.62</ele>
        <time>2016-05-25T14:49:41Z</time>
      </trkpt>
      <trkpt lat="43.12981" lon="5.76092">
        <ele>0.14</ele>
        <time>2016-05-25T14:49:55Z</time>
      </trkpt>
      <trkpt lat="43.12997" lon="5.76052">
        <ele>-0.82</ele>
        <time>2016-05-25T14:50:11Z</time>
      </trkpt>
      <trkpt lat="43.13008" lon="5.76011">
        <ele>-0.34</ele>
        <time>2016-05-25T14:50:26Z</time>
      </trkpt>
      <trkpt lat="43.1303" lon="5.75979">
        <ele>-1.3</ele>
        <time>2016-05-25T14:50:42Z</time>
      </trkpt>
      <trkpt lat="43.13054" lon="5.75956">
        <ele>-1.79</ele>
        <time>2016-05-25T14:50:58Z</time>
      </trkpt>
      <trkpt lat="43.13085" lon="5.75945">
        <ele>-1.79</ele>
        <time>2016-05-25T14:51:16Z</time>
      </trkpt>
      <trkpt lat="43.13115" lon="5.7592">
        <ele>-1.3</ele>
        <time>2016-05-25T14:51:35Z</time>
      </trkpt>
      <trkpt lat="43.13121" lon="5.7589">
        <ele>-1.79</ele>
        <time>2016-05-25T14:51:47Z</time>
      </trkpt>
      <trkpt lat="43.13125" lon="5.75846">
        <ele>-2.27</ele>
        <time>2016-05-25T14:52:03Z</time>
      </trkpt>
      <trkpt lat="43.13109" lon="5.75808">
        <ele>-1.3</ele>
        <time>2016-05-25T14:52:20Z</time>
      </trkpt>
      <trkpt lat="43.13085" lon="5.75803">
        <ele>-0.82</ele>
        <time>2016-05-25T14:52:36Z</time>
      </trkpt>
      <trkpt lat="43.13074" lon="5.7582">
        <ele>-1.79</ele>
        <time>2016-05-25T14:52:52Z</time>
      </trkpt>
      <trkpt lat="43.13064" lon="5.75841">
        <ele>-1.79</ele>
        <time>2016-05-25T14:53:08Z</time>
      </trkpt>
      <trkpt lat="43.13059" lon="5.75876">
        <ele>-1.3</ele>
        <time>2016-05-25T14:53:24Z</time>
      </trkpt>
      <trkpt lat="43.13056" lon="5.75913">
        <ele>-0.82</ele>
        <time>2016-05-25T14:53:38Z</time>
      </trkpt>
      <trkpt lat="43.13055" lon="5.75918">
        <ele>-0.82</ele>
        <time>2016-05-25T14:53:40Z</time>
      </trkpt>
      <trkpt lat="43.13044" lon="5.7594">
        <ele>-1.3</ele>
        <time>2016-05-25T14:53:52Z</time>
      </trkpt>
      <trkpt lat="43.13041" lon="5.75945">
        <ele>-2.27</ele>
        <time>2016-05-25T14:53:56Z</time>
      </trkpt>
      <trkpt lat="43.13038" lon="5.7595">
        <ele>-2.75</ele>
        <time>2016-05-25T14:54:00Z</time>
      </trkpt>
      <trkpt lat="43.13021" lon="5.75958">
        <ele>-2.75</ele>
        <time>2016-05-25T14:54:18Z</time>
      </trkpt>
      <trkpt lat="43.13013" lon="5.75969">
        <ele>-3.23</ele>
        <time>2016-05-25T14:54:32Z</time>
      </trkpt>
      <trkpt lat="43.13013" lon="5.7597">
        <ele>-3.23</ele>
        <time>2016-05-25T14:54:33Z</time>
      </trkpt>
      <trkpt lat="43.1301" lon="5.7598">
        <ele>-3.23</ele>
        <time>2016-05-25T14:54:40Z</time>
      </trkpt>
      <trkpt lat="43.13001" lon="5.76009">
        <ele>-2.27</ele>
        <time>2016-05-25T14:54:56Z</time>
      </trkpt>
      <trkpt lat="43.12986" lon="5.76028">
        <ele>-1.3</ele>
        <time>2016-05-25T14:55:12Z</time>
      </trkpt>
      <trkpt lat="43.12974" lon="5.76048">
        <ele>-0.82</ele>
        <time>2016-05-25T14:55:29Z</time>
      </trkpt>
      <trkpt lat="43.12982" lon="5.76091">
        <ele>0.62</ele>
        <time>2016-05-25T14:55:45Z</time>
      </trkpt>
      <trkpt lat="43.13002" lon="5.76142">
        <ele>0.62</ele>
        <time>2016-05-25T14:56:01Z</time>
      </trkpt>
      <trkpt lat="43.1302" lon="5.76194">
        <ele>0.14</ele>
        <time>2016-05-25T14:56:18Z</time>
      </trkpt>
      <trkpt lat="43.13041" lon="5.76248">
        <ele>0.14</ele>
        <time>2016-05-25T14:56:37Z</time>
      </trkpt>
      <trkpt lat="43.13061" lon="5.76291">
        <ele>0.14</ele>
        <time>2016-05-25T14:56:54Z</time>
      </trkpt>
      <trkpt lat="43.13088" lon="5.7634">
        <ele>0.14</ele>
        <time>2016-05-25T14:57:14Z</time>
      </trkpt>
      <trkpt lat="43.13115" lon="5.76379">
        <ele>-0.34</ele>
        <time>2016-05-25T14:57:32Z</time>
      </trkpt>
      <trkpt lat="43.13157" lon="5.76412">
        <ele>-1.3</ele>
        <time>2016-05-25T14:57:55Z</time>
      </trkpt>
      <trkpt lat="43.13197" lon="5.76423">
        <ele>-1.79</ele>
        <time>2016-05-25T14:58:15Z</time>
      </trkpt>
      <trkpt lat="43.13228" lon="5.76405">
        <ele>-1.79</ele>
        <time>2016-05-25T14:58:34Z</time>
      </trkpt>
      <trkpt lat="43.13236" lon="5.76361">
        <ele>-0.82</ele>
        <time>2016-05-25T14:58:52Z</time>
      </trkpt>
      <trkpt lat="43.13241" lon="5.76321">
        <ele>-0.82</ele>
        <time>2016-05-25T14:59:08Z</time>
      </trkpt>
      <trkpt lat="43.13245" lon="5.76277">
        <ele>-0.34</ele>
        <time>2016-05-25T14:59:26Z</time>
      </trkpt>
      <trkpt lat="43.13242" lon="5.76232">
        <ele>-0.82</ele>
        <time>2016-05-25T14:59:45Z</time>
      </trkpt>
      <trkpt lat="43.13235" lon="5.76179">
        <ele>-0.82</ele>
        <time>2016-05-25T15:00:05Z</time>
      </trkpt>
      <trkpt lat="43.13226" lon="5.76129">
        <ele>-0.82</ele>
        <time>2016-05-25T15:00:23Z</time>
      </trkpt>
      <trkpt lat="43.13209" lon="5.76124">
        <ele>-1.79</ele>
        <time>2016-05-25T15:00:34Z</time>
      </trkpt>
      <trkpt lat="43.13194" lon="5.76124">
        <ele>-1.79</ele>
        <time>2016-05-25T15:00:50Z</time>
      </trkpt>
      <trkpt lat="43.13192" lon="5.76134">
        <ele>-2.27</ele>
        <time>2016-05-25T15:01:03Z</time>
      </trkpt>
      <trkpt lat="43.13191" lon="5.76145">
        <ele>-1.79</ele>
        <time>2016-05-25T15:01:13Z</time>
      </trkpt>
      <trkpt lat="43.13186" lon="5.76172">
        <ele>-1.3</ele>
        <time>2016-05-25T15:01:28Z</time>
      </trkpt>
      <trkpt lat="43.13173" lon="5.7621">
        <ele>-0.82</ele>
        <time>2016-05-25T15:01:45Z</time>
      </trkpt>
      <trkpt lat="43.13163" lon="5.7625">
        <ele>-0.82</ele>
        <time>2016-05-25T15:02:01Z</time>
      </trkpt>
      <trkpt lat="43.13151" lon="5.7629">
        <ele>-0.34</ele>
        <time>2016-05-25T15:02:17Z</time>
      </trkpt>
      <trkpt lat="43.13156" lon="5.76325">
        <ele>-0.34</ele>
        <time>2016-05-25T15:02:28Z</time>
      </trkpt>
      <trkpt lat="43.13151" lon="5.76345">
        <ele>-0.82</ele>
        <time>2016-05-25T15:02:35Z</time>
      </trkpt>
      <trkpt lat="43.13134" lon="5.76339">
        <ele>-0.82</ele>
        <time>2016-05-25T15:02:47Z</time>
      </trkpt>
      <trkpt lat="43.13106" lon="5.76313">
        <ele>-0.34</ele>
        <time>2016-05-25T15:03:08Z</time>
      </trkpt>
      <trkpt lat="43.13071" lon="5.76279">
        <ele>-0.34</ele>
        <time>2016-05-25T15:03:29Z</time>
      </trkpt>
      <trkpt lat="43.13044" lon="5.76242">
        <ele>-0.82</ele>
        <time>2016-05-25T15:03:46Z</time>
      </trkpt>
      <trkpt lat="43.13012" lon="5.76203">
        <ele>-1.79</ele>
        <time>2016-05-25T15:04:04Z</time>
      </trkpt>
      <trkpt lat="43.12973" lon="5.76161">
        <ele>-1.79</ele>
        <time>2016-05-25T15:04:24Z</time>
      </trkpt>
      <trkpt lat="43.12945" lon="5.76142">
        <ele>-1.3</ele>
        <time>2016-05-25T15:04:40Z</time>
      </trkpt>
      <trkpt lat="43.12912" lon="5.76106">
        <ele>-1.79</ele>
        <time>2016-05-25T15:04:59Z</time>
      </trkpt>
      <trkpt lat="43.12879" lon="5.76077">
        <ele>-0.82</ele>
        <time>2016-05-25T15:05:16Z</time>
      </trkpt>
      <trkpt lat="43.12847" lon="5.76047">
        <ele>-0.82</ele>
        <time>2016-05-25T15:05:35Z</time>
      </trkpt>
      <trkpt lat="43.12825" lon="5.76026">
        <ele>-1.79</ele>
        <time>2016-05-25T15:05:50Z</time>
      </trkpt>
      <trkpt lat="43.12798" lon="5.75999">
        <ele>-0.82</ele>
        <time>2016-05-25T15:06:07Z</time>
      </trkpt>
      <trkpt lat="43.12774" lon="5.75968">
        <ele>-0.82</ele>
        <time>2016-05-25T15:06:26Z</time>
      </trkpt>
      <trkpt lat="43.12741" lon="5.75933">
        <ele>-2.27</ele>
        <time>2016-05-25T15:06:46Z</time>
      </trkpt>
      <trkpt lat="43.12714" lon="5.7591">
        <ele>-2.27</ele>
        <time>2016-05-25T15:07:02Z</time>
      </trkpt>
      <trkpt lat="43.12686" lon="5.75883">
        <ele>-1.3</ele>
        <time>2016-05-25T15:07:18Z</time>
      </trkpt>
      <trkpt lat="43.12658" lon="5.75861">
        <ele>-0.82</ele>
        <time>2016-05-25T15:07:33Z</time>
      </trkpt>
      <trkpt lat="43.12631" lon="5.75846">
        <ele>-2.27</ele>
        <time>2016-05-25T15:07:48Z</time>
      </trkpt>
      <trkpt lat="43.12609" lon="5.75818">
        <ele>-1.3</ele>
        <time>2016-05-25T15:08:03Z</time>
      </trkpt>
      <trkpt lat="43.12581" lon="5.75789">
        <ele>-1.3</ele>
        <time>2016-05-25T15:08:18Z</time>
      </trkpt>
      <trkpt lat="43.12549" lon="5.75755">
        <ele>-1.79</ele>
        <time>2016-05-25T15:08:35Z</time>
      </trkpt>
      <trkpt lat="43.12521" lon="5.75728">
        <ele>-2.27</ele>
        <time>2016-05-25T15:08:50Z</time>
      </trkpt>
      <trkpt lat="43.12485" lon="5.75692">
        <ele>-2.27</ele>
        <time>2016-05-25T15:09:08Z</time>
      </trkpt>
      <trkpt lat="43.12449" lon="5.75667">
        <ele>-2.27</ele>
        <time>2016-05-25T15:09:25Z</time>
      </trkpt>
      <trkpt lat="43.12411" lon="5.75634">
        <ele>-2.75</ele>
        <time>2016-05-25T15:09:43Z</time>
      </trkpt>
      <trkpt lat="43.1237" lon="5.75603">
        <ele>-1.79</ele>
        <time>2016-05-25T15:10:01Z</time>
      </trkpt>
      <trkpt lat="43.12336" lon="5.75578">
        <ele>-2.75</ele>
        <time>2016-05-25T15:10:18Z</time>
      </trkpt>
      <trkpt lat="43.12295" lon="5.75535">
        <ele>-2.27</ele>
        <time>2016-05-25T15:10:39Z</time>
      </trkpt>
      <trkpt lat="43.12264" lon="5.75513">
        <ele>-1.3</ele>
        <time>2016-05-25T15:10:54Z</time>
      </trkpt>
      <trkpt lat="43.12239" lon="5.75494">
        <ele>-2.27</ele>
        <time>2016-05-25T15:11:08Z</time>
      </trkpt>
      <trkpt lat="43.12209" lon="5.75465">
        <ele>-2.27</ele>
        <time>2016-05-25T15:11:26Z</time>
      </trkpt>
      <trkpt lat="43.12179" lon="5.75421">
        <ele>-2.27</ele>
        <time>2016-05-25T15:11:44Z</time>
      </trkpt>
      <trkpt lat="43.12139" lon="5.75373">
        <ele>-2.75</ele>
        <time>2016-05-25T15:12:05Z</time>
      </trkpt>
      <trkpt lat="43.1211" lon="5.7533">
        <ele>-2.75</ele>
        <time>2016-05-25T15:12:23Z</time>
      </trkpt>
      <trkpt lat="43.12083" lon="5.75288">
        <ele>-2.27</ele>
        <time>2016-05-25T15:12:39Z</time>
      </trkpt>
      <trkpt lat="43.12044" lon="5.7525">
        <ele>-1.3</ele>
        <time>2016-05-25T15:12:57Z</time>
      </trkpt>
      <trkpt lat="43.12012" lon="5.75227">
        <ele>-1.3</ele>
        <time>2016-05-25T15:13:13Z</time>
      </trkpt>
      <trkpt lat="43.11987" lon="5.75212">
        <ele>-2.75</ele>
        <time>2016-05-25T15:13:26Z</time>
      </trkpt>
      <trkpt lat="43.11957" lon="5.75198">
        <ele>-3.23</ele>
        <time>2016-05-25T15:13:41Z</time>
      </trkpt>
      <trkpt lat="43.1193" lon="5.75179">
        <ele>-2.75</ele>
        <time>2016-05-25T15:13:57Z</time>
      </trkpt>
      <trkpt lat="43.11895" lon="5.75151">
        <ele>-1.3</ele>
        <time>2016-05-25T15:14:15Z</time>
      </trkpt>
      <trkpt lat="43.11871" lon="5.75147">
        <ele>-0.34</ele>
        <time>2016-05-25T15:14:29Z</time>
      </trkpt>
      <trkpt lat="43.11869" lon="5.75157">
        <ele>-0.34</ele>
        <time>2016-05-25T15:14:35Z</time>
      </trkpt>
      <trkpt lat="43.11869" lon="5.75164">
        <ele>-0.34</ele>
        <time>2016-05-25T15:14:39Z</time>
      </trkpt>
      <trkpt lat="43.11865" lon="5.75194">
        <ele>0.14</ele>
        <time>2016-05-25T15:14:54Z</time>
      </trkpt>
      <trkpt lat="43.11858" lon="5.75226">
        <ele>-0.82</ele>
        <time>2016-05-25T15:15:08Z</time>
      </trkpt>
      <trkpt lat="43.11843" lon="5.75277">
        <ele>-1.3</ele>
        <time>2016-05-25T15:15:26Z</time>
      </trkpt>
      <trkpt lat="43.11825" lon="5.75334">
        <ele>-1.3</ele>
        <time>2016-05-25T15:15:44Z</time>
      </trkpt>
      <trkpt lat="43.11811" lon="5.75373">
        <ele>-2.27</ele>
        <time>2016-05-25T15:15:57Z</time>
      </trkpt>
      <trkpt lat="43.11795" lon="5.75425">
        <ele>-1.79</ele>
        <time>2016-05-25T15:16:13Z</time>
      </trkpt>
      <trkpt lat="43.1178" lon="5.75472">
        <ele>-0.82</ele>
        <time>2016-05-25T15:16:27Z</time>
      </trkpt>
      <trkpt lat="43.11764" lon="5.75534">
        <ele>-0.82</ele>
        <time>2016-05-25T15:16:44Z</time>
      </trkpt>
      <trkpt lat="43.11747" lon="5.75595">
        <ele>0.14</ele>
        <time>2016-05-25T15:17:00Z</time>
      </trkpt>
      <trkpt lat="43.11728" lon="5.75654">
        <ele>-0.34</ele>
        <time>2016-05-25T15:17:17Z</time>
      </trkpt>
      <trkpt lat="43.11714" lon="5.75694">
        <ele>-0.82</ele>
        <time>2016-05-25T15:17:29Z</time>
      </trkpt>
      <trkpt lat="43.11702" lon="5.75749">
        <ele>-0.82</ele>
        <time>2016-05-25T15:17:44Z</time>
      </trkpt>
      <trkpt lat="43.11693" lon="5.75808">
        <ele>-0.34</ele>
        <time>2016-05-25T15:17:59Z</time>
      </trkpt>
      <trkpt lat="43.11689" lon="5.7587">
        <ele>0.14</ele>
        <time>2016-05-25T15:18:14Z</time>
      </trkpt>
      <trkpt lat="43.11691" lon="5.75943">
        <ele>0.14</ele>
        <time>2016-05-25T15:18:32Z</time>
      </trkpt>
      <trkpt lat="43.11699" lon="5.76009">
        <ele>0.62</ele>
        <time>2016-05-25T15:18:49Z</time>
      </trkpt>
      <trkpt lat="43.11709" lon="5.76093">
        <ele>1.58</ele>
        <time>2016-05-25T15:19:11Z</time>
      </trkpt>
      <trkpt lat="43.11719" lon="5.76167">
        <ele>2.06</ele>
        <time>2016-05-25T15:19:29Z</time>
      </trkpt>
      <trkpt lat="43.11735" lon="5.76236">
        <ele>1.58</ele>
        <time>2016-05-25T15:19:46Z</time>
      </trkpt>
      <trkpt lat="43.11767" lon="5.76296">
        <ele>1.1</ele>
        <time>2016-05-25T15:20:05Z</time>
      </trkpt>
      <trkpt lat="43.11808" lon="5.76302">
        <ele>1.1</ele>
        <time>2016-05-25T15:20:23Z</time>
      </trkpt>
      <trkpt lat="43.11839" lon="5.76306">
        <ele>0.62</ele>
        <time>2016-05-25T15:20:38Z</time>
      </trkpt>
      <trkpt lat="43.11878" lon="5.76307">
        <ele>0.62</ele>
        <time>2016-05-25T15:20:57Z</time>
      </trkpt>
      <trkpt lat="43.11917" lon="5.76304">
        <ele>0.62</ele>
        <time>2016-05-25T15:21:17Z</time>
      </trkpt>
      <trkpt lat="43.11961" lon="5.76305">
        <ele>1.1</ele>
        <time>2016-05-25T15:21:40Z</time>
      </trkpt>
      <trkpt lat="43.11994" lon="5.76304">
        <ele>0.62</ele>
        <time>2016-05-25T15:21:57Z</time>
      </trkpt>
      <trkpt lat="43.12029" lon="5.76303">
        <ele>0.14</ele>
        <time>2016-05-25T15:22:14Z</time>
      </trkpt>
      <trkpt lat="43.12063" lon="5.76303">
        <ele>0.62</ele>
        <time>2016-05-25T15:22:31Z</time>
      </trkpt>
      <trkpt lat="43.12098" lon="5.763">
        <ele>0.14</ele>
        <time>2016-05-25T15:22:48Z</time>
      </trkpt>
      <trkpt lat="43.12133" lon="5.76297">
        <ele>-1.3</ele>
        <time>2016-05-25T15:23:04Z</time>
      </trkpt>
      <trkpt lat="43.12177" lon="5.76291">
        <ele>-0.34</ele>
        <time>2016-05-25T15:23:24Z</time>
      </trkpt>
      <trkpt lat="43.12215" lon="5.76291">
        <ele>0.62</ele>
        <time>2016-05-25T15:23:41Z</time>
      </trkpt>
      <trkpt lat="43.12256" lon="5.76292">
        <ele>0.62</ele>
        <time>2016-05-25T15:24:01Z</time>
      </trkpt>
      <trkpt lat="43.12296" lon="5.76287">
        <ele>1.1</ele>
        <time>2016-05-25T15:24:21Z</time>
      </trkpt>
      <trkpt lat="43.12335" lon="5.76285">
        <ele>0.62</ele>
        <time>2016-05-25T15:24:42Z</time>
      </trkpt>
      <trkpt lat="43.1237" lon="5.76279">
        <ele>-0.34</ele>
        <time>2016-05-25T15:25:01Z</time>
      </trkpt>
      <trkpt lat="43.12404" lon="5.76273">
        <ele>-0.82</ele>
        <time>2016-05-25T15:25:19Z</time>
      </trkpt>
      <trkpt lat="43.12437" lon="5.76269">
        <ele>-1.79</ele>
        <time>2016-05-25T15:25:36Z</time>
      </trkpt>
      <trkpt lat="43.12474" lon="5.76266">
        <ele>-0.82</ele>
        <time>2016-05-25T15:25:55Z</time>
      </trkpt>
      <trkpt lat="43.12503" lon="5.76265">
        <ele>-0.34</ele>
        <time>2016-05-25T15:26:10Z</time>
      </trkpt>
      <trkpt lat="43.12529" lon="5.76263">
        <ele>0.62</ele>
        <time>2016-05-25T15:26:25Z</time>
      </trkpt>
      <trkpt lat="43.12562" lon="5.76266">
        <ele>0.14</ele>
        <time>2016-05-25T15:26:44Z</time>
      </trkpt>
      <trkpt lat="43.12591" lon="5.76264">
        <ele>0.14</ele>
        <time>2016-05-25T15:27:02Z</time>
      </trkpt>
      <trkpt lat="43.12618" lon="5.76262">
        <ele>0.62</ele>
        <time>2016-05-25T15:27:19Z</time>
      </trkpt>
      <trkpt lat="43.12647" lon="5.7626">
        <ele>0.14</ele>
        <time>2016-05-25T15:27:38Z</time>
      </trkpt>
      <trkpt lat="43.12683" lon="5.7626">
        <ele>0.62</ele>
        <time>2016-05-25T15:28:00Z</time>
      </trkpt>
      <trkpt lat="43.12709" lon="5.76263">
        <ele>0.14</ele>
        <time>2016-05-25T15:28:15Z</time>
      </trkpt>
      <trkpt lat="43.12742" lon="5.7627">
        <ele>-0.82</ele>
        <time>2016-05-25T15:28:33Z</time>
      </trkpt>
      <trkpt lat="43.12782" lon="5.7628">
        <ele>-1.3</ele>
        <time>2016-05-25T15:28:55Z</time>
      </trkpt>
      <trkpt lat="43.12815" lon="5.76288">
        <ele>0.14</ele>
        <time>2016-05-25T15:29:12Z</time>
      </trkpt>
      <trkpt lat="43.12851" lon="5.76303">
        <ele>0.62</ele>
        <time>2016-05-25T15:29:31Z</time>
      </trkpt>
      <trkpt lat="43.12895" lon="5.76323">
        <ele>0.14</ele>
        <time>2016-05-25T15:29:55Z</time>
      </trkpt>
      <trkpt lat="43.12931" lon="5.76338">
        <ele>0.14</ele>
        <time>2016-05-25T15:30:15Z</time>
      </trkpt>
      <trkpt lat="43.12962" lon="5.76347">
        <ele>0.14</ele>
        <time>2016-05-25T15:30:33Z</time>
      </trkpt>
      <trkpt lat="43.12992" lon="5.76353">
        <ele>-0.34</ele>
        <time>2016-05-25T15:30:51Z</time>
      </trkpt>
      <trkpt lat="43.13026" lon="5.76362">
        <ele>0.62</ele>
        <time>2016-05-25T15:31:10Z</time>
      </trkpt>
      <trkpt lat="43.13059" lon="5.76372">
        <ele>-0.82</ele>
        <time>2016-05-25T15:31:29Z</time>
      </trkpt>
      <trkpt lat="43.13095" lon="5.76383">
        <ele>-1.79</ele>
        <time>2016-05-25T15:31:49Z</time>
      </trkpt>
      <trkpt lat="43.13133" lon="5.76388">
        <ele>-2.75</ele>
        <time>2016-05-25T15:32:08Z</time>
      </trkpt>
      <trkpt lat="43.13163" lon="5.76373">
        <ele>-2.27</ele>
        <time>2016-05-25T15:32:24Z</time>
      </trkpt>
      <trkpt lat="43.13158" lon="5.76338">
        <ele>-0.82</ele>
        <time>2016-05-25T15:32:38Z</time>
      </trkpt>
      <trkpt lat="43.13139" lon="5.76304">
        <ele>1.1</ele>
        <time>2016-05-25T15:32:56Z</time>
      </trkpt>
      <trkpt lat="43.13121" lon="5.76273">
        <ele>1.1</ele>
        <time>2016-05-25T15:33:13Z</time>
      </trkpt>
      <trkpt lat="43.13102" lon="5.76241">
        <ele>0.62</ele>
        <time>2016-05-25T15:33:31Z</time>
      </trkpt>
      <trkpt lat="43.13083" lon="5.76196">
        <ele>0.14</ele>
        <time>2016-05-25T15:33:51Z</time>
      </trkpt>
      <trkpt lat="43.13057" lon="5.76151">
        <ele>0.14</ele>
        <time>2016-05-25T15:34:12Z</time>
      </trkpt>
      <trkpt lat="43.13027" lon="5.76104">
        <ele>0.62</ele>
        <time>2016-05-25T15:34:33Z</time>
      </trkpt>
      <trkpt lat="43.12998" lon="5.76064">
        <ele>1.1</ele>
        <time>2016-05-25T15:34:51Z</time>
      </trkpt>
      <trkpt lat="43.12965" lon="5.76019">
        <ele>1.1</ele>
        <time>2016-05-25T15:35:11Z</time>
      </trkpt>
      <trkpt lat="43.12939" lon="5.75986">
        <ele>0.62</ele>
        <time>2016-05-25T15:35:27Z</time>
      </trkpt>
      <trkpt lat="43.12911" lon="5.75943">
        <ele>1.1</ele>
        <time>2016-05-25T15:35:47Z</time>
      </trkpt>
      <trkpt lat="43.12887" lon="5.75914">
        <ele>0.62</ele>
        <time>2016-05-25T15:36:02Z</time>
      </trkpt>
      <trkpt lat="43.12865" lon="5.75885">
        <ele>0.14</ele>
        <time>2016-05-25T15:36:19Z</time>
      </trkpt>
      <trkpt lat="43.12839" lon="5.75847">
        <ele>-0.82</ele>
        <time>2016-05-25T15:36:40Z</time>
      </trkpt>
      <trkpt lat="43.12818" lon="5.75819">
        <ele>-1.3</ele>
        <time>2016-05-25T15:36:56Z</time>
      </trkpt>
      <trkpt lat="43.12795" lon="5.75786">
        <ele>-0.34</ele>
        <time>2016-05-25T15:37:12Z</time>
      </trkpt>
      <trkpt lat="43.12765" lon="5.75742">
        <ele>1.1</ele>
        <time>2016-05-25T15:37:31Z</time>
      </trkpt>
      <trkpt lat="43.12744" lon="5.75713">
        <ele>2.06</ele>
        <time>2016-05-25T15:37:44Z</time>
      </trkpt>
      <trkpt lat="43.1271" lon="5.75683">
        <ele>2.54</ele>
        <time>2016-05-25T15:38:03Z</time>
      </trkpt>
      <trkpt lat="43.12686" lon="5.75661">
        <ele>1.1</ele>
        <time>2016-05-25T15:38:18Z</time>
      </trkpt>
      <trkpt lat="43.12663" lon="5.75634">
        <ele>0.14</ele>
        <time>2016-05-25T15:38:34Z</time>
      </trkpt>
      <trkpt lat="43.12645" lon="5.75611">
        <ele>0.62</ele>
        <time>2016-05-25T15:38:47Z</time>
      </trkpt>
      <trkpt lat="43.12621" lon="5.7558">
        <ele>1.1</ele>
        <time>2016-05-25T15:39:04Z</time>
      </trkpt>
      <trkpt lat="43.12595" lon="5.75546">
        <ele>2.54</ele>
        <time>2016-05-25T15:39:21Z</time>
      </trkpt>
      <trkpt lat="43.12573" lon="5.75524">
        <ele>3.5</ele>
        <time>2016-05-25T15:39:35Z</time>
      </trkpt>
      <trkpt lat="43.12542" lon="5.75496">
        <ele>3.5</ele>
        <time>2016-05-25T15:39:54Z</time>
      </trkpt>
      <trkpt lat="43.12515" lon="5.75476">
        <ele>2.54</ele>
        <time>2016-05-25T15:40:10Z</time>
      </trkpt>
      <trkpt lat="43.12492" lon="5.75459">
        <ele>0.62</ele>
        <time>2016-05-25T15:40:25Z</time>
      </trkpt>
      <trkpt lat="43.12468" lon="5.75434">
        <ele>-0.34</ele>
        <time>2016-05-25T15:40:42Z</time>
      </trkpt>
      <trkpt lat="43.12439" lon="5.75403">
        <ele>-0.34</ele>
        <time>2016-05-25T15:41:01Z</time>
      </trkpt>
      <trkpt lat="43.12415" lon="5.75376">
        <ele>-0.34</ele>
        <time>2016-05-25T15:41:18Z</time>
      </trkpt>
      <trkpt lat="43.12387" lon="5.75348">
        <ele>0.14</ele>
        <time>2016-05-25T15:41:36Z</time>
      </trkpt>
      <trkpt lat="43.12363" lon="5.75328">
        <ele>-0.34</ele>
        <time>2016-05-25T15:41:51Z</time>
      </trkpt>
      <trkpt lat="43.12336" lon="5.75306">
        <ele>-0.34</ele>
        <time>2016-05-25T15:42:08Z</time>
      </trkpt>
      <trkpt lat="43.12318" lon="5.75286">
        <ele>-0.82</ele>
        <time>2016-05-25T15:42:21Z</time>
      </trkpt>
      <trkpt lat="43.12293" lon="5.75259">
        <ele>-2.27</ele>
        <time>2016-05-25T15:42:37Z</time>
      </trkpt>
      <trkpt lat="43.12266" lon="5.75233">
        <ele>-2.75</ele>
        <time>2016-05-25T15:42:53Z</time>
      </trkpt>
      <trkpt lat="43.12243" lon="5.7521">
        <ele>-2.27</ele>
        <time>2016-05-25T15:43:08Z</time>
      </trkpt>
      <trkpt lat="43.12219" lon="5.75189">
        <ele>-2.75</ele>
        <time>2016-05-25T15:43:23Z</time>
      </trkpt>
      <trkpt lat="43.12199" lon="5.75169">
        <ele>-2.27</ele>
        <time>2016-05-25T15:43:37Z</time>
      </trkpt>
      <trkpt lat="43.12171" lon="5.75147">
        <ele>-1.79</ele>
        <time>2016-05-25T15:43:55Z</time>
      </trkpt>
      <trkpt lat="43.12145" lon="5.75125">
        <ele>-2.75</ele>
        <time>2016-05-25T15:44:13Z</time>
      </trkpt>
      <trkpt lat="43.12124" lon="5.75107">
        <ele>-2.75</ele>
        <time>2016-05-25T15:44:27Z</time>
      </trkpt>
      <trkpt lat="43.12096" lon="5.75078">
        <ele>-4.19</ele>
        <time>2016-05-25T15:44:48Z</time>
      </trkpt>
      <trkpt lat="43.12075" lon="5.75057">
        <ele>-3.71</ele>
        <time>2016-05-25T15:45:04Z</time>
      </trkpt>
      <trkpt lat="43.12054" lon="5.75035">
        <ele>-2.27</ele>
        <time>2016-05-25T15:45:20Z</time>
      </trkpt>
      <trkpt lat="43.1203" lon="5.75008">
        <ele>-1.79</ele>
        <time>2016-05-25T15:45:38Z</time>
      </trkpt>
      <trkpt lat="43.12027" lon="5.75004">
        <ele>-1.3</ele>
        <time>2016-05-25T15:45:40Z</time>
      </trkpt>
      <trkpt lat="43.12009" lon="5.75006">
        <ele>-0.82</ele>
        <time>2016-05-25T15:45:55Z</time>
      </trkpt>
      <trkpt lat="43.12008" lon="5.75007">
        <ele>-0.82</ele>
        <time>2016-05-25T15:45:56Z</time>
      </trkpt>
      <trkpt lat="43.12004" lon="5.75025">
        <ele>0.14</ele>
        <time>2016-05-25T15:46:10Z</time>
      </trkpt>
      <trkpt lat="43.12" lon="5.75038">
        <ele>-0.34</ele>
        <time>2016-05-25T15:46:19Z</time>
      </trkpt>
      <trkpt lat="43.11992" lon="5.75075">
        <ele>-0.82</ele>
        <time>2016-05-25T15:46:39Z</time>
      </trkpt>
      <trkpt lat="43.11982" lon="5.75113">
        <ele>0.14</ele>
        <time>2016-05-25T15:46:57Z</time>
      </trkpt>
      <trkpt lat="43.11965" lon="5.75156">
        <ele>-0.34</ele>
        <time>2016-05-25T15:47:16Z</time>
      </trkpt>
      <trkpt lat="43.11949" lon="5.75197">
        <ele>-0.82</ele>
        <time>2016-05-25T15:47:33Z</time>
      </trkpt>
      <trkpt lat="43.1193" lon="5.75237">
        <ele>-1.3</ele>
        <time>2016-05-25T15:47:49Z</time>
      </trkpt>
      <trkpt lat="43.11909" lon="5.75287">
        <ele>-1.3</ele>
        <time>2016-05-25T15:48:08Z</time>
      </trkpt>
      <trkpt lat="43.11889" lon="5.75332">
        <ele>-1.3</ele>
        <time>2016-05-25T15:48:24Z</time>
      </trkpt>
      <trkpt lat="43.11869" lon="5.75379">
        <ele>-1.79</ele>
        <time>2016-05-25T15:48:41Z</time>
      </trkpt>
      <trkpt lat="43.1185" lon="5.75425">
        <ele>-1.3</ele>
        <time>2016-05-25T15:48:57Z</time>
      </trkpt>
      <trkpt lat="43.11827" lon="5.75479">
        <ele>-1.79</ele>
        <time>2016-05-25T15:49:15Z</time>
      </trkpt>
      <trkpt lat="43.11808" lon="5.75526">
        <ele>-1.3</ele>
        <time>2016-05-25T15:49:31Z</time>
      </trkpt>
      <trkpt lat="43.11787" lon="5.75576">
        <ele>-0.82</ele>
        <time>2016-05-25T15:49:48Z</time>
      </trkpt>
      <trkpt lat="43.11769" lon="5.75621">
        <ele>-0.82</ele>
        <time>2016-05-25T15:50:03Z</time>
      </trkpt>
      <trkpt lat="43.11746" lon="5.75673">
        <ele>-0.82</ele>
        <time>2016-05-25T15:50:21Z</time>
      </trkpt>
      <trkpt lat="43.11724" lon="5.75724">
        <ele>-0.34</ele>
        <time>2016-05-25T15:50:39Z</time>
      </trkpt>
      <trkpt lat="43.11703" lon="5.75782">
        <ele>-0.34</ele>
        <time>2016-05-25T15:50:58Z</time>
      </trkpt>
      <trkpt lat="43.1169" lon="5.75847">
        <ele>0.14</ele>
        <time>2016-05-25T15:51:16Z</time>
      </trkpt>
      <trkpt lat="43.1169" lon="5.75897">
        <ele>-1.3</ele>
        <time>2016-05-25T15:51:29Z</time>
      </trkpt>
      <trkpt lat="43.11694" lon="5.75956">
        <ele>-1.3</ele>
        <time>2016-05-25T15:51:46Z</time>
      </trkpt>
      <trkpt lat="43.117" lon="5.76003">
        <ele>-0.82</ele>
        <time>2016-05-25T15:52:01Z</time>
      </trkpt>
      <trkpt lat="43.11707" lon="5.76052">
        <ele>0.14</ele>
        <time>2016-05-25T15:52:17Z</time>
      </trkpt>
      <trkpt lat="43.11714" lon="5.76099">
        <ele>-0.34</ele>
        <time>2016-05-25T15:52:34Z</time>
      </trkpt>
      <trkpt lat="43.11721" lon="5.76151">
        <ele>0.14</ele>
        <time>2016-05-25T15:52:53Z</time>
      </trkpt>
      <trkpt lat="43.1173" lon="5.76196">
        <ele>0.14</ele>
        <time>2016-05-25T15:53:10Z</time>
      </trkpt>
      <trkpt lat="43.11737" lon="5.7624">
        <ele>0.14</ele>
        <time>2016-05-25T15:53:27Z</time>
      </trkpt>
      <trkpt lat="43.11749" lon="5.76282">
        <ele>0.14</ele>
        <time>2016-05-25T15:53:44Z</time>
      </trkpt>
      <trkpt lat="43.11777" lon="5.76304">
        <ele>0.14</ele>
        <time>2016-05-25T15:54:01Z</time>
      </trkpt>
      <trkpt lat="43.11807" lon="5.76309">
        <ele>-0.34</ele>
        <time>2016-05-25T15:54:20Z</time>
      </trkpt>
      <trkpt lat="43.11836" lon="5.7631">
        <ele>-1.79</ele>
        <time>2016-05-25T15:54:40Z</time>
      </trkpt>
      <trkpt lat="43.11865" lon="5.76306">
        <ele>-0.82</ele>
        <time>2016-05-25T15:55:01Z</time>
      </trkpt>
      <trkpt lat="43.11886" lon="5.76298">
        <ele>-1.3</ele>
        <time>2016-05-25T15:55:17Z</time>
      </trkpt>
      <trkpt lat="43.1191" lon="5.76292">
        <ele>-0.82</ele>
        <time>2016-05-25T15:55:34Z</time>
      </trkpt>
      <trkpt lat="43.11938" lon="5.76285">
        <ele>-0.34</ele>
        <time>2016-05-25T15:55:53Z</time>
      </trkpt>
      <trkpt lat="43.1196" lon="5.76282">
        <ele>-0.82</ele>
        <time>2016-05-25T15:56:08Z</time>
      </trkpt>
      <trkpt lat="43.1198" lon="5.76276">
        <ele>-0.82</ele>
        <time>2016-05-25T15:56:22Z</time>
      </trkpt>
      <trkpt lat="43.12002" lon="5.7627">
        <ele>-0.82</ele>
        <time>2016-05-25T15:56:37Z</time>
      </trkpt>
      <trkpt lat="43.12027" lon="5.76265">
        <ele>-0.82</ele>
        <time>2016-05-25T15:56:55Z</time>
      </trkpt>
      <trkpt lat="43.12053" lon="5.76263">
        <ele>-0.82</ele>
        <time>2016-05-25T15:57:14Z</time>
      </trkpt>
      <trkpt lat="43.12081" lon="5.76256">
        <ele>0.14</ele>
        <time>2016-05-25T15:57:34Z</time>
      </trkpt>
      <trkpt lat="43.12108" lon="5.76248">
        <ele>0.62</ele>
        <time>2016-05-25T15:57:53Z</time>
      </trkpt>
      <trkpt lat="43.12132" lon="5.76244">
        <ele>0.62</ele>
        <time>2016-05-25T15:58:10Z</time>
      </trkpt>
      <trkpt lat="43.12154" lon="5.7624">
        <ele>0.62</ele>
        <time>2016-05-25T15:58:27Z</time>
      </trkpt>
      <trkpt lat="43.12178" lon="5.76239">
        <ele>0.62</ele>
        <time>2016-05-25T15:58:44Z</time>
      </trkpt>
      <trkpt lat="43.12205" lon="5.76236">
        <ele>-0.82</ele>
        <time>2016-05-25T15:59:04Z</time>
      </trkpt>
      <trkpt lat="43.12225" lon="5.76238">
        <ele>-0.82</ele>
        <time>2016-05-25T15:59:19Z</time>
      </trkpt>
      <trkpt lat="43.1225" lon="5.76233">
        <ele>-0.34</ele>
        <time>2016-05-25T15:59:38Z</time>
      </trkpt>
      <trkpt lat="43.12279" lon="5.76227">
        <ele>0.14</ele>
        <time>2016-05-25T16:00:00Z</time>
      </trkpt>
      <trkpt lat="43.12301" lon="5.76225">
        <ele>0.62</ele>
        <time>2016-05-25T16:00:18Z</time>
      </trkpt>
      <trkpt lat="43.12324" lon="5.76224">
        <ele>0.14</ele>
        <time>2016-05-25T16:00:36Z</time>
      </trkpt>
      <trkpt lat="43.12344" lon="5.76221">
        <ele>-0.82</ele>
        <time>2016-05-25T16:00:53Z</time>
      </trkpt>
      <trkpt lat="43.12361" lon="5.76216">
        <ele>-0.34</ele>
        <time>2016-05-25T16:01:08Z</time>
      </trkpt>
      <trkpt lat="43.12385" lon="5.76218">
        <ele>-0.34</ele>
        <time>2016-05-25T16:01:29Z</time>
      </trkpt>
      <trkpt lat="43.12393" lon="5.76216">
        <ele>-0.34</ele>
        <time>2016-05-25T16:01:36Z</time>
      </trkpt>
      <trkpt lat="43.12418" lon="5.76218">
        <ele>0.14</ele>
        <time>2016-05-25T16:01:58Z</time>
      </trkpt>
      <trkpt lat="43.12439" lon="5.76223">
        <ele>0.14</ele>
        <time>2016-05-25T16:02:16Z</time>
      </trkpt>
      <trkpt lat="43.12462" lon="5.76227">
        <ele>1.58</ele>
        <time>2016-05-25T16:02:35Z</time>
      </trkpt>
      <trkpt lat="43.12492" lon="5.76236">
        <ele>0.14</ele>
        <time>2016-05-25T16:02:59Z</time>
      </trkpt>
      <trkpt lat="43.12519" lon="5.76251">
        <ele>-0.82</ele>
        <time>2016-05-25T16:03:19Z</time>
      </trkpt>
      <trkpt lat="43.12548" lon="5.76262">
        <ele>0.14</ele>
        <time>2016-05-25T16:03:39Z</time>
      </trkpt>
      <trkpt lat="43.12569" lon="5.76269">
        <ele>0.14</ele>
        <time>2016-05-25T16:03:54Z</time>
      </trkpt>
      <trkpt lat="43.12597" lon="5.76278">
        <ele>-0.34</ele>
        <time>2016-05-25T16:04:15Z</time>
      </trkpt>
      <trkpt lat="43.1262" lon="5.76285">
        <ele>0.14</ele>
        <time>2016-05-25T16:04:32Z</time>
      </trkpt>
      <trkpt lat="43.12643" lon="5.76289">
        <ele>0.14</ele>
        <time>2016-05-25T16:04:50Z</time>
      </trkpt>
      <trkpt lat="43.12668" lon="5.76296">
        <ele>-0.34</ele>
        <time>2016-05-25T16:05:11Z</time>
      </trkpt>
      <trkpt lat="43.12684" lon="5.76301">
        <ele>-0.34</ele>
        <time>2016-05-25T16:05:24Z</time>
      </trkpt>
      <trkpt lat="43.12711" lon="5.76311">
        <ele>-0.34</ele>
        <time>2016-05-25T16:05:45Z</time>
      </trkpt>
      <trkpt lat="43.12734" lon="5.76323">
        <ele>0.14</ele>
        <time>2016-05-25T16:06:03Z</time>
      </trkpt>
      <trkpt lat="43.12761" lon="5.76332">
        <ele>-0.34</ele>
        <time>2016-05-25T16:06:25Z</time>
      </trkpt>
      <trkpt lat="43.12786" lon="5.76342">
        <ele>-0.34</ele>
        <time>2016-05-25T16:06:45Z</time>
      </trkpt>
      <trkpt lat="43.12809" lon="5.76352">
        <ele>0.14</ele>
        <time>2016-05-25T16:07:04Z</time>
      </trkpt>
      <trkpt lat="43.12832" lon="5.76365">
        <ele>-0.34</ele>
        <time>2016-05-25T16:07:24Z</time>
      </trkpt>
      <trkpt lat="43.12858" lon="5.76373">
        <ele>-0.34</ele>
        <time>2016-05-25T16:07:45Z</time>
      </trkpt>
      <trkpt lat="43.1288" lon="5.7638">
        <ele>-1.3</ele>
        <time>2016-05-25T16:08:03Z</time>
      </trkpt>
      <trkpt lat="43.129" lon="5.76386">
        <ele>0.14</ele>
        <time>2016-05-25T16:08:20Z</time>
      </trkpt>
      <trkpt lat="43.1292" lon="5.76387">
        <ele>-0.82</ele>
        <time>2016-05-25T16:08:37Z</time>
      </trkpt>
      <trkpt lat="43.12943" lon="5.76391">
        <ele>-0.82</ele>
        <time>2016-05-25T16:08:58Z</time>
      </trkpt>
      <trkpt lat="43.12965" lon="5.76401">
        <ele>0.14</ele>
        <time>2016-05-25T16:09:20Z</time>
      </trkpt>
      <trkpt lat="43.12991" lon="5.76408">
        <ele>-0.34</ele>
        <time>2016-05-25T16:09:45Z</time>
      </trkpt>
      <trkpt lat="43.13013" lon="5.76413">
        <ele>-0.82</ele>
        <time>2016-05-25T16:10:06Z</time>
      </trkpt>
      <trkpt lat="43.1303" lon="5.76415">
        <ele>-2.27</ele>
        <time>2016-05-25T16:10:22Z</time>
      </trkpt>
      <trkpt lat="43.13049" lon="5.76417">
        <ele>-1.3</ele>
        <time>2016-05-25T16:10:39Z</time>
      </trkpt>
      <trkpt lat="43.13075" lon="5.76415">
        <ele>-1.3</ele>
        <time>2016-05-25T16:11:02Z</time>
      </trkpt>
      <trkpt lat="43.131" lon="5.76413">
        <ele>-1.79</ele>
        <time>2016-05-25T16:11:25Z</time>
      </trkpt>
      <trkpt lat="43.13126" lon="5.76408">
        <ele>-2.27</ele>
        <time>2016-05-25T16:11:46Z</time>
      </trkpt>
      <trkpt lat="43.13146" lon="5.76397">
        <ele>-2.27</ele>
        <time>2016-05-25T16:12:03Z</time>
      </trkpt>
      <trkpt lat="43.13157" lon="5.76362">
        <ele>-1.79</ele>
        <time>2016-05-25T16:12:24Z</time>
      </trkpt>
      <trkpt lat="43.13156" lon="5.7633">
        <ele>-0.34</ele>
        <time>2016-05-25T16:12:39Z</time>
      </trkpt>
      <trkpt lat="43.13151" lon="5.76285">
        <ele>0.62</ele>
        <time>2016-05-25T16:12:58Z</time>
      </trkpt>
      <trkpt lat="43.13149" lon="5.76236">
        <ele>-0.34</ele>
        <time>2016-05-25T16:13:16Z</time>
      </trkpt>
      <trkpt lat="43.13146" lon="5.76186">
        <ele>-0.34</ele>
        <time>2016-05-25T16:13:34Z</time>
      </trkpt>
      <trkpt lat="43.13138" lon="5.76123">
        <ele>-0.82</ele>
        <time>2016-05-25T16:13:56Z</time>
      </trkpt>
      <trkpt lat="43.13134" lon="5.76074">
        <ele>-0.34</ele>
        <time>2016-05-25T16:14:14Z</time>
      </trkpt>
      <trkpt lat="43.13125" lon="5.76031">
        <ele>0.14</ele>
        <time>2016-05-25T16:14:31Z</time>
      </trkpt>
      <trkpt lat="43.13117" lon="5.75981">
        <ele>-0.82</ele>
        <time>2016-05-25T16:14:50Z</time>
      </trkpt>
      <trkpt lat="43.13105" lon="5.75931">
        <ele>0.62</ele>
        <time>2016-05-25T16:15:10Z</time>
      </trkpt>
      <trkpt lat="43.13094" lon="5.75879">
        <ele>-0.34</ele>
        <time>2016-05-25T16:15:30Z</time>
      </trkpt>
      <trkpt lat="43.13085" lon="5.75828">
        <ele>-1.3</ele>
        <time>2016-05-25T16:15:49Z</time>
      </trkpt>
      <trkpt lat="43.13076" lon="5.75784">
        <ele>-0.34</ele>
        <time>2016-05-25T16:16:06Z</time>
      </trkpt>
      <trkpt lat="43.13067" lon="5.75751">
        <ele>-1.3</ele>
        <time>2016-05-25T16:16:21Z</time>
      </trkpt>
      <trkpt lat="43.13068" lon="5.75739">
        <ele>-1.3</ele>
        <time>2016-05-25T16:16:26Z</time>
      </trkpt>
      <trkpt lat="43.13083" lon="5.75736">
        <ele>-1.3</ele>
        <time>2016-05-25T16:16:38Z</time>
      </trkpt>
      <trkpt lat="43.13093" lon="5.75771">
        <ele>-0.34</ele>
        <time>2016-05-25T16:16:57Z</time>
      </trkpt>
      <trkpt lat="43.13103" lon="5.75803">
        <ele>-0.34</ele>
        <time>2016-05-25T16:17:13Z</time>
      </trkpt>
      <trkpt lat="43.13124" lon="5.75837">
        <ele>-0.34</ele>
        <time>2016-05-25T16:17:34Z</time>
      </trkpt>
      <trkpt lat="43.13137" lon="5.75875">
        <ele>0.14</ele>
        <time>2016-05-25T16:17:54Z</time>
      </trkpt>
      <trkpt lat="43.13142" lon="5.75907">
        <ele>-0.34</ele>
        <time>2016-05-25T16:18:10Z</time>
      </trkpt>
      <trkpt lat="43.13154" lon="5.7595">
        <ele>-0.34</ele>
        <time>2016-05-25T16:18:32Z</time>
      </trkpt>
      <trkpt lat="43.13162" lon="5.7598">
        <ele>0.14</ele>
        <time>2016-05-25T16:18:48Z</time>
      </trkpt>
      <trkpt lat="43.13169" lon="5.76017">
        <ele>-0.82</ele>
        <time>2016-05-25T16:19:07Z</time>
      </trkpt>
      <trkpt lat="43.13172" lon="5.76051">
        <ele>-0.82</ele>
        <time>2016-05-25T16:19:24Z</time>
      </trkpt>
      <trkpt lat="43.13173" lon="5.76061">
        <ele>-0.82</ele>
        <time>2016-05-25T16:19:29Z</time>
      </trkpt>
      <trkpt lat="43.13173" lon="5.76071">
        <ele>-0.82</ele>
        <time>2016-05-25T16:19:34Z</time>
      </trkpt>
      <trkpt lat="43.13173" lon="5.76077">
        <ele>-0.82</ele>
        <time>2016-05-25T16:19:37Z</time>
      </trkpt>
      <trkpt lat="43.13174" lon="5.76094">
        <ele>-0.82</ele>
        <time>2016-05-25T16:19:45Z</time>
      </trkpt>
      <trkpt lat="43.1317" lon="5.76121">
        <ele>-0.34</ele>
        <time>2016-05-25T16:19:59Z</time>
      </trkpt>
      <trkpt lat="43.13168" lon="5.76133">
        <ele>0.14</ele>
        <time>2016-05-25T16:20:05Z</time>
      </trkpt>
      <trkpt lat="43.1317" lon="5.76168">
        <ele>0.14</ele>
        <time>2016-05-25T16:20:21Z</time>
      </trkpt>
      <trkpt lat="43.1318" lon="5.76207">
        <ele>0.62</ele>
        <time>2016-05-25T16:20:41Z</time>
      </trkpt>
      <trkpt lat="43.13186" lon="5.76244">
        <ele>0.14</ele>
        <time>2016-05-25T16:21:00Z</time>
      </trkpt>
      <trkpt lat="43.13192" lon="5.76284">
        <ele>0.62</ele>
        <time>2016-05-25T16:21:20Z</time>
      </trkpt>
      <trkpt lat="43.1321" lon="5.7632">
        <ele>-0.34</ele>
        <time>2016-05-25T16:21:42Z</time>
      </trkpt>
      <trkpt lat="43.13214" lon="5.76335">
        <ele>-0.82</ele>
        <time>2016-05-25T16:21:50Z</time>
      </trkpt>
    </trkseg>
  </trk>
  <trk>
    <name><![CDATA[Tracé actuel: 26 MAI 2016 11:48]]></name>
    <trkseg>
      <trkpt lat="43.12592" lon="5.72748">
        <ele>-39.76</ele>
        <time>2016-05-26T09:48:43Z</time>
      </trkpt>
      <trkpt lat="43.1257" lon="5.72745">
        <ele>-22.93</ele>
        <time>2016-05-26T09:48:59Z</time>
      </trkpt>
      <trkpt lat="43.12568" lon="5.72745">
        <ele>-22.45</ele>
        <time>2016-05-26T09:49:00Z</time>
      </trkpt>
      <trkpt lat="43.12552" lon="5.72731">
        <ele>-8.51</ele>
        <time>2016-05-26T09:49:14Z</time>
      </trkpt>
      <trkpt lat="43.12515" lon="5.72721">
        <ele>-4.19</ele>
        <time>2016-05-26T09:49:33Z</time>
      </trkpt>
      <trkpt lat="43.12468" lon="5.72702">
        <ele>-1.79</ele>
        <time>2016-05-26T09:49:54Z</time>
      </trkpt>
      <trkpt lat="43.12422" lon="5.72681">
        <ele>-0.34</ele>
        <time>2016-05-26T09:50:12Z</time>
      </trkpt>
      <trkpt lat="43.12386" lon="5.72665">
        <ele>-0.34</ele>
        <time>2016-05-26T09:50:26Z</time>
      </trkpt>
      <trkpt lat="43.12343" lon="5.72645">
        <ele>0.14</ele>
        <time>2016-05-26T09:50:43Z</time>
      </trkpt>
      <trkpt lat="43.12294" lon="5.72627">
        <ele>-0.34</ele>
        <time>2016-05-26T09:51:02Z</time>
      </trkpt>
      <trkpt lat="43.12255" lon="5.72611">
        <ele>-1.3</ele>
        <time>2016-05-26T09:51:17Z</time>
      </trkpt>
      <trkpt lat="43.12213" lon="5.72597">
        <ele>-0.82</ele>
        <time>2016-05-26T09:51:33Z</time>
      </trkpt>
      <trkpt lat="43.12166" lon="5.72585">
        <ele>0.14</ele>
        <time>2016-05-26T09:51:51Z</time>
      </trkpt>
      <trkpt lat="43.12115" lon="5.72572">
        <ele>0.14</ele>
        <time>2016-05-26T09:52:12Z</time>
      </trkpt>
      <trkpt lat="43.12073" lon="5.72563">
        <ele>-0.82</ele>
        <time>2016-05-26T09:52:29Z</time>
      </trkpt>
      <trkpt lat="43.12037" lon="5.72553">
        <ele>-1.79</ele>
        <time>2016-05-26T09:52:45Z</time>
      </trkpt>
      <trkpt lat="43.11998" lon="5.72539">
        <ele>0.14</ele>
        <time>2016-05-26T09:53:00Z</time>
      </trkpt>
      <trkpt lat="43.1196" lon="5.72527">
        <ele>0.14</ele>
        <time>2016-05-26T09:53:15Z</time>
      </trkpt>
      <trkpt lat="43.11931" lon="5.72521">
        <ele>0.62</ele>
        <time>2016-05-26T09:53:26Z</time>
      </trkpt>
      <trkpt lat="43.11896" lon="5.72514">
        <ele>0.14</ele>
        <time>2016-05-26T09:53:39Z</time>
      </trkpt>
      <trkpt lat="43.11855" lon="5.72501">
        <ele>-0.34</ele>
        <time>2016-05-26T09:53:55Z</time>
      </trkpt>
      <trkpt lat="43.11814" lon="5.72485">
        <ele>0.14</ele>
        <time>2016-05-26T09:54:12Z</time>
      </trkpt>
      <trkpt lat="43.11775" lon="5.72466">
        <ele>0.14</ele>
        <time>2016-05-26T09:54:28Z</time>
      </trkpt>
      <trkpt lat="43.11728" lon="5.72439">
        <ele>0.14</ele>
        <time>2016-05-26T09:54:46Z</time>
      </trkpt>
      <trkpt lat="43.1168" lon="5.72423">
        <ele>0.14</ele>
        <time>2016-05-26T09:55:05Z</time>
      </trkpt>
      <trkpt lat="43.11647" lon="5.72409">
        <ele>-0.82</ele>
        <time>2016-05-26T09:55:19Z</time>
      </trkpt>
      <trkpt lat="43.11613" lon="5.72399">
        <ele>-1.3</ele>
        <time>2016-05-26T09:55:33Z</time>
      </trkpt>
      <trkpt lat="43.1161" lon="5.72421">
        <ele>-0.82</ele>
        <time>2016-05-26T09:55:45Z</time>
      </trkpt>
      <trkpt lat="43.11616" lon="5.72454">
        <ele>-0.34</ele>
        <time>2016-05-26T09:56:01Z</time>
      </trkpt>
      <trkpt lat="43.11619" lon="5.72493">
        <ele>0.14</ele>
        <time>2016-05-26T09:56:17Z</time>
      </trkpt>
      <trkpt lat="43.11614" lon="5.7254">
        <ele>0.14</ele>
        <time>2016-05-26T09:56:36Z</time>
      </trkpt>
      <trkpt lat="43.11607" lon="5.72583">
        <ele>-0.34</ele>
        <time>2016-05-26T09:56:53Z</time>
      </trkpt>
      <trkpt lat="43.11603" lon="5.72621">
        <ele>-0.34</ele>
        <time>2016-05-26T09:57:08Z</time>
      </trkpt>
      <trkpt lat="43.11599" lon="5.72675">
        <ele>0.62</ele>
        <time>2016-05-26T09:57:28Z</time>
      </trkpt>
      <trkpt lat="43.11599" lon="5.72722">
        <ele>0.62</ele>
        <time>2016-05-26T09:57:43Z</time>
      </trkpt>
      <trkpt lat="43.11599" lon="5.72777">
        <ele>1.1</ele>
        <time>2016-05-26T09:57:59Z</time>
      </trkpt>
      <trkpt lat="43.11599" lon="5.72834">
        <ele>1.1</ele>
        <time>2016-05-26T09:58:14Z</time>
      </trkpt>
      <trkpt lat="43.11592" lon="5.72902">
        <ele>1.1</ele>
        <time>2016-05-26T09:58:33Z</time>
      </trkpt>
      <trkpt lat="43.11588" lon="5.72955">
        <ele>1.1</ele>
        <time>2016-05-26T09:58:48Z</time>
      </trkpt>
      <trkpt lat="43.11579" lon="5.73027">
        <ele>0.62</ele>
        <time>2016-05-26T09:59:09Z</time>
      </trkpt>
      <trkpt lat="43.11573" lon="5.73085">
        <ele>1.1</ele>
        <time>2016-05-26T09:59:26Z</time>
      </trkpt>
      <trkpt lat="43.11567" lon="5.73145">
        <ele>1.1</ele>
        <time>2016-05-26T09:59:44Z</time>
      </trkpt>
      <trkpt lat="43.11563" lon="5.73196">
        <ele>0.62</ele>
        <time>2016-05-26T09:59:59Z</time>
      </trkpt>
      <trkpt lat="43.11556" lon="5.73266">
        <ele>0.62</ele>
        <time>2016-05-26T10:00:20Z</time>
      </trkpt>
      <trkpt lat="43.11551" lon="5.73314">
        <ele>1.1</ele>
        <time>2016-05-26T10:00:35Z</time>
      </trkpt>
      <trkpt lat="43.11547" lon="5.73364">
        <ele>1.58</ele>
        <time>2016-05-26T10:00:51Z</time>
      </trkpt>
      <trkpt lat="43.11544" lon="5.73401">
        <ele>1.58</ele>
        <time>2016-05-26T10:01:03Z</time>
      </trkpt>
      <trkpt lat="43.11543" lon="5.73447">
        <ele>1.1</ele>
        <time>2016-05-26T10:01:18Z</time>
      </trkpt>
      <trkpt lat="43.11542" lon="5.73494">
        <ele>1.1</ele>
        <time>2016-05-26T10:01:34Z</time>
      </trkpt>
      <trkpt lat="43.11541" lon="5.73544">
        <ele>1.1</ele>
        <time>2016-05-26T10:01:51Z</time>
      </trkpt>
      <trkpt lat="43.1154" lon="5.73587">
        <ele>0.62</ele>
        <time>2016-05-26T10:02:06Z</time>
      </trkpt>
      <trkpt lat="43.1154" lon="5.73633">
        <ele>1.1</ele>
        <time>2016-05-26T10:02:23Z</time>
      </trkpt>
      <trkpt lat="43.1154" lon="5.73675">
        <ele>0.62</ele>
        <time>2016-05-26T10:02:38Z</time>
      </trkpt>
      <trkpt lat="43.11539" lon="5.73714">
        <ele>0.14</ele>
        <time>2016-05-26T10:02:52Z</time>
      </trkpt>
      <trkpt lat="43.11537" lon="5.73749">
        <ele>1.1</ele>
        <time>2016-05-26T10:03:05Z</time>
      </trkpt>
      <trkpt lat="43.11536" lon="5.7379">
        <ele>1.58</ele>
        <time>2016-05-26T10:03:21Z</time>
      </trkpt>
      <trkpt lat="43.11535" lon="5.73829">
        <ele>2.06</ele>
        <time>2016-05-26T10:03:36Z</time>
      </trkpt>
      <trkpt lat="43.11534" lon="5.73867">
        <ele>2.06</ele>
        <time>2016-05-26T10:03:50Z</time>
      </trkpt>
      <trkpt lat="43.11533" lon="5.73915">
        <ele>1.58</ele>
        <time>2016-05-26T10:04:07Z</time>
      </trkpt>
      <trkpt lat="43.11531" lon="5.73966">
        <ele>2.06</ele>
        <time>2016-05-26T10:04:26Z</time>
      </trkpt>
      <trkpt lat="43.11531" lon="5.74017">
        <ele>2.54</ele>
        <time>2016-05-26T10:04:44Z</time>
      </trkpt>
      <trkpt lat="43.11531" lon="5.74065">
        <ele>2.54</ele>
        <time>2016-05-26T10:05:01Z</time>
      </trkpt>
      <trkpt lat="43.1153" lon="5.74109">
        <ele>3.02</ele>
        <time>2016-05-26T10:05:16Z</time>
      </trkpt>
      <trkpt lat="43.11531" lon="5.74167">
        <ele>2.54</ele>
        <time>2016-05-26T10:05:35Z</time>
      </trkpt>
      <trkpt lat="43.11529" lon="5.74226">
        <ele>2.06</ele>
        <time>2016-05-26T10:05:55Z</time>
      </trkpt>
      <trkpt lat="43.1153" lon="5.74277">
        <ele>1.58</ele>
        <time>2016-05-26T10:06:12Z</time>
      </trkpt>
      <trkpt lat="43.11529" lon="5.74323">
        <ele>3.5</ele>
        <time>2016-05-26T10:06:29Z</time>
      </trkpt>
      <trkpt lat="43.11531" lon="5.74367">
        <ele>3.5</ele>
        <time>2016-05-26T10:06:44Z</time>
      </trkpt>
      <trkpt lat="43.11533" lon="5.74416">
        <ele>3.98</ele>
        <time>2016-05-26T10:07:01Z</time>
      </trkpt>
      <trkpt lat="43.11535" lon="5.74456">
        <ele>3.02</ele>
        <time>2016-05-26T10:07:15Z</time>
      </trkpt>
      <trkpt lat="43.11537" lon="5.74497">
        <ele>3.02</ele>
        <time>2016-05-26T10:07:30Z</time>
      </trkpt>
      <trkpt lat="43.11539" lon="5.74544">
        <ele>2.54</ele>
        <time>2016-05-26T10:07:46Z</time>
      </trkpt>
      <trkpt lat="43.11541" lon="5.74584">
        <ele>2.06</ele>
        <time>2016-05-26T10:08:00Z</time>
      </trkpt>
      <trkpt lat="43.11544" lon="5.7464">
        <ele>2.06</ele>
        <time>2016-05-26T10:08:19Z</time>
      </trkpt>
      <trkpt lat="43.11548" lon="5.74702">
        <ele>3.02</ele>
        <time>2016-05-26T10:08:39Z</time>
      </trkpt>
      <trkpt lat="43.11551" lon="5.74761">
        <ele>2.54</ele>
        <time>2016-05-26T10:08:57Z</time>
      </trkpt>
      <trkpt lat="43.11553" lon="5.74815">
        <ele>2.54</ele>
        <time>2016-05-26T10:09:14Z</time>
      </trkpt>
      <trkpt lat="43.11557" lon="5.74871">
        <ele>2.06</ele>
        <time>2016-05-26T10:09:31Z</time>
      </trkpt>
      <trkpt lat="43.11559" lon="5.74936">
        <ele>2.06</ele>
        <time>2016-05-26T10:09:50Z</time>
      </trkpt>
      <trkpt lat="43.11559" lon="5.75003">
        <ele>2.54</ele>
        <time>2016-05-26T10:10:11Z</time>
      </trkpt>
      <trkpt lat="43.11561" lon="5.7506">
        <ele>3.5</ele>
        <time>2016-05-26T10:10:29Z</time>
      </trkpt>
      <trkpt lat="43.1156" lon="5.7512">
        <ele>3.5</ele>
        <time>2016-05-26T10:10:48Z</time>
      </trkpt>
      <trkpt lat="43.11559" lon="5.75175">
        <ele>3.5</ele>
        <time>2016-05-26T10:11:06Z</time>
      </trkpt>
      <trkpt lat="43.11557" lon="5.75224">
        <ele>2.54</ele>
        <time>2016-05-26T10:11:22Z</time>
      </trkpt>
      <trkpt lat="43.11554" lon="5.75292">
        <ele>3.5</ele>
        <time>2016-05-26T10:11:45Z</time>
      </trkpt>
      <trkpt lat="43.11551" lon="5.75339">
        <ele>3.5</ele>
        <time>2016-05-26T10:12:01Z</time>
      </trkpt>
      <trkpt lat="43.11548" lon="5.75397">
        <ele>3.02</ele>
        <time>2016-05-26T10:12:20Z</time>
      </trkpt>
      <trkpt lat="43.11542" lon="5.75454">
        <ele>2.06</ele>
        <time>2016-05-26T10:12:39Z</time>
      </trkpt>
      <trkpt lat="43.11539" lon="5.75496">
        <ele>1.1</ele>
        <time>2016-05-26T10:12:53Z</time>
      </trkpt>
      <trkpt lat="43.11533" lon="5.75549">
        <ele>0.62</ele>
        <time>2016-05-26T10:13:11Z</time>
      </trkpt>
      <trkpt lat="43.11528" lon="5.75597">
        <ele>0.62</ele>
        <time>2016-05-26T10:13:27Z</time>
      </trkpt>
      <trkpt lat="43.11522" lon="5.7565">
        <ele>0.62</ele>
        <time>2016-05-26T10:13:45Z</time>
      </trkpt>
      <trkpt lat="43.11517" lon="5.75704">
        <ele>1.1</ele>
        <time>2016-05-26T10:14:02Z</time>
      </trkpt>
      <trkpt lat="43.11512" lon="5.75756">
        <ele>1.1</ele>
        <time>2016-05-26T10:14:18Z</time>
      </trkpt>
      <trkpt lat="43.11507" lon="5.75806">
        <ele>1.58</ele>
        <time>2016-05-26T10:14:33Z</time>
      </trkpt>
      <trkpt lat="43.11498" lon="5.75886">
        <ele>1.1</ele>
        <time>2016-05-26T10:14:56Z</time>
      </trkpt>
      <trkpt lat="43.11489" lon="5.75963">
        <ele>1.58</ele>
        <time>2016-05-26T10:15:18Z</time>
      </trkpt>
      <trkpt lat="43.1148" lon="5.76019">
        <ele>0.62</ele>
        <time>2016-05-26T10:15:34Z</time>
      </trkpt>
      <trkpt lat="43.11471" lon="5.76072">
        <ele>0.14</ele>
        <time>2016-05-26T10:15:50Z</time>
      </trkpt>
      <trkpt lat="43.11462" lon="5.76132">
        <ele>0.14</ele>
        <time>2016-05-26T10:16:09Z</time>
      </trkpt>
      <trkpt lat="43.11452" lon="5.7619">
        <ele>-0.34</ele>
        <time>2016-05-26T10:16:29Z</time>
      </trkpt>
      <trkpt lat="43.11444" lon="5.76241">
        <ele>-0.34</ele>
        <time>2016-05-26T10:16:48Z</time>
      </trkpt>
      <trkpt lat="43.11434" lon="5.76291">
        <ele>-0.82</ele>
        <time>2016-05-26T10:17:09Z</time>
      </trkpt>
      <trkpt lat="43.11426" lon="5.76343">
        <ele>-0.82</ele>
        <time>2016-05-26T10:17:30Z</time>
      </trkpt>
      <trkpt lat="43.11425" lon="5.76394">
        <ele>-0.34</ele>
        <time>2016-05-26T10:17:46Z</time>
      </trkpt>
      <trkpt lat="43.11425" lon="5.76452">
        <ele>0.14</ele>
        <time>2016-05-26T10:18:02Z</time>
      </trkpt>
      <trkpt lat="43.11423" lon="5.76512">
        <ele>0.14</ele>
        <time>2016-05-26T10:18:18Z</time>
      </trkpt>
      <trkpt lat="43.11423" lon="5.76602">
        <ele>0.62</ele>
        <time>2016-05-26T10:18:41Z</time>
      </trkpt>
      <trkpt lat="43.11422" lon="5.76675">
        <ele>0.14</ele>
        <time>2016-05-26T10:18:59Z</time>
      </trkpt>
      <trkpt lat="43.11413" lon="5.76743">
        <ele>-0.82</ele>
        <time>2016-05-26T10:19:17Z</time>
      </trkpt>
      <trkpt lat="43.11404" lon="5.76805">
        <ele>-2.75</ele>
        <time>2016-05-26T10:19:35Z</time>
      </trkpt>
      <trkpt lat="43.11394" lon="5.76873">
        <ele>-0.34</ele>
        <time>2016-05-26T10:19:56Z</time>
      </trkpt>
      <trkpt lat="43.11387" lon="5.76932">
        <ele>1.1</ele>
        <time>2016-05-26T10:20:14Z</time>
      </trkpt>
      <trkpt lat="43.11381" lon="5.76994">
        <ele>0.62</ele>
        <time>2016-05-26T10:20:33Z</time>
      </trkpt>
      <trkpt lat="43.11377" lon="5.7705">
        <ele>-0.34</ele>
        <time>2016-05-26T10:20:50Z</time>
      </trkpt>
      <trkpt lat="43.11371" lon="5.77104">
        <ele>-0.34</ele>
        <time>2016-05-26T10:21:07Z</time>
      </trkpt>
      <trkpt lat="43.11365" lon="5.77165">
        <ele>0.62</ele>
        <time>2016-05-26T10:21:26Z</time>
      </trkpt>
      <trkpt lat="43.1136" lon="5.77224">
        <ele>-0.34</ele>
        <time>2016-05-26T10:21:44Z</time>
      </trkpt>
      <trkpt lat="43.11352" lon="5.77291">
        <ele>-1.79</ele>
        <time>2016-05-26T10:22:04Z</time>
      </trkpt>
      <trkpt lat="43.11344" lon="5.77364">
        <ele>-2.27</ele>
        <time>2016-05-26T10:22:25Z</time>
      </trkpt>
      <trkpt lat="43.11335" lon="5.77435">
        <ele>-1.79</ele>
        <time>2016-05-26T10:22:45Z</time>
      </trkpt>
      <trkpt lat="43.11328" lon="5.77492">
        <ele>-1.79</ele>
        <time>2016-05-26T10:23:01Z</time>
      </trkpt>
      <trkpt lat="43.1132" lon="5.77548">
        <ele>-1.79</ele>
        <time>2016-05-26T10:23:17Z</time>
      </trkpt>
      <trkpt lat="43.11313" lon="5.77621">
        <ele>-2.27</ele>
        <time>2016-05-26T10:23:38Z</time>
      </trkpt>
      <trkpt lat="43.11309" lon="5.77692">
        <ele>-2.75</ele>
        <time>2016-05-26T10:23:57Z</time>
      </trkpt>
      <trkpt lat="43.11303" lon="5.77766">
        <ele>-4.19</ele>
        <time>2016-05-26T10:24:17Z</time>
      </trkpt>
      <trkpt lat="43.11298" lon="5.77822">
        <ele>-4.19</ele>
        <time>2016-05-26T10:24:33Z</time>
      </trkpt>
      <trkpt lat="43.11293" lon="5.77884">
        <ele>-4.19</ele>
        <time>2016-05-26T10:24:51Z</time>
      </trkpt>
      <trkpt lat="43.11287" lon="5.7795">
        <ele>-2.75</ele>
        <time>2016-05-26T10:25:12Z</time>
      </trkpt>
      <trkpt lat="43.11287" lon="5.77998">
        <ele>-0.34</ele>
        <time>2016-05-26T10:25:29Z</time>
      </trkpt>
      <trkpt lat="43.1129" lon="5.78061">
        <ele>0.14</ele>
        <time>2016-05-26T10:25:49Z</time>
      </trkpt>
      <trkpt lat="43.11292" lon="5.78117">
        <ele>0.62</ele>
        <time>2016-05-26T10:26:06Z</time>
      </trkpt>
      <trkpt lat="43.11295" lon="5.78193">
        <ele>-0.34</ele>
        <time>2016-05-26T10:26:28Z</time>
      </trkpt>
      <trkpt lat="43.11302" lon="5.78271">
        <ele>-0.82</ele>
        <time>2016-05-26T10:26:50Z</time>
      </trkpt>
      <trkpt lat="43.11308" lon="5.78347">
        <ele>-0.82</ele>
        <time>2016-05-26T10:27:11Z</time>
      </trkpt>
      <trkpt lat="43.11309" lon="5.78412">
        <ele>-0.82</ele>
        <time>2016-05-26T10:27:29Z</time>
      </trkpt>
      <trkpt lat="43.11305" lon="5.78424">
        <ele>-0.82</ele>
        <time>2016-05-26T10:27:34Z</time>
      </trkpt>
      <trkpt lat="43.11274" lon="5.78437">
        <ele>-1.3</ele>
        <time>2016-05-26T10:27:54Z</time>
      </trkpt>
      <trkpt lat="43.11246" lon="5.78449">
        <ele>-0.82</ele>
        <time>2016-05-26T10:28:10Z</time>
      </trkpt>
      <trkpt lat="43.11211" lon="5.78466">
        <ele>0.14</ele>
        <time>2016-05-26T10:28:28Z</time>
      </trkpt>
      <trkpt lat="43.11173" lon="5.78483">
        <ele>0.14</ele>
        <time>2016-05-26T10:28:45Z</time>
      </trkpt>
      <trkpt lat="43.11123" lon="5.78501">
        <ele>-0.82</ele>
        <time>2016-05-26T10:29:05Z</time>
      </trkpt>
      <trkpt lat="43.11065" lon="5.78518">
        <ele>-1.3</ele>
        <time>2016-05-26T10:29:26Z</time>
      </trkpt>
      <trkpt lat="43.11" lon="5.78537">
        <ele>-2.27</ele>
        <time>2016-05-26T10:29:48Z</time>
      </trkpt>
      <trkpt lat="43.10938" lon="5.78554">
        <ele>-3.23</ele>
        <time>2016-05-26T10:30:08Z</time>
      </trkpt>
      <trkpt lat="43.10873" lon="5.78563">
        <ele>-0.82</ele>
        <time>2016-05-26T10:30:28Z</time>
      </trkpt>
      <trkpt lat="43.10812" lon="5.78582">
        <ele>1.1</ele>
        <time>2016-05-26T10:30:47Z</time>
      </trkpt>
      <trkpt lat="43.10754" lon="5.786">
        <ele>1.1</ele>
        <time>2016-05-26T10:31:06Z</time>
      </trkpt>
      <trkpt lat="43.10752" lon="5.78607">
        <ele>1.58</ele>
        <time>2016-05-26T10:31:08Z</time>
      </trkpt>
      <trkpt lat="43.10765" lon="5.78644">
        <ele>0.62</ele>
        <time>2016-05-26T10:31:23Z</time>
      </trkpt>
      <trkpt lat="43.10783" lon="5.78702">
        <ele>0.14</ele>
        <time>2016-05-26T10:31:45Z</time>
      </trkpt>
      <trkpt lat="43.10801" lon="5.78765">
        <ele>-0.34</ele>
        <time>2016-05-26T10:32:05Z</time>
      </trkpt>
      <trkpt lat="43.10817" lon="5.78835">
        <ele>-0.34</ele>
        <time>2016-05-26T10:32:25Z</time>
      </trkpt>
      <trkpt lat="43.10832" lon="5.789">
        <ele>-0.34</ele>
        <time>2016-05-26T10:32:43Z</time>
      </trkpt>
      <trkpt lat="43.10849" lon="5.78978">
        <ele>-0.34</ele>
        <time>2016-05-26T10:33:04Z</time>
      </trkpt>
      <trkpt lat="43.10868" lon="5.7907">
        <ele>0.14</ele>
        <time>2016-05-26T10:33:28Z</time>
      </trkpt>
      <trkpt lat="43.1088" lon="5.7914">
        <ele>-0.82</ele>
        <time>2016-05-26T10:33:46Z</time>
      </trkpt>
      <trkpt lat="43.10892" lon="5.79212">
        <ele>-1.3</ele>
        <time>2016-05-26T10:34:06Z</time>
      </trkpt>
      <trkpt lat="43.10905" lon="5.79288">
        <ele>-1.3</ele>
        <time>2016-05-26T10:34:29Z</time>
      </trkpt>
      <trkpt lat="43.10918" lon="5.79362">
        <ele>-0.34</ele>
        <time>2016-05-26T10:34:51Z</time>
      </trkpt>
      <trkpt lat="43.10932" lon="5.79442">
        <ele>-1.3</ele>
        <time>2016-05-26T10:35:12Z</time>
      </trkpt>
      <trkpt lat="43.10947" lon="5.79516">
        <ele>-0.34</ele>
        <time>2016-05-26T10:35:31Z</time>
      </trkpt>
      <trkpt lat="43.10962" lon="5.79582">
        <ele>-0.82</ele>
        <time>2016-05-26T10:35:48Z</time>
      </trkpt>
      <trkpt lat="43.10977" lon="5.79659">
        <ele>-0.82</ele>
        <time>2016-05-26T10:36:08Z</time>
      </trkpt>
      <trkpt lat="43.10991" lon="5.79746">
        <ele>-1.3</ele>
        <time>2016-05-26T10:36:31Z</time>
      </trkpt>
      <trkpt lat="43.10974" lon="5.79761">
        <ele>-0.82</ele>
        <time>2016-05-26T10:36:43Z</time>
      </trkpt>
      <trkpt lat="43.10927" lon="5.79748">
        <ele>-0.34</ele>
        <time>2016-05-26T10:37:01Z</time>
      </trkpt>
      <trkpt lat="43.10911" lon="5.79692">
        <ele>0.14</ele>
        <time>2016-05-26T10:37:14Z</time>
      </trkpt>
      <trkpt lat="43.10902" lon="5.79589">
        <ele>1.1</ele>
        <time>2016-05-26T10:37:36Z</time>
      </trkpt>
      <trkpt lat="43.10894" lon="5.79489">
        <ele>0.14</ele>
        <time>2016-05-26T10:37:57Z</time>
      </trkpt>
      <trkpt lat="43.10878" lon="5.79389">
        <ele>0.62</ele>
        <time>2016-05-26T10:38:18Z</time>
      </trkpt>
      <trkpt lat="43.10866" lon="5.79304">
        <ele>1.1</ele>
        <time>2016-05-26T10:38:36Z</time>
      </trkpt>
      <trkpt lat="43.10861" lon="5.79194">
        <ele>0.62</ele>
        <time>2016-05-26T10:39:00Z</time>
      </trkpt>
      <trkpt lat="43.10863" lon="5.79103">
        <ele>0.14</ele>
        <time>2016-05-26T10:39:22Z</time>
      </trkpt>
      <trkpt lat="43.10854" lon="5.79019">
        <ele>0.62</ele>
        <time>2016-05-26T10:39:41Z</time>
      </trkpt>
      <trkpt lat="43.10837" lon="5.78929">
        <ele>0.14</ele>
        <time>2016-05-26T10:40:02Z</time>
      </trkpt>
      <trkpt lat="43.10828" lon="5.78851">
        <ele>0.14</ele>
        <time>2016-05-26T10:40:21Z</time>
      </trkpt>
      <trkpt lat="43.10822" lon="5.78764">
        <ele>0.62</ele>
        <time>2016-05-26T10:40:43Z</time>
      </trkpt>
      <trkpt lat="43.10821" lon="5.78678">
        <ele>0.14</ele>
        <time>2016-05-26T10:41:07Z</time>
      </trkpt>
      <trkpt lat="43.10818" lon="5.7859">
        <ele>1.58</ele>
        <time>2016-05-26T10:41:30Z</time>
      </trkpt>
      <trkpt lat="43.10809" lon="5.78497">
        <ele>0.62</ele>
        <time>2016-05-26T10:41:52Z</time>
      </trkpt>
      <trkpt lat="43.10809" lon="5.78405">
        <ele>0.62</ele>
        <time>2016-05-26T10:42:13Z</time>
      </trkpt>
      <trkpt lat="43.10815" lon="5.78329">
        <ele>1.1</ele>
        <time>2016-05-26T10:42:33Z</time>
      </trkpt>
      <trkpt lat="43.10822" lon="5.78256">
        <ele>1.1</ele>
        <time>2016-05-26T10:42:52Z</time>
      </trkpt>
      <trkpt lat="43.1083" lon="5.78159">
        <ele>1.1</ele>
        <time>2016-05-26T10:43:16Z</time>
      </trkpt>
      <trkpt lat="43.10833" lon="5.78063">
        <ele>0.14</ele>
        <time>2016-05-26T10:43:38Z</time>
      </trkpt>
      <trkpt lat="43.10838" lon="5.77978">
        <ele>0.62</ele>
        <time>2016-05-26T10:43:59Z</time>
      </trkpt>
      <trkpt lat="43.10848" lon="5.779">
        <ele>1.1</ele>
        <time>2016-05-26T10:44:19Z</time>
      </trkpt>
      <trkpt lat="43.10858" lon="5.77817">
        <ele>1.1</ele>
        <time>2016-05-26T10:44:41Z</time>
      </trkpt>
      <trkpt lat="43.10864" lon="5.77734">
        <ele>1.1</ele>
        <time>2016-05-26T10:45:02Z</time>
      </trkpt>
      <trkpt lat="43.10871" lon="5.77646">
        <ele>1.58</ele>
        <time>2016-05-26T10:45:24Z</time>
      </trkpt>
      <trkpt lat="43.10877" lon="5.77567">
        <ele>1.58</ele>
        <time>2016-05-26T10:45:44Z</time>
      </trkpt>
      <trkpt lat="43.10881" lon="5.77485">
        <ele>1.1</ele>
        <time>2016-05-26T10:46:04Z</time>
      </trkpt>
      <trkpt lat="43.10888" lon="5.77405">
        <ele>1.58</ele>
        <time>2016-05-26T10:46:24Z</time>
      </trkpt>
      <trkpt lat="43.10893" lon="5.77335">
        <ele>1.1</ele>
        <time>2016-05-26T10:46:42Z</time>
      </trkpt>
      <trkpt lat="43.10891" lon="5.77262">
        <ele>1.58</ele>
        <time>2016-05-26T10:47:00Z</time>
      </trkpt>
      <trkpt lat="43.10896" lon="5.77183">
        <ele>2.06</ele>
        <time>2016-05-26T10:47:20Z</time>
      </trkpt>
      <trkpt lat="43.10904" lon="5.77108">
        <ele>1.1</ele>
        <time>2016-05-26T10:47:42Z</time>
      </trkpt>
      <trkpt lat="43.10914" lon="5.77043">
        <ele>0.62</ele>
        <time>2016-05-26T10:48:02Z</time>
      </trkpt>
      <trkpt lat="43.10931" lon="5.76988">
        <ele>-0.34</ele>
        <time>2016-05-26T10:48:21Z</time>
      </trkpt>
      <trkpt lat="43.10959" lon="5.76937">
        <ele>-1.3</ele>
        <time>2016-05-26T10:48:39Z</time>
      </trkpt>
      <trkpt lat="43.10985" lon="5.76894">
        <ele>-2.75</ele>
        <time>2016-05-26T10:48:55Z</time>
      </trkpt>
      <trkpt lat="43.11014" lon="5.76841">
        <ele>-2.75</ele>
        <time>2016-05-26T10:49:13Z</time>
      </trkpt>
      <trkpt lat="43.11048" lon="5.76782">
        <ele>-2.75</ele>
        <time>2016-05-26T10:49:33Z</time>
      </trkpt>
      <trkpt lat="43.11078" lon="5.76724">
        <ele>-1.79</ele>
        <time>2016-05-26T10:49:52Z</time>
      </trkpt>
      <trkpt lat="43.11107" lon="5.76665">
        <ele>-1.3</ele>
        <time>2016-05-26T10:50:11Z</time>
      </trkpt>
      <trkpt lat="43.11132" lon="5.76619">
        <ele>-0.34</ele>
        <time>2016-05-26T10:50:27Z</time>
      </trkpt>
      <trkpt lat="43.11158" lon="5.7655">
        <ele>0.14</ele>
        <time>2016-05-26T10:50:49Z</time>
      </trkpt>
      <trkpt lat="43.11183" lon="5.7649">
        <ele>-1.3</ele>
        <time>2016-05-26T10:51:09Z</time>
      </trkpt>
      <trkpt lat="43.11204" lon="5.7643">
        <ele>-0.82</ele>
        <time>2016-05-26T10:51:28Z</time>
      </trkpt>
      <trkpt lat="43.11231" lon="5.76369">
        <ele>-0.82</ele>
        <time>2016-05-26T10:51:49Z</time>
      </trkpt>
      <trkpt lat="43.11249" lon="5.76314">
        <ele>-0.82</ele>
        <time>2016-05-26T10:52:08Z</time>
      </trkpt>
      <trkpt lat="43.11274" lon="5.76264">
        <ele>-1.3</ele>
        <time>2016-05-26T10:52:27Z</time>
      </trkpt>
      <trkpt lat="43.11299" lon="5.76215">
        <ele>-0.82</ele>
        <time>2016-05-26T10:52:45Z</time>
      </trkpt>
      <trkpt lat="43.11324" lon="5.76164">
        <ele>-0.82</ele>
        <time>2016-05-26T10:53:04Z</time>
      </trkpt>
      <trkpt lat="43.11346" lon="5.76119">
        <ele>-0.34</ele>
        <time>2016-05-26T10:53:21Z</time>
      </trkpt>
      <trkpt lat="43.11374" lon="5.76053">
        <ele>-0.34</ele>
        <time>2016-05-26T10:53:44Z</time>
      </trkpt>
      <trkpt lat="43.11401" lon="5.75987">
        <ele>-0.34</ele>
        <time>2016-05-26T10:54:06Z</time>
      </trkpt>
      <trkpt lat="43.11428" lon="5.75921">
        <ele>-1.3</ele>
        <time>2016-05-26T10:54:28Z</time>
      </trkpt>
      <trkpt lat="43.11455" lon="5.75865">
        <ele>-1.3</ele>
        <time>2016-05-26T10:54:47Z</time>
      </trkpt>
      <trkpt lat="43.1148" lon="5.7581">
        <ele>-1.79</ele>
        <time>2016-05-26T10:55:05Z</time>
      </trkpt>
      <trkpt lat="43.11506" lon="5.75749">
        <ele>-1.79</ele>
        <time>2016-05-26T10:55:23Z</time>
      </trkpt>
      <trkpt lat="43.11533" lon="5.75684">
        <ele>-2.27</ele>
        <time>2016-05-26T10:55:42Z</time>
      </trkpt>
      <trkpt lat="43.11558" lon="5.75628">
        <ele>-1.79</ele>
        <time>2016-05-26T10:55:58Z</time>
      </trkpt>
      <trkpt lat="43.11587" lon="5.75563">
        <ele>-1.79</ele>
        <time>2016-05-26T10:56:17Z</time>
      </trkpt>
      <trkpt lat="43.1161" lon="5.75509">
        <ele>-0.82</ele>
        <time>2016-05-26T10:56:33Z</time>
      </trkpt>
      <trkpt lat="43.11641" lon="5.75442">
        <ele>-0.82</ele>
        <time>2016-05-26T10:56:53Z</time>
      </trkpt>
      <trkpt lat="43.11667" lon="5.75385">
        <ele>-0.82</ele>
        <time>2016-05-26T10:57:10Z</time>
      </trkpt>
      <trkpt lat="43.11695" lon="5.75328">
        <ele>-1.3</ele>
        <time>2016-05-26T10:57:27Z</time>
      </trkpt>
      <trkpt lat="43.11729" lon="5.75258">
        <ele>-2.27</ele>
        <time>2016-05-26T10:57:47Z</time>
      </trkpt>
      <trkpt lat="43.11757" lon="5.75201">
        <ele>-2.27</ele>
        <time>2016-05-26T10:58:04Z</time>
      </trkpt>
      <trkpt lat="43.11784" lon="5.75143">
        <ele>-2.27</ele>
        <time>2016-05-26T10:58:21Z</time>
      </trkpt>
      <trkpt lat="43.11814" lon="5.7508">
        <ele>-2.27</ele>
        <time>2016-05-26T10:58:39Z</time>
      </trkpt>
      <trkpt lat="43.11845" lon="5.75018">
        <ele>-2.75</ele>
        <time>2016-05-26T10:58:57Z</time>
      </trkpt>
      <trkpt lat="43.11878" lon="5.74952">
        <ele>-2.75</ele>
        <time>2016-05-26T10:59:17Z</time>
      </trkpt>
      <trkpt lat="43.11903" lon="5.749">
        <ele>-3.23</ele>
        <time>2016-05-26T10:59:32Z</time>
      </trkpt>
      <trkpt lat="43.11924" lon="5.74852">
        <ele>-2.75</ele>
        <time>2016-05-26T10:59:46Z</time>
      </trkpt>
      <trkpt lat="43.11954" lon="5.74796">
        <ele>-2.75</ele>
        <time>2016-05-26T11:00:04Z</time>
      </trkpt>
      <trkpt lat="43.1198" lon="5.74744">
        <ele>-1.79</ele>
        <time>2016-05-26T11:00:21Z</time>
      </trkpt>
      <trkpt lat="43.12002" lon="5.74695">
        <ele>-1.3</ele>
        <time>2016-05-26T11:00:36Z</time>
      </trkpt>
      <trkpt lat="43.12026" lon="5.74645">
        <ele>-0.82</ele>
        <time>2016-05-26T11:00:52Z</time>
      </trkpt>
      <trkpt lat="43.1205" lon="5.74596">
        <ele>-0.34</ele>
        <time>2016-05-26T11:01:08Z</time>
      </trkpt>
      <trkpt lat="43.12084" lon="5.74536">
        <ele>-0.34</ele>
        <time>2016-05-26T11:01:28Z</time>
      </trkpt>
      <trkpt lat="43.12106" lon="5.74494">
        <ele>0.14</ele>
        <time>2016-05-26T11:01:41Z</time>
      </trkpt>
      <trkpt lat="43.1214" lon="5.74434">
        <ele>-0.34</ele>
        <time>2016-05-26T11:02:00Z</time>
      </trkpt>
      <trkpt lat="43.12166" lon="5.74387">
        <ele>-0.82</ele>
        <time>2016-05-26T11:02:15Z</time>
      </trkpt>
      <trkpt lat="43.12189" lon="5.74343">
        <ele>-1.3</ele>
        <time>2016-05-26T11:02:29Z</time>
      </trkpt>
      <trkpt lat="43.12221" lon="5.74285">
        <ele>-1.79</ele>
        <time>2016-05-26T11:02:47Z</time>
      </trkpt>
      <trkpt lat="43.12251" lon="5.74226">
        <ele>-1.79</ele>
        <time>2016-05-26T11:03:06Z</time>
      </trkpt>
      <trkpt lat="43.12276" lon="5.74176">
        <ele>-2.27</ele>
        <time>2016-05-26T11:03:22Z</time>
      </trkpt>
      <trkpt lat="43.12307" lon="5.74117">
        <ele>-2.27</ele>
        <time>2016-05-26T11:03:41Z</time>
      </trkpt>
      <trkpt lat="43.12333" lon="5.74067">
        <ele>-2.75</ele>
        <time>2016-05-26T11:03:57Z</time>
      </trkpt>
      <trkpt lat="43.12364" lon="5.74017">
        <ele>-1.79</ele>
        <time>2016-05-26T11:04:15Z</time>
      </trkpt>
      <trkpt lat="43.12401" lon="5.73958">
        <ele>-1.3</ele>
        <time>2016-05-26T11:04:36Z</time>
      </trkpt>
      <trkpt lat="43.12435" lon="5.73908">
        <ele>-1.3</ele>
        <time>2016-05-26T11:04:55Z</time>
      </trkpt>
      <trkpt lat="43.12464" lon="5.73861">
        <ele>-1.3</ele>
        <time>2016-05-26T11:05:12Z</time>
      </trkpt>
      <trkpt lat="43.12496" lon="5.73814">
        <ele>-1.79</ele>
        <time>2016-05-26T11:05:31Z</time>
      </trkpt>
      <trkpt lat="43.12523" lon="5.73769">
        <ele>-1.3</ele>
        <time>2016-05-26T11:05:48Z</time>
      </trkpt>
      <trkpt lat="43.12554" lon="5.7372">
        <ele>-1.3</ele>
        <time>2016-05-26T11:06:07Z</time>
      </trkpt>
      <trkpt lat="43.12578" lon="5.73683">
        <ele>-1.3</ele>
        <time>2016-05-26T11:06:22Z</time>
      </trkpt>
      <trkpt lat="43.12609" lon="5.73635">
        <ele>-1.79</ele>
        <time>2016-05-26T11:06:42Z</time>
      </trkpt>
      <trkpt lat="43.1264" lon="5.73583">
        <ele>-1.3</ele>
        <time>2016-05-26T11:07:02Z</time>
      </trkpt>
      <trkpt lat="43.12665" lon="5.73538">
        <ele>-1.3</ele>
        <time>2016-05-26T11:07:19Z</time>
      </trkpt>
      <trkpt lat="43.12698" lon="5.7348">
        <ele>-1.79</ele>
        <time>2016-05-26T11:07:41Z</time>
      </trkpt>
      <trkpt lat="43.12731" lon="5.73426">
        <ele>-1.79</ele>
        <time>2016-05-26T11:08:02Z</time>
      </trkpt>
      <trkpt lat="43.12762" lon="5.73376">
        <ele>-1.79</ele>
        <time>2016-05-26T11:08:22Z</time>
      </trkpt>
      <trkpt lat="43.12791" lon="5.73328">
        <ele>-0.82</ele>
        <time>2016-05-26T11:08:41Z</time>
      </trkpt>
      <trkpt lat="43.12824" lon="5.73275">
        <ele>-0.34</ele>
        <time>2016-05-26T11:09:02Z</time>
      </trkpt>
      <trkpt lat="43.12852" lon="5.73226">
        <ele>0.62</ele>
        <time>2016-05-26T11:09:20Z</time>
      </trkpt>
      <trkpt lat="43.12879" lon="5.73175">
        <ele>0.14</ele>
        <time>2016-05-26T11:09:38Z</time>
      </trkpt>
      <trkpt lat="43.12906" lon="5.73123">
        <ele>-0.34</ele>
        <time>2016-05-26T11:09:56Z</time>
      </trkpt>
      <trkpt lat="43.12928" lon="5.73079">
        <ele>-0.82</ele>
        <time>2016-05-26T11:10:11Z</time>
      </trkpt>
      <trkpt lat="43.12955" lon="5.73024">
        <ele>-0.34</ele>
        <time>2016-05-26T11:10:30Z</time>
      </trkpt>
      <trkpt lat="43.12983" lon="5.72969">
        <ele>-0.34</ele>
        <time>2016-05-26T11:10:49Z</time>
      </trkpt>
      <trkpt lat="43.12998" lon="5.72932">
        <ele>-0.34</ele>
        <time>2016-05-26T11:11:01Z</time>
      </trkpt>
      <trkpt lat="43.13004" lon="5.72907">
        <ele>-0.82</ele>
        <time>2016-05-26T11:11:08Z</time>
      </trkpt>
      <trkpt lat="43.12996" lon="5.72895">
        <ele>-0.82</ele>
        <time>2016-05-26T11:11:14Z</time>
      </trkpt>
      <trkpt lat="43.12971" lon="5.72886">
        <ele>-0.82</ele>
        <time>2016-05-26T11:11:31Z</time>
      </trkpt>
      <trkpt lat="43.12955" lon="5.7289">
        <ele>-0.82</ele>
        <time>2016-05-26T11:11:45Z</time>
      </trkpt>
      <trkpt lat="43.1294" lon="5.72889">
        <ele>-0.82</ele>
        <time>2016-05-26T11:12:00Z</time>
      </trkpt>
      <trkpt lat="43.12915" lon="5.72888">
        <ele>-0.82</ele>
        <time>2016-05-26T11:12:16Z</time>
      </trkpt>
      <trkpt lat="43.12891" lon="5.72891">
        <ele>-0.34</ele>
        <time>2016-05-26T11:12:30Z</time>
      </trkpt>
      <trkpt lat="43.12866" lon="5.72897">
        <ele>-0.34</ele>
        <time>2016-05-26T11:12:45Z</time>
      </trkpt>
      <trkpt lat="43.12841" lon="5.72899">
        <ele>-0.82</ele>
        <time>2016-05-26T11:12:59Z</time>
      </trkpt>
      <trkpt lat="43.1281" lon="5.72899">
        <ele>-0.82</ele>
        <time>2016-05-26T11:13:14Z</time>
      </trkpt>
      <trkpt lat="43.12772" lon="5.72901">
        <ele>-0.82</ele>
        <time>2016-05-26T11:13:29Z</time>
      </trkpt>
      <trkpt lat="43.12727" lon="5.72906">
        <ele>-1.3</ele>
        <time>2016-05-26T11:13:46Z</time>
      </trkpt>
      <trkpt lat="43.12682" lon="5.7291">
        <ele>-0.82</ele>
        <time>2016-05-26T11:14:03Z</time>
      </trkpt>
      <trkpt lat="43.12631" lon="5.7291">
        <ele>-1.3</ele>
        <time>2016-05-26T11:14:22Z</time>
      </trkpt>
      <trkpt lat="43.12593" lon="5.72905">
        <ele>-2.27</ele>
        <time>2016-05-26T11:14:35Z</time>
      </trkpt>
      <trkpt lat="43.12554" lon="5.72899">
        <ele>-3.23</ele>
        <time>2016-05-26T11:14:48Z</time>
      </trkpt>
      <trkpt lat="43.12512" lon="5.72886">
        <ele>-4.19</ele>
        <time>2016-05-26T11:15:01Z</time>
      </trkpt>
      <trkpt lat="43.12458" lon="5.72874">
        <ele>-3.71</ele>
        <time>2016-05-26T11:15:18Z</time>
      </trkpt>
      <trkpt lat="43.12419" lon="5.72868">
        <ele>-3.71</ele>
        <time>2016-05-26T11:15:31Z</time>
      </trkpt>
      <trkpt lat="43.12376" lon="5.72865">
        <ele>-4.67</ele>
        <time>2016-05-26T11:15:46Z</time>
      </trkpt>
      <trkpt lat="43.12338" lon="5.7286">
        <ele>-4.19</ele>
        <time>2016-05-26T11:15:59Z</time>
      </trkpt>
      <trkpt lat="43.12295" lon="5.72855">
        <ele>-4.19</ele>
        <time>2016-05-26T11:16:13Z</time>
      </trkpt>
      <trkpt lat="43.12254" lon="5.72856">
        <ele>-3.71</ele>
        <time>2016-05-26T11:16:26Z</time>
      </trkpt>
      <trkpt lat="43.12212" lon="5.72856">
        <ele>-3.71</ele>
        <time>2016-05-26T11:16:40Z</time>
      </trkpt>
      <trkpt lat="43.1218" lon="5.72855">
        <ele>-4.67</ele>
        <time>2016-05-26T11:16:51Z</time>
      </trkpt>
      <trkpt lat="43.12137" lon="5.72855">
        <ele>-5.15</ele>
        <time>2016-05-26T11:17:05Z</time>
      </trkpt>
      <trkpt lat="43.12094" lon="5.72853">
        <ele>-4.67</ele>
        <time>2016-05-26T11:17:19Z</time>
      </trkpt>
      <trkpt lat="43.12045" lon="5.72853">
        <ele>-4.19</ele>
        <time>2016-05-26T11:17:35Z</time>
      </trkpt>
      <trkpt lat="43.12002" lon="5.72855">
        <ele>-3.71</ele>
        <time>2016-05-26T11:17:49Z</time>
      </trkpt>
      <trkpt lat="43.11959" lon="5.7286">
        <ele>-3.71</ele>
        <time>2016-05-26T11:18:03Z</time>
      </trkpt>
      <trkpt lat="43.11905" lon="5.72874">
        <ele>-3.23</ele>
        <time>2016-05-26T11:18:21Z</time>
      </trkpt>
      <trkpt lat="43.11859" lon="5.72881">
        <ele>-2.75</ele>
        <time>2016-05-26T11:18:36Z</time>
      </trkpt>
      <trkpt lat="43.11803" lon="5.72891">
        <ele>-2.27</ele>
        <time>2016-05-26T11:18:54Z</time>
      </trkpt>
      <trkpt lat="43.11752" lon="5.72903">
        <ele>-2.27</ele>
        <time>2016-05-26T11:19:11Z</time>
      </trkpt>
      <trkpt lat="43.11703" lon="5.72917">
        <ele>-1.79</ele>
        <time>2016-05-26T11:19:28Z</time>
      </trkpt>
      <trkpt lat="43.11663" lon="5.7294">
        <ele>-0.34</ele>
        <time>2016-05-26T11:19:45Z</time>
      </trkpt>
      <trkpt lat="43.11668" lon="5.72976">
        <ele>-0.34</ele>
        <time>2016-05-26T11:20:01Z</time>
      </trkpt>
      <trkpt lat="43.1167" lon="5.73004">
        <ele>-0.34</ele>
        <time>2016-05-26T11:20:16Z</time>
      </trkpt>
      <trkpt lat="43.11672" lon="5.73041">
        <ele>-0.34</ele>
        <time>2016-05-26T11:20:34Z</time>
      </trkpt>
      <trkpt lat="43.11674" lon="5.73081">
        <ele>0.14</ele>
        <time>2016-05-26T11:20:50Z</time>
      </trkpt>
      <trkpt lat="43.11671" lon="5.7313">
        <ele>-0.34</ele>
        <time>2016-05-26T11:21:08Z</time>
      </trkpt>
      <trkpt lat="43.11671" lon="5.73173">
        <ele>-0.34</ele>
        <time>2016-05-26T11:21:23Z</time>
      </trkpt>
      <trkpt lat="43.11669" lon="5.73222">
        <ele>-0.82</ele>
        <time>2016-05-26T11:21:40Z</time>
      </trkpt>
      <trkpt lat="43.11667" lon="5.73261">
        <ele>-0.34</ele>
        <time>2016-05-26T11:21:54Z</time>
      </trkpt>
      <trkpt lat="43.1167" lon="5.73309">
        <ele>-0.34</ele>
        <time>2016-05-26T11:22:10Z</time>
      </trkpt>
      <trkpt lat="43.11687" lon="5.73369">
        <ele>0.14</ele>
        <time>2016-05-26T11:22:26Z</time>
      </trkpt>
      <trkpt lat="43.11711" lon="5.73442">
        <ele>1.1</ele>
        <time>2016-05-26T11:22:45Z</time>
      </trkpt>
      <trkpt lat="43.11739" lon="5.73526">
        <ele>0.62</ele>
        <time>2016-05-26T11:23:07Z</time>
      </trkpt>
      <trkpt lat="43.1175" lon="5.73587">
        <ele>0.14</ele>
        <time>2016-05-26T11:23:25Z</time>
      </trkpt>
      <trkpt lat="43.1176" lon="5.73638">
        <ele>1.1</ele>
        <time>2016-05-26T11:23:41Z</time>
      </trkpt>
      <trkpt lat="43.11783" lon="5.73695">
        <ele>2.06</ele>
        <time>2016-05-26T11:23:58Z</time>
      </trkpt>
      <trkpt lat="43.11803" lon="5.73763">
        <ele>1.1</ele>
        <time>2016-05-26T11:24:17Z</time>
      </trkpt>
      <trkpt lat="43.11828" lon="5.73812">
        <ele>1.58</ele>
        <time>2016-05-26T11:24:32Z</time>
      </trkpt>
      <trkpt lat="43.1186" lon="5.73875">
        <ele>1.58</ele>
        <time>2016-05-26T11:24:50Z</time>
      </trkpt>
      <trkpt lat="43.11893" lon="5.73936">
        <ele>1.58</ele>
        <time>2016-05-26T11:25:08Z</time>
      </trkpt>
      <trkpt lat="43.11922" lon="5.73991">
        <ele>2.06</ele>
        <time>2016-05-26T11:25:24Z</time>
      </trkpt>
      <trkpt lat="43.11958" lon="5.74052">
        <ele>1.58</ele>
        <time>2016-05-26T11:25:42Z</time>
      </trkpt>
      <trkpt lat="43.11997" lon="5.7412">
        <ele>2.06</ele>
        <time>2016-05-26T11:26:02Z</time>
      </trkpt>
      <trkpt lat="43.12027" lon="5.74176">
        <ele>2.06</ele>
        <time>2016-05-26T11:26:18Z</time>
      </trkpt>
      <trkpt lat="43.1206" lon="5.74238">
        <ele>2.06</ele>
        <time>2016-05-26T11:26:36Z</time>
      </trkpt>
      <trkpt lat="43.12093" lon="5.74304">
        <ele>2.06</ele>
        <time>2016-05-26T11:26:55Z</time>
      </trkpt>
      <trkpt lat="43.12123" lon="5.74361">
        <ele>2.06</ele>
        <time>2016-05-26T11:27:11Z</time>
      </trkpt>
      <trkpt lat="43.12151" lon="5.74421">
        <ele>1.1</ele>
        <time>2016-05-26T11:27:28Z</time>
      </trkpt>
      <trkpt lat="43.12182" lon="5.74483">
        <ele>1.58</ele>
        <time>2016-05-26T11:27:46Z</time>
      </trkpt>
      <trkpt lat="43.12208" lon="5.74537">
        <ele>2.06</ele>
        <time>2016-05-26T11:28:01Z</time>
      </trkpt>
      <trkpt lat="43.12233" lon="5.74588">
        <ele>1.58</ele>
        <time>2016-05-26T11:28:15Z</time>
      </trkpt>
      <trkpt lat="43.12266" lon="5.74659">
        <ele>1.58</ele>
        <time>2016-05-26T11:28:34Z</time>
      </trkpt>
      <trkpt lat="43.123" lon="5.74724">
        <ele>1.58</ele>
        <time>2016-05-26T11:28:51Z</time>
      </trkpt>
      <trkpt lat="43.12334" lon="5.74785">
        <ele>1.1</ele>
        <time>2016-05-26T11:29:07Z</time>
      </trkpt>
      <trkpt lat="43.1237" lon="5.74848">
        <ele>1.58</ele>
        <time>2016-05-26T11:29:24Z</time>
      </trkpt>
      <trkpt lat="43.124" lon="5.74906">
        <ele>1.58</ele>
        <time>2016-05-26T11:29:40Z</time>
      </trkpt>
      <trkpt lat="43.12426" lon="5.74957">
        <ele>1.58</ele>
        <time>2016-05-26T11:29:54Z</time>
      </trkpt>
      <trkpt lat="43.12453" lon="5.75014">
        <ele>0.62</ele>
        <time>2016-05-26T11:30:09Z</time>
      </trkpt>
      <trkpt lat="43.12487" lon="5.75085">
        <ele>2.06</ele>
        <time>2016-05-26T11:30:27Z</time>
      </trkpt>
      <trkpt lat="43.1252" lon="5.7515">
        <ele>2.54</ele>
        <time>2016-05-26T11:30:43Z</time>
      </trkpt>
      <trkpt lat="43.12554" lon="5.75225">
        <ele>2.54</ele>
        <time>2016-05-26T11:31:01Z</time>
      </trkpt>
      <trkpt lat="43.12595" lon="5.75309">
        <ele>2.54</ele>
        <time>2016-05-26T11:31:21Z</time>
      </trkpt>
      <trkpt lat="43.12634" lon="5.75389">
        <ele>2.54</ele>
        <time>2016-05-26T11:31:40Z</time>
      </trkpt>
      <trkpt lat="43.12671" lon="5.75463">
        <ele>2.54</ele>
        <time>2016-05-26T11:31:58Z</time>
      </trkpt>
      <trkpt lat="43.12708" lon="5.75542">
        <ele>1.58</ele>
        <time>2016-05-26T11:32:17Z</time>
      </trkpt>
      <trkpt lat="43.12762" lon="5.75631">
        <ele>1.58</ele>
        <time>2016-05-26T11:32:41Z</time>
      </trkpt>
      <trkpt lat="43.12817" lon="5.75678">
        <ele>1.1</ele>
        <time>2016-05-26T11:33:00Z</time>
      </trkpt>
      <trkpt lat="43.12878" lon="5.75706">
        <ele>1.58</ele>
        <time>2016-05-26T11:33:22Z</time>
      </trkpt>
      <trkpt lat="43.1293" lon="5.75738">
        <ele>1.58</ele>
        <time>2016-05-26T11:33:43Z</time>
      </trkpt>
      <trkpt lat="43.12991" lon="5.75765">
        <ele>2.06</ele>
        <time>2016-05-26T11:34:08Z</time>
      </trkpt>
      <trkpt lat="43.13038" lon="5.75787">
        <ele>1.58</ele>
        <time>2016-05-26T11:34:28Z</time>
      </trkpt>
      <trkpt lat="43.13094" lon="5.75813">
        <ele>1.1</ele>
        <time>2016-05-26T11:34:52Z</time>
      </trkpt>
      <trkpt lat="43.13139" lon="5.75838">
        <ele>2.54</ele>
        <time>2016-05-26T11:35:13Z</time>
      </trkpt>
      <trkpt lat="43.1318" lon="5.7586">
        <ele>2.06</ele>
        <time>2016-05-26T11:35:33Z</time>
      </trkpt>
      <trkpt lat="43.13232" lon="5.75887">
        <ele>2.54</ele>
        <time>2016-05-26T11:35:58Z</time>
      </trkpt>
      <trkpt lat="43.13277" lon="5.7591">
        <ele>2.54</ele>
        <time>2016-05-26T11:36:20Z</time>
      </trkpt>
      <trkpt lat="43.13322" lon="5.75933">
        <ele>2.54</ele>
        <time>2016-05-26T11:36:46Z</time>
      </trkpt>
      <trkpt lat="43.13364" lon="5.75958">
        <ele>2.06</ele>
        <time>2016-05-26T11:37:14Z</time>
      </trkpt>
      <trkpt lat="43.13401" lon="5.75985">
        <ele>1.1</ele>
        <time>2016-05-26T11:37:38Z</time>
      </trkpt>
      <trkpt lat="43.13434" lon="5.7602">
        <ele>0.62</ele>
        <time>2016-05-26T11:37:59Z</time>
      </trkpt>
      <trkpt lat="43.13449" lon="5.76049">
        <ele>-0.34</ele>
        <time>2016-05-26T11:38:14Z</time>
      </trkpt>
      <trkpt lat="43.1345" lon="5.76083">
        <ele>0.14</ele>
        <time>2016-05-26T11:38:35Z</time>
      </trkpt>
      <trkpt lat="43.13449" lon="5.76105">
        <ele>0.62</ele>
        <time>2016-05-26T11:38:49Z</time>
      </trkpt>
      <trkpt lat="43.13446" lon="5.76123">
        <ele>-0.34</ele>
        <time>2016-05-26T11:39:02Z</time>
      </trkpt>
      <trkpt lat="43.13442" lon="5.7615">
        <ele>-0.34</ele>
        <time>2016-05-26T11:39:20Z</time>
      </trkpt>
      <trkpt lat="43.13435" lon="5.76176">
        <ele>0.14</ele>
        <time>2016-05-26T11:39:39Z</time>
      </trkpt>
      <trkpt lat="43.13431" lon="5.76201">
        <ele>1.58</ele>
        <time>2016-05-26T11:39:58Z</time>
      </trkpt>
      <trkpt lat="43.1343" lon="5.76209">
        <ele>1.58</ele>
        <time>2016-05-26T11:40:04Z</time>
      </trkpt>
      <trkpt lat="43.13433" lon="5.76234">
        <ele>0.62</ele>
        <time>2016-05-26T11:40:22Z</time>
      </trkpt>
      <trkpt lat="43.13435" lon="5.76262">
        <ele>1.1</ele>
        <time>2016-05-26T11:40:43Z</time>
      </trkpt>
      <trkpt lat="43.13435" lon="5.76289">
        <ele>1.1</ele>
        <time>2016-05-26T11:41:04Z</time>
      </trkpt>
      <trkpt lat="43.13433" lon="5.76319">
        <ele>2.54</ele>
        <time>2016-05-26T11:41:29Z</time>
      </trkpt>
      <trkpt lat="43.13429" lon="5.76344">
        <ele>4.46</ele>
        <time>2016-05-26T11:41:50Z</time>
      </trkpt>
      <trkpt lat="43.13427" lon="5.76365">
        <ele>3.5</ele>
        <time>2016-05-26T11:42:08Z</time>
      </trkpt>
      <trkpt lat="43.13422" lon="5.7638">
        <ele>2.54</ele>
        <time>2016-05-26T11:42:22Z</time>
      </trkpt>
      <trkpt lat="43.13409" lon="5.76404">
        <ele>1.1</ele>
        <time>2016-05-26T11:42:43Z</time>
      </trkpt>
      <trkpt lat="43.13399" lon="5.76431">
        <ele>1.1</ele>
        <time>2016-05-26T11:43:05Z</time>
      </trkpt>
      <trkpt lat="43.13387" lon="5.7645">
        <ele>0.14</ele>
        <time>2016-05-26T11:43:23Z</time>
      </trkpt>
      <trkpt lat="43.13381" lon="5.76458">
        <ele>0.62</ele>
        <time>2016-05-26T11:43:30Z</time>
      </trkpt>
      <trkpt lat="43.13367" lon="5.7648">
        <ele>0.62</ele>
        <time>2016-05-26T11:43:50Z</time>
      </trkpt>
      <trkpt lat="43.13358" lon="5.76503">
        <ele>0.62</ele>
        <time>2016-05-26T11:44:09Z</time>
      </trkpt>
      <trkpt lat="43.13353" lon="5.76524">
        <ele>1.1</ele>
        <time>2016-05-26T11:44:25Z</time>
      </trkpt>
      <trkpt lat="43.13351" lon="5.76549">
        <ele>0.14</ele>
        <time>2016-05-26T11:44:44Z</time>
      </trkpt>
      <trkpt lat="43.13351" lon="5.76552">
        <ele>-0.34</ele>
        <time>2016-05-26T11:44:46Z</time>
      </trkpt>
      <trkpt lat="43.1335" lon="5.76578">
        <ele>-0.82</ele>
        <time>2016-05-26T11:45:05Z</time>
      </trkpt>
      <trkpt lat="43.13344" lon="5.76601">
        <ele>0.14</ele>
        <time>2016-05-26T11:45:23Z</time>
      </trkpt>
      <trkpt lat="43.13338" lon="5.76623">
        <ele>1.1</ele>
        <time>2016-05-26T11:45:40Z</time>
      </trkpt>
      <trkpt lat="43.13331" lon="5.76642">
        <ele>1.1</ele>
        <time>2016-05-26T11:45:56Z</time>
      </trkpt>
      <trkpt lat="43.13327" lon="5.76651">
        <ele>0.14</ele>
        <time>2016-05-26T11:46:03Z</time>
      </trkpt>
      <trkpt lat="43.13317" lon="5.76674">
        <ele>0.14</ele>
        <time>2016-05-26T11:46:23Z</time>
      </trkpt>
      <trkpt lat="43.13307" lon="5.76685">
        <ele>0.62</ele>
        <time>2016-05-26T11:46:37Z</time>
      </trkpt>
      <trkpt lat="43.1329" lon="5.76684">
        <ele>0.62</ele>
        <time>2016-05-26T11:46:55Z</time>
      </trkpt>
      <trkpt lat="43.1328" lon="5.76666">
        <ele>1.1</ele>
        <time>2016-05-26T11:47:12Z</time>
      </trkpt>
      <trkpt lat="43.13278" lon="5.76638">
        <ele>1.58</ele>
        <time>2016-05-26T11:47:29Z</time>
      </trkpt>
      <trkpt lat="43.13266" lon="5.76605">
        <ele>1.58</ele>
        <time>2016-05-26T11:47:51Z</time>
      </trkpt>
      <trkpt lat="43.13253" lon="5.76578">
        <ele>1.58</ele>
        <time>2016-05-26T11:48:11Z</time>
      </trkpt>
      <trkpt lat="43.13243" lon="5.76543">
        <ele>2.06</ele>
        <time>2016-05-26T11:48:32Z</time>
      </trkpt>
      <trkpt lat="43.13242" lon="5.76507">
        <ele>1.1</ele>
        <time>2016-05-26T11:48:53Z</time>
      </trkpt>
      <trkpt lat="43.13243" lon="5.76478">
        <ele>1.1</ele>
        <time>2016-05-26T11:49:09Z</time>
      </trkpt>
      <trkpt lat="43.1325" lon="5.76446">
        <ele>1.58</ele>
        <time>2016-05-26T11:49:27Z</time>
      </trkpt>
      <trkpt lat="43.13265" lon="5.76415">
        <ele>1.58</ele>
        <time>2016-05-26T11:49:47Z</time>
      </trkpt>
      <trkpt lat="43.1328" lon="5.76384">
        <ele>2.06</ele>
        <time>2016-05-26T11:50:06Z</time>
      </trkpt>
      <trkpt lat="43.1329" lon="5.76353">
        <ele>2.06</ele>
        <time>2016-05-26T11:50:24Z</time>
      </trkpt>
      <trkpt lat="43.133" lon="5.76315">
        <ele>1.1</ele>
        <time>2016-05-26T11:50:45Z</time>
      </trkpt>
      <trkpt lat="43.1331" lon="5.76285">
        <ele>0.62</ele>
        <time>2016-05-26T11:51:02Z</time>
      </trkpt>
      <trkpt lat="43.13323" lon="5.76247">
        <ele>0.62</ele>
        <time>2016-05-26T11:51:23Z</time>
      </trkpt>
      <trkpt lat="43.13331" lon="5.76215">
        <ele>1.1</ele>
        <time>2016-05-26T11:51:40Z</time>
      </trkpt>
      <trkpt lat="43.13318" lon="5.76194">
        <ele>-0.34</ele>
        <time>2016-05-26T11:51:57Z</time>
      </trkpt>
      <trkpt lat="43.13306" lon="5.76192">
        <ele>1.1</ele>
        <time>2016-05-26T11:52:10Z</time>
      </trkpt>
      <trkpt lat="43.13297" lon="5.76204">
        <ele>1.58</ele>
        <time>2016-05-26T11:52:27Z</time>
      </trkpt>
      <trkpt lat="43.13293" lon="5.76221">
        <ele>1.58</ele>
        <time>2016-05-26T11:52:43Z</time>
      </trkpt>
      <trkpt lat="43.13293" lon="5.76227">
        <ele>1.58</ele>
        <time>2016-05-26T11:52:48Z</time>
      </trkpt>
      <trkpt lat="43.13288" lon="5.76247">
        <ele>2.06</ele>
        <time>2016-05-26T11:53:06Z</time>
      </trkpt>
      <trkpt lat="43.13275" lon="5.7626">
        <ele>1.1</ele>
        <time>2016-05-26T11:53:26Z</time>
      </trkpt>
      <trkpt lat="43.13262" lon="5.76272">
        <ele>2.54</ele>
        <time>2016-05-26T11:53:46Z</time>
      </trkpt>
      <trkpt lat="43.1326" lon="5.76294">
        <ele>2.06</ele>
        <time>2016-05-26T11:54:04Z</time>
      </trkpt>
      <trkpt lat="43.1326" lon="5.76322">
        <ele>2.06</ele>
        <time>2016-05-26T11:54:26Z</time>
      </trkpt>
      <trkpt lat="43.13253" lon="5.76342">
        <ele>1.58</ele>
        <time>2016-05-26T11:54:45Z</time>
      </trkpt>
      <trkpt lat="43.13249" lon="5.76348">
        <ele>2.06</ele>
        <time>2016-05-26T11:54:51Z</time>
      </trkpt>
      <trkpt lat="43.13238" lon="5.76358">
        <ele>2.06</ele>
        <time>2016-05-26T11:55:08Z</time>
      </trkpt>
      <trkpt lat="43.13227" lon="5.7636">
        <ele>0.62</ele>
        <time>2016-05-26T11:55:24Z</time>
      </trkpt>
      <trkpt lat="43.13215" lon="5.76364">
        <ele>0.14</ele>
        <time>2016-05-26T11:55:42Z</time>
      </trkpt>
      <trkpt lat="43.13204" lon="5.76375">
        <ele>0.62</ele>
        <time>2016-05-26T11:56:00Z</time>
      </trkpt>
      <trkpt lat="43.13196" lon="5.76388">
        <ele>2.06</ele>
        <time>2016-05-26T11:56:17Z</time>
      </trkpt>
      <trkpt lat="43.13187" lon="5.764">
        <ele>2.06</ele>
        <time>2016-05-26T11:56:35Z</time>
      </trkpt>
      <trkpt lat="43.13176" lon="5.7641">
        <ele>2.54</ele>
        <time>2016-05-26T11:56:53Z</time>
      </trkpt>
      <trkpt lat="43.13164" lon="5.7642">
        <ele>1.58</ele>
        <time>2016-05-26T11:57:14Z</time>
      </trkpt>
      <trkpt lat="43.13154" lon="5.76425">
        <ele>1.1</ele>
        <time>2016-05-26T11:57:31Z</time>
      </trkpt>
      <trkpt lat="43.13143" lon="5.76426">
        <ele>1.1</ele>
        <time>2016-05-26T11:57:50Z</time>
      </trkpt>
      <trkpt lat="43.13132" lon="5.76424">
        <ele>0.62</ele>
        <time>2016-05-26T11:58:07Z</time>
      </trkpt>
      <trkpt lat="43.13122" lon="5.76425">
        <ele>-0.82</ele>
        <time>2016-05-26T11:58:23Z</time>
      </trkpt>
      <trkpt lat="43.13112" lon="5.76428">
        <ele>-0.34</ele>
        <time>2016-05-26T11:58:41Z</time>
      </trkpt>
      <trkpt lat="43.13104" lon="5.76434">
        <ele>0.62</ele>
        <time>2016-05-26T11:58:58Z</time>
      </trkpt>
      <trkpt lat="43.13099" lon="5.76443">
        <ele>1.58</ele>
        <time>2016-05-26T11:59:13Z</time>
      </trkpt>
      <trkpt lat="43.13098" lon="5.76456">
        <ele>1.58</ele>
        <time>2016-05-26T11:59:23Z</time>
      </trkpt>
      <trkpt lat="43.131" lon="5.76487">
        <ele>1.1</ele>
        <time>2016-05-26T11:59:43Z</time>
      </trkpt>
      <trkpt lat="43.13129" lon="5.76509">
        <ele>2.54</ele>
        <time>2016-05-26T12:00:06Z</time>
      </trkpt>
      <trkpt lat="43.13153" lon="5.76531">
        <ele>2.06</ele>
        <time>2016-05-26T12:00:27Z</time>
      </trkpt>
      <trkpt lat="43.13179" lon="5.76557">
        <ele>2.06</ele>
        <time>2016-05-26T12:00:50Z</time>
      </trkpt>
      <trkpt lat="43.13201" lon="5.76578">
        <ele>1.58</ele>
        <time>2016-05-26T12:01:09Z</time>
      </trkpt>
      <trkpt lat="43.13226" lon="5.76607">
        <ele>1.58</ele>
        <time>2016-05-26T12:01:33Z</time>
      </trkpt>
      <trkpt lat="43.13248" lon="5.76635">
        <ele>0.62</ele>
        <time>2016-05-26T12:01:55Z</time>
      </trkpt>
      <trkpt lat="43.13261" lon="5.76658">
        <ele>1.58</ele>
        <time>2016-05-26T12:02:13Z</time>
      </trkpt>
      <trkpt lat="43.13273" lon="5.76682">
        <ele>1.1</ele>
        <time>2016-05-26T12:02:32Z</time>
      </trkpt>
      <trkpt lat="43.13284" lon="5.76704">
        <ele>1.1</ele>
        <time>2016-05-26T12:02:50Z</time>
      </trkpt>
      <trkpt lat="43.13294" lon="5.76731">
        <ele>2.54</ele>
        <time>2016-05-26T12:03:12Z</time>
      </trkpt>
      <trkpt lat="43.13302" lon="5.76756">
        <ele>1.58</ele>
        <time>2016-05-26T12:03:31Z</time>
      </trkpt>
      <trkpt lat="43.1331" lon="5.76781">
        <ele>0.62</ele>
        <time>2016-05-26T12:03:51Z</time>
      </trkpt>
      <trkpt lat="43.13322" lon="5.76809">
        <ele>1.58</ele>
        <time>2016-05-26T12:04:12Z</time>
      </trkpt>
      <trkpt lat="43.13333" lon="5.76835">
        <ele>1.1</ele>
        <time>2016-05-26T12:04:31Z</time>
      </trkpt>
      <trkpt lat="43.13335" lon="5.76841">
        <ele>1.1</ele>
        <time>2016-05-26T12:04:35Z</time>
      </trkpt>
      <trkpt lat="43.13341" lon="5.76852">
        <ele>0.62</ele>
        <time>2016-05-26T12:04:43Z</time>
      </trkpt>
      <trkpt lat="43.13354" lon="5.76874">
        <ele>1.58</ele>
        <time>2016-05-26T12:04:59Z</time>
      </trkpt>
      <trkpt lat="43.13371" lon="5.76904">
        <ele>1.1</ele>
        <time>2016-05-26T12:05:20Z</time>
      </trkpt>
      <trkpt lat="43.13385" lon="5.76927">
        <ele>1.58</ele>
        <time>2016-05-26T12:05:37Z</time>
      </trkpt>
      <trkpt lat="43.13398" lon="5.76952">
        <ele>1.1</ele>
        <time>2016-05-26T12:05:56Z</time>
      </trkpt>
      <trkpt lat="43.13388" lon="5.76968">
        <ele>-0.34</ele>
        <time>2016-05-26T12:06:16Z</time>
      </trkpt>
      <trkpt lat="43.13377" lon="5.76972">
        <ele>-2.27</ele>
        <time>2016-05-26T12:06:30Z</time>
      </trkpt>
      <trkpt lat="43.13364" lon="5.76975">
        <ele>-1.79</ele>
        <time>2016-05-26T12:06:47Z</time>
      </trkpt>
      <trkpt lat="43.1335" lon="5.76982">
        <ele>-2.27</ele>
        <time>2016-05-26T12:07:06Z</time>
      </trkpt>
      <trkpt lat="43.13335" lon="5.76978">
        <ele>-2.75</ele>
        <time>2016-05-26T12:07:26Z</time>
      </trkpt>
      <trkpt lat="43.13319" lon="5.7697">
        <ele>-1.79</ele>
        <time>2016-05-26T12:07:45Z</time>
      </trkpt>
      <trkpt lat="43.13318" lon="5.7697">
        <ele>-1.79</ele>
        <time>2016-05-26T12:07:46Z</time>
      </trkpt>
      <trkpt lat="43.133" lon="5.76967">
        <ele>-1.3</ele>
        <time>2016-05-26T12:08:03Z</time>
      </trkpt>
      <trkpt lat="43.13277" lon="5.76961">
        <ele>-1.3</ele>
        <time>2016-05-26T12:08:22Z</time>
      </trkpt>
      <trkpt lat="43.13254" lon="5.76949">
        <ele>-0.82</ele>
        <time>2016-05-26T12:08:41Z</time>
      </trkpt>
      <trkpt lat="43.13233" lon="5.76944">
        <ele>-0.82</ele>
        <time>2016-05-26T12:08:57Z</time>
      </trkpt>
      <trkpt lat="43.13209" lon="5.76938">
        <ele>-1.3</ele>
        <time>2016-05-26T12:09:16Z</time>
      </trkpt>
      <trkpt lat="43.13185" lon="5.76932">
        <ele>-2.27</ele>
        <time>2016-05-26T12:09:34Z</time>
      </trkpt>
      <trkpt lat="43.13161" lon="5.76924">
        <ele>-1.3</ele>
        <time>2016-05-26T12:09:53Z</time>
      </trkpt>
      <trkpt lat="43.13142" lon="5.76918">
        <ele>-1.3</ele>
        <time>2016-05-26T12:10:09Z</time>
      </trkpt>
      <trkpt lat="43.13116" lon="5.76911">
        <ele>-1.79</ele>
        <time>2016-05-26T12:10:31Z</time>
      </trkpt>
      <trkpt lat="43.131" lon="5.7691">
        <ele>-1.79</ele>
        <time>2016-05-26T12:10:45Z</time>
      </trkpt>
      <trkpt lat="43.1308" lon="5.76907">
        <ele>-1.79</ele>
        <time>2016-05-26T12:11:02Z</time>
      </trkpt>
      <trkpt lat="43.13054" lon="5.76901">
        <ele>-1.3</ele>
        <time>2016-05-26T12:11:22Z</time>
      </trkpt>
      <trkpt lat="43.13036" lon="5.76897">
        <ele>-0.82</ele>
        <time>2016-05-26T12:11:37Z</time>
      </trkpt>
      <trkpt lat="43.13016" lon="5.76894">
        <ele>-0.34</ele>
        <time>2016-05-26T12:11:54Z</time>
      </trkpt>
      <trkpt lat="43.12995" lon="5.76895">
        <ele>-0.82</ele>
        <time>2016-05-26T12:12:10Z</time>
      </trkpt>
      <trkpt lat="43.12977" lon="5.76896">
        <ele>-0.34</ele>
        <time>2016-05-26T12:12:25Z</time>
      </trkpt>
      <trkpt lat="43.12959" lon="5.76898">
        <ele>-1.3</ele>
        <time>2016-05-26T12:12:39Z</time>
      </trkpt>
      <trkpt lat="43.12941" lon="5.76898">
        <ele>-1.3</ele>
        <time>2016-05-26T12:12:55Z</time>
      </trkpt>
      <trkpt lat="43.12917" lon="5.76899">
        <ele>0.14</ele>
        <time>2016-05-26T12:13:14Z</time>
      </trkpt>
      <trkpt lat="43.12897" lon="5.769">
        <ele>-0.34</ele>
        <time>2016-05-26T12:13:31Z</time>
      </trkpt>
      <trkpt lat="43.12882" lon="5.76903">
        <ele>-0.82</ele>
        <time>2016-05-26T12:13:45Z</time>
      </trkpt>
      <trkpt lat="43.12872" lon="5.76905">
        <ele>-1.79</ele>
        <time>2016-05-26T12:13:55Z</time>
      </trkpt>
      <trkpt lat="43.12853" lon="5.76906">
        <ele>-2.27</ele>
        <time>2016-05-26T12:14:11Z</time>
      </trkpt>
      <trkpt lat="43.12833" lon="5.7691">
        <ele>-1.3</ele>
        <time>2016-05-26T12:14:28Z</time>
      </trkpt>
      <trkpt lat="43.12816" lon="5.76918">
        <ele>-0.82</ele>
        <time>2016-05-26T12:14:43Z</time>
      </trkpt>
      <trkpt lat="43.12798" lon="5.76923">
        <ele>-0.34</ele>
        <time>2016-05-26T12:14:58Z</time>
      </trkpt>
      <trkpt lat="43.12789" lon="5.76925">
        <ele>-0.82</ele>
        <time>2016-05-26T12:15:06Z</time>
      </trkpt>
      <trkpt lat="43.12786" lon="5.7695">
        <ele>0.14</ele>
        <time>2016-05-26T12:15:23Z</time>
      </trkpt>
      <trkpt lat="43.12799" lon="5.76988">
        <ele>-0.34</ele>
        <time>2016-05-26T12:15:47Z</time>
      </trkpt>
      <trkpt lat="43.12811" lon="5.77027">
        <ele>-0.34</ele>
        <time>2016-05-26T12:16:08Z</time>
      </trkpt>
      <trkpt lat="43.1282" lon="5.77066">
        <ele>0.62</ele>
        <time>2016-05-26T12:16:28Z</time>
      </trkpt>
      <trkpt lat="43.12833" lon="5.77108">
        <ele>2.06</ele>
        <time>2016-05-26T12:16:49Z</time>
      </trkpt>
      <trkpt lat="43.12847" lon="5.77144">
        <ele>1.58</ele>
        <time>2016-05-26T12:17:07Z</time>
      </trkpt>
      <trkpt lat="43.12869" lon="5.77185">
        <ele>1.58</ele>
        <time>2016-05-26T12:17:29Z</time>
      </trkpt>
      <trkpt lat="43.1289" lon="5.77235">
        <ele>0.62</ele>
        <time>2016-05-26T12:17:54Z</time>
      </trkpt>
      <trkpt lat="43.12909" lon="5.77278">
        <ele>2.06</ele>
        <time>2016-05-26T12:18:15Z</time>
      </trkpt>
      <trkpt lat="43.12938" lon="5.77325">
        <ele>1.58</ele>
        <time>2016-05-26T12:18:41Z</time>
      </trkpt>
      <trkpt lat="43.12954" lon="5.77369">
        <ele>3.02</ele>
        <time>2016-05-26T12:19:04Z</time>
      </trkpt>
      <trkpt lat="43.12959" lon="5.77413">
        <ele>0.62</ele>
        <time>2016-05-26T12:19:27Z</time>
      </trkpt>
      <trkpt lat="43.12963" lon="5.77454">
        <ele>-0.34</ele>
        <time>2016-05-26T12:19:50Z</time>
      </trkpt>
      <trkpt lat="43.1297" lon="5.77495">
        <ele>-1.79</ele>
        <time>2016-05-26T12:20:15Z</time>
      </trkpt>
      <trkpt lat="43.12977" lon="5.77542">
        <ele>-0.82</ele>
        <time>2016-05-26T12:20:44Z</time>
      </trkpt>
      <trkpt lat="43.12976" lon="5.77576">
        <ele>-1.3</ele>
        <time>2016-05-26T12:21:05Z</time>
      </trkpt>
      <trkpt lat="43.12972" lon="5.77619">
        <ele>-0.34</ele>
        <time>2016-05-26T12:21:36Z</time>
      </trkpt>
      <trkpt lat="43.12969" lon="5.77634">
        <ele>-0.34</ele>
        <time>2016-05-26T12:22:00Z</time>
      </trkpt>
      <trkpt lat="43.1297" lon="5.77635">
        <ele>0.14</ele>
        <time>2016-05-26T12:22:25Z</time>
      </trkpt>
      <trkpt lat="43.12972" lon="5.77631">
        <ele>-0.34</ele>
        <time>2016-05-26T12:22:49Z</time>
      </trkpt>
      <trkpt lat="43.12973" lon="5.77629">
        <ele>-1.3</ele>
        <time>2016-05-26T12:23:11Z</time>
      </trkpt>
      <trkpt lat="43.12974" lon="5.77632">
        <ele>-1.3</ele>
        <time>2016-05-26T12:23:38Z</time>
      </trkpt>
      <trkpt lat="43.12976" lon="5.77635">
        <ele>-1.3</ele>
        <time>2016-05-26T12:24:04Z</time>
      </trkpt>
      <trkpt lat="43.12978" lon="5.77637">
        <ele>-1.3</ele>
        <time>2016-05-26T12:24:25Z</time>
      </trkpt>
      <trkpt lat="43.1298" lon="5.7764">
        <ele>-1.3</ele>
        <time>2016-05-26T12:24:50Z</time>
      </trkpt>
      <trkpt lat="43.12981" lon="5.7764">
        <ele>-1.79</ele>
        <time>2016-05-26T12:25:08Z</time>
      </trkpt>
      <trkpt lat="43.12982" lon="5.7764">
        <ele>-1.79</ele>
        <time>2016-05-26T12:25:27Z</time>
      </trkpt>
      <trkpt lat="43.12982" lon="5.77639">
        <ele>-1.79</ele>
        <time>2016-05-26T12:25:50Z</time>
      </trkpt>
      <trkpt lat="43.12982" lon="5.77638">
        <ele>-1.79</ele>
        <time>2016-05-26T12:26:16Z</time>
      </trkpt>
      <trkpt lat="43.12982" lon="5.77636">
        <ele>-1.79</ele>
        <time>2016-05-26T12:26:40Z</time>
      </trkpt>
      <trkpt lat="43.12983" lon="5.77636">
        <ele>-1.79</ele>
        <time>2016-05-26T12:27:07Z</time>
      </trkpt>
      <trkpt lat="43.12982" lon="5.77637">
        <ele>-1.3</ele>
        <time>2016-05-26T12:27:32Z</time>
      </trkpt>
      <trkpt lat="43.12981" lon="5.77636">
        <ele>-1.3</ele>
        <time>2016-05-26T12:27:53Z</time>
      </trkpt>
      <trkpt lat="43.1298" lon="5.77633">
        <ele>-1.3</ele>
        <time>2016-05-26T12:28:19Z</time>
      </trkpt>
      <trkpt lat="43.12977" lon="5.77632">
        <ele>-2.27</ele>
        <time>2016-05-26T12:28:45Z</time>
      </trkpt>
      <trkpt lat="43.12977" lon="5.7763">
        <ele>-2.75</ele>
        <time>2016-05-26T12:29:11Z</time>
      </trkpt>
      <trkpt lat="43.12977" lon="5.77629">
        <ele>-2.75</ele>
        <time>2016-05-26T12:29:30Z</time>
      </trkpt>
      <trkpt lat="43.12977" lon="5.77629">
        <ele>-2.27</ele>
        <time>2016-05-26T12:29:54Z</time>
      </trkpt>
      <trkpt lat="43.12978" lon="5.77629">
        <ele>-2.27</ele>
        <time>2016-05-26T12:30:19Z</time>
      </trkpt>
      <trkpt lat="43.12979" lon="5.77631">
        <ele>-2.27</ele>
        <time>2016-05-26T12:30:44Z</time>
      </trkpt>
      <trkpt lat="43.12981" lon="5.77633">
        <ele>-2.27</ele>
        <time>2016-05-26T12:31:10Z</time>
      </trkpt>
      <trkpt lat="43.12981" lon="5.77633">
        <ele>-1.79</ele>
        <time>2016-05-26T12:31:33Z</time>
      </trkpt>
      <trkpt lat="43.12981" lon="5.77632">
        <ele>-1.79</ele>
        <time>2016-05-26T12:31:56Z</time>
      </trkpt>
      <trkpt lat="43.1298" lon="5.77631">
        <ele>-2.75</ele>
        <time>2016-05-26T12:32:22Z</time>
      </trkpt>
      <trkpt lat="43.12979" lon="5.7763">
        <ele>-2.75</ele>
        <time>2016-05-26T12:32:39Z</time>
      </trkpt>
      <trkpt lat="43.12979" lon="5.77631">
        <ele>-2.75</ele>
        <time>2016-05-26T12:32:59Z</time>
      </trkpt>
      <trkpt lat="43.12979" lon="5.7763">
        <ele>-2.75</ele>
        <time>2016-05-26T12:33:22Z</time>
      </trkpt>
      <trkpt lat="43.12979" lon="5.7763">
        <ele>-2.27</ele>
        <time>2016-05-26T12:33:46Z</time>
      </trkpt>
      <trkpt lat="43.12978" lon="5.7763">
        <ele>-1.79</ele>
        <time>2016-05-26T12:34:10Z</time>
      </trkpt>
      <trkpt lat="43.12976" lon="5.77629">
        <ele>-2.27</ele>
        <time>2016-05-26T12:34:37Z</time>
      </trkpt>
      <trkpt lat="43.12975" lon="5.77628">
        <ele>-2.75</ele>
        <time>2016-05-26T12:35:00Z</time>
      </trkpt>
      <trkpt lat="43.12974" lon="5.77627">
        <ele>-3.23</ele>
        <time>2016-05-26T12:35:22Z</time>
      </trkpt>
      <trkpt lat="43.12974" lon="5.77627">
        <ele>-3.71</ele>
        <time>2016-05-26T12:35:44Z</time>
      </trkpt>
      <trkpt lat="43.12974" lon="5.77626">
        <ele>-3.23</ele>
        <time>2016-05-26T12:36:11Z</time>
      </trkpt>
      <trkpt lat="43.12974" lon="5.77627">
        <ele>-3.23</ele>
        <time>2016-05-26T12:36:36Z</time>
      </trkpt>
      <trkpt lat="43.12976" lon="5.77628">
        <ele>-2.75</ele>
        <time>2016-05-26T12:36:55Z</time>
      </trkpt>
      <trkpt lat="43.12977" lon="5.77629">
        <ele>-2.27</ele>
        <time>2016-05-26T12:37:18Z</time>
      </trkpt>
      <trkpt lat="43.12978" lon="5.77629">
        <ele>-2.27</ele>
        <time>2016-05-26T12:37:38Z</time>
      </trkpt>
      <trkpt lat="43.12979" lon="5.7763">
        <ele>-2.27</ele>
        <time>2016-05-26T12:38:01Z</time>
      </trkpt>
      <trkpt lat="43.12979" lon="5.77631">
        <ele>-2.27</ele>
        <time>2016-05-26T12:38:25Z</time>
      </trkpt>
      <trkpt lat="43.1298" lon="5.77632">
        <ele>-2.27</ele>
        <time>2016-05-26T12:38:49Z</time>
      </trkpt>
      <trkpt lat="43.12981" lon="5.77633">
        <ele>-1.79</ele>
        <time>2016-05-26T12:39:11Z</time>
      </trkpt>
      <trkpt lat="43.12982" lon="5.77634">
        <ele>-1.3</ele>
        <time>2016-05-26T12:39:36Z</time>
      </trkpt>
      <trkpt lat="43.12982" lon="5.77634">
        <ele>-1.79</ele>
        <time>2016-05-26T12:39:58Z</time>
      </trkpt>
      <trkpt lat="43.12981" lon="5.77632">
        <ele>-1.3</ele>
        <time>2016-05-26T12:40:21Z</time>
      </trkpt>
      <trkpt lat="43.12981" lon="5.77631">
        <ele>-2.27</ele>
        <time>2016-05-26T12:40:49Z</time>
      </trkpt>
      <trkpt lat="43.1298" lon="5.77631">
        <ele>-2.27</ele>
        <time>2016-05-26T12:41:12Z</time>
      </trkpt>
      <trkpt lat="43.1298" lon="5.7763">
        <ele>-2.75</ele>
        <time>2016-05-26T12:41:33Z</time>
      </trkpt>
      <trkpt lat="43.12979" lon="5.77629">
        <ele>-2.75</ele>
        <time>2016-05-26T12:41:56Z</time>
      </trkpt>
      <trkpt lat="43.12977" lon="5.77628">
        <ele>-2.75</ele>
        <time>2016-05-26T12:42:22Z</time>
      </trkpt>
      <trkpt lat="43.12976" lon="5.77627">
        <ele>-2.75</ele>
        <time>2016-05-26T12:42:50Z</time>
      </trkpt>
      <trkpt lat="43.12975" lon="5.77626">
        <ele>-2.75</ele>
        <time>2016-05-26T12:43:16Z</time>
      </trkpt>
      <trkpt lat="43.12975" lon="5.77627">
        <ele>-2.75</ele>
        <time>2016-05-26T12:43:41Z</time>
      </trkpt>
      <trkpt lat="43.12977" lon="5.77628">
        <ele>-2.27</ele>
        <time>2016-05-26T12:44:03Z</time>
      </trkpt>
      <trkpt lat="43.12978" lon="5.77629">
        <ele>-1.79</ele>
        <time>2016-05-26T12:44:25Z</time>
      </trkpt>
      <trkpt lat="43.1298" lon="5.77629">
        <ele>-1.79</ele>
        <time>2016-05-26T12:44:49Z</time>
      </trkpt>
      <trkpt lat="43.1298" lon="5.77629">
        <ele>-1.79</ele>
        <time>2016-05-26T12:45:11Z</time>
      </trkpt>
      <trkpt lat="43.1298" lon="5.77629">
        <ele>-2.27</ele>
        <time>2016-05-26T12:45:35Z</time>
      </trkpt>
      <trkpt lat="43.1298" lon="5.77629">
        <ele>-2.75</ele>
        <time>2016-05-26T12:45:57Z</time>
      </trkpt>
      <trkpt lat="43.12979" lon="5.77628">
        <ele>-2.27</ele>
        <time>2016-05-26T12:46:22Z</time>
      </trkpt>
      <trkpt lat="43.12978" lon="5.77628">
        <ele>-2.27</ele>
        <time>2016-05-26T12:46:41Z</time>
      </trkpt>
      <trkpt lat="43.12979" lon="5.77629">
        <ele>-2.27</ele>
        <time>2016-05-26T12:47:05Z</time>
      </trkpt>
      <trkpt lat="43.1298" lon="5.77629">
        <ele>-2.27</ele>
        <time>2016-05-26T12:47:27Z</time>
      </trkpt>
      <trkpt lat="43.1298" lon="5.7763">
        <ele>-2.27</ele>
        <time>2016-05-26T12:47:47Z</time>
      </trkpt>
      <trkpt lat="43.12981" lon="5.77631">
        <ele>-2.27</ele>
        <time>2016-05-26T12:48:09Z</time>
      </trkpt>
      <trkpt lat="43.12981" lon="5.7763">
        <ele>-2.75</ele>
        <time>2016-05-26T12:48:35Z</time>
      </trkpt>
      <trkpt lat="43.12981" lon="5.7763">
        <ele>-2.75</ele>
        <time>2016-05-26T12:48:54Z</time>
      </trkpt>
      <trkpt lat="43.1298" lon="5.7763">
        <ele>-3.23</ele>
        <time>2016-05-26T12:49:17Z</time>
      </trkpt>
      <trkpt lat="43.12979" lon="5.77628">
        <ele>-3.23</ele>
        <time>2016-05-26T12:49:40Z</time>
      </trkpt>
      <trkpt lat="43.12978" lon="5.77627">
        <ele>-3.23</ele>
        <time>2016-05-26T12:50:05Z</time>
      </trkpt>
      <trkpt lat="43.12977" lon="5.77626">
        <ele>-3.23</ele>
        <time>2016-05-26T12:50:30Z</time>
      </trkpt>
      <trkpt lat="43.12977" lon="5.77626">
        <ele>-2.75</ele>
        <time>2016-05-26T12:50:54Z</time>
      </trkpt>
      <trkpt lat="43.12977" lon="5.77626">
        <ele>-2.75</ele>
        <time>2016-05-26T12:51:14Z</time>
      </trkpt>
      <trkpt lat="43.12977" lon="5.77626">
        <ele>-2.75</ele>
        <time>2016-05-26T12:51:34Z</time>
      </trkpt>
      <trkpt lat="43.12977" lon="5.77626">
        <ele>-2.75</ele>
        <time>2016-05-26T12:52:02Z</time>
      </trkpt>
      <trkpt lat="43.12976" lon="5.77625">
        <ele>-2.27</ele>
        <time>2016-05-26T12:52:24Z</time>
      </trkpt>
      <trkpt lat="43.12974" lon="5.77625">
        <ele>-2.27</ele>
        <time>2016-05-26T12:52:50Z</time>
      </trkpt>
      <trkpt lat="43.12973" lon="5.77624">
        <ele>-1.3</ele>
        <time>2016-05-26T12:53:13Z</time>
      </trkpt>
      <trkpt lat="43.12974" lon="5.77625">
        <ele>-0.82</ele>
        <time>2016-05-26T12:53:34Z</time>
      </trkpt>
      <trkpt lat="43.12976" lon="5.77625">
        <ele>-1.3</ele>
        <time>2016-05-26T12:53:59Z</time>
      </trkpt>
      <trkpt lat="43.12977" lon="5.77627">
        <ele>-0.82</ele>
        <time>2016-05-26T12:54:19Z</time>
      </trkpt>
      <trkpt lat="43.12979" lon="5.77629">
        <ele>-1.3</ele>
        <time>2016-05-26T12:54:45Z</time>
      </trkpt>
      <trkpt lat="43.1298" lon="5.7763">
        <ele>-0.82</ele>
        <time>2016-05-26T12:55:10Z</time>
      </trkpt>
      <trkpt lat="43.12981" lon="5.7763">
        <ele>-1.3</ele>
        <time>2016-05-26T12:55:31Z</time>
      </trkpt>
      <trkpt lat="43.1298" lon="5.77631">
        <ele>-1.3</ele>
        <time>2016-05-26T12:55:50Z</time>
      </trkpt>
      <trkpt lat="43.12981" lon="5.77632">
        <ele>-1.3</ele>
        <time>2016-05-26T12:56:17Z</time>
      </trkpt>
      <trkpt lat="43.12981" lon="5.77632">
        <ele>-1.3</ele>
        <time>2016-05-26T12:56:37Z</time>
      </trkpt>
      <trkpt lat="43.1298" lon="5.7763">
        <ele>-1.3</ele>
        <time>2016-05-26T12:57:04Z</time>
      </trkpt>
      <trkpt lat="43.12979" lon="5.77629">
        <ele>-1.3</ele>
        <time>2016-05-26T12:57:24Z</time>
      </trkpt>
      <trkpt lat="43.12979" lon="5.7763">
        <ele>-1.3</ele>
        <time>2016-05-26T12:57:46Z</time>
      </trkpt>
      <trkpt lat="43.1298" lon="5.77633">
        <ele>-1.3</ele>
        <time>2016-05-26T12:58:08Z</time>
      </trkpt>
      <trkpt lat="43.12977" lon="5.77635">
        <ele>-1.79</ele>
        <time>2016-05-26T12:58:30Z</time>
      </trkpt>
      <trkpt lat="43.12962" lon="5.77637">
        <ele>-1.79</ele>
        <time>2016-05-26T12:58:53Z</time>
      </trkpt>
      <trkpt lat="43.12953" lon="5.77644">
        <ele>-1.79</ele>
        <time>2016-05-26T12:59:11Z</time>
      </trkpt>
      <trkpt lat="43.12947" lon="5.77642">
        <ele>-2.27</ele>
        <time>2016-05-26T12:59:19Z</time>
      </trkpt>
      <trkpt lat="43.12945" lon="5.77609">
        <ele>-1.3</ele>
        <time>2016-05-26T12:59:40Z</time>
      </trkpt>
      <trkpt lat="43.12951" lon="5.77555">
        <ele>0.14</ele>
        <time>2016-05-26T13:00:05Z</time>
      </trkpt>
      <trkpt lat="43.12948" lon="5.77497">
        <ele>-0.34</ele>
        <time>2016-05-26T13:00:28Z</time>
      </trkpt>
      <trkpt lat="43.12947" lon="5.7743">
        <ele>0.14</ele>
        <time>2016-05-26T13:00:53Z</time>
      </trkpt>
      <trkpt lat="43.12957" lon="5.77361">
        <ele>0.14</ele>
        <time>2016-05-26T13:01:19Z</time>
      </trkpt>
      <trkpt lat="43.12972" lon="5.77309">
        <ele>-1.3</ele>
        <time>2016-05-26T13:01:39Z</time>
      </trkpt>
      <trkpt lat="43.12988" lon="5.77253">
        <ele>-0.82</ele>
        <time>2016-05-26T13:02:01Z</time>
      </trkpt>
      <trkpt lat="43.13003" lon="5.77206">
        <ele>-1.3</ele>
        <time>2016-05-26T13:02:21Z</time>
      </trkpt>
      <trkpt lat="43.13016" lon="5.77152">
        <ele>-1.3</ele>
        <time>2016-05-26T13:02:42Z</time>
      </trkpt>
      <trkpt lat="43.13024" lon="5.77106">
        <ele>-0.82</ele>
        <time>2016-05-26T13:03:00Z</time>
      </trkpt>
      <trkpt lat="43.13031" lon="5.77053">
        <ele>-0.82</ele>
        <time>2016-05-26T13:03:20Z</time>
      </trkpt>
      <trkpt lat="43.13048" lon="5.76999">
        <ele>-1.3</ele>
        <time>2016-05-26T13:03:36Z</time>
      </trkpt>
      <trkpt lat="43.13076" lon="5.76907">
        <ele>-1.79</ele>
        <time>2016-05-26T13:04:00Z</time>
      </trkpt>
      <trkpt lat="43.13099" lon="5.76835">
        <ele>-2.75</ele>
        <time>2016-05-26T13:04:19Z</time>
      </trkpt>
      <trkpt lat="43.13116" lon="5.76766">
        <ele>-2.75</ele>
        <time>2016-05-26T13:04:38Z</time>
      </trkpt>
      <trkpt lat="43.13129" lon="5.76708">
        <ele>-1.79</ele>
        <time>2016-05-26T13:04:57Z</time>
      </trkpt>
      <trkpt lat="43.13149" lon="5.76661">
        <ele>-2.75</ele>
        <time>2016-05-26T13:05:16Z</time>
      </trkpt>
      <trkpt lat="43.13176" lon="5.76609">
        <ele>-2.75</ele>
        <time>2016-05-26T13:05:38Z</time>
      </trkpt>
      <trkpt lat="43.13195" lon="5.76565">
        <ele>-2.27</ele>
        <time>2016-05-26T13:05:54Z</time>
      </trkpt>
      <trkpt lat="43.13216" lon="5.7651">
        <ele>-2.27</ele>
        <time>2016-05-26T13:06:12Z</time>
      </trkpt>
      <trkpt lat="43.13233" lon="5.76459">
        <ele>-2.27</ele>
        <time>2016-05-26T13:06:28Z</time>
      </trkpt>
      <trkpt lat="43.13243" lon="5.76398">
        <ele>-1.79</ele>
        <time>2016-05-26T13:06:46Z</time>
      </trkpt>
      <trkpt lat="43.13246" lon="5.7634">
        <ele>-0.82</ele>
        <time>2016-05-26T13:07:03Z</time>
      </trkpt>
      <trkpt lat="43.13244" lon="5.76263">
        <ele>0.14</ele>
        <time>2016-05-26T13:07:23Z</time>
      </trkpt>
      <trkpt lat="43.13245" lon="5.76174">
        <ele>0.62</ele>
        <time>2016-05-26T13:07:44Z</time>
      </trkpt>
      <trkpt lat="43.1325" lon="5.76097">
        <ele>0.62</ele>
        <time>2016-05-26T13:08:02Z</time>
      </trkpt>
      <trkpt lat="43.13268" lon="5.76037">
        <ele>-0.82</ele>
        <time>2016-05-26T13:08:17Z</time>
      </trkpt>
      <trkpt lat="43.13274" lon="5.75965">
        <ele>-0.82</ele>
        <time>2016-05-26T13:08:34Z</time>
      </trkpt>
      <trkpt lat="43.13275" lon="5.759">
        <ele>-1.79</ele>
        <time>2016-05-26T13:08:50Z</time>
      </trkpt>
      <trkpt lat="43.1327" lon="5.75844">
        <ele>-0.82</ele>
        <time>2016-05-26T13:09:04Z</time>
      </trkpt>
      <trkpt lat="43.13257" lon="5.75854">
        <ele>-0.82</ele>
        <time>2016-05-26T13:09:17Z</time>
      </trkpt>
      <trkpt lat="43.13255" lon="5.75878">
        <ele>-0.82</ele>
        <time>2016-05-26T13:09:34Z</time>
      </trkpt>
      <trkpt lat="43.13247" lon="5.75919">
        <ele>-0.34</ele>
        <time>2016-05-26T13:09:51Z</time>
      </trkpt>
      <trkpt lat="43.13233" lon="5.75978">
        <ele>-0.82</ele>
        <time>2016-05-26T13:10:10Z</time>
      </trkpt>
      <trkpt lat="43.13218" lon="5.76032">
        <ele>-1.3</ele>
        <time>2016-05-26T13:10:28Z</time>
      </trkpt>
      <trkpt lat="43.1321" lon="5.76071">
        <ele>-2.75</ele>
        <time>2016-05-26T13:10:42Z</time>
      </trkpt>
      <trkpt lat="43.13201" lon="5.76123">
        <ele>-2.75</ele>
        <time>2016-05-26T13:10:58Z</time>
      </trkpt>
      <trkpt lat="43.13198" lon="5.76175">
        <ele>-3.71</ele>
        <time>2016-05-26T13:11:13Z</time>
      </trkpt>
      <trkpt lat="43.13196" lon="5.76226">
        <ele>-2.75</ele>
        <time>2016-05-26T13:11:26Z</time>
      </trkpt>
      <trkpt lat="43.13194" lon="5.76293">
        <ele>-3.23</ele>
        <time>2016-05-26T13:11:42Z</time>
      </trkpt>
      <trkpt lat="43.13193" lon="5.76352">
        <ele>-3.23</ele>
        <time>2016-05-26T13:11:56Z</time>
      </trkpt>
      <trkpt lat="43.13185" lon="5.76393">
        <ele>-3.71</ele>
        <time>2016-05-26T13:12:08Z</time>
      </trkpt>
      <trkpt lat="43.13157" lon="5.76389">
        <ele>-3.23</ele>
        <time>2016-05-26T13:12:23Z</time>
      </trkpt>
      <trkpt lat="43.13126" lon="5.76382">
        <ele>-2.75</ele>
        <time>2016-05-26T13:12:38Z</time>
      </trkpt>
      <trkpt lat="43.13097" lon="5.76373">
        <ele>-2.75</ele>
        <time>2016-05-26T13:12:50Z</time>
      </trkpt>
      <trkpt lat="43.13055" lon="5.76368">
        <ele>-2.27</ele>
        <time>2016-05-26T13:13:08Z</time>
      </trkpt>
      <trkpt lat="43.13003" lon="5.76358">
        <ele>-2.27</ele>
        <time>2016-05-26T13:13:27Z</time>
      </trkpt>
      <trkpt lat="43.12951" lon="5.7634">
        <ele>-2.75</ele>
        <time>2016-05-26T13:13:43Z</time>
      </trkpt>
      <trkpt lat="43.12889" lon="5.7632">
        <ele>-2.75</ele>
        <time>2016-05-26T13:14:02Z</time>
      </trkpt>
      <trkpt lat="43.1284" lon="5.76305">
        <ele>-2.75</ele>
        <time>2016-05-26T13:14:17Z</time>
      </trkpt>
      <trkpt lat="43.12799" lon="5.763">
        <ele>-1.3</ele>
        <time>2016-05-26T13:14:30Z</time>
      </trkpt>
      <trkpt lat="43.12757" lon="5.76294">
        <ele>-0.82</ele>
        <time>2016-05-26T13:14:43Z</time>
      </trkpt>
      <trkpt lat="43.12708" lon="5.76291">
        <ele>-0.82</ele>
        <time>2016-05-26T13:14:58Z</time>
      </trkpt>
      <trkpt lat="43.12652" lon="5.7629">
        <ele>-1.3</ele>
        <time>2016-05-26T13:15:15Z</time>
      </trkpt>
      <trkpt lat="43.12611" lon="5.7629">
        <ele>-1.79</ele>
        <time>2016-05-26T13:15:28Z</time>
      </trkpt>
      <trkpt lat="43.12562" lon="5.76288">
        <ele>-0.82</ele>
        <time>2016-05-26T13:15:43Z</time>
      </trkpt>
      <trkpt lat="43.12508" lon="5.76279">
        <ele>0.14</ele>
        <time>2016-05-26T13:16:00Z</time>
      </trkpt>
      <trkpt lat="43.12456" lon="5.76271">
        <ele>-1.79</ele>
        <time>2016-05-26T13:16:16Z</time>
      </trkpt>
      <trkpt lat="43.12402" lon="5.76268">
        <ele>-2.75</ele>
        <time>2016-05-26T13:16:33Z</time>
      </trkpt>
      <trkpt lat="43.12352" lon="5.76264">
        <ele>-1.79</ele>
        <time>2016-05-26T13:16:49Z</time>
      </trkpt>
      <trkpt lat="43.12298" lon="5.7626">
        <ele>-0.82</ele>
        <time>2016-05-26T13:17:06Z</time>
      </trkpt>
      <trkpt lat="43.12238" lon="5.76253">
        <ele>1.1</ele>
        <time>2016-05-26T13:17:25Z</time>
      </trkpt>
      <trkpt lat="43.12188" lon="5.76252">
        <ele>0.62</ele>
        <time>2016-05-26T13:17:40Z</time>
      </trkpt>
      <trkpt lat="43.12145" lon="5.76251">
        <ele>0.14</ele>
        <time>2016-05-26T13:17:53Z</time>
      </trkpt>
      <trkpt lat="43.12096" lon="5.76257">
        <ele>2.06</ele>
        <time>2016-05-26T13:18:08Z</time>
      </trkpt>
      <trkpt lat="43.12051" lon="5.76259">
        <ele>0.62</ele>
        <time>2016-05-26T13:18:22Z</time>
      </trkpt>
      <trkpt lat="43.12002" lon="5.76264">
        <ele>-1.3</ele>
        <time>2016-05-26T13:18:38Z</time>
      </trkpt>
      <trkpt lat="43.11959" lon="5.76266">
        <ele>-1.3</ele>
        <time>2016-05-26T13:18:52Z</time>
      </trkpt>
      <trkpt lat="43.11896" lon="5.76272">
        <ele>-1.3</ele>
        <time>2016-05-26T13:19:11Z</time>
      </trkpt>
      <trkpt lat="43.11827" lon="5.76277">
        <ele>0.14</ele>
        <time>2016-05-26T13:19:31Z</time>
      </trkpt>
      <trkpt lat="43.11779" lon="5.76281">
        <ele>-1.3</ele>
        <time>2016-05-26T13:19:45Z</time>
      </trkpt>
      <trkpt lat="43.1172" lon="5.76288">
        <ele>-0.34</ele>
        <time>2016-05-26T13:20:02Z</time>
      </trkpt>
      <trkpt lat="43.11669" lon="5.76289">
        <ele>-1.79</ele>
        <time>2016-05-26T13:20:17Z</time>
      </trkpt>
      <trkpt lat="43.11653" lon="5.76307">
        <ele>-1.3</ele>
        <time>2016-05-26T13:20:25Z</time>
      </trkpt>
      <trkpt lat="43.11672" lon="5.76328">
        <ele>-1.79</ele>
        <time>2016-05-26T13:20:37Z</time>
      </trkpt>
      <trkpt lat="43.11706" lon="5.76355">
        <ele>-1.3</ele>
        <time>2016-05-26T13:20:55Z</time>
      </trkpt>
      <trkpt lat="43.11751" lon="5.76392">
        <ele>-2.27</ele>
        <time>2016-05-26T13:21:14Z</time>
      </trkpt>
      <trkpt lat="43.11797" lon="5.76437">
        <ele>-3.23</ele>
        <time>2016-05-26T13:21:32Z</time>
      </trkpt>
      <trkpt lat="43.11843" lon="5.7648">
        <ele>-4.19</ele>
        <time>2016-05-26T13:21:48Z</time>
      </trkpt>
      <trkpt lat="43.11891" lon="5.76518">
        <ele>-3.23</ele>
        <time>2016-05-26T13:22:05Z</time>
      </trkpt>
      <trkpt lat="43.11913" lon="5.76548">
        <ele>-2.75</ele>
        <time>2016-05-26T13:22:17Z</time>
      </trkpt>
      <trkpt lat="43.11959" lon="5.76577">
        <ele>-2.75</ele>
        <time>2016-05-26T13:22:31Z</time>
      </trkpt>
      <trkpt lat="43.12014" lon="5.76603">
        <ele>-2.27</ele>
        <time>2016-05-26T13:22:47Z</time>
      </trkpt>
      <trkpt lat="43.12033" lon="5.76602">
        <ele>-2.75</ele>
        <time>2016-05-26T13:22:52Z</time>
      </trkpt>
      <trkpt lat="43.12073" lon="5.766">
        <ele>-2.75</ele>
        <time>2016-05-26T13:23:04Z</time>
      </trkpt>
      <trkpt lat="43.12118" lon="5.76589">
        <ele>-2.75</ele>
        <time>2016-05-26T13:23:18Z</time>
      </trkpt>
      <trkpt lat="43.12163" lon="5.76567">
        <ele>-3.23</ele>
        <time>2016-05-26T13:23:34Z</time>
      </trkpt>
      <trkpt lat="43.12221" lon="5.7655">
        <ele>-3.23</ele>
        <time>2016-05-26T13:23:54Z</time>
      </trkpt>
      <trkpt lat="43.12277" lon="5.76541">
        <ele>-2.75</ele>
        <time>2016-05-26T13:24:11Z</time>
      </trkpt>
      <trkpt lat="43.12337" lon="5.76537">
        <ele>-2.27</ele>
        <time>2016-05-26T13:24:29Z</time>
      </trkpt>
      <trkpt lat="43.12405" lon="5.76531">
        <ele>-2.75</ele>
        <time>2016-05-26T13:24:50Z</time>
      </trkpt>
      <trkpt lat="43.12472" lon="5.7652">
        <ele>-2.75</ele>
        <time>2016-05-26T13:25:11Z</time>
      </trkpt>
      <trkpt lat="43.1253" lon="5.76513">
        <ele>-2.75</ele>
        <time>2016-05-26T13:25:30Z</time>
      </trkpt>
      <trkpt lat="43.12586" lon="5.7651">
        <ele>-3.71</ele>
        <time>2016-05-26T13:25:49Z</time>
      </trkpt>
      <trkpt lat="43.12639" lon="5.76503">
        <ele>-2.75</ele>
        <time>2016-05-26T13:26:07Z</time>
      </trkpt>
      <trkpt lat="43.12697" lon="5.76491">
        <ele>-2.27</ele>
        <time>2016-05-26T13:26:27Z</time>
      </trkpt>
      <trkpt lat="43.12736" lon="5.76485">
        <ele>-2.75</ele>
        <time>2016-05-26T13:26:41Z</time>
      </trkpt>
      <trkpt lat="43.12783" lon="5.76476">
        <ele>-2.27</ele>
        <time>2016-05-26T13:26:58Z</time>
      </trkpt>
      <trkpt lat="43.12828" lon="5.76467">
        <ele>-2.27</ele>
        <time>2016-05-26T13:27:15Z</time>
      </trkpt>
      <trkpt lat="43.12872" lon="5.76465">
        <ele>-1.79</ele>
        <time>2016-05-26T13:27:30Z</time>
      </trkpt>
      <trkpt lat="43.1293" lon="5.76468">
        <ele>-2.75</ele>
        <time>2016-05-26T13:27:48Z</time>
      </trkpt>
      <trkpt lat="43.12997" lon="5.7647">
        <ele>-2.75</ele>
        <time>2016-05-26T13:28:07Z</time>
      </trkpt>
      <trkpt lat="43.13057" lon="5.76468">
        <ele>-2.27</ele>
        <time>2016-05-26T13:28:25Z</time>
      </trkpt>
      <trkpt lat="43.13116" lon="5.7646">
        <ele>-2.75</ele>
        <time>2016-05-26T13:28:45Z</time>
      </trkpt>
      <trkpt lat="43.1316" lon="5.76449">
        <ele>-2.27</ele>
        <time>2016-05-26T13:29:01Z</time>
      </trkpt>
      <trkpt lat="43.13208" lon="5.76432">
        <ele>-1.79</ele>
        <time>2016-05-26T13:29:20Z</time>
      </trkpt>
      <trkpt lat="43.13235" lon="5.76405">
        <ele>-1.79</ele>
        <time>2016-05-26T13:29:35Z</time>
      </trkpt>
      <trkpt lat="43.13235" lon="5.76403">
        <ele>-1.79</ele>
        <time>2016-05-26T13:29:36Z</time>
      </trkpt>
      <trkpt lat="43.13231" lon="5.76396">
        <ele>-1.79</ele>
        <time>2016-05-26T13:29:40Z</time>
      </trkpt>
      <trkpt lat="43.13208" lon="5.76373">
        <ele>-1.79</ele>
        <time>2016-05-26T13:30:01Z</time>
      </trkpt>
      <trkpt lat="43.13171" lon="5.76348">
        <ele>-1.79</ele>
        <time>2016-05-26T13:30:21Z</time>
      </trkpt>
      <trkpt lat="43.1313" lon="5.76322">
        <ele>-2.27</ele>
        <time>2016-05-26T13:30:39Z</time>
      </trkpt>
      <trkpt lat="43.13082" lon="5.76293">
        <ele>-3.23</ele>
        <time>2016-05-26T13:30:57Z</time>
      </trkpt>
      <trkpt lat="43.13042" lon="5.76276">
        <ele>-3.71</ele>
        <time>2016-05-26T13:31:11Z</time>
      </trkpt>
      <trkpt lat="43.12991" lon="5.76255">
        <ele>-3.71</ele>
        <time>2016-05-26T13:31:28Z</time>
      </trkpt>
      <trkpt lat="43.12939" lon="5.76236">
        <ele>-2.75</ele>
        <time>2016-05-26T13:31:47Z</time>
      </trkpt>
      <trkpt lat="43.12897" lon="5.76224">
        <ele>-2.75</ele>
        <time>2016-05-26T13:32:02Z</time>
      </trkpt>
      <trkpt lat="43.12842" lon="5.7621">
        <ele>-2.27</ele>
        <time>2016-05-26T13:32:21Z</time>
      </trkpt>
      <trkpt lat="43.12801" lon="5.76201">
        <ele>-1.79</ele>
        <time>2016-05-26T13:32:36Z</time>
      </trkpt>
      <trkpt lat="43.12749" lon="5.76191">
        <ele>-1.79</ele>
        <time>2016-05-26T13:32:55Z</time>
      </trkpt>
      <trkpt lat="43.12703" lon="5.76183">
        <ele>-1.3</ele>
        <time>2016-05-26T13:33:11Z</time>
      </trkpt>
      <trkpt lat="43.12655" lon="5.76177">
        <ele>-0.82</ele>
        <time>2016-05-26T13:33:27Z</time>
      </trkpt>
      <trkpt lat="43.12601" lon="5.76171">
        <ele>-1.3</ele>
        <time>2016-05-26T13:33:45Z</time>
      </trkpt>
      <trkpt lat="43.12549" lon="5.76169">
        <ele>-0.34</ele>
        <time>2016-05-26T13:34:02Z</time>
      </trkpt>
      <trkpt lat="43.12499" lon="5.76169">
        <ele>0.62</ele>
        <time>2016-05-26T13:34:19Z</time>
      </trkpt>
      <trkpt lat="43.1246" lon="5.7617">
        <ele>-0.82</ele>
        <time>2016-05-26T13:34:33Z</time>
      </trkpt>
      <trkpt lat="43.12414" lon="5.7617">
        <ele>-0.82</ele>
        <time>2016-05-26T13:34:49Z</time>
      </trkpt>
      <trkpt lat="43.12361" lon="5.76168">
        <ele>-1.3</ele>
        <time>2016-05-26T13:35:07Z</time>
      </trkpt>
      <trkpt lat="43.12309" lon="5.7617">
        <ele>0.14</ele>
        <time>2016-05-26T13:35:24Z</time>
      </trkpt>
      <trkpt lat="43.12253" lon="5.76171">
        <ele>-0.34</ele>
        <time>2016-05-26T13:35:42Z</time>
      </trkpt>
      <trkpt lat="43.12196" lon="5.76173">
        <ele>-0.82</ele>
        <time>2016-05-26T13:36:00Z</time>
      </trkpt>
      <trkpt lat="43.12151" lon="5.76178">
        <ele>-0.34</ele>
        <time>2016-05-26T13:36:14Z</time>
      </trkpt>
      <trkpt lat="43.12103" lon="5.76181">
        <ele>-0.82</ele>
        <time>2016-05-26T13:36:30Z</time>
      </trkpt>
      <trkpt lat="43.12059" lon="5.76186">
        <ele>-1.3</ele>
        <time>2016-05-26T13:36:45Z</time>
      </trkpt>
      <trkpt lat="43.12015" lon="5.76192">
        <ele>-0.82</ele>
        <time>2016-05-26T13:37:00Z</time>
      </trkpt>
      <trkpt lat="43.11964" lon="5.76197">
        <ele>-1.79</ele>
        <time>2016-05-26T13:37:16Z</time>
      </trkpt>
      <trkpt lat="43.11919" lon="5.76203">
        <ele>-1.3</ele>
        <time>2016-05-26T13:37:30Z</time>
      </trkpt>
      <trkpt lat="43.11867" lon="5.76207">
        <ele>-2.27</ele>
        <time>2016-05-26T13:37:46Z</time>
      </trkpt>
      <trkpt lat="43.11814" lon="5.76209">
        <ele>-1.79</ele>
        <time>2016-05-26T13:38:03Z</time>
      </trkpt>
      <trkpt lat="43.11767" lon="5.76215">
        <ele>-0.82</ele>
        <time>2016-05-26T13:38:19Z</time>
      </trkpt>
      <trkpt lat="43.11719" lon="5.76224">
        <ele>-1.3</ele>
        <time>2016-05-26T13:38:35Z</time>
      </trkpt>
      <trkpt lat="43.11679" lon="5.76235">
        <ele>-0.82</ele>
        <time>2016-05-26T13:38:49Z</time>
      </trkpt>
      <trkpt lat="43.11635" lon="5.76245">
        <ele>-1.3</ele>
        <time>2016-05-26T13:39:04Z</time>
      </trkpt>
      <trkpt lat="43.11604" lon="5.76255">
        <ele>-1.3</ele>
        <time>2016-05-26T13:39:15Z</time>
      </trkpt>
      <trkpt lat="43.11605" lon="5.76266">
        <ele>-1.79</ele>
        <time>2016-05-26T13:39:19Z</time>
      </trkpt>
      <trkpt lat="43.11639" lon="5.76311">
        <ele>-2.27</ele>
        <time>2016-05-26T13:39:38Z</time>
      </trkpt>
      <trkpt lat="43.11697" lon="5.76359">
        <ele>-2.27</ele>
        <time>2016-05-26T13:39:59Z</time>
      </trkpt>
      <trkpt lat="43.11763" lon="5.76416">
        <ele>-1.79</ele>
        <time>2016-05-26T13:40:22Z</time>
      </trkpt>
      <trkpt lat="43.11826" lon="5.76467">
        <ele>-3.23</ele>
        <time>2016-05-26T13:40:43Z</time>
      </trkpt>
      <trkpt lat="43.11888" lon="5.76522">
        <ele>-1.3</ele>
        <time>2016-05-26T13:41:04Z</time>
      </trkpt>
      <trkpt lat="43.11945" lon="5.76551">
        <ele>-0.82</ele>
        <time>2016-05-26T13:41:22Z</time>
      </trkpt>
      <trkpt lat="43.11994" lon="5.76546">
        <ele>-0.34</ele>
        <time>2016-05-26T13:41:40Z</time>
      </trkpt>
      <trkpt lat="43.12042" lon="5.76535">
        <ele>-0.34</ele>
        <time>2016-05-26T13:41:58Z</time>
      </trkpt>
      <trkpt lat="43.1209" lon="5.76525">
        <ele>0.14</ele>
        <time>2016-05-26T13:42:15Z</time>
      </trkpt>
      <trkpt lat="43.12146" lon="5.76517">
        <ele>-0.82</ele>
        <time>2016-05-26T13:42:34Z</time>
      </trkpt>
      <trkpt lat="43.12198" lon="5.76509">
        <ele>-1.79</ele>
        <time>2016-05-26T13:42:51Z</time>
      </trkpt>
      <trkpt lat="43.12244" lon="5.76503">
        <ele>-1.79</ele>
        <time>2016-05-26T13:43:07Z</time>
      </trkpt>
      <trkpt lat="43.12308" lon="5.76497">
        <ele>-1.3</ele>
        <time>2016-05-26T13:43:29Z</time>
      </trkpt>
      <trkpt lat="43.1237" lon="5.76491">
        <ele>-2.27</ele>
        <time>2016-05-26T13:43:49Z</time>
      </trkpt>
      <trkpt lat="43.12423" lon="5.76488">
        <ele>-1.3</ele>
        <time>2016-05-26T13:44:06Z</time>
      </trkpt>
      <trkpt lat="43.12492" lon="5.76484">
        <ele>-2.27</ele>
        <time>2016-05-26T13:44:27Z</time>
      </trkpt>
      <trkpt lat="43.12541" lon="5.76481">
        <ele>-1.79</ele>
        <time>2016-05-26T13:44:43Z</time>
      </trkpt>
      <trkpt lat="43.12596" lon="5.7648">
        <ele>-0.82</ele>
        <time>2016-05-26T13:45:01Z</time>
      </trkpt>
      <trkpt lat="43.12648" lon="5.76478">
        <ele>-0.82</ele>
        <time>2016-05-26T13:45:19Z</time>
      </trkpt>
      <trkpt lat="43.12697" lon="5.76476">
        <ele>-1.3</ele>
        <time>2016-05-26T13:45:36Z</time>
      </trkpt>
      <trkpt lat="43.12752" lon="5.76473">
        <ele>-0.82</ele>
        <time>2016-05-26T13:45:55Z</time>
      </trkpt>
      <trkpt lat="43.12799" lon="5.7647">
        <ele>-0.82</ele>
        <time>2016-05-26T13:46:12Z</time>
      </trkpt>
      <trkpt lat="43.12843" lon="5.76464">
        <ele>-1.3</ele>
        <time>2016-05-26T13:46:28Z</time>
      </trkpt>
      <trkpt lat="43.12879" lon="5.7646">
        <ele>-0.82</ele>
        <time>2016-05-26T13:46:43Z</time>
      </trkpt>
      <trkpt lat="43.12919" lon="5.76454">
        <ele>-1.3</ele>
        <time>2016-05-26T13:47:00Z</time>
      </trkpt>
      <trkpt lat="43.12958" lon="5.7645">
        <ele>-1.3</ele>
        <time>2016-05-26T13:47:17Z</time>
      </trkpt>
      <trkpt lat="43.12994" lon="5.76447">
        <ele>-1.3</ele>
        <time>2016-05-26T13:47:32Z</time>
      </trkpt>
      <trkpt lat="43.1303" lon="5.76444">
        <ele>-0.82</ele>
        <time>2016-05-26T13:47:47Z</time>
      </trkpt>
      <trkpt lat="43.13064" lon="5.76441">
        <ele>-0.34</ele>
        <time>2016-05-26T13:48:03Z</time>
      </trkpt>
      <trkpt lat="43.13097" lon="5.76436">
        <ele>-0.34</ele>
        <time>2016-05-26T13:48:18Z</time>
      </trkpt>
      <trkpt lat="43.13148" lon="5.76432">
        <ele>-0.34</ele>
        <time>2016-05-26T13:48:40Z</time>
      </trkpt>
      <trkpt lat="43.13194" lon="5.76425">
        <ele>-0.34</ele>
        <time>2016-05-26T13:48:59Z</time>
      </trkpt>
      <trkpt lat="43.13234" lon="5.76414">
        <ele>-0.82</ele>
        <time>2016-05-26T13:49:14Z</time>
      </trkpt>
      <trkpt lat="43.13235" lon="5.76391">
        <ele>-0.82</ele>
        <time>2016-05-26T13:49:22Z</time>
      </trkpt>
      <trkpt lat="43.13209" lon="5.76367">
        <ele>-1.79</ele>
        <time>2016-05-26T13:49:38Z</time>
      </trkpt>
      <trkpt lat="43.13175" lon="5.7634">
        <ele>-1.3</ele>
        <time>2016-05-26T13:49:56Z</time>
      </trkpt>
      <trkpt lat="43.13142" lon="5.7632">
        <ele>-1.3</ele>
        <time>2016-05-26T13:50:13Z</time>
      </trkpt>
      <trkpt lat="43.13105" lon="5.76304">
        <ele>-1.79</ele>
        <time>2016-05-26T13:50:28Z</time>
      </trkpt>
      <trkpt lat="43.13072" lon="5.76286">
        <ele>-1.3</ele>
        <time>2016-05-26T13:50:44Z</time>
      </trkpt>
      <trkpt lat="43.13027" lon="5.76268">
        <ele>-2.27</ele>
        <time>2016-05-26T13:51:02Z</time>
      </trkpt>
      <trkpt lat="43.12975" lon="5.76247">
        <ele>-2.27</ele>
        <time>2016-05-26T13:51:22Z</time>
      </trkpt>
      <trkpt lat="43.1293" lon="5.76229">
        <ele>-1.79</ele>
        <time>2016-05-26T13:51:41Z</time>
      </trkpt>
      <trkpt lat="43.1289" lon="5.76214">
        <ele>-2.27</ele>
        <time>2016-05-26T13:51:58Z</time>
      </trkpt>
      <trkpt lat="43.12847" lon="5.76198">
        <ele>-2.27</ele>
        <time>2016-05-26T13:52:14Z</time>
      </trkpt>
      <trkpt lat="43.12803" lon="5.76188">
        <ele>-1.79</ele>
        <time>2016-05-26T13:52:31Z</time>
      </trkpt>
      <trkpt lat="43.12761" lon="5.76179">
        <ele>-1.3</ele>
        <time>2016-05-26T13:52:48Z</time>
      </trkpt>
      <trkpt lat="43.12716" lon="5.76171">
        <ele>-1.3</ele>
        <time>2016-05-26T13:53:06Z</time>
      </trkpt>
      <trkpt lat="43.12668" lon="5.76164">
        <ele>-1.79</ele>
        <time>2016-05-26T13:53:24Z</time>
      </trkpt>
      <trkpt lat="43.12625" lon="5.76154">
        <ele>-2.75</ele>
        <time>2016-05-26T13:53:39Z</time>
      </trkpt>
      <trkpt lat="43.12572" lon="5.76146">
        <ele>-2.27</ele>
        <time>2016-05-26T13:53:56Z</time>
      </trkpt>
      <trkpt lat="43.12526" lon="5.76139">
        <ele>-1.79</ele>
        <time>2016-05-26T13:54:11Z</time>
      </trkpt>
      <trkpt lat="43.12476" lon="5.76134">
        <ele>-2.27</ele>
        <time>2016-05-26T13:54:28Z</time>
      </trkpt>
      <trkpt lat="43.12423" lon="5.76125">
        <ele>-1.79</ele>
        <time>2016-05-26T13:54:46Z</time>
      </trkpt>
      <trkpt lat="43.12375" lon="5.76117">
        <ele>-1.79</ele>
        <time>2016-05-26T13:55:02Z</time>
      </trkpt>
      <trkpt lat="43.12322" lon="5.76113">
        <ele>-1.3</ele>
        <time>2016-05-26T13:55:19Z</time>
      </trkpt>
      <trkpt lat="43.12269" lon="5.76113">
        <ele>-1.3</ele>
        <time>2016-05-26T13:55:36Z</time>
      </trkpt>
      <trkpt lat="43.12202" lon="5.76103">
        <ele>-1.3</ele>
        <time>2016-05-26T13:55:56Z</time>
      </trkpt>
      <trkpt lat="43.12162" lon="5.76103">
        <ele>-0.82</ele>
        <time>2016-05-26T13:56:09Z</time>
      </trkpt>
      <trkpt lat="43.12117" lon="5.76111">
        <ele>-1.79</ele>
        <time>2016-05-26T13:56:24Z</time>
      </trkpt>
      <trkpt lat="43.12073" lon="5.76121">
        <ele>-1.79</ele>
        <time>2016-05-26T13:56:39Z</time>
      </trkpt>
      <trkpt lat="43.12027" lon="5.76129">
        <ele>-1.3</ele>
        <time>2016-05-26T13:56:55Z</time>
      </trkpt>
      <trkpt lat="43.11983" lon="5.76134">
        <ele>-1.3</ele>
        <time>2016-05-26T13:57:10Z</time>
      </trkpt>
      <trkpt lat="43.11935" lon="5.76146">
        <ele>-0.34</ele>
        <time>2016-05-26T13:57:27Z</time>
      </trkpt>
      <trkpt lat="43.11893" lon="5.76158">
        <ele>-0.82</ele>
        <time>2016-05-26T13:57:42Z</time>
      </trkpt>
      <trkpt lat="43.11852" lon="5.7617">
        <ele>-0.82</ele>
        <time>2016-05-26T13:57:58Z</time>
      </trkpt>
      <trkpt lat="43.11805" lon="5.7618">
        <ele>-1.79</ele>
        <time>2016-05-26T13:58:15Z</time>
      </trkpt>
      <trkpt lat="43.11767" lon="5.76189">
        <ele>-1.79</ele>
        <time>2016-05-26T13:58:29Z</time>
      </trkpt>
      <trkpt lat="43.11727" lon="5.76197">
        <ele>-1.79</ele>
        <time>2016-05-26T13:58:43Z</time>
      </trkpt>
      <trkpt lat="43.11688" lon="5.76207">
        <ele>-1.3</ele>
        <time>2016-05-26T13:58:57Z</time>
      </trkpt>
      <trkpt lat="43.11645" lon="5.76212">
        <ele>-1.3</ele>
        <time>2016-05-26T13:59:12Z</time>
      </trkpt>
      <trkpt lat="43.11589" lon="5.76216">
        <ele>-0.82</ele>
        <time>2016-05-26T13:59:30Z</time>
      </trkpt>
      <trkpt lat="43.11557" lon="5.76219">
        <ele>-0.82</ele>
        <time>2016-05-26T13:59:40Z</time>
      </trkpt>
      <trkpt lat="43.11557" lon="5.7624">
        <ele>0.14</ele>
        <time>2016-05-26T13:59:47Z</time>
      </trkpt>
      <trkpt lat="43.11592" lon="5.76284">
        <ele>-0.82</ele>
        <time>2016-05-26T14:00:04Z</time>
      </trkpt>
      <trkpt lat="43.11649" lon="5.76334">
        <ele>0.14</ele>
        <time>2016-05-26T14:00:23Z</time>
      </trkpt>
      <trkpt lat="43.11708" lon="5.76384">
        <ele>0.62</ele>
        <time>2016-05-26T14:00:42Z</time>
      </trkpt>
      <trkpt lat="43.11761" lon="5.76426">
        <ele>0.14</ele>
        <time>2016-05-26T14:00:59Z</time>
      </trkpt>
      <trkpt lat="43.1182" lon="5.76472">
        <ele>0.62</ele>
        <time>2016-05-26T14:01:18Z</time>
      </trkpt>
      <trkpt lat="43.11875" lon="5.76515">
        <ele>0.62</ele>
        <time>2016-05-26T14:01:36Z</time>
      </trkpt>
      <trkpt lat="43.11926" lon="5.76543">
        <ele>0.62</ele>
        <time>2016-05-26T14:01:53Z</time>
      </trkpt>
      <trkpt lat="43.11975" lon="5.76531">
        <ele>-0.34</ele>
        <time>2016-05-26T14:02:11Z</time>
      </trkpt>
      <trkpt lat="43.12025" lon="5.7651">
        <ele>0.14</ele>
        <time>2016-05-26T14:02:29Z</time>
      </trkpt>
      <trkpt lat="43.12072" lon="5.76499">
        <ele>-0.82</ele>
        <time>2016-05-26T14:02:46Z</time>
      </trkpt>
      <trkpt lat="43.12112" lon="5.76489">
        <ele>-0.82</ele>
        <time>2016-05-26T14:03:02Z</time>
      </trkpt>
      <trkpt lat="43.12149" lon="5.76482">
        <ele>-1.79</ele>
        <time>2016-05-26T14:03:16Z</time>
      </trkpt>
      <trkpt lat="43.12197" lon="5.76472">
        <ele>-0.82</ele>
        <time>2016-05-26T14:03:33Z</time>
      </trkpt>
      <trkpt lat="43.12242" lon="5.7646">
        <ele>-0.82</ele>
        <time>2016-05-26T14:03:49Z</time>
      </trkpt>
      <trkpt lat="43.12287" lon="5.76444">
        <ele>-0.82</ele>
        <time>2016-05-26T14:04:06Z</time>
      </trkpt>
      <trkpt lat="43.12324" lon="5.76431">
        <ele>-0.82</ele>
        <time>2016-05-26T14:04:20Z</time>
      </trkpt>
      <trkpt lat="43.12361" lon="5.76419">
        <ele>-0.82</ele>
        <time>2016-05-26T14:04:35Z</time>
      </trkpt>
      <trkpt lat="43.12406" lon="5.76411">
        <ele>-0.82</ele>
        <time>2016-05-26T14:04:53Z</time>
      </trkpt>
      <trkpt lat="43.12457" lon="5.76409">
        <ele>-1.79</ele>
        <time>2016-05-26T14:05:12Z</time>
      </trkpt>
      <trkpt lat="43.12516" lon="5.76416">
        <ele>-0.82</ele>
        <time>2016-05-26T14:05:33Z</time>
      </trkpt>
      <trkpt lat="43.12562" lon="5.76418">
        <ele>-0.82</ele>
        <time>2016-05-26T14:05:50Z</time>
      </trkpt>
      <trkpt lat="43.12604" lon="5.76419">
        <ele>-0.34</ele>
        <time>2016-05-26T14:06:05Z</time>
      </trkpt>
      <trkpt lat="43.12652" lon="5.7642">
        <ele>-1.3</ele>
        <time>2016-05-26T14:06:22Z</time>
      </trkpt>
      <trkpt lat="43.12701" lon="5.76419">
        <ele>-1.3</ele>
        <time>2016-05-26T14:06:40Z</time>
      </trkpt>
      <trkpt lat="43.12743" lon="5.76418">
        <ele>-0.34</ele>
        <time>2016-05-26T14:06:59Z</time>
      </trkpt>
      <trkpt lat="43.12783" lon="5.76417">
        <ele>-2.27</ele>
        <time>2016-05-26T14:07:17Z</time>
      </trkpt>
      <trkpt lat="43.12826" lon="5.76417">
        <ele>-1.79</ele>
        <time>2016-05-26T14:07:33Z</time>
      </trkpt>
      <trkpt lat="43.12873" lon="5.76417">
        <ele>-1.3</ele>
        <time>2016-05-26T14:07:52Z</time>
      </trkpt>
      <trkpt lat="43.1291" lon="5.76415">
        <ele>-1.79</ele>
        <time>2016-05-26T14:08:07Z</time>
      </trkpt>
      <trkpt lat="43.12959" lon="5.76416">
        <ele>-1.79</ele>
        <time>2016-05-26T14:08:26Z</time>
      </trkpt>
      <trkpt lat="43.12995" lon="5.76415">
        <ele>-1.3</ele>
        <time>2016-05-26T14:08:39Z</time>
      </trkpt>
      <trkpt lat="43.13036" lon="5.76415">
        <ele>-1.79</ele>
        <time>2016-05-26T14:08:53Z</time>
      </trkpt>
      <trkpt lat="43.13082" lon="5.76418">
        <ele>-1.3</ele>
        <time>2016-05-26T14:09:08Z</time>
      </trkpt>
      <trkpt lat="43.13128" lon="5.76417">
        <ele>-1.79</ele>
        <time>2016-05-26T14:09:24Z</time>
      </trkpt>
      <trkpt lat="43.13177" lon="5.76415">
        <ele>-1.79</ele>
        <time>2016-05-26T14:09:42Z</time>
      </trkpt>
      <trkpt lat="43.13228" lon="5.76417">
        <ele>-1.3</ele>
        <time>2016-05-26T14:10:02Z</time>
      </trkpt>
      <trkpt lat="43.13234" lon="5.76409">
        <ele>-1.3</ele>
        <time>2016-05-26T14:10:05Z</time>
      </trkpt>
      <trkpt lat="43.13229" lon="5.76367">
        <ele>-0.82</ele>
        <time>2016-05-26T14:10:20Z</time>
      </trkpt>
      <trkpt lat="43.13218" lon="5.76314">
        <ele>-0.34</ele>
        <time>2016-05-26T14:10:36Z</time>
      </trkpt>
      <trkpt lat="43.13205" lon="5.76259">
        <ele>-0.34</ele>
        <time>2016-05-26T14:10:54Z</time>
      </trkpt>
      <trkpt lat="43.13195" lon="5.76213">
        <ele>-0.34</ele>
        <time>2016-05-26T14:11:09Z</time>
      </trkpt>
      <trkpt lat="43.13183" lon="5.76159">
        <ele>-0.34</ele>
        <time>2016-05-26T14:11:26Z</time>
      </trkpt>
      <trkpt lat="43.13176" lon="5.76113">
        <ele>0.14</ele>
        <time>2016-05-26T14:11:40Z</time>
      </trkpt>
      <trkpt lat="43.1317" lon="5.7606">
        <ele>0.14</ele>
        <time>2016-05-26T14:11:56Z</time>
      </trkpt>
      <trkpt lat="43.13163" lon="5.76001">
        <ele>-0.34</ele>
        <time>2016-05-26T14:12:14Z</time>
      </trkpt>
      <trkpt lat="43.1316" lon="5.75951">
        <ele>0.14</ele>
        <time>2016-05-26T14:12:30Z</time>
      </trkpt>
      <trkpt lat="43.13165" lon="5.75902">
        <ele>0.62</ele>
        <time>2016-05-26T14:12:47Z</time>
      </trkpt>
      <trkpt lat="43.13177" lon="5.75858">
        <ele>0.14</ele>
        <time>2016-05-26T14:13:06Z</time>
      </trkpt>
      <trkpt lat="43.13185" lon="5.75818">
        <ele>0.14</ele>
        <time>2016-05-26T14:13:25Z</time>
      </trkpt>
      <trkpt lat="43.13174" lon="5.75778">
        <ele>-0.82</ele>
        <time>2016-05-26T14:13:43Z</time>
      </trkpt>
      <trkpt lat="43.13156" lon="5.75743">
        <ele>-1.3</ele>
        <time>2016-05-26T14:14:02Z</time>
      </trkpt>
      <trkpt lat="43.13144" lon="5.75704">
        <ele>-0.82</ele>
        <time>2016-05-26T14:14:20Z</time>
      </trkpt>
      <trkpt lat="43.13126" lon="5.75677">
        <ele>-1.3</ele>
        <time>2016-05-26T14:14:37Z</time>
      </trkpt>
      <trkpt lat="43.13114" lon="5.75697">
        <ele>-0.34</ele>
        <time>2016-05-26T14:14:53Z</time>
      </trkpt>
      <trkpt lat="43.13132" lon="5.75723">
        <ele>-0.82</ele>
        <time>2016-05-26T14:15:11Z</time>
      </trkpt>
      <trkpt lat="43.13155" lon="5.75748">
        <ele>-0.82</ele>
        <time>2016-05-26T14:15:29Z</time>
      </trkpt>
      <trkpt lat="43.13176" lon="5.75781">
        <ele>-1.3</ele>
        <time>2016-05-26T14:15:49Z</time>
      </trkpt>
      <trkpt lat="43.13193" lon="5.75817">
        <ele>-0.82</ele>
        <time>2016-05-26T14:16:08Z</time>
      </trkpt>
      <trkpt lat="43.13211" lon="5.75853">
        <ele>-0.82</ele>
        <time>2016-05-26T14:16:27Z</time>
      </trkpt>
      <trkpt lat="43.13233" lon="5.75879">
        <ele>-1.79</ele>
        <time>2016-05-26T14:16:45Z</time>
      </trkpt>
      <trkpt lat="43.13253" lon="5.75907">
        <ele>-1.79</ele>
        <time>2016-05-26T14:17:03Z</time>
      </trkpt>
      <trkpt lat="43.13269" lon="5.75937">
        <ele>-1.79</ele>
        <time>2016-05-26T14:17:20Z</time>
      </trkpt>
      <trkpt lat="43.13279" lon="5.75973">
        <ele>-1.79</ele>
        <time>2016-05-26T14:17:38Z</time>
      </trkpt>
      <trkpt lat="43.13285" lon="5.76015">
        <ele>-1.3</ele>
        <time>2016-05-26T14:17:57Z</time>
      </trkpt>
      <trkpt lat="43.13286" lon="5.7605">
        <ele>-0.82</ele>
        <time>2016-05-26T14:18:12Z</time>
      </trkpt>
      <trkpt lat="43.13284" lon="5.76093">
        <ele>-0.34</ele>
        <time>2016-05-26T14:18:30Z</time>
      </trkpt>
      <trkpt lat="43.13285" lon="5.76141">
        <ele>0.14</ele>
        <time>2016-05-26T14:18:50Z</time>
      </trkpt>
      <trkpt lat="43.13286" lon="5.76183">
        <ele>0.62</ele>
        <time>2016-05-26T14:19:08Z</time>
      </trkpt>
      <trkpt lat="43.13287" lon="5.76222">
        <ele>0.14</ele>
        <time>2016-05-26T14:19:26Z</time>
      </trkpt>
      <trkpt lat="43.13283" lon="5.76264">
        <ele>0.14</ele>
        <time>2016-05-26T14:19:47Z</time>
      </trkpt>
      <trkpt lat="43.13275" lon="5.76292">
        <ele>-0.34</ele>
        <time>2016-05-26T14:20:03Z</time>
      </trkpt>
      <trkpt lat="43.13267" lon="5.76326">
        <ele>0.14</ele>
        <time>2016-05-26T14:20:21Z</time>
      </trkpt>
      <trkpt lat="43.13282" lon="5.76344">
        <ele>-0.34</ele>
        <time>2016-05-26T14:20:34Z</time>
      </trkpt>
      <trkpt lat="43.13316" lon="5.76338">
        <ele>-0.82</ele>
        <time>2016-05-26T14:20:57Z</time>
      </trkpt>
      <trkpt lat="43.13333" lon="5.76311">
        <ele>-0.82</ele>
        <time>2016-05-26T14:21:15Z</time>
      </trkpt>
      <trkpt lat="43.13341" lon="5.76269">
        <ele>0.62</ele>
        <time>2016-05-26T14:21:36Z</time>
      </trkpt>
      <trkpt lat="43.13347" lon="5.76233">
        <ele>-0.34</ele>
        <time>2016-05-26T14:21:54Z</time>
      </trkpt>
      <trkpt lat="43.13343" lon="5.76193">
        <ele>-1.3</ele>
        <time>2016-05-26T14:22:15Z</time>
      </trkpt>
      <trkpt lat="43.13337" lon="5.76153">
        <ele>-0.34</ele>
        <time>2016-05-26T14:22:35Z</time>
      </trkpt>
      <trkpt lat="43.1334" lon="5.76106">
        <ele>-0.82</ele>
        <time>2016-05-26T14:22:57Z</time>
      </trkpt>
      <trkpt lat="43.13348" lon="5.76064">
        <ele>-0.82</ele>
        <time>2016-05-26T14:23:17Z</time>
      </trkpt>
      <trkpt lat="43.13354" lon="5.76023">
        <ele>-1.3</ele>
        <time>2016-05-26T14:23:36Z</time>
      </trkpt>
      <trkpt lat="43.1336" lon="5.75986">
        <ele>-1.79</ele>
        <time>2016-05-26T14:23:53Z</time>
      </trkpt>
      <trkpt lat="43.13366" lon="5.75944">
        <ele>-1.79</ele>
        <time>2016-05-26T14:24:11Z</time>
      </trkpt>
      <trkpt lat="43.13355" lon="5.75924">
        <ele>-1.3</ele>
        <time>2016-05-26T14:24:23Z</time>
      </trkpt>
      <trkpt lat="43.13336" lon="5.75931">
        <ele>-1.79</ele>
        <time>2016-05-26T14:24:41Z</time>
      </trkpt>
      <trkpt lat="43.13318" lon="5.75938">
        <ele>-1.3</ele>
        <time>2016-05-26T14:24:58Z</time>
      </trkpt>
      <trkpt lat="43.13297" lon="5.75946">
        <ele>0.14</ele>
        <time>2016-05-26T14:25:19Z</time>
      </trkpt>
      <trkpt lat="43.13283" lon="5.75952">
        <ele>-0.34</ele>
        <time>2016-05-26T14:25:34Z</time>
      </trkpt>
      <trkpt lat="43.13264" lon="5.75956">
        <ele>-0.34</ele>
        <time>2016-05-26T14:25:56Z</time>
      </trkpt>
      <trkpt lat="43.13246" lon="5.75956">
        <ele>-0.82</ele>
        <time>2016-05-26T14:26:18Z</time>
      </trkpt>
      <trkpt lat="43.13243" lon="5.75953">
        <ele>-0.82</ele>
        <time>2016-05-26T14:26:22Z</time>
      </trkpt>
      <trkpt lat="43.1324" lon="5.75941">
        <ele>-0.34</ele>
        <time>2016-05-26T14:26:33Z</time>
      </trkpt>
      <trkpt lat="43.13242" lon="5.75936">
        <ele>-0.34</ele>
        <time>2016-05-26T14:26:37Z</time>
      </trkpt>
      <trkpt lat="43.13245" lon="5.75932">
        <ele>-0.82</ele>
        <time>2016-05-26T14:26:41Z</time>
      </trkpt>
      <trkpt lat="43.13252" lon="5.75932">
        <ele>-0.82</ele>
        <time>2016-05-26T14:26:48Z</time>
      </trkpt>
      <trkpt lat="43.13256" lon="5.7595">
        <ele>-2.27</ele>
        <time>2016-05-26T14:27:05Z</time>
      </trkpt>
      <trkpt lat="43.13252" lon="5.75954">
        <ele>-1.79</ele>
        <time>2016-05-26T14:27:10Z</time>
      </trkpt>
      <trkpt lat="43.13245" lon="5.75953">
        <ele>-1.3</ele>
        <time>2016-05-26T14:27:15Z</time>
      </trkpt>
      <trkpt lat="43.13213" lon="5.75935">
        <ele>-1.3</ele>
        <time>2016-05-26T14:27:33Z</time>
      </trkpt>
      <trkpt lat="43.13167" lon="5.75928">
        <ele>-1.3</ele>
        <time>2016-05-26T14:27:52Z</time>
      </trkpt>
      <trkpt lat="43.13134" lon="5.75922">
        <ele>-1.79</ele>
        <time>2016-05-26T14:28:09Z</time>
      </trkpt>
      <trkpt lat="43.13134" lon="5.75903">
        <ele>-0.82</ele>
        <time>2016-05-26T14:28:22Z</time>
      </trkpt>
      <trkpt lat="43.13154" lon="5.759">
        <ele>-1.79</ele>
        <time>2016-05-26T14:28:39Z</time>
      </trkpt>
      <trkpt lat="43.13181" lon="5.75907">
        <ele>-3.23</ele>
        <time>2016-05-26T14:28:58Z</time>
      </trkpt>
      <trkpt lat="43.13213" lon="5.75906">
        <ele>-2.75</ele>
        <time>2016-05-26T14:29:19Z</time>
      </trkpt>
      <trkpt lat="43.13245" lon="5.75888">
        <ele>-1.3</ele>
        <time>2016-05-26T14:29:36Z</time>
      </trkpt>
      <trkpt lat="43.13271" lon="5.75858">
        <ele>-0.82</ele>
        <time>2016-05-26T14:29:52Z</time>
      </trkpt>
      <trkpt lat="43.13301" lon="5.75828">
        <ele>-1.3</ele>
        <time>2016-05-26T14:30:09Z</time>
      </trkpt>
      <trkpt lat="43.13335" lon="5.75788">
        <ele>-1.79</ele>
        <time>2016-05-26T14:30:29Z</time>
      </trkpt>
      <trkpt lat="43.13343" lon="5.7575">
        <ele>-1.3</ele>
        <time>2016-05-26T14:30:46Z</time>
      </trkpt>
      <trkpt lat="43.13335" lon="5.75718">
        <ele>-1.79</ele>
        <time>2016-05-26T14:31:04Z</time>
      </trkpt>
      <trkpt lat="43.13327" lon="5.75682">
        <ele>-1.3</ele>
        <time>2016-05-26T14:31:26Z</time>
      </trkpt>
      <trkpt lat="43.13343" lon="5.75648">
        <ele>-0.34</ele>
        <time>2016-05-26T14:31:49Z</time>
      </trkpt>
      <trkpt lat="43.1337" lon="5.75606">
        <ele>0.14</ele>
        <time>2016-05-26T14:32:17Z</time>
      </trkpt>
      <trkpt lat="43.134" lon="5.75553">
        <ele>1.58</ele>
        <time>2016-05-26T14:32:52Z</time>
      </trkpt>
      <trkpt lat="43.13418" lon="5.75514">
        <ele>0.62</ele>
        <time>2016-05-26T14:33:22Z</time>
      </trkpt>
      <trkpt lat="43.13426" lon="5.75496">
        <ele>1.1</ele>
        <time>2016-05-26T14:33:50Z</time>
      </trkpt>
      <trkpt lat="43.13443" lon="5.75487">
        <ele>2.06</ele>
        <time>2016-05-26T14:34:13Z</time>
      </trkpt>
      <trkpt lat="43.13455" lon="5.75469">
        <ele>2.54</ele>
        <time>2016-05-26T14:34:36Z</time>
      </trkpt>
      <trkpt lat="43.13455" lon="5.7546">
        <ele>1.1</ele>
        <time>2016-05-26T14:34:54Z</time>
      </trkpt>
      <trkpt lat="43.13461" lon="5.75468">
        <ele>0.14</ele>
        <time>2016-05-26T14:35:16Z</time>
      </trkpt>
      <trkpt lat="43.13476" lon="5.75477">
        <ele>-0.34</ele>
        <time>2016-05-26T14:35:32Z</time>
      </trkpt>
      <trkpt lat="43.1349" lon="5.75493">
        <ele>0.62</ele>
        <time>2016-05-26T14:35:59Z</time>
      </trkpt>
      <trkpt lat="43.1349" lon="5.75499">
        <ele>1.58</ele>
        <time>2016-05-26T14:36:26Z</time>
      </trkpt>
      <trkpt lat="43.1349" lon="5.75502">
        <ele>0.14</ele>
        <time>2016-05-26T14:36:55Z</time>
      </trkpt>
      <trkpt lat="43.1349" lon="5.75503">
        <ele>0.62</ele>
        <time>2016-05-26T14:37:18Z</time>
      </trkpt>
      <trkpt lat="43.13491" lon="5.75506">
        <ele>1.1</ele>
        <time>2016-05-26T14:37:52Z</time>
      </trkpt>
      <trkpt lat="43.1349" lon="5.75506">
        <ele>0.62</ele>
        <time>2016-05-26T14:38:25Z</time>
      </trkpt>
      <trkpt lat="43.1349" lon="5.75507">
        <ele>1.1</ele>
        <time>2016-05-26T14:38:54Z</time>
      </trkpt>
      <trkpt lat="43.1349" lon="5.75508">
        <ele>1.1</ele>
        <time>2016-05-26T14:39:29Z</time>
      </trkpt>
      <trkpt lat="43.1349" lon="5.75509">
        <ele>0.14</ele>
        <time>2016-05-26T14:40:10Z</time>
      </trkpt>
      <trkpt lat="43.1349" lon="5.75509">
        <ele>0.14</ele>
        <time>2016-05-26T14:40:41Z</time>
      </trkpt>
      <trkpt lat="43.1349" lon="5.75509">
        <ele>0.14</ele>
        <time>2016-05-26T14:41:20Z</time>
      </trkpt>
      <trkpt lat="43.13489" lon="5.7551">
        <ele>0.14</ele>
        <time>2016-05-26T14:41:53Z</time>
      </trkpt>
      <trkpt lat="43.13489" lon="5.7551">
        <ele>-0.34</ele>
        <time>2016-05-26T14:42:29Z</time>
      </trkpt>
      <trkpt lat="43.1349" lon="5.75509">
        <ele>0.14</ele>
        <time>2016-05-26T14:43:03Z</time>
      </trkpt>
      <trkpt lat="43.1349" lon="5.75509">
        <ele>-0.34</ele>
        <time>2016-05-26T14:43:42Z</time>
      </trkpt>
      <trkpt lat="43.13489" lon="5.75509">
        <ele>-0.34</ele>
        <time>2016-05-26T14:44:20Z</time>
      </trkpt>
      <trkpt lat="43.1349" lon="5.75509">
        <ele>-0.34</ele>
        <time>2016-05-26T14:44:46Z</time>
      </trkpt>
      <trkpt lat="43.1349" lon="5.75509">
        <ele>-0.34</ele>
        <time>2016-05-26T14:45:24Z</time>
      </trkpt>
      <trkpt lat="43.1349" lon="5.75508">
        <ele>0.14</ele>
        <time>2016-05-26T14:45:59Z</time>
      </trkpt>
      <trkpt lat="43.13489" lon="5.75508">
        <ele>0.62</ele>
        <time>2016-05-26T14:46:30Z</time>
      </trkpt>
      <trkpt lat="43.13489" lon="5.75508">
        <ele>0.14</ele>
        <time>2016-05-26T14:47:02Z</time>
      </trkpt>
      <trkpt lat="43.13489" lon="5.75507">
        <ele>0.14</ele>
        <time>2016-05-26T14:47:40Z</time>
      </trkpt>
      <trkpt lat="43.13489" lon="5.75508">
        <ele>0.62</ele>
        <time>2016-05-26T14:48:19Z</time>
      </trkpt>
      <trkpt lat="43.1349" lon="5.75509">
        <ele>1.1</ele>
        <time>2016-05-26T14:48:50Z</time>
      </trkpt>
      <trkpt lat="43.1349" lon="5.75508">
        <ele>1.58</ele>
        <time>2016-05-26T14:49:23Z</time>
      </trkpt>
      <trkpt lat="43.1349" lon="5.75509">
        <ele>2.06</ele>
        <time>2016-05-26T14:49:57Z</time>
      </trkpt>
      <trkpt lat="43.1349" lon="5.75508">
        <ele>2.06</ele>
        <time>2016-05-26T14:50:27Z</time>
      </trkpt>
      <trkpt lat="43.1349" lon="5.75508">
        <ele>2.06</ele>
        <time>2016-05-26T14:50:56Z</time>
      </trkpt>
      <trkpt lat="43.1349" lon="5.75508">
        <ele>2.06</ele>
        <time>2016-05-26T14:51:28Z</time>
      </trkpt>
      <trkpt lat="43.13489" lon="5.75508">
        <ele>2.06</ele>
        <time>2016-05-26T14:52:05Z</time>
      </trkpt>
      <trkpt lat="43.1349" lon="5.75509">
        <ele>1.58</ele>
        <time>2016-05-26T14:52:38Z</time>
      </trkpt>
      <trkpt lat="43.1349" lon="5.7551">
        <ele>0.62</ele>
        <time>2016-05-26T14:53:10Z</time>
      </trkpt>
      <trkpt lat="43.13489" lon="5.7551">
        <ele>0.62</ele>
        <time>2016-05-26T14:53:37Z</time>
      </trkpt>
      <trkpt lat="43.1349" lon="5.75509">
        <ele>0.62</ele>
        <time>2016-05-26T14:54:15Z</time>
      </trkpt>
      <trkpt lat="43.13489" lon="5.75508">
        <ele>-0.34</ele>
        <time>2016-05-26T14:54:46Z</time>
      </trkpt>
      <trkpt lat="43.13489" lon="5.75508">
        <ele>-0.34</ele>
        <time>2016-05-26T14:55:19Z</time>
      </trkpt>
      <trkpt lat="43.13489" lon="5.75508">
        <ele>-0.82</ele>
        <time>2016-05-26T14:56:00Z</time>
      </trkpt>
      <trkpt lat="43.13489" lon="5.75507">
        <ele>-1.3</ele>
        <time>2016-05-26T14:56:35Z</time>
      </trkpt>
      <trkpt lat="43.13489" lon="5.75507">
        <ele>-1.3</ele>
        <time>2016-05-26T14:57:08Z</time>
      </trkpt>
      <trkpt lat="43.1349" lon="5.75508">
        <ele>-1.79</ele>
        <time>2016-05-26T14:57:42Z</time>
      </trkpt>
      <trkpt lat="43.13489" lon="5.75508">
        <ele>-0.82</ele>
        <time>2016-05-26T14:58:25Z</time>
      </trkpt>
      <trkpt lat="43.13489" lon="5.75509">
        <ele>-0.34</ele>
        <time>2016-05-26T14:58:55Z</time>
      </trkpt>
      <trkpt lat="43.13489" lon="5.7551">
        <ele>0.14</ele>
        <time>2016-05-26T14:59:28Z</time>
      </trkpt>
      <trkpt lat="43.1349" lon="5.7551">
        <ele>-0.34</ele>
        <time>2016-05-26T15:00:02Z</time>
      </trkpt>
      <trkpt lat="43.1349" lon="5.7551">
        <ele>-0.34</ele>
        <time>2016-05-26T15:00:38Z</time>
      </trkpt>
      <trkpt lat="43.1349" lon="5.7551">
        <ele>-0.34</ele>
        <time>2016-05-26T15:01:09Z</time>
      </trkpt>
      <trkpt lat="43.1349" lon="5.7551">
        <ele>-0.82</ele>
        <time>2016-05-26T15:01:55Z</time>
      </trkpt>
      <trkpt lat="43.1349" lon="5.75509">
        <ele>-0.34</ele>
        <time>2016-05-26T15:02:29Z</time>
      </trkpt>
      <trkpt lat="43.1349" lon="5.75509">
        <ele>-0.82</ele>
        <time>2016-05-26T15:03:01Z</time>
      </trkpt>
      <trkpt lat="43.1349" lon="5.75509">
        <ele>-1.3</ele>
        <time>2016-05-26T15:03:32Z</time>
      </trkpt>
      <trkpt lat="43.1349" lon="5.75508">
        <ele>-0.82</ele>
        <time>2016-05-26T15:04:03Z</time>
      </trkpt>
      <trkpt lat="43.1349" lon="5.75509">
        <ele>-0.82</ele>
        <time>2016-05-26T15:04:33Z</time>
      </trkpt>
      <trkpt lat="43.1349" lon="5.75508">
        <ele>-0.82</ele>
        <time>2016-05-26T15:05:00Z</time>
      </trkpt>
      <trkpt lat="43.13489" lon="5.75508">
        <ele>-0.82</ele>
        <time>2016-05-26T15:05:25Z</time>
      </trkpt>
      <trkpt lat="43.13489" lon="5.75508">
        <ele>-0.82</ele>
        <time>2016-05-26T15:05:53Z</time>
      </trkpt>
      <trkpt lat="43.13489" lon="5.75508">
        <ele>-0.34</ele>
        <time>2016-05-26T15:06:20Z</time>
      </trkpt>
      <trkpt lat="43.13488" lon="5.75509">
        <ele>-0.34</ele>
        <time>2016-05-26T15:06:51Z</time>
      </trkpt>
      <trkpt lat="43.13488" lon="5.75509">
        <ele>1.1</ele>
        <time>2016-05-26T15:07:27Z</time>
      </trkpt>
      <trkpt lat="43.13488" lon="5.75509">
        <ele>1.1</ele>
        <time>2016-05-26T15:08:05Z</time>
      </trkpt>
      <trkpt lat="43.13489" lon="5.75508">
        <ele>1.58</ele>
        <time>2016-05-26T15:08:34Z</time>
      </trkpt>
      <trkpt lat="43.13489" lon="5.75508">
        <ele>1.58</ele>
        <time>2016-05-26T15:09:08Z</time>
      </trkpt>
      <trkpt lat="43.13489" lon="5.75508">
        <ele>1.58</ele>
        <time>2016-05-26T15:09:44Z</time>
      </trkpt>
      <trkpt lat="43.13489" lon="5.75508">
        <ele>1.58</ele>
        <time>2016-05-26T15:10:13Z</time>
      </trkpt>
      <trkpt lat="43.1349" lon="5.75508">
        <ele>1.58</ele>
        <time>2016-05-26T15:10:47Z</time>
      </trkpt>
      <trkpt lat="43.1349" lon="5.75508">
        <ele>1.1</ele>
        <time>2016-05-26T15:11:21Z</time>
      </trkpt>
      <trkpt lat="43.1349" lon="5.75508">
        <ele>1.58</ele>
        <time>2016-05-26T15:11:52Z</time>
      </trkpt>
      <trkpt lat="43.13491" lon="5.75509">
        <ele>2.54</ele>
        <time>2016-05-26T15:12:31Z</time>
      </trkpt>
      <trkpt lat="43.13491" lon="5.75509">
        <ele>3.02</ele>
        <time>2016-05-26T15:13:02Z</time>
      </trkpt>
      <trkpt lat="43.1349" lon="5.75509">
        <ele>3.02</ele>
        <time>2016-05-26T15:13:39Z</time>
      </trkpt>
      <trkpt lat="43.1349" lon="5.75509">
        <ele>3.5</ele>
        <time>2016-05-26T15:14:13Z</time>
      </trkpt>
      <trkpt lat="43.1349" lon="5.75509">
        <ele>3.98</ele>
        <time>2016-05-26T15:14:44Z</time>
      </trkpt>
      <trkpt lat="43.13489" lon="5.75509">
        <ele>3.98</ele>
        <time>2016-05-26T15:15:15Z</time>
      </trkpt>
      <trkpt lat="43.13489" lon="5.7551">
        <ele>3.98</ele>
        <time>2016-05-26T15:15:49Z</time>
      </trkpt>
      <trkpt lat="43.13489" lon="5.7551">
        <ele>4.46</ele>
        <time>2016-05-26T15:16:24Z</time>
      </trkpt>
      <trkpt lat="43.13489" lon="5.7551">
        <ele>4.94</ele>
        <time>2016-05-26T15:16:59Z</time>
      </trkpt>
      <trkpt lat="43.13489" lon="5.75509">
        <ele>4.46</ele>
        <time>2016-05-26T15:17:37Z</time>
      </trkpt>
      <trkpt lat="43.13489" lon="5.7551">
        <ele>3.98</ele>
        <time>2016-05-26T15:18:14Z</time>
      </trkpt>
      <trkpt lat="43.13488" lon="5.75509">
        <ele>3.02</ele>
        <time>2016-05-26T15:18:55Z</time>
      </trkpt>
      <trkpt lat="43.13489" lon="5.7551">
        <ele>3.02</ele>
        <time>2016-05-26T15:19:32Z</time>
      </trkpt>
      <trkpt lat="43.13488" lon="5.75509">
        <ele>3.5</ele>
        <time>2016-05-26T15:20:09Z</time>
      </trkpt>
      <trkpt lat="43.13488" lon="5.75508">
        <ele>3.02</ele>
        <time>2016-05-26T15:20:41Z</time>
      </trkpt>
      <trkpt lat="43.13488" lon="5.75508">
        <ele>2.06</ele>
        <time>2016-05-26T15:21:23Z</time>
      </trkpt>
      <trkpt lat="43.13489" lon="5.75508">
        <ele>1.58</ele>
        <time>2016-05-26T15:22:04Z</time>
      </trkpt>
      <trkpt lat="43.13489" lon="5.75509">
        <ele>1.1</ele>
        <time>2016-05-26T15:22:42Z</time>
      </trkpt>
      <trkpt lat="43.13489" lon="5.75508">
        <ele>0.62</ele>
        <time>2016-05-26T15:23:31Z</time>
      </trkpt>
      <trkpt lat="43.13489" lon="5.75509">
        <ele>2.06</ele>
        <time>2016-05-26T15:24:06Z</time>
      </trkpt>
      <trkpt lat="43.1349" lon="5.75509">
        <ele>2.54</ele>
        <time>2016-05-26T15:24:48Z</time>
      </trkpt>
      <trkpt lat="43.13491" lon="5.7551">
        <ele>3.02</ele>
        <time>2016-05-26T15:25:23Z</time>
      </trkpt>
      <trkpt lat="43.13492" lon="5.7551">
        <ele>2.54</ele>
        <time>2016-05-26T15:25:50Z</time>
      </trkpt>
      <trkpt lat="43.13491" lon="5.7551">
        <ele>2.06</ele>
        <time>2016-05-26T15:26:36Z</time>
      </trkpt>
      <trkpt lat="43.13491" lon="5.7551">
        <ele>1.1</ele>
        <time>2016-05-26T15:27:12Z</time>
      </trkpt>
      <trkpt lat="43.1349" lon="5.75511">
        <ele>1.1</ele>
        <time>2016-05-26T15:27:47Z</time>
      </trkpt>
      <trkpt lat="43.13491" lon="5.75511">
        <ele>1.1</ele>
        <time>2016-05-26T15:28:18Z</time>
      </trkpt>
      <trkpt lat="43.1349" lon="5.7551">
        <ele>1.58</ele>
        <time>2016-05-26T15:28:51Z</time>
      </trkpt>
      <trkpt lat="43.13489" lon="5.75509">
        <ele>2.54</ele>
        <time>2016-05-26T15:29:27Z</time>
      </trkpt>
      <trkpt lat="43.13489" lon="5.75509">
        <ele>3.02</ele>
        <time>2016-05-26T15:30:05Z</time>
      </trkpt>
      <trkpt lat="43.13488" lon="5.75509">
        <ele>3.02</ele>
        <time>2016-05-26T15:30:36Z</time>
      </trkpt>
      <trkpt lat="43.13488" lon="5.75509">
        <ele>3.5</ele>
        <time>2016-05-26T15:31:08Z</time>
      </trkpt>
      <trkpt lat="43.13487" lon="5.75509">
        <ele>3.98</ele>
        <time>2016-05-26T15:31:46Z</time>
      </trkpt>
      <trkpt lat="43.13487" lon="5.75508">
        <ele>3.02</ele>
        <time>2016-05-26T15:32:21Z</time>
      </trkpt>
      <trkpt lat="43.13487" lon="5.75507">
        <ele>2.54</ele>
        <time>2016-05-26T15:32:59Z</time>
      </trkpt>
      <trkpt lat="43.13488" lon="5.75508">
        <ele>1.58</ele>
        <time>2016-05-26T15:33:45Z</time>
      </trkpt>
      <trkpt lat="43.13488" lon="5.75507">
        <ele>0.62</ele>
        <time>2016-05-26T15:34:26Z</time>
      </trkpt>
      <trkpt lat="43.13488" lon="5.75507">
        <ele>0.62</ele>
        <time>2016-05-26T15:35:10Z</time>
      </trkpt>
      <trkpt lat="43.13488" lon="5.75507">
        <ele>0.62</ele>
        <time>2016-05-26T15:35:13Z</time>
      </trkpt>
    </trkseg>
  </trk>
  <trk>
    <name><![CDATA[Tracé actuel: 27 MAI 2016 12:37]]></name>
    <trkseg>
      <trkpt lat="43.04134" lon="5.84617">
        <ele>-10.92</ele>
        <time>2016-05-27T10:37:21Z</time>
      </trkpt>
      <trkpt lat="43.04138" lon="5.84657">
        <ele>-8.51</ele>
        <time>2016-05-27T10:37:34Z</time>
      </trkpt>
      <trkpt lat="43.04143" lon="5.84693">
        <ele>-8.51</ele>
        <time>2016-05-27T10:37:46Z</time>
      </trkpt>
      <trkpt lat="43.04148" lon="5.84736">
        <ele>-8.51</ele>
        <time>2016-05-27T10:37:59Z</time>
      </trkpt>
      <trkpt lat="43.04152" lon="5.84773">
        <ele>-8.51</ele>
        <time>2016-05-27T10:38:10Z</time>
      </trkpt>
      <trkpt lat="43.04157" lon="5.84812">
        <ele>-7.55</ele>
        <time>2016-05-27T10:38:22Z</time>
      </trkpt>
      <trkpt lat="43.04163" lon="5.84832">
        <ele>-8.51</ele>
        <time>2016-05-27T10:38:29Z</time>
      </trkpt>
      <trkpt lat="43.04166" lon="5.84844">
        <ele>-9</ele>
        <time>2016-05-27T10:38:33Z</time>
      </trkpt>
      <trkpt lat="43.04167" lon="5.84885">
        <ele>-9</ele>
        <time>2016-05-27T10:38:46Z</time>
      </trkpt>
      <trkpt lat="43.04166" lon="5.84931">
        <ele>-10.44</ele>
        <time>2016-05-27T10:39:00Z</time>
      </trkpt>
      <trkpt lat="43.04175" lon="5.84967">
        <ele>-11.4</ele>
        <time>2016-05-27T10:39:12Z</time>
      </trkpt>
      <trkpt lat="43.04191" lon="5.85018">
        <ele>-13.8</ele>
        <time>2016-05-27T10:39:28Z</time>
      </trkpt>
      <trkpt lat="43.04207" lon="5.85063">
        <ele>-14.76</ele>
        <time>2016-05-27T10:39:42Z</time>
      </trkpt>
      <trkpt lat="43.04218" lon="5.85109">
        <ele>-12.84</ele>
        <time>2016-05-27T10:39:56Z</time>
      </trkpt>
      <trkpt lat="43.0423" lon="5.85175">
        <ele>-11.4</ele>
        <time>2016-05-27T10:40:15Z</time>
      </trkpt>
      <trkpt lat="43.04239" lon="5.85213">
        <ele>-12.36</ele>
        <time>2016-05-27T10:40:26Z</time>
      </trkpt>
      <trkpt lat="43.04248" lon="5.85248">
        <ele>-14.28</ele>
        <time>2016-05-27T10:40:37Z</time>
      </trkpt>
      <trkpt lat="43.04256" lon="5.85293">
        <ele>-15.24</ele>
        <time>2016-05-27T10:40:51Z</time>
      </trkpt>
      <trkpt lat="43.04268" lon="5.8533">
        <ele>-15.24</ele>
        <time>2016-05-27T10:41:03Z</time>
      </trkpt>
      <trkpt lat="43.04275" lon="5.85356">
        <ele>-14.28</ele>
        <time>2016-05-27T10:41:11Z</time>
      </trkpt>
      <trkpt lat="43.04278" lon="5.85371">
        <ele>-13.32</ele>
        <time>2016-05-27T10:41:16Z</time>
      </trkpt>
      <trkpt lat="43.04289" lon="5.85411">
        <ele>-12.84</ele>
        <time>2016-05-27T10:41:29Z</time>
      </trkpt>
      <trkpt lat="43.043" lon="5.8546">
        <ele>-11.88</ele>
        <time>2016-05-27T10:41:44Z</time>
      </trkpt>
      <trkpt lat="43.04309" lon="5.85503">
        <ele>-12.36</ele>
        <time>2016-05-27T10:41:57Z</time>
      </trkpt>
      <trkpt lat="43.04317" lon="5.85555">
        <ele>-13.8</ele>
        <time>2016-05-27T10:42:12Z</time>
      </trkpt>
      <trkpt lat="43.04327" lon="5.85596">
        <ele>-14.76</ele>
        <time>2016-05-27T10:42:25Z</time>
      </trkpt>
      <trkpt lat="43.04339" lon="5.85633">
        <ele>-13.32</ele>
        <time>2016-05-27T10:42:37Z</time>
      </trkpt>
      <trkpt lat="43.0435" lon="5.85672">
        <ele>-12.36</ele>
        <time>2016-05-27T10:42:49Z</time>
      </trkpt>
      <trkpt lat="43.04363" lon="5.85723">
        <ele>-11.4</ele>
        <time>2016-05-27T10:43:04Z</time>
      </trkpt>
      <trkpt lat="43.0437" lon="5.85757">
        <ele>-10.44</ele>
        <time>2016-05-27T10:43:15Z</time>
      </trkpt>
      <trkpt lat="43.04373" lon="5.8577">
        <ele>-9.96</ele>
        <time>2016-05-27T10:43:19Z</time>
      </trkpt>
      <trkpt lat="43.04382" lon="5.85813">
        <ele>-8.03</ele>
        <time>2016-05-27T10:43:32Z</time>
      </trkpt>
      <trkpt lat="43.0439" lon="5.85842">
        <ele>-8.51</ele>
        <time>2016-05-27T10:43:42Z</time>
      </trkpt>
      <trkpt lat="43.04395" lon="5.85877">
        <ele>-8.03</ele>
        <time>2016-05-27T10:43:53Z</time>
      </trkpt>
      <trkpt lat="43.04403" lon="5.85907">
        <ele>-7.07</ele>
        <time>2016-05-27T10:44:03Z</time>
      </trkpt>
      <trkpt lat="43.04409" lon="5.85941">
        <ele>-6.11</ele>
        <time>2016-05-27T10:44:13Z</time>
      </trkpt>
      <trkpt lat="43.04412" lon="5.85965">
        <ele>-5.63</ele>
        <time>2016-05-27T10:44:20Z</time>
      </trkpt>
      <trkpt lat="43.04421" lon="5.86009">
        <ele>-5.15</ele>
        <time>2016-05-27T10:44:33Z</time>
      </trkpt>
      <trkpt lat="43.04427" lon="5.86046">
        <ele>-5.63</ele>
        <time>2016-05-27T10:44:44Z</time>
      </trkpt>
      <trkpt lat="43.04437" lon="5.86099">
        <ele>-6.59</ele>
        <time>2016-05-27T10:44:59Z</time>
      </trkpt>
      <trkpt lat="43.04445" lon="5.86138">
        <ele>-6.11</ele>
        <time>2016-05-27T10:45:11Z</time>
      </trkpt>
      <trkpt lat="43.04456" lon="5.86186">
        <ele>-5.15</ele>
        <time>2016-05-27T10:45:25Z</time>
      </trkpt>
      <trkpt lat="43.04465" lon="5.86228">
        <ele>-4.67</ele>
        <time>2016-05-27T10:45:37Z</time>
      </trkpt>
      <trkpt lat="43.04471" lon="5.86249">
        <ele>-4.67</ele>
        <time>2016-05-27T10:45:43Z</time>
      </trkpt>
      <trkpt lat="43.04475" lon="5.86266">
        <ele>-3.71</ele>
        <time>2016-05-27T10:45:48Z</time>
      </trkpt>
      <trkpt lat="43.04479" lon="5.86287">
        <ele>-2.75</ele>
        <time>2016-05-27T10:45:54Z</time>
      </trkpt>
      <trkpt lat="43.04484" lon="5.86312">
        <ele>-2.27</ele>
        <time>2016-05-27T10:46:02Z</time>
      </trkpt>
      <trkpt lat="43.04495" lon="5.86355">
        <ele>-3.71</ele>
        <time>2016-05-27T10:46:15Z</time>
      </trkpt>
      <trkpt lat="43.04501" lon="5.86403">
        <ele>-4.67</ele>
        <time>2016-05-27T10:46:28Z</time>
      </trkpt>
      <trkpt lat="43.0451" lon="5.86443">
        <ele>-3.71</ele>
        <time>2016-05-27T10:46:39Z</time>
      </trkpt>
      <trkpt lat="43.04518" lon="5.86485">
        <ele>-4.19</ele>
        <time>2016-05-27T10:46:51Z</time>
      </trkpt>
      <trkpt lat="43.04526" lon="5.8653">
        <ele>-6.11</ele>
        <time>2016-05-27T10:47:04Z</time>
      </trkpt>
      <trkpt lat="43.04536" lon="5.86575">
        <ele>-3.23</ele>
        <time>2016-05-27T10:47:17Z</time>
      </trkpt>
      <trkpt lat="43.04544" lon="5.86602">
        <ele>-2.27</ele>
        <time>2016-05-27T10:47:25Z</time>
      </trkpt>
      <trkpt lat="43.04549" lon="5.86616">
        <ele>-1.79</ele>
        <time>2016-05-27T10:47:29Z</time>
      </trkpt>
      <trkpt lat="43.04563" lon="5.86676">
        <ele>-1.3</ele>
        <time>2016-05-27T10:47:45Z</time>
      </trkpt>
      <trkpt lat="43.04573" lon="5.86719">
        <ele>-1.3</ele>
        <time>2016-05-27T10:47:56Z</time>
      </trkpt>
      <trkpt lat="43.04586" lon="5.86752">
        <ele>-1.3</ele>
        <time>2016-05-27T10:48:06Z</time>
      </trkpt>
      <trkpt lat="43.046" lon="5.86798">
        <ele>-2.27</ele>
        <time>2016-05-27T10:48:19Z</time>
      </trkpt>
      <trkpt lat="43.04602" lon="5.86806">
        <ele>-2.27</ele>
        <time>2016-05-27T10:48:21Z</time>
      </trkpt>
      <trkpt lat="43.04619" lon="5.86859">
        <ele>-1.79</ele>
        <time>2016-05-27T10:48:36Z</time>
      </trkpt>
      <trkpt lat="43.04624" lon="5.86911">
        <ele>-1.3</ele>
        <time>2016-05-27T10:48:50Z</time>
      </trkpt>
      <trkpt lat="43.0463" lon="5.86968">
        <ele>-1.79</ele>
        <time>2016-05-27T10:49:05Z</time>
      </trkpt>
      <trkpt lat="43.04632" lon="5.87016">
        <ele>-1.3</ele>
        <time>2016-05-27T10:49:18Z</time>
      </trkpt>
      <trkpt lat="43.04641" lon="5.87057">
        <ele>-3.23</ele>
        <time>2016-05-27T10:49:30Z</time>
      </trkpt>
      <trkpt lat="43.04652" lon="5.87104">
        <ele>-3.71</ele>
        <time>2016-05-27T10:49:43Z</time>
      </trkpt>
      <trkpt lat="43.04665" lon="5.87145">
        <ele>-3.71</ele>
        <time>2016-05-27T10:49:55Z</time>
      </trkpt>
      <trkpt lat="43.04678" lon="5.87192">
        <ele>-4.19</ele>
        <time>2016-05-27T10:50:08Z</time>
      </trkpt>
      <trkpt lat="43.0469" lon="5.87232">
        <ele>-4.19</ele>
        <time>2016-05-27T10:50:19Z</time>
      </trkpt>
      <trkpt lat="43.04703" lon="5.87287">
        <ele>-4.67</ele>
        <time>2016-05-27T10:50:34Z</time>
      </trkpt>
      <trkpt lat="43.04715" lon="5.87328">
        <ele>-6.11</ele>
        <time>2016-05-27T10:50:45Z</time>
      </trkpt>
      <trkpt lat="43.04726" lon="5.87371">
        <ele>-6.59</ele>
        <time>2016-05-27T10:50:57Z</time>
      </trkpt>
      <trkpt lat="43.04737" lon="5.87414">
        <ele>-7.07</ele>
        <time>2016-05-27T10:51:10Z</time>
      </trkpt>
      <trkpt lat="43.04751" lon="5.87468">
        <ele>-7.07</ele>
        <time>2016-05-27T10:51:26Z</time>
      </trkpt>
      <trkpt lat="43.04766" lon="5.87512">
        <ele>-5.15</ele>
        <time>2016-05-27T10:51:39Z</time>
      </trkpt>
      <trkpt lat="43.04782" lon="5.87562">
        <ele>-5.15</ele>
        <time>2016-05-27T10:51:53Z</time>
      </trkpt>
      <trkpt lat="43.04798" lon="5.87612">
        <ele>-3.71</ele>
        <time>2016-05-27T10:52:07Z</time>
      </trkpt>
      <trkpt lat="43.04812" lon="5.87651">
        <ele>-4.19</ele>
        <time>2016-05-27T10:52:18Z</time>
      </trkpt>
      <trkpt lat="43.04832" lon="5.87696">
        <ele>-5.15</ele>
        <time>2016-05-27T10:52:31Z</time>
      </trkpt>
      <trkpt lat="43.04848" lon="5.87747">
        <ele>-3.71</ele>
        <time>2016-05-27T10:52:45Z</time>
      </trkpt>
      <trkpt lat="43.04858" lon="5.8779">
        <ele>-0.82</ele>
        <time>2016-05-27T10:52:57Z</time>
      </trkpt>
      <trkpt lat="43.0487" lon="5.87841">
        <ele>0.62</ele>
        <time>2016-05-27T10:53:11Z</time>
      </trkpt>
      <trkpt lat="43.04889" lon="5.87898">
        <ele>0.14</ele>
        <time>2016-05-27T10:53:27Z</time>
      </trkpt>
      <trkpt lat="43.04905" lon="5.87945">
        <ele>-0.82</ele>
        <time>2016-05-27T10:53:40Z</time>
      </trkpt>
      <trkpt lat="43.04922" lon="5.87997">
        <ele>0.14</ele>
        <time>2016-05-27T10:53:55Z</time>
      </trkpt>
      <trkpt lat="43.04937" lon="5.88045">
        <ele>1.58</ele>
        <time>2016-05-27T10:54:09Z</time>
      </trkpt>
      <trkpt lat="43.04952" lon="5.88104">
        <ele>2.54</ele>
        <time>2016-05-27T10:54:25Z</time>
      </trkpt>
      <trkpt lat="43.04967" lon="5.88146">
        <ele>2.06</ele>
        <time>2016-05-27T10:54:37Z</time>
      </trkpt>
      <trkpt lat="43.04985" lon="5.88196">
        <ele>0.62</ele>
        <time>2016-05-27T10:54:51Z</time>
      </trkpt>
      <trkpt lat="43.04996" lon="5.88243">
        <ele>-1.3</ele>
        <time>2016-05-27T10:55:04Z</time>
      </trkpt>
      <trkpt lat="43.05012" lon="5.88303">
        <ele>-2.27</ele>
        <time>2016-05-27T10:55:21Z</time>
      </trkpt>
      <trkpt lat="43.05025" lon="5.88346">
        <ele>-1.79</ele>
        <time>2016-05-27T10:55:34Z</time>
      </trkpt>
      <trkpt lat="43.05041" lon="5.88392">
        <ele>-1.3</ele>
        <time>2016-05-27T10:55:47Z</time>
      </trkpt>
      <trkpt lat="43.05053" lon="5.88438">
        <ele>-0.34</ele>
        <time>2016-05-27T10:56:00Z</time>
      </trkpt>
      <trkpt lat="43.05066" lon="5.88489">
        <ele>0.14</ele>
        <time>2016-05-27T10:56:14Z</time>
      </trkpt>
      <trkpt lat="43.0508" lon="5.88544">
        <ele>-0.82</ele>
        <time>2016-05-27T10:56:29Z</time>
      </trkpt>
      <trkpt lat="43.0509" lon="5.88595">
        <ele>-1.79</ele>
        <time>2016-05-27T10:56:43Z</time>
      </trkpt>
      <trkpt lat="43.05103" lon="5.88641">
        <ele>-3.23</ele>
        <time>2016-05-27T10:56:56Z</time>
      </trkpt>
      <trkpt lat="43.05119" lon="5.88696">
        <ele>-6.11</ele>
        <time>2016-05-27T10:57:11Z</time>
      </trkpt>
      <trkpt lat="43.05132" lon="5.88756">
        <ele>-8.51</ele>
        <time>2016-05-27T10:57:27Z</time>
      </trkpt>
      <trkpt lat="43.05151" lon="5.88825">
        <ele>-10.92</ele>
        <time>2016-05-27T10:57:46Z</time>
      </trkpt>
      <trkpt lat="43.05164" lon="5.88871">
        <ele>-11.4</ele>
        <time>2016-05-27T10:57:59Z</time>
      </trkpt>
      <trkpt lat="43.0518" lon="5.88933">
        <ele>-10.44</ele>
        <time>2016-05-27T10:58:16Z</time>
      </trkpt>
      <trkpt lat="43.05194" lon="5.88989">
        <ele>-9.96</ele>
        <time>2016-05-27T10:58:32Z</time>
      </trkpt>
      <trkpt lat="43.05204" lon="5.89035">
        <ele>-9</ele>
        <time>2016-05-27T10:58:46Z</time>
      </trkpt>
      <trkpt lat="43.05216" lon="5.8908">
        <ele>-8.51</ele>
        <time>2016-05-27T10:59:00Z</time>
      </trkpt>
      <trkpt lat="43.05227" lon="5.89126">
        <ele>-6.59</ele>
        <time>2016-05-27T10:59:13Z</time>
      </trkpt>
      <trkpt lat="43.05238" lon="5.89169">
        <ele>-5.63</ele>
        <time>2016-05-27T10:59:25Z</time>
      </trkpt>
      <trkpt lat="43.0525" lon="5.89231">
        <ele>-6.59</ele>
        <time>2016-05-27T10:59:41Z</time>
      </trkpt>
      <trkpt lat="43.05263" lon="5.89293">
        <ele>-7.07</ele>
        <time>2016-05-27T10:59:58Z</time>
      </trkpt>
      <trkpt lat="43.0527" lon="5.89343">
        <ele>-7.07</ele>
        <time>2016-05-27T11:00:13Z</time>
      </trkpt>
      <trkpt lat="43.05282" lon="5.89405">
        <ele>-8.51</ele>
        <time>2016-05-27T11:00:30Z</time>
      </trkpt>
      <trkpt lat="43.05294" lon="5.89453">
        <ele>-9.48</ele>
        <time>2016-05-27T11:00:45Z</time>
      </trkpt>
      <trkpt lat="43.05309" lon="5.89514">
        <ele>-8.51</ele>
        <time>2016-05-27T11:01:03Z</time>
      </trkpt>
      <trkpt lat="43.05322" lon="5.89567">
        <ele>-8.03</ele>
        <time>2016-05-27T11:01:18Z</time>
      </trkpt>
      <trkpt lat="43.05333" lon="5.89608">
        <ele>-6.11</ele>
        <time>2016-05-27T11:01:30Z</time>
      </trkpt>
      <trkpt lat="43.05344" lon="5.89674">
        <ele>-4.67</ele>
        <time>2016-05-27T11:01:48Z</time>
      </trkpt>
      <trkpt lat="43.05346" lon="5.89742">
        <ele>-5.15</ele>
        <time>2016-05-27T11:02:06Z</time>
      </trkpt>
      <trkpt lat="43.05358" lon="5.89794">
        <ele>-4.19</ele>
        <time>2016-05-27T11:02:21Z</time>
      </trkpt>
      <trkpt lat="43.05366" lon="5.89831">
        <ele>-3.23</ele>
        <time>2016-05-27T11:02:32Z</time>
      </trkpt>
      <trkpt lat="43.05375" lon="5.89864">
        <ele>-3.23</ele>
        <time>2016-05-27T11:02:42Z</time>
      </trkpt>
      <trkpt lat="43.05387" lon="5.89911">
        <ele>-2.27</ele>
        <time>2016-05-27T11:02:56Z</time>
      </trkpt>
      <trkpt lat="43.05403" lon="5.89956">
        <ele>-3.23</ele>
        <time>2016-05-27T11:03:09Z</time>
      </trkpt>
      <trkpt lat="43.05413" lon="5.90009">
        <ele>-4.19</ele>
        <time>2016-05-27T11:03:23Z</time>
      </trkpt>
      <trkpt lat="43.05422" lon="5.90058">
        <ele>-6.59</ele>
        <time>2016-05-27T11:03:36Z</time>
      </trkpt>
      <trkpt lat="43.05431" lon="5.9011">
        <ele>-7.55</ele>
        <time>2016-05-27T11:03:50Z</time>
      </trkpt>
      <trkpt lat="43.0544" lon="5.90168">
        <ele>-6.59</ele>
        <time>2016-05-27T11:04:06Z</time>
      </trkpt>
      <trkpt lat="43.05445" lon="5.90223">
        <ele>-6.11</ele>
        <time>2016-05-27T11:04:21Z</time>
      </trkpt>
      <trkpt lat="43.05451" lon="5.90261">
        <ele>-4.67</ele>
        <time>2016-05-27T11:04:32Z</time>
      </trkpt>
      <trkpt lat="43.0546" lon="5.90314">
        <ele>-4.67</ele>
        <time>2016-05-27T11:04:47Z</time>
      </trkpt>
      <trkpt lat="43.05471" lon="5.90361">
        <ele>-5.63</ele>
        <time>2016-05-27T11:05:01Z</time>
      </trkpt>
      <trkpt lat="43.05475" lon="5.90409">
        <ele>-6.11</ele>
        <time>2016-05-27T11:05:15Z</time>
      </trkpt>
      <trkpt lat="43.05477" lon="5.90435">
        <ele>-4.67</ele>
        <time>2016-05-27T11:05:22Z</time>
      </trkpt>
      <trkpt lat="43.05483" lon="5.90455">
        <ele>-4.19</ele>
        <time>2016-05-27T11:05:29Z</time>
      </trkpt>
      <trkpt lat="43.05495" lon="5.90515">
        <ele>-3.23</ele>
        <time>2016-05-27T11:05:48Z</time>
      </trkpt>
      <trkpt lat="43.05503" lon="5.90581">
        <ele>-2.27</ele>
        <time>2016-05-27T11:06:07Z</time>
      </trkpt>
      <trkpt lat="43.05509" lon="5.90624">
        <ele>-2.27</ele>
        <time>2016-05-27T11:06:20Z</time>
      </trkpt>
      <trkpt lat="43.0552" lon="5.90684">
        <ele>-1.79</ele>
        <time>2016-05-27T11:06:37Z</time>
      </trkpt>
      <trkpt lat="43.05535" lon="5.90742">
        <ele>-1.3</ele>
        <time>2016-05-27T11:06:55Z</time>
      </trkpt>
      <trkpt lat="43.05549" lon="5.90797">
        <ele>-1.3</ele>
        <time>2016-05-27T11:07:12Z</time>
      </trkpt>
      <trkpt lat="43.05563" lon="5.90852">
        <ele>-0.34</ele>
        <time>2016-05-27T11:07:29Z</time>
      </trkpt>
      <trkpt lat="43.05576" lon="5.9091">
        <ele>-1.3</ele>
        <time>2016-05-27T11:07:45Z</time>
      </trkpt>
      <trkpt lat="43.05586" lon="5.90957">
        <ele>-2.75</ele>
        <time>2016-05-27T11:07:59Z</time>
      </trkpt>
      <trkpt lat="43.05597" lon="5.90999">
        <ele>-4.19</ele>
        <time>2016-05-27T11:08:12Z</time>
      </trkpt>
      <trkpt lat="43.0561" lon="5.91048">
        <ele>-5.63</ele>
        <time>2016-05-27T11:08:26Z</time>
      </trkpt>
      <trkpt lat="43.05619" lon="5.91099">
        <ele>-6.59</ele>
        <time>2016-05-27T11:08:40Z</time>
      </trkpt>
      <trkpt lat="43.05631" lon="5.91175">
        <ele>-8.03</ele>
        <time>2016-05-27T11:09:01Z</time>
      </trkpt>
      <trkpt lat="43.05642" lon="5.91245">
        <ele>-8.51</ele>
        <time>2016-05-27T11:09:20Z</time>
      </trkpt>
      <trkpt lat="43.05656" lon="5.91309">
        <ele>-7.55</ele>
        <time>2016-05-27T11:09:38Z</time>
      </trkpt>
      <trkpt lat="43.05666" lon="5.91363">
        <ele>-6.59</ele>
        <time>2016-05-27T11:09:53Z</time>
      </trkpt>
      <trkpt lat="43.05679" lon="5.91435">
        <ele>-7.07</ele>
        <time>2016-05-27T11:10:13Z</time>
      </trkpt>
      <trkpt lat="43.0569" lon="5.91496">
        <ele>-6.59</ele>
        <time>2016-05-27T11:10:30Z</time>
      </trkpt>
      <trkpt lat="43.05699" lon="5.91547">
        <ele>-5.63</ele>
        <time>2016-05-27T11:10:44Z</time>
      </trkpt>
      <trkpt lat="43.0571" lon="5.916">
        <ele>-6.11</ele>
        <time>2016-05-27T11:10:59Z</time>
      </trkpt>
      <trkpt lat="43.05719" lon="5.91659">
        <ele>-7.07</ele>
        <time>2016-05-27T11:11:15Z</time>
      </trkpt>
      <trkpt lat="43.05729" lon="5.91727">
        <ele>-7.07</ele>
        <time>2016-05-27T11:11:33Z</time>
      </trkpt>
      <trkpt lat="43.05739" lon="5.91776">
        <ele>-5.63</ele>
        <time>2016-05-27T11:11:47Z</time>
      </trkpt>
      <trkpt lat="43.05745" lon="5.91831">
        <ele>-5.15</ele>
        <time>2016-05-27T11:12:02Z</time>
      </trkpt>
      <trkpt lat="43.05754" lon="5.91882">
        <ele>-4.67</ele>
        <time>2016-05-27T11:12:16Z</time>
      </trkpt>
      <trkpt lat="43.05763" lon="5.91946">
        <ele>-4.19</ele>
        <time>2016-05-27T11:12:33Z</time>
      </trkpt>
      <trkpt lat="43.05775" lon="5.92005">
        <ele>-4.19</ele>
        <time>2016-05-27T11:12:49Z</time>
      </trkpt>
      <trkpt lat="43.05783" lon="5.92054">
        <ele>-3.71</ele>
        <time>2016-05-27T11:13:03Z</time>
      </trkpt>
      <trkpt lat="43.05791" lon="5.921">
        <ele>-2.75</ele>
        <time>2016-05-27T11:13:15Z</time>
      </trkpt>
      <trkpt lat="43.05798" lon="5.92142">
        <ele>-3.23</ele>
        <time>2016-05-27T11:13:27Z</time>
      </trkpt>
      <trkpt lat="43.05802" lon="5.92178">
        <ele>-3.23</ele>
        <time>2016-05-27T11:13:37Z</time>
      </trkpt>
      <trkpt lat="43.05812" lon="5.92227">
        <ele>-3.71</ele>
        <time>2016-05-27T11:13:51Z</time>
      </trkpt>
      <trkpt lat="43.05821" lon="5.92283">
        <ele>-3.71</ele>
        <time>2016-05-27T11:14:07Z</time>
      </trkpt>
      <trkpt lat="43.0583" lon="5.92337">
        <ele>-2.75</ele>
        <time>2016-05-27T11:14:22Z</time>
      </trkpt>
      <trkpt lat="43.05838" lon="5.92388">
        <ele>-2.27</ele>
        <time>2016-05-27T11:14:36Z</time>
      </trkpt>
      <trkpt lat="43.05848" lon="5.92449">
        <ele>-2.27</ele>
        <time>2016-05-27T11:14:52Z</time>
      </trkpt>
      <trkpt lat="43.0586" lon="5.92512">
        <ele>-1.79</ele>
        <time>2016-05-27T11:15:09Z</time>
      </trkpt>
      <trkpt lat="43.05871" lon="5.9257">
        <ele>-3.23</ele>
        <time>2016-05-27T11:15:25Z</time>
      </trkpt>
      <trkpt lat="43.05881" lon="5.92633">
        <ele>-4.19</ele>
        <time>2016-05-27T11:15:42Z</time>
      </trkpt>
      <trkpt lat="43.05887" lon="5.92679">
        <ele>-4.19</ele>
        <time>2016-05-27T11:15:54Z</time>
      </trkpt>
      <trkpt lat="43.05897" lon="5.92728">
        <ele>-3.71</ele>
        <time>2016-05-27T11:16:07Z</time>
      </trkpt>
      <trkpt lat="43.05905" lon="5.92786">
        <ele>-3.71</ele>
        <time>2016-05-27T11:16:22Z</time>
      </trkpt>
      <trkpt lat="43.05913" lon="5.92841">
        <ele>-3.71</ele>
        <time>2016-05-27T11:16:37Z</time>
      </trkpt>
      <trkpt lat="43.05922" lon="5.92901">
        <ele>-4.67</ele>
        <time>2016-05-27T11:16:53Z</time>
      </trkpt>
      <trkpt lat="43.05923" lon="5.92908">
        <ele>-4.19</ele>
        <time>2016-05-27T11:16:55Z</time>
      </trkpt>
      <trkpt lat="43.05928" lon="5.92957">
        <ele>-4.67</ele>
        <time>2016-05-27T11:17:08Z</time>
      </trkpt>
      <trkpt lat="43.05936" lon="5.93007">
        <ele>-4.67</ele>
        <time>2016-05-27T11:17:22Z</time>
      </trkpt>
      <trkpt lat="43.05944" lon="5.93059">
        <ele>-3.71</ele>
        <time>2016-05-27T11:17:36Z</time>
      </trkpt>
      <trkpt lat="43.05949" lon="5.93103">
        <ele>-3.23</ele>
        <time>2016-05-27T11:17:48Z</time>
      </trkpt>
      <trkpt lat="43.0596" lon="5.93156">
        <ele>-2.27</ele>
        <time>2016-05-27T11:18:03Z</time>
      </trkpt>
      <trkpt lat="43.05969" lon="5.93207">
        <ele>-3.71</ele>
        <time>2016-05-27T11:18:17Z</time>
      </trkpt>
      <trkpt lat="43.05977" lon="5.93255">
        <ele>-4.67</ele>
        <time>2016-05-27T11:18:30Z</time>
      </trkpt>
      <trkpt lat="43.05984" lon="5.93307">
        <ele>-5.15</ele>
        <time>2016-05-27T11:18:44Z</time>
      </trkpt>
      <trkpt lat="43.05994" lon="5.93375">
        <ele>-4.67</ele>
        <time>2016-05-27T11:19:02Z</time>
      </trkpt>
      <trkpt lat="43.06003" lon="5.93423">
        <ele>-4.19</ele>
        <time>2016-05-27T11:19:16Z</time>
      </trkpt>
      <trkpt lat="43.06009" lon="5.93473">
        <ele>-4.19</ele>
        <time>2016-05-27T11:19:30Z</time>
      </trkpt>
      <trkpt lat="43.06019" lon="5.93521">
        <ele>-3.23</ele>
        <time>2016-05-27T11:19:44Z</time>
      </trkpt>
      <trkpt lat="43.06027" lon="5.93569">
        <ele>-2.75</ele>
        <time>2016-05-27T11:19:58Z</time>
      </trkpt>
      <trkpt lat="43.06035" lon="5.93629">
        <ele>-3.23</ele>
        <time>2016-05-27T11:20:14Z</time>
      </trkpt>
      <trkpt lat="43.06041" lon="5.93674">
        <ele>-3.23</ele>
        <time>2016-05-27T11:20:26Z</time>
      </trkpt>
      <trkpt lat="43.0605" lon="5.93731">
        <ele>-3.71</ele>
        <time>2016-05-27T11:20:41Z</time>
      </trkpt>
      <trkpt lat="43.06058" lon="5.93779">
        <ele>-3.23</ele>
        <time>2016-05-27T11:20:54Z</time>
      </trkpt>
      <trkpt lat="43.06066" lon="5.93824">
        <ele>-2.75</ele>
        <time>2016-05-27T11:21:06Z</time>
      </trkpt>
      <trkpt lat="43.06073" lon="5.93863">
        <ele>-1.79</ele>
        <time>2016-05-27T11:21:18Z</time>
      </trkpt>
      <trkpt lat="43.06082" lon="5.93913">
        <ele>-1.79</ele>
        <time>2016-05-27T11:21:32Z</time>
      </trkpt>
      <trkpt lat="43.06087" lon="5.93961">
        <ele>-2.75</ele>
        <time>2016-05-27T11:21:45Z</time>
      </trkpt>
      <trkpt lat="43.06094" lon="5.94006">
        <ele>-2.75</ele>
        <time>2016-05-27T11:21:57Z</time>
      </trkpt>
      <trkpt lat="43.061" lon="5.9406">
        <ele>-2.75</ele>
        <time>2016-05-27T11:22:12Z</time>
      </trkpt>
      <trkpt lat="43.06107" lon="5.94108">
        <ele>-5.15</ele>
        <time>2016-05-27T11:22:26Z</time>
      </trkpt>
      <trkpt lat="43.06114" lon="5.94161">
        <ele>-4.19</ele>
        <time>2016-05-27T11:22:42Z</time>
      </trkpt>
      <trkpt lat="43.0612" lon="5.94198">
        <ele>-4.67</ele>
        <time>2016-05-27T11:22:53Z</time>
      </trkpt>
      <trkpt lat="43.06125" lon="5.94238">
        <ele>-5.15</ele>
        <time>2016-05-27T11:23:04Z</time>
      </trkpt>
      <trkpt lat="43.06132" lon="5.94277">
        <ele>-5.15</ele>
        <time>2016-05-27T11:23:15Z</time>
      </trkpt>
      <trkpt lat="43.06137" lon="5.94318">
        <ele>-3.71</ele>
        <time>2016-05-27T11:23:26Z</time>
      </trkpt>
      <trkpt lat="43.06143" lon="5.94365">
        <ele>-3.71</ele>
        <time>2016-05-27T11:23:39Z</time>
      </trkpt>
      <trkpt lat="43.06164" lon="5.94405">
        <ele>-4.67</ele>
        <time>2016-05-27T11:23:52Z</time>
      </trkpt>
      <trkpt lat="43.06175" lon="5.94424">
        <ele>-6.11</ele>
        <time>2016-05-27T11:23:58Z</time>
      </trkpt>
      <trkpt lat="43.06182" lon="5.94436">
        <ele>-6.11</ele>
        <time>2016-05-27T11:24:02Z</time>
      </trkpt>
      <trkpt lat="43.06199" lon="5.94469">
        <ele>-5.15</ele>
        <time>2016-05-27T11:24:12Z</time>
      </trkpt>
      <trkpt lat="43.06223" lon="5.94512">
        <ele>-5.63</ele>
        <time>2016-05-27T11:24:26Z</time>
      </trkpt>
      <trkpt lat="43.06238" lon="5.94548">
        <ele>-6.11</ele>
        <time>2016-05-27T11:24:37Z</time>
      </trkpt>
      <trkpt lat="43.06257" lon="5.94584">
        <ele>-6.11</ele>
        <time>2016-05-27T11:24:48Z</time>
      </trkpt>
      <trkpt lat="43.06273" lon="5.94622">
        <ele>-8.03</ele>
        <time>2016-05-27T11:24:59Z</time>
      </trkpt>
      <trkpt lat="43.06296" lon="5.94666">
        <ele>-7.55</ele>
        <time>2016-05-27T11:25:13Z</time>
      </trkpt>
      <trkpt lat="43.06313" lon="5.94698">
        <ele>-7.55</ele>
        <time>2016-05-27T11:25:23Z</time>
      </trkpt>
      <trkpt lat="43.06321" lon="5.9471">
        <ele>-8.03</ele>
        <time>2016-05-27T11:25:27Z</time>
      </trkpt>
      <trkpt lat="43.06348" lon="5.94747">
        <ele>-6.59</ele>
        <time>2016-05-27T11:25:40Z</time>
      </trkpt>
      <trkpt lat="43.06371" lon="5.94779">
        <ele>-6.11</ele>
        <time>2016-05-27T11:25:51Z</time>
      </trkpt>
      <trkpt lat="43.06395" lon="5.9481">
        <ele>-5.63</ele>
        <time>2016-05-27T11:26:02Z</time>
      </trkpt>
      <trkpt lat="43.06415" lon="5.94845">
        <ele>-6.11</ele>
        <time>2016-05-27T11:26:13Z</time>
      </trkpt>
      <trkpt lat="43.06437" lon="5.94884">
        <ele>-7.07</ele>
        <time>2016-05-27T11:26:24Z</time>
      </trkpt>
      <trkpt lat="43.06462" lon="5.94923">
        <ele>-6.11</ele>
        <time>2016-05-27T11:26:37Z</time>
      </trkpt>
      <trkpt lat="43.06488" lon="5.94956">
        <ele>-5.63</ele>
        <time>2016-05-27T11:26:49Z</time>
      </trkpt>
      <trkpt lat="43.06513" lon="5.9499">
        <ele>-5.63</ele>
        <time>2016-05-27T11:27:01Z</time>
      </trkpt>
      <trkpt lat="43.06535" lon="5.95018">
        <ele>-4.19</ele>
        <time>2016-05-27T11:27:11Z</time>
      </trkpt>
      <trkpt lat="43.06557" lon="5.95052">
        <ele>-4.67</ele>
        <time>2016-05-27T11:27:22Z</time>
      </trkpt>
      <trkpt lat="43.06576" lon="5.95083">
        <ele>-4.67</ele>
        <time>2016-05-27T11:27:32Z</time>
      </trkpt>
      <trkpt lat="43.06599" lon="5.95117">
        <ele>-4.19</ele>
        <time>2016-05-27T11:27:43Z</time>
      </trkpt>
      <trkpt lat="43.06622" lon="5.95156">
        <ele>-4.19</ele>
        <time>2016-05-27T11:27:55Z</time>
      </trkpt>
      <trkpt lat="43.06639" lon="5.95185">
        <ele>-5.15</ele>
        <time>2016-05-27T11:28:04Z</time>
      </trkpt>
      <trkpt lat="43.06663" lon="5.95219">
        <ele>-5.15</ele>
        <time>2016-05-27T11:28:15Z</time>
      </trkpt>
      <trkpt lat="43.06688" lon="5.95257">
        <ele>-4.67</ele>
        <time>2016-05-27T11:28:27Z</time>
      </trkpt>
      <trkpt lat="43.06711" lon="5.95292">
        <ele>-5.15</ele>
        <time>2016-05-27T11:28:38Z</time>
      </trkpt>
      <trkpt lat="43.06732" lon="5.95323">
        <ele>-6.11</ele>
        <time>2016-05-27T11:28:48Z</time>
      </trkpt>
      <trkpt lat="43.06762" lon="5.95367">
        <ele>-6.11</ele>
        <time>2016-05-27T11:29:01Z</time>
      </trkpt>
      <trkpt lat="43.06787" lon="5.95401">
        <ele>-6.59</ele>
        <time>2016-05-27T11:29:12Z</time>
      </trkpt>
      <trkpt lat="43.06814" lon="5.95437">
        <ele>-6.11</ele>
        <time>2016-05-27T11:29:24Z</time>
      </trkpt>
      <trkpt lat="43.0684" lon="5.95475">
        <ele>-4.19</ele>
        <time>2016-05-27T11:29:37Z</time>
      </trkpt>
      <trkpt lat="43.06863" lon="5.95522">
        <ele>-4.19</ele>
        <time>2016-05-27T11:29:51Z</time>
      </trkpt>
      <trkpt lat="43.069" lon="5.95557">
        <ele>-3.71</ele>
        <time>2016-05-27T11:30:05Z</time>
      </trkpt>
      <trkpt lat="43.06942" lon="5.95583">
        <ele>-3.71</ele>
        <time>2016-05-27T11:30:19Z</time>
      </trkpt>
      <trkpt lat="43.06984" lon="5.95613">
        <ele>-3.23</ele>
        <time>2016-05-27T11:30:33Z</time>
      </trkpt>
      <trkpt lat="43.07024" lon="5.95645">
        <ele>-4.67</ele>
        <time>2016-05-27T11:30:47Z</time>
      </trkpt>
      <trkpt lat="43.07067" lon="5.95673">
        <ele>-5.63</ele>
        <time>2016-05-27T11:31:01Z</time>
      </trkpt>
      <trkpt lat="43.07119" lon="5.957">
        <ele>-4.67</ele>
        <time>2016-05-27T11:31:17Z</time>
      </trkpt>
      <trkpt lat="43.07167" lon="5.95728">
        <ele>-5.63</ele>
        <time>2016-05-27T11:31:33Z</time>
      </trkpt>
      <trkpt lat="43.07213" lon="5.9575">
        <ele>-5.15</ele>
        <time>2016-05-27T11:31:47Z</time>
      </trkpt>
      <trkpt lat="43.07257" lon="5.95759">
        <ele>-4.19</ele>
        <time>2016-05-27T11:32:00Z</time>
      </trkpt>
      <trkpt lat="43.07298" lon="5.95767">
        <ele>-1.79</ele>
        <time>2016-05-27T11:32:12Z</time>
      </trkpt>
      <trkpt lat="43.07332" lon="5.95774">
        <ele>-1.79</ele>
        <time>2016-05-27T11:32:22Z</time>
      </trkpt>
      <trkpt lat="43.07346" lon="5.95776">
        <ele>-1.79</ele>
        <time>2016-05-27T11:32:26Z</time>
      </trkpt>
      <trkpt lat="43.07361" lon="5.95782">
        <ele>-2.27</ele>
        <time>2016-05-27T11:32:30Z</time>
      </trkpt>
      <trkpt lat="43.07397" lon="5.95805">
        <ele>-2.27</ele>
        <time>2016-05-27T11:32:42Z</time>
      </trkpt>
      <trkpt lat="43.07435" lon="5.95823">
        <ele>-1.3</ele>
        <time>2016-05-27T11:32:54Z</time>
      </trkpt>
      <trkpt lat="43.07474" lon="5.95816">
        <ele>-0.82</ele>
        <time>2016-05-27T11:33:05Z</time>
      </trkpt>
      <trkpt lat="43.07527" lon="5.95791">
        <ele>-0.82</ele>
        <time>2016-05-27T11:33:21Z</time>
      </trkpt>
      <trkpt lat="43.0757" lon="5.95779">
        <ele>-0.82</ele>
        <time>2016-05-27T11:33:33Z</time>
      </trkpt>
      <trkpt lat="43.07609" lon="5.95754">
        <ele>-0.82</ele>
        <time>2016-05-27T11:33:45Z</time>
      </trkpt>
      <trkpt lat="43.07654" lon="5.9572">
        <ele>-0.34</ele>
        <time>2016-05-27T11:33:59Z</time>
      </trkpt>
      <trkpt lat="43.07694" lon="5.95693">
        <ele>0.14</ele>
        <time>2016-05-27T11:34:11Z</time>
      </trkpt>
      <trkpt lat="43.07733" lon="5.95667">
        <ele>-0.34</ele>
        <time>2016-05-27T11:34:23Z</time>
      </trkpt>
      <trkpt lat="43.07784" lon="5.95636">
        <ele>-0.82</ele>
        <time>2016-05-27T11:34:38Z</time>
      </trkpt>
      <trkpt lat="43.07825" lon="5.95603">
        <ele>-0.82</ele>
        <time>2016-05-27T11:34:51Z</time>
      </trkpt>
      <trkpt lat="43.07872" lon="5.95559">
        <ele>-1.3</ele>
        <time>2016-05-27T11:35:06Z</time>
      </trkpt>
      <trkpt lat="43.07926" lon="5.95499">
        <ele>-0.82</ele>
        <time>2016-05-27T11:35:25Z</time>
      </trkpt>
      <trkpt lat="43.0794" lon="5.95479">
        <ele>-0.82</ele>
        <time>2016-05-27T11:35:31Z</time>
      </trkpt>
      <trkpt lat="43.07979" lon="5.95434">
        <ele>-0.34</ele>
        <time>2016-05-27T11:35:45Z</time>
      </trkpt>
      <trkpt lat="43.08019" lon="5.95381">
        <ele>0.14</ele>
        <time>2016-05-27T11:36:00Z</time>
      </trkpt>
      <trkpt lat="43.08065" lon="5.95315">
        <ele>-0.34</ele>
        <time>2016-05-27T11:36:18Z</time>
      </trkpt>
      <trkpt lat="43.08107" lon="5.95255">
        <ele>-0.34</ele>
        <time>2016-05-27T11:36:35Z</time>
      </trkpt>
      <trkpt lat="43.08143" lon="5.95204">
        <ele>0.62</ele>
        <time>2016-05-27T11:36:49Z</time>
      </trkpt>
      <trkpt lat="43.08183" lon="5.95137">
        <ele>1.1</ele>
        <time>2016-05-27T11:37:06Z</time>
      </trkpt>
      <trkpt lat="43.08223" lon="5.95078">
        <ele>1.1</ele>
        <time>2016-05-27T11:37:22Z</time>
      </trkpt>
      <trkpt lat="43.08259" lon="5.95007">
        <ele>-0.34</ele>
        <time>2016-05-27T11:37:39Z</time>
      </trkpt>
      <trkpt lat="43.08292" lon="5.94931">
        <ele>0.14</ele>
        <time>2016-05-27T11:37:57Z</time>
      </trkpt>
      <trkpt lat="43.0833" lon="5.94851">
        <ele>0.14</ele>
        <time>2016-05-27T11:38:15Z</time>
      </trkpt>
      <trkpt lat="43.08364" lon="5.94786">
        <ele>0.14</ele>
        <time>2016-05-27T11:38:31Z</time>
      </trkpt>
      <trkpt lat="43.08396" lon="5.9472">
        <ele>0.14</ele>
        <time>2016-05-27T11:38:47Z</time>
      </trkpt>
      <trkpt lat="43.08425" lon="5.94645">
        <ele>-0.34</ele>
        <time>2016-05-27T11:39:04Z</time>
      </trkpt>
      <trkpt lat="43.08455" lon="5.94564">
        <ele>-0.82</ele>
        <time>2016-05-27T11:39:22Z</time>
      </trkpt>
      <trkpt lat="43.08483" lon="5.9447">
        <ele>-0.82</ele>
        <time>2016-05-27T11:39:42Z</time>
      </trkpt>
      <trkpt lat="43.08508" lon="5.94399">
        <ele>-0.82</ele>
        <time>2016-05-27T11:39:58Z</time>
      </trkpt>
      <trkpt lat="43.08543" lon="5.94337">
        <ele>0.14</ele>
        <time>2016-05-27T11:40:14Z</time>
      </trkpt>
      <trkpt lat="43.08552" lon="5.94321">
        <ele>-0.34</ele>
        <time>2016-05-27T11:40:18Z</time>
      </trkpt>
      <trkpt lat="43.08586" lon="5.94274">
        <ele>-0.34</ele>
        <time>2016-05-27T11:40:32Z</time>
      </trkpt>
      <trkpt lat="43.08613" lon="5.94225">
        <ele>0.14</ele>
        <time>2016-05-27T11:40:47Z</time>
      </trkpt>
      <trkpt lat="43.08636" lon="5.94187">
        <ele>0.62</ele>
        <time>2016-05-27T11:40:59Z</time>
      </trkpt>
      <trkpt lat="43.08649" lon="5.94127">
        <ele>-0.82</ele>
        <time>2016-05-27T11:41:15Z</time>
      </trkpt>
      <trkpt lat="43.08662" lon="5.94058">
        <ele>-0.34</ele>
        <time>2016-05-27T11:41:33Z</time>
      </trkpt>
      <trkpt lat="43.08673" lon="5.94003">
        <ele>-0.82</ele>
        <time>2016-05-27T11:41:48Z</time>
      </trkpt>
      <trkpt lat="43.08686" lon="5.93942">
        <ele>-0.82</ele>
        <time>2016-05-27T11:42:04Z</time>
      </trkpt>
      <trkpt lat="43.08693" lon="5.93875">
        <ele>-0.34</ele>
        <time>2016-05-27T11:42:21Z</time>
      </trkpt>
      <trkpt lat="43.08701" lon="5.93791">
        <ele>-0.34</ele>
        <time>2016-05-27T11:42:42Z</time>
      </trkpt>
      <trkpt lat="43.08708" lon="5.93719">
        <ele>-0.34</ele>
        <time>2016-05-27T11:43:00Z</time>
      </trkpt>
      <trkpt lat="43.08716" lon="5.93653">
        <ele>-0.82</ele>
        <time>2016-05-27T11:43:16Z</time>
      </trkpt>
      <trkpt lat="43.08721" lon="5.9359">
        <ele>-0.82</ele>
        <time>2016-05-27T11:43:31Z</time>
      </trkpt>
      <trkpt lat="43.08726" lon="5.93523">
        <ele>-0.34</ele>
        <time>2016-05-27T11:43:47Z</time>
      </trkpt>
      <trkpt lat="43.08734" lon="5.93447">
        <ele>-0.82</ele>
        <time>2016-05-27T11:44:05Z</time>
      </trkpt>
      <trkpt lat="43.08732" lon="5.93376">
        <ele>-1.3</ele>
        <time>2016-05-27T11:44:22Z</time>
      </trkpt>
      <trkpt lat="43.08742" lon="5.93293">
        <ele>-1.3</ele>
        <time>2016-05-27T11:44:41Z</time>
      </trkpt>
      <trkpt lat="43.08745" lon="5.93208">
        <ele>-1.3</ele>
        <time>2016-05-27T11:45:01Z</time>
      </trkpt>
      <trkpt lat="43.08752" lon="5.93137">
        <ele>-1.3</ele>
        <time>2016-05-27T11:45:18Z</time>
      </trkpt>
      <trkpt lat="43.08759" lon="5.93055">
        <ele>-0.82</ele>
        <time>2016-05-27T11:45:37Z</time>
      </trkpt>
      <trkpt lat="43.08774" lon="5.92946">
        <ele>-0.34</ele>
        <time>2016-05-27T11:46:02Z</time>
      </trkpt>
      <trkpt lat="43.08778" lon="5.92854">
        <ele>-0.82</ele>
        <time>2016-05-27T11:46:23Z</time>
      </trkpt>
      <trkpt lat="43.08775" lon="5.92753">
        <ele>-0.82</ele>
        <time>2016-05-27T11:46:46Z</time>
      </trkpt>
      <trkpt lat="43.08774" lon="5.92704">
        <ele>-3.23</ele>
        <time>2016-05-27T11:46:57Z</time>
      </trkpt>
      <trkpt lat="43.08771" lon="5.92616">
        <ele>-2.27</ele>
        <time>2016-05-27T11:47:17Z</time>
      </trkpt>
      <trkpt lat="43.08769" lon="5.92532">
        <ele>-1.3</ele>
        <time>2016-05-27T11:47:36Z</time>
      </trkpt>
      <trkpt lat="43.08774" lon="5.92421">
        <ele>-1.3</ele>
        <time>2016-05-27T11:48:01Z</time>
      </trkpt>
      <trkpt lat="43.0878" lon="5.9232">
        <ele>-1.79</ele>
        <time>2016-05-27T11:48:25Z</time>
      </trkpt>
      <trkpt lat="43.08788" lon="5.92226">
        <ele>-2.27</ele>
        <time>2016-05-27T11:48:47Z</time>
      </trkpt>
      <trkpt lat="43.08801" lon="5.92122">
        <ele>-1.3</ele>
        <time>2016-05-27T11:49:12Z</time>
      </trkpt>
      <trkpt lat="43.0881" lon="5.92014">
        <ele>-2.75</ele>
        <time>2016-05-27T11:49:38Z</time>
      </trkpt>
      <trkpt lat="43.08809" lon="5.91917">
        <ele>-3.23</ele>
        <time>2016-05-27T11:50:01Z</time>
      </trkpt>
      <trkpt lat="43.088" lon="5.91812">
        <ele>-0.34</ele>
        <time>2016-05-27T11:50:27Z</time>
      </trkpt>
      <trkpt lat="43.08789" lon="5.91703">
        <ele>-0.34</ele>
        <time>2016-05-27T11:50:55Z</time>
      </trkpt>
      <trkpt lat="43.08788" lon="5.91601">
        <ele>-3.23</ele>
        <time>2016-05-27T11:51:22Z</time>
      </trkpt>
      <trkpt lat="43.08789" lon="5.91498">
        <ele>-4.67</ele>
        <time>2016-05-27T11:51:50Z</time>
      </trkpt>
      <trkpt lat="43.08786" lon="5.91398">
        <ele>-1.79</ele>
        <time>2016-05-27T11:52:18Z</time>
      </trkpt>
      <trkpt lat="43.08767" lon="5.91323">
        <ele>-0.34</ele>
        <time>2016-05-27T11:52:41Z</time>
      </trkpt>
      <trkpt lat="43.08746" lon="5.91245">
        <ele>0.62</ele>
        <time>2016-05-27T11:53:06Z</time>
      </trkpt>
      <trkpt lat="43.08718" lon="5.9116">
        <ele>0.14</ele>
        <time>2016-05-27T11:53:34Z</time>
      </trkpt>
      <trkpt lat="43.08697" lon="5.91098">
        <ele>0.62</ele>
        <time>2016-05-27T11:53:55Z</time>
      </trkpt>
      <trkpt lat="43.08671" lon="5.91047">
        <ele>-0.34</ele>
        <time>2016-05-27T11:54:15Z</time>
      </trkpt>
      <trkpt lat="43.08635" lon="5.91015">
        <ele>0.62</ele>
        <time>2016-05-27T11:54:35Z</time>
      </trkpt>
      <trkpt lat="43.08607" lon="5.90987">
        <ele>-0.34</ele>
        <time>2016-05-27T11:54:51Z</time>
      </trkpt>
      <trkpt lat="43.08572" lon="5.90962">
        <ele>0.62</ele>
        <time>2016-05-27T11:55:10Z</time>
      </trkpt>
      <trkpt lat="43.08527" lon="5.9094">
        <ele>0.14</ele>
        <time>2016-05-27T11:55:32Z</time>
      </trkpt>
      <trkpt lat="43.08482" lon="5.90915">
        <ele>-0.82</ele>
        <time>2016-05-27T11:55:55Z</time>
      </trkpt>
      <trkpt lat="43.08427" lon="5.90892">
        <ele>-0.34</ele>
        <time>2016-05-27T11:56:21Z</time>
      </trkpt>
      <trkpt lat="43.08377" lon="5.90878">
        <ele>-0.82</ele>
        <time>2016-05-27T11:56:46Z</time>
      </trkpt>
      <trkpt lat="43.08339" lon="5.90867">
        <ele>-1.3</ele>
        <time>2016-05-27T11:57:11Z</time>
      </trkpt>
      <trkpt lat="43.0832" lon="5.90852">
        <ele>-1.79</ele>
        <time>2016-05-27T11:57:28Z</time>
      </trkpt>
      <trkpt lat="43.08285" lon="5.90822">
        <ele>-0.82</ele>
        <time>2016-05-27T11:57:59Z</time>
      </trkpt>
      <trkpt lat="43.08265" lon="5.90786">
        <ele>-0.34</ele>
        <time>2016-05-27T11:58:25Z</time>
      </trkpt>
      <trkpt lat="43.08242" lon="5.90735">
        <ele>0.14</ele>
        <time>2016-05-27T11:58:58Z</time>
      </trkpt>
      <trkpt lat="43.08222" lon="5.90687">
        <ele>1.1</ele>
        <time>2016-05-27T11:59:26Z</time>
      </trkpt>
      <trkpt lat="43.08202" lon="5.90648">
        <ele>0.62</ele>
        <time>2016-05-27T11:59:51Z</time>
      </trkpt>
      <trkpt lat="43.08182" lon="5.90646">
        <ele>-0.82</ele>
        <time>2016-05-27T12:00:10Z</time>
      </trkpt>
      <trkpt lat="43.08179" lon="5.90649">
        <ele>-0.82</ele>
        <time>2016-05-27T12:00:13Z</time>
      </trkpt>
      <trkpt lat="43.08182" lon="5.90665">
        <ele>-1.3</ele>
        <time>2016-05-27T12:00:28Z</time>
      </trkpt>
      <trkpt lat="43.08201" lon="5.90691">
        <ele>0.14</ele>
        <time>2016-05-27T12:00:54Z</time>
      </trkpt>
      <trkpt lat="43.08219" lon="5.90721">
        <ele>-0.82</ele>
        <time>2016-05-27T12:01:19Z</time>
      </trkpt>
      <trkpt lat="43.08243" lon="5.90764">
        <ele>-2.27</ele>
        <time>2016-05-27T12:01:53Z</time>
      </trkpt>
      <trkpt lat="43.08259" lon="5.9079">
        <ele>-1.3</ele>
        <time>2016-05-27T12:02:14Z</time>
      </trkpt>
      <trkpt lat="43.08282" lon="5.90827">
        <ele>-1.79</ele>
        <time>2016-05-27T12:02:44Z</time>
      </trkpt>
      <trkpt lat="43.08302" lon="5.90858">
        <ele>-1.3</ele>
        <time>2016-05-27T12:03:08Z</time>
      </trkpt>
      <trkpt lat="43.08325" lon="5.90888">
        <ele>-0.82</ele>
        <time>2016-05-27T12:03:35Z</time>
      </trkpt>
      <trkpt lat="43.08347" lon="5.90922">
        <ele>-0.82</ele>
        <time>2016-05-27T12:04:05Z</time>
      </trkpt>
      <trkpt lat="43.08365" lon="5.90957">
        <ele>-0.82</ele>
        <time>2016-05-27T12:04:34Z</time>
      </trkpt>
      <trkpt lat="43.08378" lon="5.90985">
        <ele>-1.3</ele>
        <time>2016-05-27T12:04:56Z</time>
      </trkpt>
      <trkpt lat="43.08389" lon="5.91011">
        <ele>-1.3</ele>
        <time>2016-05-27T12:05:15Z</time>
      </trkpt>
      <trkpt lat="43.08404" lon="5.91038">
        <ele>-1.79</ele>
        <time>2016-05-27T12:05:39Z</time>
      </trkpt>
      <trkpt lat="43.08419" lon="5.91067">
        <ele>-0.82</ele>
        <time>2016-05-27T12:06:04Z</time>
      </trkpt>
      <trkpt lat="43.08447" lon="5.91074">
        <ele>-0.34</ele>
        <time>2016-05-27T12:06:27Z</time>
      </trkpt>
      <trkpt lat="43.08473" lon="5.91067">
        <ele>-1.3</ele>
        <time>2016-05-27T12:06:48Z</time>
      </trkpt>
      <trkpt lat="43.08505" lon="5.9106">
        <ele>-1.79</ele>
        <time>2016-05-27T12:07:13Z</time>
      </trkpt>
      <trkpt lat="43.0854" lon="5.91055">
        <ele>-4.19</ele>
        <time>2016-05-27T12:07:39Z</time>
      </trkpt>
      <trkpt lat="43.08573" lon="5.91048">
        <ele>-3.71</ele>
        <time>2016-05-27T12:08:01Z</time>
      </trkpt>
      <trkpt lat="43.08606" lon="5.91033">
        <ele>-2.27</ele>
        <time>2016-05-27T12:08:22Z</time>
      </trkpt>
      <trkpt lat="43.08642" lon="5.91023">
        <ele>-1.3</ele>
        <time>2016-05-27T12:08:44Z</time>
      </trkpt>
      <trkpt lat="43.08674" lon="5.91005">
        <ele>-1.3</ele>
        <time>2016-05-27T12:09:04Z</time>
      </trkpt>
      <trkpt lat="43.08709" lon="5.91003">
        <ele>-2.27</ele>
        <time>2016-05-27T12:09:25Z</time>
      </trkpt>
      <trkpt lat="43.08739" lon="5.91009">
        <ele>-3.71</ele>
        <time>2016-05-27T12:09:45Z</time>
      </trkpt>
      <trkpt lat="43.08762" lon="5.91016">
        <ele>-2.75</ele>
        <time>2016-05-27T12:10:02Z</time>
      </trkpt>
      <trkpt lat="43.08779" lon="5.91034">
        <ele>-1.79</ele>
        <time>2016-05-27T12:10:20Z</time>
      </trkpt>
      <trkpt lat="43.08788" lon="5.91064">
        <ele>-2.27</ele>
        <time>2016-05-27T12:10:46Z</time>
      </trkpt>
      <trkpt lat="43.0879" lon="5.91089">
        <ele>-2.75</ele>
        <time>2016-05-27T12:11:11Z</time>
      </trkpt>
      <trkpt lat="43.08788" lon="5.91115">
        <ele>-1.79</ele>
        <time>2016-05-27T12:11:39Z</time>
      </trkpt>
      <trkpt lat="43.0878" lon="5.91138">
        <ele>0.14</ele>
        <time>2016-05-27T12:12:07Z</time>
      </trkpt>
      <trkpt lat="43.0878" lon="5.91151">
        <ele>0.62</ele>
        <time>2016-05-27T12:12:33Z</time>
      </trkpt>
      <trkpt lat="43.08774" lon="5.91148">
        <ele>-0.82</ele>
        <time>2016-05-27T12:12:53Z</time>
      </trkpt>
      <trkpt lat="43.08768" lon="5.91138">
        <ele>-0.82</ele>
        <time>2016-05-27T12:13:04Z</time>
      </trkpt>
      <trkpt lat="43.08748" lon="5.91116">
        <ele>-2.27</ele>
        <time>2016-05-27T12:13:28Z</time>
      </trkpt>
      <trkpt lat="43.08724" lon="5.91091">
        <ele>-2.27</ele>
        <time>2016-05-27T12:13:52Z</time>
      </trkpt>
      <trkpt lat="43.087" lon="5.91061">
        <ele>-1.3</ele>
        <time>2016-05-27T12:14:17Z</time>
      </trkpt>
      <trkpt lat="43.08677" lon="5.91022">
        <ele>-0.82</ele>
        <time>2016-05-27T12:14:43Z</time>
      </trkpt>
      <trkpt lat="43.08655" lon="5.90988">
        <ele>-1.79</ele>
        <time>2016-05-27T12:15:06Z</time>
      </trkpt>
      <trkpt lat="43.0863" lon="5.9095">
        <ele>-1.79</ele>
        <time>2016-05-27T12:15:33Z</time>
      </trkpt>
      <trkpt lat="43.086" lon="5.90918">
        <ele>-1.3</ele>
        <time>2016-05-27T12:16:00Z</time>
      </trkpt>
      <trkpt lat="43.08573" lon="5.90905">
        <ele>-2.27</ele>
        <time>2016-05-27T12:16:22Z</time>
      </trkpt>
      <trkpt lat="43.08553" lon="5.90904">
        <ele>-2.27</ele>
        <time>2016-05-27T12:16:39Z</time>
      </trkpt>
      <trkpt lat="43.0853" lon="5.90903">
        <ele>-2.75</ele>
        <time>2016-05-27T12:16:58Z</time>
      </trkpt>
      <trkpt lat="43.08505" lon="5.909">
        <ele>-2.75</ele>
        <time>2016-05-27T12:17:18Z</time>
      </trkpt>
      <trkpt lat="43.08489" lon="5.90899">
        <ele>-1.79</ele>
        <time>2016-05-27T12:17:31Z</time>
      </trkpt>
      <trkpt lat="43.08486" lon="5.909">
        <ele>-1.3</ele>
        <time>2016-05-27T12:17:34Z</time>
      </trkpt>
      <trkpt lat="43.08464" lon="5.90901">
        <ele>-2.27</ele>
        <time>2016-05-27T12:17:53Z</time>
      </trkpt>
      <trkpt lat="43.08451" lon="5.90905">
        <ele>-2.27</ele>
        <time>2016-05-27T12:18:05Z</time>
      </trkpt>
      <trkpt lat="43.08444" lon="5.90907">
        <ele>-2.75</ele>
        <time>2016-05-27T12:18:11Z</time>
      </trkpt>
      <trkpt lat="43.08424" lon="5.90914">
        <ele>-1.3</ele>
        <time>2016-05-27T12:18:29Z</time>
      </trkpt>
      <trkpt lat="43.08416" lon="5.90917">
        <ele>-0.82</ele>
        <time>2016-05-27T12:18:37Z</time>
      </trkpt>
      <trkpt lat="43.08402" lon="5.90929">
        <ele>-0.82</ele>
        <time>2016-05-27T12:18:51Z</time>
      </trkpt>
      <trkpt lat="43.08398" lon="5.90936">
        <ele>0.14</ele>
        <time>2016-05-27T12:18:56Z</time>
      </trkpt>
      <trkpt lat="43.08393" lon="5.90937">
        <ele>-0.34</ele>
        <time>2016-05-27T12:19:00Z</time>
      </trkpt>
      <trkpt lat="43.08391" lon="5.90936">
        <ele>-0.34</ele>
        <time>2016-05-27T12:19:02Z</time>
      </trkpt>
      <trkpt lat="43.08381" lon="5.90913">
        <ele>-2.75</ele>
        <time>2016-05-27T12:19:18Z</time>
      </trkpt>
      <trkpt lat="43.08372" lon="5.90902">
        <ele>-3.71</ele>
        <time>2016-05-27T12:19:27Z</time>
      </trkpt>
      <trkpt lat="43.08359" lon="5.90892">
        <ele>-6.11</ele>
        <time>2016-05-27T12:19:39Z</time>
      </trkpt>
      <trkpt lat="43.08339" lon="5.90879">
        <ele>-5.15</ele>
        <time>2016-05-27T12:19:57Z</time>
      </trkpt>
      <trkpt lat="43.08326" lon="5.90871">
        <ele>-5.63</ele>
        <time>2016-05-27T12:20:10Z</time>
      </trkpt>
      <trkpt lat="43.08313" lon="5.90867">
        <ele>-2.75</ele>
        <time>2016-05-27T12:20:20Z</time>
      </trkpt>
      <trkpt lat="43.08297" lon="5.90858">
        <ele>-2.75</ele>
        <time>2016-05-27T12:20:33Z</time>
      </trkpt>
      <trkpt lat="43.08282" lon="5.90842">
        <ele>-2.75</ele>
        <time>2016-05-27T12:20:46Z</time>
      </trkpt>
      <trkpt lat="43.08282" lon="5.90839">
        <ele>-2.27</ele>
        <time>2016-05-27T12:20:48Z</time>
      </trkpt>
      <trkpt lat="43.08277" lon="5.90829">
        <ele>-3.23</ele>
        <time>2016-05-27T12:20:54Z</time>
      </trkpt>
      <trkpt lat="43.08267" lon="5.90794">
        <ele>-2.27</ele>
        <time>2016-05-27T12:21:13Z</time>
      </trkpt>
      <trkpt lat="43.08254" lon="5.90753">
        <ele>-3.23</ele>
        <time>2016-05-27T12:21:35Z</time>
      </trkpt>
      <trkpt lat="43.08236" lon="5.9072">
        <ele>-1.79</ele>
        <time>2016-05-27T12:21:55Z</time>
      </trkpt>
      <trkpt lat="43.08231" lon="5.90696">
        <ele>-1.79</ele>
        <time>2016-05-27T12:22:07Z</time>
      </trkpt>
      <trkpt lat="43.08219" lon="5.9066">
        <ele>-2.27</ele>
        <time>2016-05-27T12:22:26Z</time>
      </trkpt>
      <trkpt lat="43.082" lon="5.90651">
        <ele>-2.75</ele>
        <time>2016-05-27T12:22:42Z</time>
      </trkpt>
      <trkpt lat="43.08199" lon="5.90651">
        <ele>-2.75</ele>
        <time>2016-05-27T12:22:43Z</time>
      </trkpt>
      <trkpt lat="43.08183" lon="5.9065">
        <ele>-2.27</ele>
        <time>2016-05-27T12:22:56Z</time>
      </trkpt>
      <trkpt lat="43.08168" lon="5.90651">
        <ele>0.14</ele>
        <time>2016-05-27T12:23:13Z</time>
      </trkpt>
      <trkpt lat="43.0816" lon="5.90657">
        <ele>-0.82</ele>
        <time>2016-05-27T12:23:24Z</time>
      </trkpt>
      <trkpt lat="43.08153" lon="5.90665">
        <ele>-0.82</ele>
        <time>2016-05-27T12:23:38Z</time>
      </trkpt>
      <trkpt lat="43.08149" lon="5.90664">
        <ele>-0.34</ele>
        <time>2016-05-27T12:23:43Z</time>
      </trkpt>
      <trkpt lat="43.08146" lon="5.90638">
        <ele>0.14</ele>
        <time>2016-05-27T12:24:00Z</time>
      </trkpt>
      <trkpt lat="43.08162" lon="5.90637">
        <ele>-0.82</ele>
        <time>2016-05-27T12:24:14Z</time>
      </trkpt>
      <trkpt lat="43.08163" lon="5.90638">
        <ele>-0.82</ele>
        <time>2016-05-27T12:24:15Z</time>
      </trkpt>
      <trkpt lat="43.08169" lon="5.90655">
        <ele>-2.75</ele>
        <time>2016-05-27T12:24:28Z</time>
      </trkpt>
      <trkpt lat="43.0817" lon="5.90658">
        <ele>-2.75</ele>
        <time>2016-05-27T12:24:31Z</time>
      </trkpt>
      <trkpt lat="43.08176" lon="5.90674">
        <ele>-1.3</ele>
        <time>2016-05-27T12:24:43Z</time>
      </trkpt>
      <trkpt lat="43.08186" lon="5.9069">
        <ele>-1.79</ele>
        <time>2016-05-27T12:24:57Z</time>
      </trkpt>
      <trkpt lat="43.08185" lon="5.90702">
        <ele>-3.23</ele>
        <time>2016-05-27T12:25:08Z</time>
      </trkpt>
      <trkpt lat="43.08176" lon="5.90697">
        <ele>-4.19</ele>
        <time>2016-05-27T12:25:19Z</time>
      </trkpt>
      <trkpt lat="43.0817" lon="5.90694">
        <ele>-3.23</ele>
        <time>2016-05-27T12:25:31Z</time>
      </trkpt>
      <trkpt lat="43.08154" lon="5.90682">
        <ele>-2.27</ele>
        <time>2016-05-27T12:25:50Z</time>
      </trkpt>
      <trkpt lat="43.08131" lon="5.90669">
        <ele>-3.23</ele>
        <time>2016-05-27T12:26:17Z</time>
      </trkpt>
      <trkpt lat="43.08121" lon="5.90656">
        <ele>-1.3</ele>
        <time>2016-05-27T12:26:31Z</time>
      </trkpt>
      <trkpt lat="43.08119" lon="5.9065">
        <ele>-1.3</ele>
        <time>2016-05-27T12:26:35Z</time>
      </trkpt>
      <trkpt lat="43.08132" lon="5.9063">
        <ele>2.54</ele>
        <time>2016-05-27T12:26:52Z</time>
      </trkpt>
      <trkpt lat="43.08151" lon="5.90651">
        <ele>3.5</ele>
        <time>2016-05-27T12:27:11Z</time>
      </trkpt>
      <trkpt lat="43.08164" lon="5.90675">
        <ele>2.54</ele>
        <time>2016-05-27T12:27:30Z</time>
      </trkpt>
      <trkpt lat="43.0817" lon="5.90688">
        <ele>1.1</ele>
        <time>2016-05-27T12:27:42Z</time>
      </trkpt>
      <trkpt lat="43.08165" lon="5.90698">
        <ele>1.1</ele>
        <time>2016-05-27T12:27:53Z</time>
      </trkpt>
      <trkpt lat="43.08159" lon="5.90687">
        <ele>1.1</ele>
        <time>2016-05-27T12:28:04Z</time>
      </trkpt>
      <trkpt lat="43.08148" lon="5.90651">
        <ele>1.1</ele>
        <time>2016-05-27T12:28:28Z</time>
      </trkpt>
      <trkpt lat="43.08133" lon="5.90649">
        <ele>0.14</ele>
        <time>2016-05-27T12:28:46Z</time>
      </trkpt>
      <trkpt lat="43.08132" lon="5.90658">
        <ele>-1.79</ele>
        <time>2016-05-27T12:29:01Z</time>
      </trkpt>
      <trkpt lat="43.08149" lon="5.90662">
        <ele>-2.27</ele>
        <time>2016-05-27T12:29:25Z</time>
      </trkpt>
      <trkpt lat="43.08154" lon="5.90688">
        <ele>-1.79</ele>
        <time>2016-05-27T12:29:38Z</time>
      </trkpt>
      <trkpt lat="43.08143" lon="5.90685">
        <ele>-1.3</ele>
        <time>2016-05-27T12:29:44Z</time>
      </trkpt>
      <trkpt lat="43.08112" lon="5.90663">
        <ele>-2.27</ele>
        <time>2016-05-27T12:30:02Z</time>
      </trkpt>
      <trkpt lat="43.08104" lon="5.90659">
        <ele>-2.27</ele>
        <time>2016-05-27T12:30:19Z</time>
      </trkpt>
      <trkpt lat="43.08086" lon="5.90704">
        <ele>3.02</ele>
        <time>2016-05-27T12:30:43Z</time>
      </trkpt>
      <trkpt lat="43.08067" lon="5.90723">
        <ele>3.5</ele>
        <time>2016-05-27T12:30:58Z</time>
      </trkpt>
      <trkpt lat="43.0804" lon="5.90697">
        <ele>2.06</ele>
        <time>2016-05-27T12:31:19Z</time>
      </trkpt>
      <trkpt lat="43.08014" lon="5.9069">
        <ele>-6.59</ele>
        <time>2016-05-27T12:31:36Z</time>
      </trkpt>
      <trkpt lat="43.08007" lon="5.90674">
        <ele>-4.19</ele>
        <time>2016-05-27T12:31:47Z</time>
      </trkpt>
      <trkpt lat="43.08009" lon="5.90666">
        <ele>-4.19</ele>
        <time>2016-05-27T12:31:59Z</time>
      </trkpt>
      <trkpt lat="43.08011" lon="5.90666">
        <ele>-3.23</ele>
        <time>2016-05-27T12:32:16Z</time>
      </trkpt>
      <trkpt lat="43.08012" lon="5.90668">
        <ele>-1.79</ele>
        <time>2016-05-27T12:32:28Z</time>
      </trkpt>
      <trkpt lat="43.08013" lon="5.90669">
        <ele>-1.79</ele>
        <time>2016-05-27T12:32:41Z</time>
      </trkpt>
      <trkpt lat="43.08014" lon="5.90671">
        <ele>-1.79</ele>
        <time>2016-05-27T12:32:52Z</time>
      </trkpt>
      <trkpt lat="43.08015" lon="5.90672">
        <ele>-1.79</ele>
        <time>2016-05-27T12:33:06Z</time>
      </trkpt>
      <trkpt lat="43.08015" lon="5.90671">
        <ele>-1.79</ele>
        <time>2016-05-27T12:33:25Z</time>
      </trkpt>
      <trkpt lat="43.08015" lon="5.90671">
        <ele>-0.82</ele>
        <time>2016-05-27T12:33:42Z</time>
      </trkpt>
      <trkpt lat="43.08015" lon="5.90671">
        <ele>-0.82</ele>
        <time>2016-05-27T12:33:58Z</time>
      </trkpt>
      <trkpt lat="43.08016" lon="5.90672">
        <ele>-1.3</ele>
        <time>2016-05-27T12:34:12Z</time>
      </trkpt>
      <trkpt lat="43.08016" lon="5.9067">
        <ele>-1.3</ele>
        <time>2016-05-27T12:34:26Z</time>
      </trkpt>
      <trkpt lat="43.08016" lon="5.90669">
        <ele>-0.34</ele>
        <time>2016-05-27T12:34:41Z</time>
      </trkpt>
      <trkpt lat="43.08015" lon="5.90667">
        <ele>-0.34</ele>
        <time>2016-05-27T12:34:46Z</time>
      </trkpt>
    </trkseg>
  </trk>
</gpx>